<?xml version="1.0" encoding="UTF-8" standalone="no" ?>
<gpx xmlns="http://www.topografix.com/GPX/1/1" xmlns:xsi="http://www.w3.org/2001/XMLSchema-instance" xsi:schemaLocation="http://www.topografix.com/GPX/1/1 http://www.topografix.com/GPX/1/1/gpx.xsd" version="1.1" creator="VisuGPX - https://www.visugpx.com">
  <metadata>
    <name>ski de rando oz en oisans</name>
    <desc><![CDATA[
]]></desc>
  </metadata>
  <trk>
    <name><![CDATA[ski de rando oz en oisans]]></name>
    <trkseg>
      <trkpt lat="45.12763" lon="6.07064">
        <ele>1282.8000488281</ele>
        <time>2012-04-28T05:14:56.000Z</time>
      </trkpt>
      <trkpt lat="45.12761" lon="6.07062">
        <ele>1282.8000488281</ele>
        <time>2012-04-28T05:14:58.000Z</time>
      </trkpt>
      <trkpt lat="45.12756" lon="6.07066">
        <ele>1283</ele>
        <time>2012-04-28T05:15:30.000Z</time>
      </trkpt>
      <trkpt lat="45.12754" lon="6.07072">
        <ele>1283.5999755859</ele>
        <time>2012-04-28T05:15:34.000Z</time>
      </trkpt>
      <trkpt lat="45.12751" lon="6.07071">
        <ele>1283.8000488281</ele>
        <time>2012-04-28T05:15:37.000Z</time>
      </trkpt>
      <trkpt lat="45.12749" lon="6.07073">
        <ele>1283.8000488281</ele>
        <time>2012-04-28T05:15:41.000Z</time>
      </trkpt>
      <trkpt lat="45.12746" lon="6.07077">
        <ele>1283.8000488281</ele>
        <time>2012-04-28T05:15:45.000Z</time>
      </trkpt>
      <trkpt lat="45.12745" lon="6.07079">
        <ele>1284</ele>
        <time>2012-04-28T05:15:48.000Z</time>
      </trkpt>
      <trkpt lat="45.12753" lon="6.07068">
        <ele>1284.1999511719</ele>
        <time>2012-04-28T05:15:55.000Z</time>
      </trkpt>
      <trkpt lat="45.12761" lon="6.07066">
        <ele>1281</ele>
        <time>2012-04-28T05:16:00.000Z</time>
      </trkpt>
      <trkpt lat="45.12758" lon="6.0707">
        <ele>1283.4000244141</ele>
        <time>2012-04-28T05:16:03.000Z</time>
      </trkpt>
      <trkpt lat="45.12749" lon="6.07072">
        <ele>1284</ele>
        <time>2012-04-28T05:16:09.000Z</time>
      </trkpt>
      <trkpt lat="45.12748" lon="6.07073">
        <ele>1284</ele>
        <time>2012-04-28T05:16:10.000Z</time>
      </trkpt>
      <trkpt lat="45.12738" lon="6.07078">
        <ele>1285.4000244141</ele>
        <time>2012-04-28T05:16:18.000Z</time>
      </trkpt>
      <trkpt lat="45.12734" lon="6.0708">
        <ele>1285.8000488281</ele>
        <time>2012-04-28T05:16:21.000Z</time>
      </trkpt>
      <trkpt lat="45.12728" lon="6.07083">
        <ele>1286.5999755859</ele>
        <time>2012-04-28T05:16:27.000Z</time>
      </trkpt>
      <trkpt lat="45.12723" lon="6.07083">
        <ele>1287.4000244141</ele>
        <time>2012-04-28T05:16:31.000Z</time>
      </trkpt>
      <trkpt lat="45.12715" lon="6.07082">
        <ele>1288.5999755859</ele>
        <time>2012-04-28T05:16:37.000Z</time>
      </trkpt>
      <trkpt lat="45.12706" lon="6.07083">
        <ele>1289.8000488281</ele>
        <time>2012-04-28T05:16:43.000Z</time>
      </trkpt>
      <trkpt lat="45.127" lon="6.07082">
        <ele>1291</ele>
        <time>2012-04-28T05:16:50.000Z</time>
      </trkpt>
      <trkpt lat="45.12698" lon="6.07081">
        <ele>1291.4000244141</ele>
        <time>2012-04-28T05:16:52.000Z</time>
      </trkpt>
      <trkpt lat="45.12696" lon="6.07081">
        <ele>1291.5999755859</ele>
        <time>2012-04-28T05:16:55.000Z</time>
      </trkpt>
      <trkpt lat="45.1269" lon="6.07085">
        <ele>1293</ele>
        <time>2012-04-28T05:17:01.000Z</time>
      </trkpt>
      <trkpt lat="45.12685" lon="6.07088">
        <ele>1293.8000488281</ele>
        <time>2012-04-28T05:17:05.000Z</time>
      </trkpt>
      <trkpt lat="45.12679" lon="6.07089">
        <ele>1294.8000488281</ele>
        <time>2012-04-28T05:17:10.000Z</time>
      </trkpt>
      <trkpt lat="45.12676" lon="6.0709">
        <ele>1295.4000244141</ele>
        <time>2012-04-28T05:17:13.000Z</time>
      </trkpt>
      <trkpt lat="45.12667" lon="6.07091">
        <ele>1297</ele>
        <time>2012-04-28T05:17:20.000Z</time>
      </trkpt>
      <trkpt lat="45.12663" lon="6.07095">
        <ele>1297.8000488281</ele>
        <time>2012-04-28T05:17:25.000Z</time>
      </trkpt>
      <trkpt lat="45.12657" lon="6.07095">
        <ele>1298.5999755859</ele>
        <time>2012-04-28T05:17:30.000Z</time>
      </trkpt>
      <trkpt lat="45.1265" lon="6.07097">
        <ele>1299.4000244141</ele>
        <time>2012-04-28T05:17:36.000Z</time>
      </trkpt>
      <trkpt lat="45.12646" lon="6.07099">
        <ele>1300.1999511719</ele>
        <time>2012-04-28T05:17:40.000Z</time>
      </trkpt>
      <trkpt lat="45.12639" lon="6.071">
        <ele>1301.4000244141</ele>
        <time>2012-04-28T05:17:47.000Z</time>
      </trkpt>
      <trkpt lat="45.12636" lon="6.071">
        <ele>1301.8000488281</ele>
        <time>2012-04-28T05:17:49.000Z</time>
      </trkpt>
      <trkpt lat="45.1263" lon="6.07101">
        <ele>1303.8000488281</ele>
        <time>2012-04-28T05:17:55.000Z</time>
      </trkpt>
      <trkpt lat="45.12622" lon="6.071">
        <ele>1304.8000488281</ele>
        <time>2012-04-28T05:18:02.000Z</time>
      </trkpt>
      <trkpt lat="45.12616" lon="6.07101">
        <ele>1306</ele>
        <time>2012-04-28T05:18:07.000Z</time>
      </trkpt>
      <trkpt lat="45.12612" lon="6.07102">
        <ele>1307.1999511719</ele>
        <time>2012-04-28T05:18:11.000Z</time>
      </trkpt>
      <trkpt lat="45.1261" lon="6.07103">
        <ele>1308</ele>
        <time>2012-04-28T05:18:14.000Z</time>
      </trkpt>
      <trkpt lat="45.12604" lon="6.07104">
        <ele>1309.8000488281</ele>
        <time>2012-04-28T05:18:20.000Z</time>
      </trkpt>
      <trkpt lat="45.12602" lon="6.07104">
        <ele>1310.4000244141</ele>
        <time>2012-04-28T05:18:22.000Z</time>
      </trkpt>
      <trkpt lat="45.12601" lon="6.07104">
        <ele>1311.1999511719</ele>
        <time>2012-04-28T05:18:24.000Z</time>
      </trkpt>
      <trkpt lat="45.12598" lon="6.07105">
        <ele>1311.8000488281</ele>
        <time>2012-04-28T05:18:27.000Z</time>
      </trkpt>
      <trkpt lat="45.12593" lon="6.07104">
        <ele>1313.4000244141</ele>
        <time>2012-04-28T05:18:32.000Z</time>
      </trkpt>
      <trkpt lat="45.12589" lon="6.07105">
        <ele>1314.8000488281</ele>
        <time>2012-04-28T05:18:37.000Z</time>
      </trkpt>
      <trkpt lat="45.12585" lon="6.07106">
        <ele>1316.1999511719</ele>
        <time>2012-04-28T05:18:42.000Z</time>
      </trkpt>
      <trkpt lat="45.12584" lon="6.07106">
        <ele>1316.5999755859</ele>
        <time>2012-04-28T05:18:43.000Z</time>
      </trkpt>
      <trkpt lat="45.1258" lon="6.07107">
        <ele>1317.8000488281</ele>
        <time>2012-04-28T05:18:48.000Z</time>
      </trkpt>
      <trkpt lat="45.12575" lon="6.07108">
        <ele>1319.1999511719</ele>
        <time>2012-04-28T05:18:53.000Z</time>
      </trkpt>
      <trkpt lat="45.12569" lon="6.0711">
        <ele>1321.1999511719</ele>
        <time>2012-04-28T05:19:00.000Z</time>
      </trkpt>
      <trkpt lat="45.12562" lon="6.07111">
        <ele>1323.4000244141</ele>
        <time>2012-04-28T05:19:08.000Z</time>
      </trkpt>
      <trkpt lat="45.1256" lon="6.07111">
        <ele>1324</ele>
        <time>2012-04-28T05:19:10.000Z</time>
      </trkpt>
      <trkpt lat="45.12558" lon="6.0711">
        <ele>1324.4000244141</ele>
        <time>2012-04-28T05:19:12.000Z</time>
      </trkpt>
      <trkpt lat="45.12555" lon="6.07111">
        <ele>1325.8000488281</ele>
        <time>2012-04-28T05:19:16.000Z</time>
      </trkpt>
      <trkpt lat="45.12552" lon="6.07112">
        <ele>1326.8000488281</ele>
        <time>2012-04-28T05:19:20.000Z</time>
      </trkpt>
      <trkpt lat="45.12547" lon="6.07114">
        <ele>1328.4000244141</ele>
        <time>2012-04-28T05:19:27.000Z</time>
      </trkpt>
      <trkpt lat="45.12543" lon="6.07116">
        <ele>1330</ele>
        <time>2012-04-28T05:19:32.000Z</time>
      </trkpt>
      <trkpt lat="45.12534" lon="6.07115">
        <ele>1332.5999755859</ele>
        <time>2012-04-28T05:19:42.000Z</time>
      </trkpt>
      <trkpt lat="45.12529" lon="6.07114">
        <ele>1334</ele>
        <time>2012-04-28T05:19:47.000Z</time>
      </trkpt>
      <trkpt lat="45.12526" lon="6.07114">
        <ele>1335.1999511719</ele>
        <time>2012-04-28T05:19:51.000Z</time>
      </trkpt>
      <trkpt lat="45.12521" lon="6.07113">
        <ele>1336.8000488281</ele>
        <time>2012-04-28T05:19:57.000Z</time>
      </trkpt>
      <trkpt lat="45.1252" lon="6.07114">
        <ele>1337.1999511719</ele>
        <time>2012-04-28T05:19:58.000Z</time>
      </trkpt>
      <trkpt lat="45.12514" lon="6.07119">
        <ele>1338.1999511719</ele>
        <time>2012-04-28T05:20:04.000Z</time>
      </trkpt>
      <trkpt lat="45.12509" lon="6.07122">
        <ele>1339.1999511719</ele>
        <time>2012-04-28T05:20:10.000Z</time>
      </trkpt>
      <trkpt lat="45.12502" lon="6.07125">
        <ele>1340</ele>
        <time>2012-04-28T05:20:17.000Z</time>
      </trkpt>
      <trkpt lat="45.12499" lon="6.07121">
        <ele>1340.4000244141</ele>
        <time>2012-04-28T05:20:21.000Z</time>
      </trkpt>
      <trkpt lat="45.12498" lon="6.07121">
        <ele>1341</ele>
        <time>2012-04-28T05:20:24.000Z</time>
      </trkpt>
      <trkpt lat="45.12493" lon="6.07115">
        <ele>1342.5999755859</ele>
        <time>2012-04-28T05:20:30.000Z</time>
      </trkpt>
      <trkpt lat="45.12486" lon="6.07108">
        <ele>1343</ele>
        <time>2012-04-28T05:20:37.000Z</time>
      </trkpt>
      <trkpt lat="45.12479" lon="6.07101">
        <ele>1343.8000488281</ele>
        <time>2012-04-28T05:20:44.000Z</time>
      </trkpt>
      <trkpt lat="45.12474" lon="6.07097">
        <ele>1344.1999511719</ele>
        <time>2012-04-28T05:20:49.000Z</time>
      </trkpt>
      <trkpt lat="45.12471" lon="6.07094">
        <ele>1345</ele>
        <time>2012-04-28T05:20:54.000Z</time>
      </trkpt>
      <trkpt lat="45.12468" lon="6.07091">
        <ele>1345.5999755859</ele>
        <time>2012-04-28T05:21:00.000Z</time>
      </trkpt>
      <trkpt lat="45.12464" lon="6.07093">
        <ele>1346.8000488281</ele>
        <time>2012-04-28T05:21:05.000Z</time>
      </trkpt>
      <trkpt lat="45.12459" lon="6.07092">
        <ele>1348</ele>
        <time>2012-04-28T05:21:10.000Z</time>
      </trkpt>
      <trkpt lat="45.12454" lon="6.07092">
        <ele>1348.5999755859</ele>
        <time>2012-04-28T05:21:14.000Z</time>
      </trkpt>
      <trkpt lat="45.12452" lon="6.07092">
        <ele>1349.1999511719</ele>
        <time>2012-04-28T05:21:16.000Z</time>
      </trkpt>
      <trkpt lat="45.12443" lon="6.07091">
        <ele>1351.1999511719</ele>
        <time>2012-04-28T05:21:24.000Z</time>
      </trkpt>
      <trkpt lat="45.1244" lon="6.07092">
        <ele>1352</ele>
        <time>2012-04-28T05:21:28.000Z</time>
      </trkpt>
      <trkpt lat="45.12436" lon="6.07093">
        <ele>1353</ele>
        <time>2012-04-28T05:21:32.000Z</time>
      </trkpt>
      <trkpt lat="45.12433" lon="6.07093">
        <ele>1354</ele>
        <time>2012-04-28T05:21:36.000Z</time>
      </trkpt>
      <trkpt lat="45.12427" lon="6.07094">
        <ele>1355.1999511719</ele>
        <time>2012-04-28T05:21:41.000Z</time>
      </trkpt>
      <trkpt lat="45.12425" lon="6.07094">
        <ele>1356.1999511719</ele>
        <time>2012-04-28T05:21:44.000Z</time>
      </trkpt>
      <trkpt lat="45.12419" lon="6.07094">
        <ele>1357.8000488281</ele>
        <time>2012-04-28T05:21:50.000Z</time>
      </trkpt>
      <trkpt lat="45.12413" lon="6.07094">
        <ele>1359.4000244141</ele>
        <time>2012-04-28T05:21:57.000Z</time>
      </trkpt>
      <trkpt lat="45.12406" lon="6.07095">
        <ele>1361.5999755859</ele>
        <time>2012-04-28T05:22:04.000Z</time>
      </trkpt>
      <trkpt lat="45.12403" lon="6.07096">
        <ele>1362.8000488281</ele>
        <time>2012-04-28T05:22:09.000Z</time>
      </trkpt>
      <trkpt lat="45.12399" lon="6.07098">
        <ele>1364.1999511719</ele>
        <time>2012-04-28T05:22:14.000Z</time>
      </trkpt>
      <trkpt lat="45.12394" lon="6.07099">
        <ele>1365.4000244141</ele>
        <time>2012-04-28T05:22:19.000Z</time>
      </trkpt>
      <trkpt lat="45.12391" lon="6.071">
        <ele>1366.8000488281</ele>
        <time>2012-04-28T05:22:24.000Z</time>
      </trkpt>
      <trkpt lat="45.12386" lon="6.07102">
        <ele>1368.8000488281</ele>
        <time>2012-04-28T05:22:30.000Z</time>
      </trkpt>
      <trkpt lat="45.12384" lon="6.07103">
        <ele>1369.5999755859</ele>
        <time>2012-04-28T05:22:34.000Z</time>
      </trkpt>
      <trkpt lat="45.1238" lon="6.07106">
        <ele>1371.4000244141</ele>
        <time>2012-04-28T05:22:40.000Z</time>
      </trkpt>
      <trkpt lat="45.12373" lon="6.07109">
        <ele>1374</ele>
        <time>2012-04-28T05:22:50.000Z</time>
      </trkpt>
      <trkpt lat="45.1237" lon="6.0711">
        <ele>1375</ele>
        <time>2012-04-28T05:22:54.000Z</time>
      </trkpt>
      <trkpt lat="45.12368" lon="6.07114">
        <ele>1376.5999755859</ele>
        <time>2012-04-28T05:22:59.000Z</time>
      </trkpt>
      <trkpt lat="45.12364" lon="6.07117">
        <ele>1378.1999511719</ele>
        <time>2012-04-28T05:23:06.000Z</time>
      </trkpt>
      <trkpt lat="45.12362" lon="6.07118">
        <ele>1378.8000488281</ele>
        <time>2012-04-28T05:23:09.000Z</time>
      </trkpt>
      <trkpt lat="45.12358" lon="6.07122">
        <ele>1380.5999755859</ele>
        <time>2012-04-28T05:23:15.000Z</time>
      </trkpt>
      <trkpt lat="45.12355" lon="6.07124">
        <ele>1381.8000488281</ele>
        <time>2012-04-28T05:23:20.000Z</time>
      </trkpt>
      <trkpt lat="45.12352" lon="6.07127">
        <ele>1383</ele>
        <time>2012-04-28T05:23:25.000Z</time>
      </trkpt>
      <trkpt lat="45.12347" lon="6.0713">
        <ele>1385</ele>
        <time>2012-04-28T05:23:32.000Z</time>
      </trkpt>
      <trkpt lat="45.12344" lon="6.07133">
        <ele>1386.4000244141</ele>
        <time>2012-04-28T05:23:38.000Z</time>
      </trkpt>
      <trkpt lat="45.12342" lon="6.07137">
        <ele>1387.5999755859</ele>
        <time>2012-04-28T05:23:42.000Z</time>
      </trkpt>
      <trkpt lat="45.12339" lon="6.07144">
        <ele>1389.8000488281</ele>
        <time>2012-04-28T05:23:51.000Z</time>
      </trkpt>
      <trkpt lat="45.12336" lon="6.07147">
        <ele>1391.1999511719</ele>
        <time>2012-04-28T05:23:55.000Z</time>
      </trkpt>
      <trkpt lat="45.12333" lon="6.0715">
        <ele>1392.5999755859</ele>
        <time>2012-04-28T05:24:00.000Z</time>
      </trkpt>
      <trkpt lat="45.12331" lon="6.07152">
        <ele>1393.1999511719</ele>
        <time>2012-04-28T05:24:03.000Z</time>
      </trkpt>
      <trkpt lat="45.12331" lon="6.07154">
        <ele>1394</ele>
        <time>2012-04-28T05:24:05.000Z</time>
      </trkpt>
      <trkpt lat="45.12327" lon="6.07157">
        <ele>1395.1999511719</ele>
        <time>2012-04-28T05:24:11.000Z</time>
      </trkpt>
      <trkpt lat="45.12322" lon="6.07164">
        <ele>1398</ele>
        <time>2012-04-28T05:24:21.000Z</time>
      </trkpt>
      <trkpt lat="45.12319" lon="6.07167">
        <ele>1399.4000244141</ele>
        <time>2012-04-28T05:24:27.000Z</time>
      </trkpt>
      <trkpt lat="45.12317" lon="6.07171">
        <ele>1400.5999755859</ele>
        <time>2012-04-28T05:24:32.000Z</time>
      </trkpt>
      <trkpt lat="45.12315" lon="6.07174">
        <ele>1401.8000488281</ele>
        <time>2012-04-28T05:24:36.000Z</time>
      </trkpt>
      <trkpt lat="45.12313" lon="6.07177">
        <ele>1403</ele>
        <time>2012-04-28T05:24:41.000Z</time>
      </trkpt>
      <trkpt lat="45.12311" lon="6.07182">
        <ele>1404.4000244141</ele>
        <time>2012-04-28T05:24:46.000Z</time>
      </trkpt>
      <trkpt lat="45.12309" lon="6.07184">
        <ele>1405.1999511719</ele>
        <time>2012-04-28T05:24:49.000Z</time>
      </trkpt>
      <trkpt lat="45.12308" lon="6.0719">
        <ele>1406.5999755859</ele>
        <time>2012-04-28T05:24:54.000Z</time>
      </trkpt>
      <trkpt lat="45.12307" lon="6.07193">
        <ele>1407.4000244141</ele>
        <time>2012-04-28T05:24:58.000Z</time>
      </trkpt>
      <trkpt lat="45.12304" lon="6.07195">
        <ele>1408.8000488281</ele>
        <time>2012-04-28T05:25:02.000Z</time>
      </trkpt>
      <trkpt lat="45.12301" lon="6.07198">
        <ele>1410.5999755859</ele>
        <time>2012-04-28T05:25:08.000Z</time>
      </trkpt>
      <trkpt lat="45.123" lon="6.07205">
        <ele>1411.5999755859</ele>
        <time>2012-04-28T05:25:12.000Z</time>
      </trkpt>
      <trkpt lat="45.12299" lon="6.07206">
        <ele>1413.4000244141</ele>
        <time>2012-04-28T05:25:15.000Z</time>
      </trkpt>
      <trkpt lat="45.12298" lon="6.07213">
        <ele>1413.8000488281</ele>
        <time>2012-04-28T05:25:21.000Z</time>
      </trkpt>
      <trkpt lat="45.12298" lon="6.07214">
        <ele>1414</ele>
        <time>2012-04-28T05:25:22.000Z</time>
      </trkpt>
      <trkpt lat="45.12297" lon="6.07223">
        <ele>1415.8000488281</ele>
        <time>2012-04-28T05:25:30.000Z</time>
      </trkpt>
      <trkpt lat="45.12297" lon="6.07228">
        <ele>1417.4000244141</ele>
        <time>2012-04-28T05:25:34.000Z</time>
      </trkpt>
      <trkpt lat="45.12296" lon="6.07232">
        <ele>1418.4000244141</ele>
        <time>2012-04-28T05:25:38.000Z</time>
      </trkpt>
      <trkpt lat="45.12297" lon="6.0724">
        <ele>1420.5999755859</ele>
        <time>2012-04-28T05:25:45.000Z</time>
      </trkpt>
      <trkpt lat="45.12296" lon="6.07243">
        <ele>1421.5999755859</ele>
        <time>2012-04-28T05:25:49.000Z</time>
      </trkpt>
      <trkpt lat="45.12295" lon="6.07245">
        <ele>1422.5999755859</ele>
        <time>2012-04-28T05:25:53.000Z</time>
      </trkpt>
      <trkpt lat="45.12296" lon="6.07251">
        <ele>1424</ele>
        <time>2012-04-28T05:25:59.000Z</time>
      </trkpt>
      <trkpt lat="45.12296" lon="6.07255">
        <ele>1425</ele>
        <time>2012-04-28T05:26:03.000Z</time>
      </trkpt>
      <trkpt lat="45.12297" lon="6.07257">
        <ele>1425.5999755859</ele>
        <time>2012-04-28T05:26:06.000Z</time>
      </trkpt>
      <trkpt lat="45.123" lon="6.07263">
        <ele>1427</ele>
        <time>2012-04-28T05:26:12.000Z</time>
      </trkpt>
      <trkpt lat="45.12301" lon="6.07266">
        <ele>1428.1999511719</ele>
        <time>2012-04-28T05:26:17.000Z</time>
      </trkpt>
      <trkpt lat="45.12301" lon="6.07272">
        <ele>1429.1999511719</ele>
        <time>2012-04-28T05:26:21.000Z</time>
      </trkpt>
      <trkpt lat="45.12302" lon="6.07278">
        <ele>1430.8000488281</ele>
        <time>2012-04-28T05:26:26.000Z</time>
      </trkpt>
      <trkpt lat="45.12303" lon="6.07279">
        <ele>1430.8000488281</ele>
        <time>2012-04-28T05:26:27.000Z</time>
      </trkpt>
      <trkpt lat="45.12304" lon="6.07286">
        <ele>1432.1999511719</ele>
        <time>2012-04-28T05:26:33.000Z</time>
      </trkpt>
      <trkpt lat="45.12307" lon="6.07292">
        <ele>1433</ele>
        <time>2012-04-28T05:26:37.000Z</time>
      </trkpt>
      <trkpt lat="45.12311" lon="6.073">
        <ele>1433.4000244141</ele>
        <time>2012-04-28T05:26:42.000Z</time>
      </trkpt>
      <trkpt lat="45.12315" lon="6.07307">
        <ele>1434</ele>
        <time>2012-04-28T05:26:46.000Z</time>
      </trkpt>
      <trkpt lat="45.12316" lon="6.07313">
        <ele>1435</ele>
        <time>2012-04-28T05:26:50.000Z</time>
      </trkpt>
      <trkpt lat="45.1232" lon="6.07316">
        <ele>1435.8000488281</ele>
        <time>2012-04-28T05:26:55.000Z</time>
      </trkpt>
      <trkpt lat="45.12324" lon="6.07321">
        <ele>1437</ele>
        <time>2012-04-28T05:27:00.000Z</time>
      </trkpt>
      <trkpt lat="45.12328" lon="6.07325">
        <ele>1438</ele>
        <time>2012-04-28T05:27:04.000Z</time>
      </trkpt>
      <trkpt lat="45.12329" lon="6.07331">
        <ele>1439</ele>
        <time>2012-04-28T05:27:09.000Z</time>
      </trkpt>
      <trkpt lat="45.1233" lon="6.07336">
        <ele>1439.8000488281</ele>
        <time>2012-04-28T05:27:13.000Z</time>
      </trkpt>
      <trkpt lat="45.12331" lon="6.07342">
        <ele>1441.5999755859</ele>
        <time>2012-04-28T05:27:19.000Z</time>
      </trkpt>
      <trkpt lat="45.12332" lon="6.07347">
        <ele>1443</ele>
        <time>2012-04-28T05:27:24.000Z</time>
      </trkpt>
      <trkpt lat="45.12333" lon="6.07348">
        <ele>1443.1999511719</ele>
        <time>2012-04-28T05:27:25.000Z</time>
      </trkpt>
      <trkpt lat="45.12335" lon="6.07355">
        <ele>1444.4000244141</ele>
        <time>2012-04-28T05:27:31.000Z</time>
      </trkpt>
      <trkpt lat="45.12336" lon="6.07357">
        <ele>1445</ele>
        <time>2012-04-28T05:27:33.000Z</time>
      </trkpt>
      <trkpt lat="45.12336" lon="6.07363">
        <ele>1446</ele>
        <time>2012-04-28T05:27:37.000Z</time>
      </trkpt>
      <trkpt lat="45.1234" lon="6.0737">
        <ele>1447.8000488281</ele>
        <time>2012-04-28T05:27:43.000Z</time>
      </trkpt>
      <trkpt lat="45.12339" lon="6.07375">
        <ele>1448.8000488281</ele>
        <time>2012-04-28T05:27:48.000Z</time>
      </trkpt>
      <trkpt lat="45.12339" lon="6.07379">
        <ele>1449.8000488281</ele>
        <time>2012-04-28T05:27:52.000Z</time>
      </trkpt>
      <trkpt lat="45.12339" lon="6.0738">
        <ele>1450.1999511719</ele>
        <time>2012-04-28T05:27:53.000Z</time>
      </trkpt>
      <trkpt lat="45.12345" lon="6.07384">
        <ele>1451.4000244141</ele>
        <time>2012-04-28T05:27:58.000Z</time>
      </trkpt>
      <trkpt lat="45.12348" lon="6.07388">
        <ele>1452</ele>
        <time>2012-04-28T05:28:01.000Z</time>
      </trkpt>
      <trkpt lat="45.12351" lon="6.07393">
        <ele>1453</ele>
        <time>2012-04-28T05:28:06.000Z</time>
      </trkpt>
      <trkpt lat="45.12354" lon="6.07399">
        <ele>1454.1999511719</ele>
        <time>2012-04-28T05:28:11.000Z</time>
      </trkpt>
      <trkpt lat="45.12357" lon="6.07406">
        <ele>1455.8000488281</ele>
        <time>2012-04-28T05:28:17.000Z</time>
      </trkpt>
      <trkpt lat="45.12358" lon="6.07407">
        <ele>1456</ele>
        <time>2012-04-28T05:28:18.000Z</time>
      </trkpt>
      <trkpt lat="45.12364" lon="6.07416">
        <ele>1457</ele>
        <time>2012-04-28T05:28:23.000Z</time>
      </trkpt>
      <trkpt lat="45.12371" lon="6.07424">
        <ele>1457.5999755859</ele>
        <time>2012-04-28T05:28:30.000Z</time>
      </trkpt>
      <trkpt lat="45.12379" lon="6.07432">
        <ele>1458</ele>
        <time>2012-04-28T05:28:36.000Z</time>
      </trkpt>
      <trkpt lat="45.12384" lon="6.07436">
        <ele>1458.1999511719</ele>
        <time>2012-04-28T05:28:40.000Z</time>
      </trkpt>
      <trkpt lat="45.12388" lon="6.07438">
        <ele>1458.4000244141</ele>
        <time>2012-04-28T05:28:45.000Z</time>
      </trkpt>
      <trkpt lat="45.12394" lon="6.07443">
        <ele>1459</ele>
        <time>2012-04-28T05:28:50.000Z</time>
      </trkpt>
      <trkpt lat="45.124" lon="6.07448">
        <ele>1459.5999755859</ele>
        <time>2012-04-28T05:28:55.000Z</time>
      </trkpt>
      <trkpt lat="45.12403" lon="6.07453">
        <ele>1460.1999511719</ele>
        <time>2012-04-28T05:29:00.000Z</time>
      </trkpt>
      <trkpt lat="45.12407" lon="6.07461">
        <ele>1460.8000488281</ele>
        <time>2012-04-28T05:29:05.000Z</time>
      </trkpt>
      <trkpt lat="45.12407" lon="6.07463">
        <ele>1460.8000488281</ele>
        <time>2012-04-28T05:29:07.000Z</time>
      </trkpt>
      <trkpt lat="45.12411" lon="6.07466">
        <ele>1461.8000488281</ele>
        <time>2012-04-28T05:29:15.000Z</time>
      </trkpt>
      <trkpt lat="45.12415" lon="6.0747">
        <ele>1462.5999755859</ele>
        <time>2012-04-28T05:29:19.000Z</time>
      </trkpt>
      <trkpt lat="45.12416" lon="6.07473">
        <ele>1463.1999511719</ele>
        <time>2012-04-28T05:29:23.000Z</time>
      </trkpt>
      <trkpt lat="45.12421" lon="6.07481">
        <ele>1465.1999511719</ele>
        <time>2012-04-28T05:29:31.000Z</time>
      </trkpt>
      <trkpt lat="45.12425" lon="6.07485">
        <ele>1466</ele>
        <time>2012-04-28T05:29:35.000Z</time>
      </trkpt>
      <trkpt lat="45.12428" lon="6.0749">
        <ele>1466.8000488281</ele>
        <time>2012-04-28T05:29:39.000Z</time>
      </trkpt>
      <trkpt lat="45.1243" lon="6.07493">
        <ele>1467.8000488281</ele>
        <time>2012-04-28T05:29:43.000Z</time>
      </trkpt>
      <trkpt lat="45.12432" lon="6.07497">
        <ele>1469</ele>
        <time>2012-04-28T05:29:48.000Z</time>
      </trkpt>
      <trkpt lat="45.12436" lon="6.07502">
        <ele>1470.5999755859</ele>
        <time>2012-04-28T05:29:55.000Z</time>
      </trkpt>
      <trkpt lat="45.12436" lon="6.07502">
        <ele>1471.1999511719</ele>
        <time>2012-04-28T05:29:57.000Z</time>
      </trkpt>
      <trkpt lat="45.12438" lon="6.07508">
        <ele>1472.5999755859</ele>
        <time>2012-04-28T05:30:04.000Z</time>
      </trkpt>
      <trkpt lat="45.12439" lon="6.07512">
        <ele>1473.5999755859</ele>
        <time>2012-04-28T05:30:08.000Z</time>
      </trkpt>
      <trkpt lat="45.12442" lon="6.07518">
        <ele>1475</ele>
        <time>2012-04-28T05:30:14.000Z</time>
      </trkpt>
      <trkpt lat="45.12443" lon="6.07519">
        <ele>1475.1999511719</ele>
        <time>2012-04-28T05:30:15.000Z</time>
      </trkpt>
      <trkpt lat="45.12443" lon="6.07527">
        <ele>1477</ele>
        <time>2012-04-28T05:30:20.000Z</time>
      </trkpt>
      <trkpt lat="45.12445" lon="6.07531">
        <ele>1477.5999755859</ele>
        <time>2012-04-28T05:30:23.000Z</time>
      </trkpt>
      <trkpt lat="45.12447" lon="6.07536">
        <ele>1479</ele>
        <time>2012-04-28T05:30:28.000Z</time>
      </trkpt>
      <trkpt lat="45.1245" lon="6.07539">
        <ele>1480.1999511719</ele>
        <time>2012-04-28T05:30:32.000Z</time>
      </trkpt>
      <trkpt lat="45.12451" lon="6.07542">
        <ele>1480.8000488281</ele>
        <time>2012-04-28T05:30:36.000Z</time>
      </trkpt>
      <trkpt lat="45.12453" lon="6.07547">
        <ele>1481.5999755859</ele>
        <time>2012-04-28T05:30:40.000Z</time>
      </trkpt>
      <trkpt lat="45.12458" lon="6.0755">
        <ele>1483</ele>
        <time>2012-04-28T05:30:45.000Z</time>
      </trkpt>
      <trkpt lat="45.12459" lon="6.07552">
        <ele>1483.8000488281</ele>
        <time>2012-04-28T05:30:47.000Z</time>
      </trkpt>
      <trkpt lat="45.1246" lon="6.07557">
        <ele>1485.1999511719</ele>
        <time>2012-04-28T05:30:52.000Z</time>
      </trkpt>
      <trkpt lat="45.12461" lon="6.07564">
        <ele>1486.1999511719</ele>
        <time>2012-04-28T05:30:57.000Z</time>
      </trkpt>
      <trkpt lat="45.12463" lon="6.07568">
        <ele>1487.1999511719</ele>
        <time>2012-04-28T05:31:01.000Z</time>
      </trkpt>
      <trkpt lat="45.12466" lon="6.07574">
        <ele>1488.8000488281</ele>
        <time>2012-04-28T05:31:06.000Z</time>
      </trkpt>
      <trkpt lat="45.12469" lon="6.07577">
        <ele>1490</ele>
        <time>2012-04-28T05:31:10.000Z</time>
      </trkpt>
      <trkpt lat="45.1247" lon="6.0758">
        <ele>1491.1999511719</ele>
        <time>2012-04-28T05:31:14.000Z</time>
      </trkpt>
      <trkpt lat="45.12472" lon="6.07583">
        <ele>1491.5999755859</ele>
        <time>2012-04-28T05:31:17.000Z</time>
      </trkpt>
      <trkpt lat="45.12476" lon="6.07587">
        <ele>1492.8000488281</ele>
        <time>2012-04-28T05:31:22.000Z</time>
      </trkpt>
      <trkpt lat="45.12479" lon="6.0759">
        <ele>1493.5999755859</ele>
        <time>2012-04-28T05:31:25.000Z</time>
      </trkpt>
      <trkpt lat="45.12484" lon="6.07594">
        <ele>1494.5999755859</ele>
        <time>2012-04-28T05:31:31.000Z</time>
      </trkpt>
      <trkpt lat="45.12488" lon="6.07597">
        <ele>1495.1999511719</ele>
        <time>2012-04-28T05:31:35.000Z</time>
      </trkpt>
      <trkpt lat="45.12491" lon="6.07602">
        <ele>1496.1999511719</ele>
        <time>2012-04-28T05:31:40.000Z</time>
      </trkpt>
      <trkpt lat="45.12497" lon="6.07609">
        <ele>1497.5999755859</ele>
        <time>2012-04-28T05:31:47.000Z</time>
      </trkpt>
      <trkpt lat="45.12502" lon="6.07613">
        <ele>1498.8000488281</ele>
        <time>2012-04-28T05:31:53.000Z</time>
      </trkpt>
      <trkpt lat="45.12506" lon="6.07617">
        <ele>1499.5999755859</ele>
        <time>2012-04-28T05:31:57.000Z</time>
      </trkpt>
      <trkpt lat="45.1251" lon="6.07622">
        <ele>1500.5999755859</ele>
        <time>2012-04-28T05:32:02.000Z</time>
      </trkpt>
      <trkpt lat="45.12514" lon="6.07627">
        <ele>1501.4000244141</ele>
        <time>2012-04-28T05:32:06.000Z</time>
      </trkpt>
      <trkpt lat="45.12517" lon="6.07633">
        <ele>1502.4000244141</ele>
        <time>2012-04-28T05:32:12.000Z</time>
      </trkpt>
      <trkpt lat="45.1252" lon="6.07641">
        <ele>1503.4000244141</ele>
        <time>2012-04-28T05:32:18.000Z</time>
      </trkpt>
      <trkpt lat="45.12521" lon="6.07644">
        <ele>1503.5999755859</ele>
        <time>2012-04-28T05:32:20.000Z</time>
      </trkpt>
      <trkpt lat="45.12523" lon="6.07652">
        <ele>1504.4000244141</ele>
        <time>2012-04-28T05:32:26.000Z</time>
      </trkpt>
      <trkpt lat="45.12525" lon="6.07656">
        <ele>1505.1999511719</ele>
        <time>2012-04-28T05:32:29.000Z</time>
      </trkpt>
      <trkpt lat="45.12529" lon="6.07663">
        <ele>1506.4000244141</ele>
        <time>2012-04-28T05:32:35.000Z</time>
      </trkpt>
      <trkpt lat="45.12533" lon="6.07668">
        <ele>1507.1999511719</ele>
        <time>2012-04-28T05:32:40.000Z</time>
      </trkpt>
      <trkpt lat="45.12536" lon="6.07675">
        <ele>1507.8000488281</ele>
        <time>2012-04-28T05:32:45.000Z</time>
      </trkpt>
      <trkpt lat="45.12537" lon="6.0768">
        <ele>1508.4000244141</ele>
        <time>2012-04-28T05:32:48.000Z</time>
      </trkpt>
      <trkpt lat="45.12542" lon="6.07686">
        <ele>1509.4000244141</ele>
        <time>2012-04-28T05:32:54.000Z</time>
      </trkpt>
      <trkpt lat="45.12545" lon="6.07691">
        <ele>1510.1999511719</ele>
        <time>2012-04-28T05:32:58.000Z</time>
      </trkpt>
      <trkpt lat="45.12547" lon="6.07694">
        <ele>1511</ele>
        <time>2012-04-28T05:33:00.000Z</time>
      </trkpt>
      <trkpt lat="45.1255" lon="6.07699">
        <ele>1512</ele>
        <time>2012-04-28T05:33:06.000Z</time>
      </trkpt>
      <trkpt lat="45.12552" lon="6.07702">
        <ele>1512.4000244141</ele>
        <time>2012-04-28T05:33:09.000Z</time>
      </trkpt>
      <trkpt lat="45.12553" lon="6.07708">
        <ele>1513</ele>
        <time>2012-04-28T05:33:13.000Z</time>
      </trkpt>
      <trkpt lat="45.12556" lon="6.07713">
        <ele>1515</ele>
        <time>2012-04-28T05:33:20.000Z</time>
      </trkpt>
      <trkpt lat="45.12559" lon="6.07715">
        <ele>1515.8000488281</ele>
        <time>2012-04-28T05:33:24.000Z</time>
      </trkpt>
      <trkpt lat="45.12563" lon="6.07718">
        <ele>1517.1999511719</ele>
        <time>2012-04-28T05:33:28.000Z</time>
      </trkpt>
      <trkpt lat="45.12567" lon="6.07721">
        <ele>1518.4000244141</ele>
        <time>2012-04-28T05:33:33.000Z</time>
      </trkpt>
      <trkpt lat="45.12571" lon="6.07724">
        <ele>1519.1999511719</ele>
        <time>2012-04-28T05:33:37.000Z</time>
      </trkpt>
      <trkpt lat="45.12573" lon="6.07726">
        <ele>1519.8000488281</ele>
        <time>2012-04-28T05:33:40.000Z</time>
      </trkpt>
      <trkpt lat="45.12575" lon="6.07727">
        <ele>1520.5999755859</ele>
        <time>2012-04-28T05:33:43.000Z</time>
      </trkpt>
      <trkpt lat="45.12578" lon="6.07732">
        <ele>1522.1999511719</ele>
        <time>2012-04-28T05:33:49.000Z</time>
      </trkpt>
      <trkpt lat="45.12581" lon="6.07736">
        <ele>1523.5999755859</ele>
        <time>2012-04-28T05:33:53.000Z</time>
      </trkpt>
      <trkpt lat="45.12585" lon="6.07742">
        <ele>1525.1999511719</ele>
        <time>2012-04-28T05:34:00.000Z</time>
      </trkpt>
      <trkpt lat="45.12588" lon="6.07745">
        <ele>1526.4000244141</ele>
        <time>2012-04-28T05:34:04.000Z</time>
      </trkpt>
      <trkpt lat="45.12591" lon="6.07754">
        <ele>1528</ele>
        <time>2012-04-28T05:34:11.000Z</time>
      </trkpt>
      <trkpt lat="45.12593" lon="6.07758">
        <ele>1529.8000488281</ele>
        <time>2012-04-28T05:34:17.000Z</time>
      </trkpt>
      <trkpt lat="45.12596" lon="6.07768">
        <ele>1532.4000244141</ele>
        <time>2012-04-28T05:34:27.000Z</time>
      </trkpt>
      <trkpt lat="45.12598" lon="6.07772">
        <ele>1533.4000244141</ele>
        <time>2012-04-28T05:34:31.000Z</time>
      </trkpt>
      <trkpt lat="45.12602" lon="6.07776">
        <ele>1534.1999511719</ele>
        <time>2012-04-28T05:34:35.000Z</time>
      </trkpt>
      <trkpt lat="45.12603" lon="6.0778">
        <ele>1534.8000488281</ele>
        <time>2012-04-28T05:34:38.000Z</time>
      </trkpt>
      <trkpt lat="45.12605" lon="6.07785">
        <ele>1536</ele>
        <time>2012-04-28T05:34:42.000Z</time>
      </trkpt>
      <trkpt lat="45.12606" lon="6.07788">
        <ele>1536.1999511719</ele>
        <time>2012-04-28T05:34:46.000Z</time>
      </trkpt>
      <trkpt lat="45.12605" lon="6.07794">
        <ele>1537.1999511719</ele>
        <time>2012-04-28T05:34:50.000Z</time>
      </trkpt>
      <trkpt lat="45.12607" lon="6.07802">
        <ele>1538.4000244141</ele>
        <time>2012-04-28T05:34:57.000Z</time>
      </trkpt>
      <trkpt lat="45.12607" lon="6.07808">
        <ele>1539.4000244141</ele>
        <time>2012-04-28T05:35:02.000Z</time>
      </trkpt>
      <trkpt lat="45.1261" lon="6.07814">
        <ele>1540.1999511719</ele>
        <time>2012-04-28T05:35:09.000Z</time>
      </trkpt>
      <trkpt lat="45.12615" lon="6.07821">
        <ele>1541.1999511719</ele>
        <time>2012-04-28T05:35:15.000Z</time>
      </trkpt>
      <trkpt lat="45.12617" lon="6.07824">
        <ele>1542</ele>
        <time>2012-04-28T05:35:19.000Z</time>
      </trkpt>
      <trkpt lat="45.12619" lon="6.07827">
        <ele>1543.4000244141</ele>
        <time>2012-04-28T05:35:24.000Z</time>
      </trkpt>
      <trkpt lat="45.12618" lon="6.0783">
        <ele>1544.4000244141</ele>
        <time>2012-04-28T05:35:28.000Z</time>
      </trkpt>
      <trkpt lat="45.12619" lon="6.07831">
        <ele>1544.5999755859</ele>
        <time>2012-04-28T05:35:29.000Z</time>
      </trkpt>
      <trkpt lat="45.12621" lon="6.07835">
        <ele>1545.5999755859</ele>
        <time>2012-04-28T05:35:34.000Z</time>
      </trkpt>
      <trkpt lat="45.12621" lon="6.07842">
        <ele>1547.4000244141</ele>
        <time>2012-04-28T05:35:38.000Z</time>
      </trkpt>
      <trkpt lat="45.12622" lon="6.07842">
        <ele>1547.5999755859</ele>
        <time>2012-04-28T05:35:39.000Z</time>
      </trkpt>
      <trkpt lat="45.12626" lon="6.0785">
        <ele>1549.5999755859</ele>
        <time>2012-04-28T05:35:46.000Z</time>
      </trkpt>
      <trkpt lat="45.12627" lon="6.07854">
        <ele>1550.5999755859</ele>
        <time>2012-04-28T05:35:50.000Z</time>
      </trkpt>
      <trkpt lat="45.12628" lon="6.07856">
        <ele>1551</ele>
        <time>2012-04-28T05:35:51.000Z</time>
      </trkpt>
      <trkpt lat="45.12631" lon="6.07863">
        <ele>1552.5999755859</ele>
        <time>2012-04-28T05:35:58.000Z</time>
      </trkpt>
      <trkpt lat="45.12634" lon="6.07871">
        <ele>1554.4000244141</ele>
        <time>2012-04-28T05:36:05.000Z</time>
      </trkpt>
      <trkpt lat="45.12637" lon="6.07874">
        <ele>1555.4000244141</ele>
        <time>2012-04-28T05:36:09.000Z</time>
      </trkpt>
      <trkpt lat="45.12639" lon="6.07878">
        <ele>1556.4000244141</ele>
        <time>2012-04-28T05:36:14.000Z</time>
      </trkpt>
      <trkpt lat="45.1264" lon="6.07885">
        <ele>1558.1999511719</ele>
        <time>2012-04-28T05:36:19.000Z</time>
      </trkpt>
      <trkpt lat="45.12641" lon="6.0789">
        <ele>1558.8000488281</ele>
        <time>2012-04-28T05:36:23.000Z</time>
      </trkpt>
      <trkpt lat="45.12642" lon="6.07891">
        <ele>1559.1999511719</ele>
        <time>2012-04-28T05:36:24.000Z</time>
      </trkpt>
      <trkpt lat="45.12646" lon="6.07899">
        <ele>1560.8000488281</ele>
        <time>2012-04-28T05:36:32.000Z</time>
      </trkpt>
      <trkpt lat="45.12646" lon="6.079">
        <ele>1561</ele>
        <time>2012-04-28T05:36:33.000Z</time>
      </trkpt>
      <trkpt lat="45.12646" lon="6.07907">
        <ele>1562.5999755859</ele>
        <time>2012-04-28T05:36:40.000Z</time>
      </trkpt>
      <trkpt lat="45.12648" lon="6.07914">
        <ele>1564</ele>
        <time>2012-04-28T05:36:46.000Z</time>
      </trkpt>
      <trkpt lat="45.12649" lon="6.07917">
        <ele>1565</ele>
        <time>2012-04-28T05:36:50.000Z</time>
      </trkpt>
      <trkpt lat="45.12652" lon="6.07919">
        <ele>1565.4000244141</ele>
        <time>2012-04-28T05:36:54.000Z</time>
      </trkpt>
      <trkpt lat="45.12655" lon="6.07928">
        <ele>1567.4000244141</ele>
        <time>2012-04-28T05:37:01.000Z</time>
      </trkpt>
      <trkpt lat="45.12656" lon="6.07932">
        <ele>1568.5999755859</ele>
        <time>2012-04-28T05:37:05.000Z</time>
      </trkpt>
      <trkpt lat="45.12658" lon="6.07935">
        <ele>1569.5999755859</ele>
        <time>2012-04-28T05:37:08.000Z</time>
      </trkpt>
      <trkpt lat="45.1266" lon="6.0794">
        <ele>1571</ele>
        <time>2012-04-28T05:37:12.000Z</time>
      </trkpt>
      <trkpt lat="45.1266" lon="6.07942">
        <ele>1571.8000488281</ele>
        <time>2012-04-28T05:37:14.000Z</time>
      </trkpt>
      <trkpt lat="45.12664" lon="6.07944">
        <ele>1573.1999511719</ele>
        <time>2012-04-28T05:37:20.000Z</time>
      </trkpt>
      <trkpt lat="45.12665" lon="6.07947">
        <ele>1573.8000488281</ele>
        <time>2012-04-28T05:37:23.000Z</time>
      </trkpt>
      <trkpt lat="45.12667" lon="6.07948">
        <ele>1574.1999511719</ele>
        <time>2012-04-28T05:37:25.000Z</time>
      </trkpt>
      <trkpt lat="45.12669" lon="6.07951">
        <ele>1575.5999755859</ele>
        <time>2012-04-28T05:37:28.000Z</time>
      </trkpt>
      <trkpt lat="45.12669" lon="6.07953">
        <ele>1576</ele>
        <time>2012-04-28T05:37:30.000Z</time>
      </trkpt>
      <trkpt lat="45.12672" lon="6.07957">
        <ele>1576.8000488281</ele>
        <time>2012-04-28T05:37:34.000Z</time>
      </trkpt>
      <trkpt lat="45.12675" lon="6.07963">
        <ele>1578.4000244141</ele>
        <time>2012-04-28T05:37:40.000Z</time>
      </trkpt>
      <trkpt lat="45.12676" lon="6.07966">
        <ele>1578.5999755859</ele>
        <time>2012-04-28T05:37:43.000Z</time>
      </trkpt>
      <trkpt lat="45.12674" lon="6.07972">
        <ele>1581.1999511719</ele>
        <time>2012-04-28T05:37:50.000Z</time>
      </trkpt>
      <trkpt lat="45.12676" lon="6.07974">
        <ele>1582.5999755859</ele>
        <time>2012-04-28T05:37:53.000Z</time>
      </trkpt>
      <trkpt lat="45.12677" lon="6.07978">
        <ele>1583.1999511719</ele>
        <time>2012-04-28T05:37:57.000Z</time>
      </trkpt>
      <trkpt lat="45.12679" lon="6.0798">
        <ele>1584</ele>
        <time>2012-04-28T05:38:01.000Z</time>
      </trkpt>
      <trkpt lat="45.1268" lon="6.07981">
        <ele>1585</ele>
        <time>2012-04-28T05:38:03.000Z</time>
      </trkpt>
      <trkpt lat="45.12683" lon="6.07986">
        <ele>1586.1999511719</ele>
        <time>2012-04-28T05:38:08.000Z</time>
      </trkpt>
      <trkpt lat="45.12686" lon="6.07989">
        <ele>1587.5999755859</ele>
        <time>2012-04-28T05:38:12.000Z</time>
      </trkpt>
      <trkpt lat="45.12687" lon="6.07992">
        <ele>1589</ele>
        <time>2012-04-28T05:38:16.000Z</time>
      </trkpt>
      <trkpt lat="45.12688" lon="6.07992">
        <ele>1589.1999511719</ele>
        <time>2012-04-28T05:38:17.000Z</time>
      </trkpt>
      <trkpt lat="45.12689" lon="6.07993">
        <ele>1589.4000244141</ele>
        <time>2012-04-28T05:38:19.000Z</time>
      </trkpt>
      <trkpt lat="45.12694" lon="6.07996">
        <ele>1590.5999755859</ele>
        <time>2012-04-28T05:38:25.000Z</time>
      </trkpt>
      <trkpt lat="45.12695" lon="6.07997">
        <ele>1591.4000244141</ele>
        <time>2012-04-28T05:38:27.000Z</time>
      </trkpt>
      <trkpt lat="45.12699" lon="6.07999">
        <ele>1593</ele>
        <time>2012-04-28T05:38:31.000Z</time>
      </trkpt>
      <trkpt lat="45.12702" lon="6.08004">
        <ele>1594</ele>
        <time>2012-04-28T05:38:36.000Z</time>
      </trkpt>
      <trkpt lat="45.12703" lon="6.08007">
        <ele>1594.8000488281</ele>
        <time>2012-04-28T05:38:40.000Z</time>
      </trkpt>
      <trkpt lat="45.12704" lon="6.08012">
        <ele>1596</ele>
        <time>2012-04-28T05:38:44.000Z</time>
      </trkpt>
      <trkpt lat="45.12707" lon="6.08017">
        <ele>1597</ele>
        <time>2012-04-28T05:38:49.000Z</time>
      </trkpt>
      <trkpt lat="45.12711" lon="6.08026">
        <ele>1599</ele>
        <time>2012-04-28T05:38:55.000Z</time>
      </trkpt>
      <trkpt lat="45.12712" lon="6.0803">
        <ele>1599.4000244141</ele>
        <time>2012-04-28T05:38:58.000Z</time>
      </trkpt>
      <trkpt lat="45.12714" lon="6.08033">
        <ele>1601</ele>
        <time>2012-04-28T05:39:03.000Z</time>
      </trkpt>
      <trkpt lat="45.12718" lon="6.08038">
        <ele>1602.5999755859</ele>
        <time>2012-04-28T05:39:10.000Z</time>
      </trkpt>
      <trkpt lat="45.1272" lon="6.08041">
        <ele>1603.5999755859</ele>
        <time>2012-04-28T05:39:14.000Z</time>
      </trkpt>
      <trkpt lat="45.12724" lon="6.08044">
        <ele>1604.5999755859</ele>
        <time>2012-04-28T05:39:19.000Z</time>
      </trkpt>
      <trkpt lat="45.12725" lon="6.08045">
        <ele>1604.8000488281</ele>
        <time>2012-04-28T05:39:20.000Z</time>
      </trkpt>
      <trkpt lat="45.12728" lon="6.08046">
        <ele>1606.4000244141</ele>
        <time>2012-04-28T05:39:26.000Z</time>
      </trkpt>
      <trkpt lat="45.12732" lon="6.08048">
        <ele>1607</ele>
        <time>2012-04-28T05:39:30.000Z</time>
      </trkpt>
      <trkpt lat="45.1274" lon="6.08051">
        <ele>1608.1999511719</ele>
        <time>2012-04-28T05:39:38.000Z</time>
      </trkpt>
      <trkpt lat="45.12743" lon="6.08053">
        <ele>1609.1999511719</ele>
        <time>2012-04-28T05:39:41.000Z</time>
      </trkpt>
      <trkpt lat="45.12745" lon="6.08055">
        <ele>1609.1999511719</ele>
        <time>2012-04-28T05:39:43.000Z</time>
      </trkpt>
      <trkpt lat="45.12753" lon="6.0806">
        <ele>1610.8000488281</ele>
        <time>2012-04-28T05:39:51.000Z</time>
      </trkpt>
      <trkpt lat="45.12762" lon="6.08065">
        <ele>1612.4000244141</ele>
        <time>2012-04-28T05:39:58.000Z</time>
      </trkpt>
      <trkpt lat="45.12771" lon="6.08069">
        <ele>1614</ele>
        <time>2012-04-28T05:40:06.000Z</time>
      </trkpt>
      <trkpt lat="45.12778" lon="6.08071">
        <ele>1615.5999755859</ele>
        <time>2012-04-28T05:40:13.000Z</time>
      </trkpt>
      <trkpt lat="45.12782" lon="6.08072">
        <ele>1616.8000488281</ele>
        <time>2012-04-28T05:40:17.000Z</time>
      </trkpt>
      <trkpt lat="45.12789" lon="6.08075">
        <ele>1617.5999755859</ele>
        <time>2012-04-28T05:40:22.000Z</time>
      </trkpt>
      <trkpt lat="45.12794" lon="6.08078">
        <ele>1618.4000244141</ele>
        <time>2012-04-28T05:40:27.000Z</time>
      </trkpt>
      <trkpt lat="45.12796" lon="6.08078">
        <ele>1618.8000488281</ele>
        <time>2012-04-28T05:40:29.000Z</time>
      </trkpt>
      <trkpt lat="45.12802" lon="6.08082">
        <ele>1620.5999755859</ele>
        <time>2012-04-28T05:40:36.000Z</time>
      </trkpt>
      <trkpt lat="45.12805" lon="6.08082">
        <ele>1621</ele>
        <time>2012-04-28T05:40:39.000Z</time>
      </trkpt>
      <trkpt lat="45.12808" lon="6.08083">
        <ele>1621.4000244141</ele>
        <time>2012-04-28T05:40:42.000Z</time>
      </trkpt>
      <trkpt lat="45.12812" lon="6.08084">
        <ele>1622.8000488281</ele>
        <time>2012-04-28T05:40:47.000Z</time>
      </trkpt>
      <trkpt lat="45.12813" lon="6.08084">
        <ele>1622.5999755859</ele>
        <time>2012-04-28T05:40:48.000Z</time>
      </trkpt>
      <trkpt lat="45.12819" lon="6.08087">
        <ele>1624</ele>
        <time>2012-04-28T05:40:53.000Z</time>
      </trkpt>
      <trkpt lat="45.12823" lon="6.08089">
        <ele>1625.1999511719</ele>
        <time>2012-04-28T05:40:57.000Z</time>
      </trkpt>
      <trkpt lat="45.12827" lon="6.0809">
        <ele>1626</ele>
        <time>2012-04-28T05:41:01.000Z</time>
      </trkpt>
      <trkpt lat="45.12832" lon="6.08092">
        <ele>1627</ele>
        <time>2012-04-28T05:41:06.000Z</time>
      </trkpt>
      <trkpt lat="45.12834" lon="6.08092">
        <ele>1628</ele>
        <time>2012-04-28T05:41:10.000Z</time>
      </trkpt>
      <trkpt lat="45.12837" lon="6.08092">
        <ele>1628.5999755859</ele>
        <time>2012-04-28T05:41:13.000Z</time>
      </trkpt>
      <trkpt lat="45.12841" lon="6.08093">
        <ele>1630</ele>
        <time>2012-04-28T05:41:18.000Z</time>
      </trkpt>
      <trkpt lat="45.12845" lon="6.08093">
        <ele>1630.5999755859</ele>
        <time>2012-04-28T05:41:22.000Z</time>
      </trkpt>
      <trkpt lat="45.12849" lon="6.08093">
        <ele>1632</ele>
        <time>2012-04-28T05:41:28.000Z</time>
      </trkpt>
      <trkpt lat="45.12853" lon="6.08095">
        <ele>1633.1999511719</ele>
        <time>2012-04-28T05:41:32.000Z</time>
      </trkpt>
      <trkpt lat="45.12858" lon="6.08096">
        <ele>1634.1999511719</ele>
        <time>2012-04-28T05:41:37.000Z</time>
      </trkpt>
      <trkpt lat="45.12863" lon="6.08097">
        <ele>1635.4000244141</ele>
        <time>2012-04-28T05:41:42.000Z</time>
      </trkpt>
      <trkpt lat="45.12864" lon="6.08097">
        <ele>1635.4000244141</ele>
        <time>2012-04-28T05:41:43.000Z</time>
      </trkpt>
      <trkpt lat="45.12871" lon="6.08102">
        <ele>1637.8000488281</ele>
        <time>2012-04-28T05:41:51.000Z</time>
      </trkpt>
      <trkpt lat="45.12873" lon="6.08103">
        <ele>1638</ele>
        <time>2012-04-28T05:41:53.000Z</time>
      </trkpt>
      <trkpt lat="45.12875" lon="6.08105">
        <ele>1639.5999755859</ele>
        <time>2012-04-28T05:41:57.000Z</time>
      </trkpt>
      <trkpt lat="45.12879" lon="6.08107">
        <ele>1640.8000488281</ele>
        <time>2012-04-28T05:42:02.000Z</time>
      </trkpt>
      <trkpt lat="45.12881" lon="6.08108">
        <ele>1641.5999755859</ele>
        <time>2012-04-28T05:42:06.000Z</time>
      </trkpt>
      <trkpt lat="45.12882" lon="6.08108">
        <ele>1641.8000488281</ele>
        <time>2012-04-28T05:42:07.000Z</time>
      </trkpt>
      <trkpt lat="45.12888" lon="6.08108">
        <ele>1643.4000244141</ele>
        <time>2012-04-28T05:42:13.000Z</time>
      </trkpt>
      <trkpt lat="45.12891" lon="6.08109">
        <ele>1644.1999511719</ele>
        <time>2012-04-28T05:42:17.000Z</time>
      </trkpt>
      <trkpt lat="45.12893" lon="6.08111">
        <ele>1644.4000244141</ele>
        <time>2012-04-28T05:42:19.000Z</time>
      </trkpt>
      <trkpt lat="45.12896" lon="6.08112">
        <ele>1645.1999511719</ele>
        <time>2012-04-28T05:42:23.000Z</time>
      </trkpt>
      <trkpt lat="45.12902" lon="6.08116">
        <ele>1646.5999755859</ele>
        <time>2012-04-28T05:42:29.000Z</time>
      </trkpt>
      <trkpt lat="45.12908" lon="6.0812">
        <ele>1647.4000244141</ele>
        <time>2012-04-28T05:42:34.000Z</time>
      </trkpt>
      <trkpt lat="45.12909" lon="6.08121">
        <ele>1647.5999755859</ele>
        <time>2012-04-28T05:42:35.000Z</time>
      </trkpt>
      <trkpt lat="45.12914" lon="6.08125">
        <ele>1648.5999755859</ele>
        <time>2012-04-28T05:42:41.000Z</time>
      </trkpt>
      <trkpt lat="45.12918" lon="6.08128">
        <ele>1650.1999511719</ele>
        <time>2012-04-28T05:42:45.000Z</time>
      </trkpt>
      <trkpt lat="45.12921" lon="6.08131">
        <ele>1650.8000488281</ele>
        <time>2012-04-28T05:42:50.000Z</time>
      </trkpt>
      <trkpt lat="45.12924" lon="6.08133">
        <ele>1651.8000488281</ele>
        <time>2012-04-28T05:42:55.000Z</time>
      </trkpt>
      <trkpt lat="45.12928" lon="6.08135">
        <ele>1652.8000488281</ele>
        <time>2012-04-28T05:43:00.000Z</time>
      </trkpt>
      <trkpt lat="45.12934" lon="6.0814">
        <ele>1654.4000244141</ele>
        <time>2012-04-28T05:43:07.000Z</time>
      </trkpt>
      <trkpt lat="45.12937" lon="6.08143">
        <ele>1655.4000244141</ele>
        <time>2012-04-28T05:43:12.000Z</time>
      </trkpt>
      <trkpt lat="45.1294" lon="6.08145">
        <ele>1656.4000244141</ele>
        <time>2012-04-28T05:43:16.000Z</time>
      </trkpt>
      <trkpt lat="45.12944" lon="6.08146">
        <ele>1657.1999511719</ele>
        <time>2012-04-28T05:43:21.000Z</time>
      </trkpt>
      <trkpt lat="45.12949" lon="6.0815">
        <ele>1658.8000488281</ele>
        <time>2012-04-28T05:43:28.000Z</time>
      </trkpt>
      <trkpt lat="45.1295" lon="6.08151">
        <ele>1659.1999511719</ele>
        <time>2012-04-28T05:43:30.000Z</time>
      </trkpt>
      <trkpt lat="45.12953" lon="6.08154">
        <ele>1660.4000244141</ele>
        <time>2012-04-28T05:43:35.000Z</time>
      </trkpt>
      <trkpt lat="45.12956" lon="6.08157">
        <ele>1661.1999511719</ele>
        <time>2012-04-28T05:43:39.000Z</time>
      </trkpt>
      <trkpt lat="45.12957" lon="6.08157">
        <ele>1661.5999755859</ele>
        <time>2012-04-28T05:43:40.000Z</time>
      </trkpt>
      <trkpt lat="45.1296" lon="6.08158">
        <ele>1662.4000244141</ele>
        <time>2012-04-28T05:43:43.000Z</time>
      </trkpt>
      <trkpt lat="45.12965" lon="6.08161">
        <ele>1664.1999511719</ele>
        <time>2012-04-28T05:43:49.000Z</time>
      </trkpt>
      <trkpt lat="45.12968" lon="6.08163">
        <ele>1665.4000244141</ele>
        <time>2012-04-28T05:43:53.000Z</time>
      </trkpt>
      <trkpt lat="45.12972" lon="6.08168">
        <ele>1667.1999511719</ele>
        <time>2012-04-28T05:43:59.000Z</time>
      </trkpt>
      <trkpt lat="45.12977" lon="6.0817">
        <ele>1668.5999755859</ele>
        <time>2012-04-28T05:44:06.000Z</time>
      </trkpt>
      <trkpt lat="45.12981" lon="6.08173">
        <ele>1669.5999755859</ele>
        <time>2012-04-28T05:44:11.000Z</time>
      </trkpt>
      <trkpt lat="45.12985" lon="6.08176">
        <ele>1671</ele>
        <time>2012-04-28T05:44:16.000Z</time>
      </trkpt>
      <trkpt lat="45.12989" lon="6.08177">
        <ele>1672.1999511719</ele>
        <time>2012-04-28T05:44:21.000Z</time>
      </trkpt>
      <trkpt lat="45.12993" lon="6.08179">
        <ele>1673.5999755859</ele>
        <time>2012-04-28T05:44:27.000Z</time>
      </trkpt>
      <trkpt lat="45.12996" lon="6.08181">
        <ele>1674.8000488281</ele>
        <time>2012-04-28T05:44:31.000Z</time>
      </trkpt>
      <trkpt lat="45.12999" lon="6.08182">
        <ele>1676</ele>
        <time>2012-04-28T05:44:35.000Z</time>
      </trkpt>
      <trkpt lat="45.13001" lon="6.08182">
        <ele>1676.5999755859</ele>
        <time>2012-04-28T05:44:38.000Z</time>
      </trkpt>
      <trkpt lat="45.13006" lon="6.08184">
        <ele>1677.8000488281</ele>
        <time>2012-04-28T05:44:44.000Z</time>
      </trkpt>
      <trkpt lat="45.1301" lon="6.08186">
        <ele>1678.8000488281</ele>
        <time>2012-04-28T05:44:48.000Z</time>
      </trkpt>
      <trkpt lat="45.13015" lon="6.08189">
        <ele>1679.5999755859</ele>
        <time>2012-04-28T05:44:53.000Z</time>
      </trkpt>
      <trkpt lat="45.1302" lon="6.0819">
        <ele>1681</ele>
        <time>2012-04-28T05:44:59.000Z</time>
      </trkpt>
      <trkpt lat="45.13023" lon="6.0819">
        <ele>1682</ele>
        <time>2012-04-28T05:45:03.000Z</time>
      </trkpt>
      <trkpt lat="45.13026" lon="6.08191">
        <ele>1682.5999755859</ele>
        <time>2012-04-28T05:45:07.000Z</time>
      </trkpt>
      <trkpt lat="45.1303" lon="6.08192">
        <ele>1684.4000244141</ele>
        <time>2012-04-28T05:45:11.000Z</time>
      </trkpt>
      <trkpt lat="45.13032" lon="6.08192">
        <ele>1685</ele>
        <time>2012-04-28T05:45:14.000Z</time>
      </trkpt>
      <trkpt lat="45.13036" lon="6.08195">
        <ele>1686</ele>
        <time>2012-04-28T05:45:19.000Z</time>
      </trkpt>
      <trkpt lat="45.13037" lon="6.08196">
        <ele>1686.8000488281</ele>
        <time>2012-04-28T05:45:21.000Z</time>
      </trkpt>
      <trkpt lat="45.13041" lon="6.08197">
        <ele>1687.5999755859</ele>
        <time>2012-04-28T05:45:26.000Z</time>
      </trkpt>
      <trkpt lat="45.13042" lon="6.08198">
        <ele>1687.8000488281</ele>
        <time>2012-04-28T05:45:27.000Z</time>
      </trkpt>
      <trkpt lat="45.13046" lon="6.08198">
        <ele>1688.8000488281</ele>
        <time>2012-04-28T05:45:31.000Z</time>
      </trkpt>
      <trkpt lat="45.13047" lon="6.08198">
        <ele>1689</ele>
        <time>2012-04-28T05:45:32.000Z</time>
      </trkpt>
      <trkpt lat="45.13053" lon="6.08202">
        <ele>1690.8000488281</ele>
        <time>2012-04-28T05:45:40.000Z</time>
      </trkpt>
      <trkpt lat="45.13058" lon="6.08205">
        <ele>1692</ele>
        <time>2012-04-28T05:45:46.000Z</time>
      </trkpt>
      <trkpt lat="45.13062" lon="6.08208">
        <ele>1693.8000488281</ele>
        <time>2012-04-28T05:45:52.000Z</time>
      </trkpt>
      <trkpt lat="45.13066" lon="6.0821">
        <ele>1695</ele>
        <time>2012-04-28T05:45:57.000Z</time>
      </trkpt>
      <trkpt lat="45.13073" lon="6.08213">
        <ele>1696.8000488281</ele>
        <time>2012-04-28T05:46:05.000Z</time>
      </trkpt>
      <trkpt lat="45.13078" lon="6.08216">
        <ele>1698.1999511719</ele>
        <time>2012-04-28T05:46:11.000Z</time>
      </trkpt>
      <trkpt lat="45.1308" lon="6.08216">
        <ele>1698.5999755859</ele>
        <time>2012-04-28T05:46:13.000Z</time>
      </trkpt>
      <trkpt lat="45.13084" lon="6.08219">
        <ele>1700</ele>
        <time>2012-04-28T05:46:19.000Z</time>
      </trkpt>
      <trkpt lat="45.13087" lon="6.08222">
        <ele>1701</ele>
        <time>2012-04-28T05:46:24.000Z</time>
      </trkpt>
      <trkpt lat="45.13091" lon="6.08225">
        <ele>1702.5999755859</ele>
        <time>2012-04-28T05:46:29.000Z</time>
      </trkpt>
      <trkpt lat="45.13096" lon="6.08227">
        <ele>1703.5999755859</ele>
        <time>2012-04-28T05:46:34.000Z</time>
      </trkpt>
      <trkpt lat="45.131" lon="6.08229">
        <ele>1705</ele>
        <time>2012-04-28T05:46:39.000Z</time>
      </trkpt>
      <trkpt lat="45.13102" lon="6.08232">
        <ele>1706.1999511719</ele>
        <time>2012-04-28T05:46:43.000Z</time>
      </trkpt>
      <trkpt lat="45.13105" lon="6.08236">
        <ele>1707.4000244141</ele>
        <time>2012-04-28T05:46:48.000Z</time>
      </trkpt>
      <trkpt lat="45.13107" lon="6.08236">
        <ele>1708</ele>
        <time>2012-04-28T05:46:50.000Z</time>
      </trkpt>
      <trkpt lat="45.1311" lon="6.0824">
        <ele>1709.4000244141</ele>
        <time>2012-04-28T05:46:55.000Z</time>
      </trkpt>
      <trkpt lat="45.13115" lon="6.08243">
        <ele>1710.8000488281</ele>
        <time>2012-04-28T05:47:02.000Z</time>
      </trkpt>
      <trkpt lat="45.13119" lon="6.08248">
        <ele>1712.8000488281</ele>
        <time>2012-04-28T05:47:09.000Z</time>
      </trkpt>
      <trkpt lat="45.13124" lon="6.08252">
        <ele>1714.4000244141</ele>
        <time>2012-04-28T05:47:16.000Z</time>
      </trkpt>
      <trkpt lat="45.13126" lon="6.08255">
        <ele>1715.5999755859</ele>
        <time>2012-04-28T05:47:20.000Z</time>
      </trkpt>
      <trkpt lat="45.13129" lon="6.08258">
        <ele>1716.8000488281</ele>
        <time>2012-04-28T05:47:26.000Z</time>
      </trkpt>
      <trkpt lat="45.13133" lon="6.08262">
        <ele>1718</ele>
        <time>2012-04-28T05:47:31.000Z</time>
      </trkpt>
      <trkpt lat="45.13137" lon="6.08265">
        <ele>1719.8000488281</ele>
        <time>2012-04-28T05:47:38.000Z</time>
      </trkpt>
      <trkpt lat="45.1314" lon="6.08269">
        <ele>1720.5999755859</ele>
        <time>2012-04-28T05:47:42.000Z</time>
      </trkpt>
      <trkpt lat="45.13145" lon="6.08275">
        <ele>1722.8000488281</ele>
        <time>2012-04-28T05:47:51.000Z</time>
      </trkpt>
      <trkpt lat="45.1315" lon="6.08278">
        <ele>1724.1999511719</ele>
        <time>2012-04-28T05:47:57.000Z</time>
      </trkpt>
      <trkpt lat="45.13152" lon="6.0828">
        <ele>1724.5999755859</ele>
        <time>2012-04-28T05:48:00.000Z</time>
      </trkpt>
      <trkpt lat="45.13157" lon="6.08287">
        <ele>1726.1999511719</ele>
        <time>2012-04-28T05:48:08.000Z</time>
      </trkpt>
      <trkpt lat="45.13161" lon="6.08291">
        <ele>1726.8000488281</ele>
        <time>2012-04-28T05:48:12.000Z</time>
      </trkpt>
      <trkpt lat="45.13162" lon="6.08293">
        <ele>1727.1999511719</ele>
        <time>2012-04-28T05:48:14.000Z</time>
      </trkpt>
      <trkpt lat="45.1317" lon="6.08297">
        <ele>1729</ele>
        <time>2012-04-28T05:48:23.000Z</time>
      </trkpt>
      <trkpt lat="45.13173" lon="6.08298">
        <ele>1729.5999755859</ele>
        <time>2012-04-28T05:48:27.000Z</time>
      </trkpt>
      <trkpt lat="45.13176" lon="6.08299">
        <ele>1730.1999511719</ele>
        <time>2012-04-28T05:48:31.000Z</time>
      </trkpt>
      <trkpt lat="45.13183" lon="6.08306">
        <ele>1731.8000488281</ele>
        <time>2012-04-28T05:48:38.000Z</time>
      </trkpt>
      <trkpt lat="45.13187" lon="6.08312">
        <ele>1733</ele>
        <time>2012-04-28T05:48:44.000Z</time>
      </trkpt>
      <trkpt lat="45.13188" lon="6.08313">
        <ele>1733.4000244141</ele>
        <time>2012-04-28T05:48:46.000Z</time>
      </trkpt>
      <trkpt lat="45.13192" lon="6.08315">
        <ele>1734.1999511719</ele>
        <time>2012-04-28T05:48:50.000Z</time>
      </trkpt>
      <trkpt lat="45.13196" lon="6.08318">
        <ele>1735.4000244141</ele>
        <time>2012-04-28T05:48:55.000Z</time>
      </trkpt>
      <trkpt lat="45.13201" lon="6.08324">
        <ele>1736.8000488281</ele>
        <time>2012-04-28T05:49:02.000Z</time>
      </trkpt>
      <trkpt lat="45.13204" lon="6.08328">
        <ele>1737.4000244141</ele>
        <time>2012-04-28T05:49:06.000Z</time>
      </trkpt>
      <trkpt lat="45.13208" lon="6.08332">
        <ele>1738.4000244141</ele>
        <time>2012-04-28T05:49:12.000Z</time>
      </trkpt>
      <trkpt lat="45.13212" lon="6.08336">
        <ele>1739.5999755859</ele>
        <time>2012-04-28T05:49:17.000Z</time>
      </trkpt>
      <trkpt lat="45.13215" lon="6.08339">
        <ele>1740.1999511719</ele>
        <time>2012-04-28T05:49:20.000Z</time>
      </trkpt>
      <trkpt lat="45.13219" lon="6.08342">
        <ele>1741.4000244141</ele>
        <time>2012-04-28T05:49:25.000Z</time>
      </trkpt>
      <trkpt lat="45.13222" lon="6.08345">
        <ele>1742.1999511719</ele>
        <time>2012-04-28T05:49:29.000Z</time>
      </trkpt>
      <trkpt lat="45.13225" lon="6.08348">
        <ele>1743</ele>
        <time>2012-04-28T05:49:33.000Z</time>
      </trkpt>
      <trkpt lat="45.13231" lon="6.08354">
        <ele>1745</ele>
        <time>2012-04-28T05:49:41.000Z</time>
      </trkpt>
      <trkpt lat="45.13235" lon="6.08356">
        <ele>1746</ele>
        <time>2012-04-28T05:49:45.000Z</time>
      </trkpt>
      <trkpt lat="45.13241" lon="6.08358">
        <ele>1747.8000488281</ele>
        <time>2012-04-28T05:49:53.000Z</time>
      </trkpt>
      <trkpt lat="45.13246" lon="6.08363">
        <ele>1749</ele>
        <time>2012-04-28T05:49:59.000Z</time>
      </trkpt>
      <trkpt lat="45.1325" lon="6.08367">
        <ele>1750.5999755859</ele>
        <time>2012-04-28T05:50:05.000Z</time>
      </trkpt>
      <trkpt lat="45.13254" lon="6.08371">
        <ele>1752.4000244141</ele>
        <time>2012-04-28T05:50:12.000Z</time>
      </trkpt>
      <trkpt lat="45.13258" lon="6.08374">
        <ele>1753.8000488281</ele>
        <time>2012-04-28T05:50:18.000Z</time>
      </trkpt>
      <trkpt lat="45.1326" lon="6.08377">
        <ele>1754.8000488281</ele>
        <time>2012-04-28T05:50:22.000Z</time>
      </trkpt>
      <trkpt lat="45.13264" lon="6.08381">
        <ele>1756.5999755859</ele>
        <time>2012-04-28T05:50:29.000Z</time>
      </trkpt>
      <trkpt lat="45.13268" lon="6.08383">
        <ele>1757.8000488281</ele>
        <time>2012-04-28T05:50:34.000Z</time>
      </trkpt>
      <trkpt lat="45.13269" lon="6.08385">
        <ele>1758.1999511719</ele>
        <time>2012-04-28T05:50:36.000Z</time>
      </trkpt>
      <trkpt lat="45.13273" lon="6.08387">
        <ele>1759.4000244141</ele>
        <time>2012-04-28T05:50:41.000Z</time>
      </trkpt>
      <trkpt lat="45.13277" lon="6.0839">
        <ele>1760.8000488281</ele>
        <time>2012-04-28T05:50:46.000Z</time>
      </trkpt>
      <trkpt lat="45.13279" lon="6.08392">
        <ele>1761.5999755859</ele>
        <time>2012-04-28T05:50:50.000Z</time>
      </trkpt>
      <trkpt lat="45.13283" lon="6.08394">
        <ele>1763.1999511719</ele>
        <time>2012-04-28T05:50:55.000Z</time>
      </trkpt>
      <trkpt lat="45.13285" lon="6.08395">
        <ele>1763.8000488281</ele>
        <time>2012-04-28T05:50:58.000Z</time>
      </trkpt>
      <trkpt lat="45.13287" lon="6.08398">
        <ele>1765.4000244141</ele>
        <time>2012-04-28T05:51:03.000Z</time>
      </trkpt>
      <trkpt lat="45.13291" lon="6.08401">
        <ele>1766.8000488281</ele>
        <time>2012-04-28T05:51:09.000Z</time>
      </trkpt>
      <trkpt lat="45.13294" lon="6.08404">
        <ele>1768</ele>
        <time>2012-04-28T05:51:13.000Z</time>
      </trkpt>
      <trkpt lat="45.13295" lon="6.08406">
        <ele>1768.5999755859</ele>
        <time>2012-04-28T05:51:16.000Z</time>
      </trkpt>
      <trkpt lat="45.13299" lon="6.08409">
        <ele>1769.8000488281</ele>
        <time>2012-04-28T05:51:21.000Z</time>
      </trkpt>
      <trkpt lat="45.13302" lon="6.0841">
        <ele>1771</ele>
        <time>2012-04-28T05:51:25.000Z</time>
      </trkpt>
      <trkpt lat="45.13305" lon="6.08413">
        <ele>1772</ele>
        <time>2012-04-28T05:51:30.000Z</time>
      </trkpt>
      <trkpt lat="45.1331" lon="6.08417">
        <ele>1773.1999511719</ele>
        <time>2012-04-28T05:51:36.000Z</time>
      </trkpt>
      <trkpt lat="45.13313" lon="6.08421">
        <ele>1774.4000244141</ele>
        <time>2012-04-28T05:51:41.000Z</time>
      </trkpt>
      <trkpt lat="45.13317" lon="6.08423">
        <ele>1775.5999755859</ele>
        <time>2012-04-28T05:51:47.000Z</time>
      </trkpt>
      <trkpt lat="45.13319" lon="6.08425">
        <ele>1776.8000488281</ele>
        <time>2012-04-28T05:51:51.000Z</time>
      </trkpt>
      <trkpt lat="45.13323" lon="6.08428">
        <ele>1777.8000488281</ele>
        <time>2012-04-28T05:51:56.000Z</time>
      </trkpt>
      <trkpt lat="45.13328" lon="6.08433">
        <ele>1779.4000244141</ele>
        <time>2012-04-28T05:52:03.000Z</time>
      </trkpt>
      <trkpt lat="45.13332" lon="6.08435">
        <ele>1781</ele>
        <time>2012-04-28T05:52:09.000Z</time>
      </trkpt>
      <trkpt lat="45.13336" lon="6.08438">
        <ele>1783.4000244141</ele>
        <time>2012-04-28T05:52:17.000Z</time>
      </trkpt>
      <trkpt lat="45.13339" lon="6.08442">
        <ele>1784.1999511719</ele>
        <time>2012-04-28T05:52:22.000Z</time>
      </trkpt>
      <trkpt lat="45.13343" lon="6.08445">
        <ele>1786</ele>
        <time>2012-04-28T05:52:28.000Z</time>
      </trkpt>
      <trkpt lat="45.13347" lon="6.0845">
        <ele>1787.8000488281</ele>
        <time>2012-04-28T05:52:35.000Z</time>
      </trkpt>
      <trkpt lat="45.13352" lon="6.08453">
        <ele>1789.4000244141</ele>
        <time>2012-04-28T05:52:42.000Z</time>
      </trkpt>
      <trkpt lat="45.13356" lon="6.08456">
        <ele>1791.1999511719</ele>
        <time>2012-04-28T05:52:49.000Z</time>
      </trkpt>
      <trkpt lat="45.1336" lon="6.08461">
        <ele>1793.4000244141</ele>
        <time>2012-04-28T05:52:57.000Z</time>
      </trkpt>
      <trkpt lat="45.13365" lon="6.08465">
        <ele>1796.1999511719</ele>
        <time>2012-04-28T05:53:07.000Z</time>
      </trkpt>
      <trkpt lat="45.13371" lon="6.08469">
        <ele>1797.5999755859</ele>
        <time>2012-04-28T05:53:14.000Z</time>
      </trkpt>
      <trkpt lat="45.13376" lon="6.08471">
        <ele>1799.8000488281</ele>
        <time>2012-04-28T05:53:22.000Z</time>
      </trkpt>
      <trkpt lat="45.1338" lon="6.08475">
        <ele>1801.5999755859</ele>
        <time>2012-04-28T05:53:29.000Z</time>
      </trkpt>
      <trkpt lat="45.13385" lon="6.08477">
        <ele>1803.1999511719</ele>
        <time>2012-04-28T05:53:36.000Z</time>
      </trkpt>
      <trkpt lat="45.1339" lon="6.0848">
        <ele>1804.8000488281</ele>
        <time>2012-04-28T05:53:43.000Z</time>
      </trkpt>
      <trkpt lat="45.13391" lon="6.0848">
        <ele>1805.1999511719</ele>
        <time>2012-04-28T05:53:44.000Z</time>
      </trkpt>
      <trkpt lat="45.13395" lon="6.08482">
        <ele>1806.1999511719</ele>
        <time>2012-04-28T05:53:49.000Z</time>
      </trkpt>
      <trkpt lat="45.13399" lon="6.08485">
        <ele>1808</ele>
        <time>2012-04-28T05:53:56.000Z</time>
      </trkpt>
      <trkpt lat="45.13405" lon="6.0849">
        <ele>1809.8000488281</ele>
        <time>2012-04-28T05:54:04.000Z</time>
      </trkpt>
      <trkpt lat="45.13409" lon="6.08495">
        <ele>1811.4000244141</ele>
        <time>2012-04-28T05:54:11.000Z</time>
      </trkpt>
      <trkpt lat="45.13412" lon="6.08499">
        <ele>1813.1999511719</ele>
        <time>2012-04-28T05:54:18.000Z</time>
      </trkpt>
      <trkpt lat="45.13415" lon="6.08502">
        <ele>1814.1999511719</ele>
        <time>2012-04-28T05:54:23.000Z</time>
      </trkpt>
      <trkpt lat="45.13419" lon="6.08507">
        <ele>1815.8000488281</ele>
        <time>2012-04-28T05:54:29.000Z</time>
      </trkpt>
      <trkpt lat="45.13424" lon="6.08511">
        <ele>1817.8000488281</ele>
        <time>2012-04-28T05:54:36.000Z</time>
      </trkpt>
      <trkpt lat="45.13428" lon="6.08515">
        <ele>1819.4000244141</ele>
        <time>2012-04-28T05:54:42.000Z</time>
      </trkpt>
      <trkpt lat="45.13432" lon="6.0852">
        <ele>1821.8000488281</ele>
        <time>2012-04-28T05:54:49.000Z</time>
      </trkpt>
      <trkpt lat="45.13437" lon="6.08522">
        <ele>1823.5999755859</ele>
        <time>2012-04-28T05:54:57.000Z</time>
      </trkpt>
      <trkpt lat="45.1344" lon="6.08526">
        <ele>1824.8000488281</ele>
        <time>2012-04-28T05:55:02.000Z</time>
      </trkpt>
      <trkpt lat="45.13444" lon="6.08529">
        <ele>1826.4000244141</ele>
        <time>2012-04-28T05:55:08.000Z</time>
      </trkpt>
      <trkpt lat="45.13445" lon="6.0853">
        <ele>1826.8000488281</ele>
        <time>2012-04-28T05:55:10.000Z</time>
      </trkpt>
      <trkpt lat="45.1345" lon="6.08537">
        <ele>1828.8000488281</ele>
        <time>2012-04-28T05:55:17.000Z</time>
      </trkpt>
      <trkpt lat="45.13451" lon="6.08539">
        <ele>1829</ele>
        <time>2012-04-28T05:55:19.000Z</time>
      </trkpt>
      <trkpt lat="45.13456" lon="6.08544">
        <ele>1831</ele>
        <time>2012-04-28T05:55:27.000Z</time>
      </trkpt>
      <trkpt lat="45.13459" lon="6.08548">
        <ele>1832</ele>
        <time>2012-04-28T05:55:32.000Z</time>
      </trkpt>
      <trkpt lat="45.13461" lon="6.08557">
        <ele>1833.5999755859</ele>
        <time>2012-04-28T05:55:39.000Z</time>
      </trkpt>
      <trkpt lat="45.13463" lon="6.08563">
        <ele>1834.5999755859</ele>
        <time>2012-04-28T05:55:44.000Z</time>
      </trkpt>
      <trkpt lat="45.13468" lon="6.08569">
        <ele>1836.4000244141</ele>
        <time>2012-04-28T05:55:52.000Z</time>
      </trkpt>
      <trkpt lat="45.13474" lon="6.08572">
        <ele>1838.4000244141</ele>
        <time>2012-04-28T05:56:00.000Z</time>
      </trkpt>
      <trkpt lat="45.13479" lon="6.08576">
        <ele>1839.8000488281</ele>
        <time>2012-04-28T05:56:07.000Z</time>
      </trkpt>
      <trkpt lat="45.13485" lon="6.08579">
        <ele>1841.5999755859</ele>
        <time>2012-04-28T05:56:15.000Z</time>
      </trkpt>
      <trkpt lat="45.13489" lon="6.08584">
        <ele>1843.1999511719</ele>
        <time>2012-04-28T05:56:22.000Z</time>
      </trkpt>
      <trkpt lat="45.13495" lon="6.08589">
        <ele>1844.8000488281</ele>
        <time>2012-04-28T05:56:29.000Z</time>
      </trkpt>
      <trkpt lat="45.135" lon="6.08596">
        <ele>1846.4000244141</ele>
        <time>2012-04-28T05:56:35.000Z</time>
      </trkpt>
      <trkpt lat="45.13506" lon="6.08603">
        <ele>1847.5999755859</ele>
        <time>2012-04-28T05:56:42.000Z</time>
      </trkpt>
      <trkpt lat="45.13511" lon="6.08608">
        <ele>1848.8000488281</ele>
        <time>2012-04-28T05:56:48.000Z</time>
      </trkpt>
      <trkpt lat="45.13515" lon="6.08613">
        <ele>1850.1999511719</ele>
        <time>2012-04-28T05:56:53.000Z</time>
      </trkpt>
      <trkpt lat="45.13521" lon="6.08619">
        <ele>1851.4000244141</ele>
        <time>2012-04-28T05:57:00.000Z</time>
      </trkpt>
      <trkpt lat="45.13528" lon="6.08622">
        <ele>1853</ele>
        <time>2012-04-28T05:57:08.000Z</time>
      </trkpt>
      <trkpt lat="45.13529" lon="6.08622">
        <ele>1853.1999511719</ele>
        <time>2012-04-28T05:57:09.000Z</time>
      </trkpt>
      <trkpt lat="45.13535" lon="6.08627">
        <ele>1854.4000244141</ele>
        <time>2012-04-28T05:57:17.000Z</time>
      </trkpt>
      <trkpt lat="45.13538" lon="6.0863">
        <ele>1854.4000244141</ele>
        <time>2012-04-28T05:57:20.000Z</time>
      </trkpt>
      <trkpt lat="45.13545" lon="6.08636">
        <ele>1856.1999511719</ele>
        <time>2012-04-28T05:57:29.000Z</time>
      </trkpt>
      <trkpt lat="45.13552" lon="6.0864">
        <ele>1857.5999755859</ele>
        <time>2012-04-28T05:57:36.000Z</time>
      </trkpt>
      <trkpt lat="45.1356" lon="6.08644">
        <ele>1858.5999755859</ele>
        <time>2012-04-28T05:57:44.000Z</time>
      </trkpt>
      <trkpt lat="45.13568" lon="6.08647">
        <ele>1859.8000488281</ele>
        <time>2012-04-28T05:57:51.000Z</time>
      </trkpt>
      <trkpt lat="45.13576" lon="6.0865">
        <ele>1861.1999511719</ele>
        <time>2012-04-28T05:57:58.000Z</time>
      </trkpt>
      <trkpt lat="45.13583" lon="6.08654">
        <ele>1862.8000488281</ele>
        <time>2012-04-28T05:58:05.000Z</time>
      </trkpt>
      <trkpt lat="45.13589" lon="6.08659">
        <ele>1864.4000244141</ele>
        <time>2012-04-28T05:58:13.000Z</time>
      </trkpt>
      <trkpt lat="45.13595" lon="6.0866">
        <ele>1865.1999511719</ele>
        <time>2012-04-28T05:58:18.000Z</time>
      </trkpt>
      <trkpt lat="45.13603" lon="6.08662">
        <ele>1866.4000244141</ele>
        <time>2012-04-28T05:58:24.000Z</time>
      </trkpt>
      <trkpt lat="45.1361" lon="6.08663">
        <ele>1867</ele>
        <time>2012-04-28T05:58:30.000Z</time>
      </trkpt>
      <trkpt lat="45.1362" lon="6.08667">
        <ele>1867.8000488281</ele>
        <time>2012-04-28T05:58:38.000Z</time>
      </trkpt>
      <trkpt lat="45.13628" lon="6.08671">
        <ele>1868.5999755859</ele>
        <time>2012-04-28T05:58:46.000Z</time>
      </trkpt>
      <trkpt lat="45.13632" lon="6.08673">
        <ele>1869.1999511719</ele>
        <time>2012-04-28T05:58:49.000Z</time>
      </trkpt>
      <trkpt lat="45.13639" lon="6.08676">
        <ele>1870.8000488281</ele>
        <time>2012-04-28T05:58:57.000Z</time>
      </trkpt>
      <trkpt lat="45.13644" lon="6.08681">
        <ele>1871.1999511719</ele>
        <time>2012-04-28T05:59:04.000Z</time>
      </trkpt>
      <trkpt lat="45.13649" lon="6.08685">
        <ele>1872.1999511719</ele>
        <time>2012-04-28T05:59:10.000Z</time>
      </trkpt>
      <trkpt lat="45.13657" lon="6.08692">
        <ele>1874</ele>
        <time>2012-04-28T05:59:19.000Z</time>
      </trkpt>
      <trkpt lat="45.13665" lon="6.08697">
        <ele>1875.1999511719</ele>
        <time>2012-04-28T05:59:27.000Z</time>
      </trkpt>
      <trkpt lat="45.13672" lon="6.08702">
        <ele>1876.4000244141</ele>
        <time>2012-04-28T05:59:34.000Z</time>
      </trkpt>
      <trkpt lat="45.13677" lon="6.0871">
        <ele>1878.4000244141</ele>
        <time>2012-04-28T05:59:41.000Z</time>
      </trkpt>
      <trkpt lat="45.13682" lon="6.08717">
        <ele>1880.8000488281</ele>
        <time>2012-04-28T05:59:49.000Z</time>
      </trkpt>
      <trkpt lat="45.13686" lon="6.08723">
        <ele>1882</ele>
        <time>2012-04-28T05:59:56.000Z</time>
      </trkpt>
      <trkpt lat="45.13687" lon="6.08725">
        <ele>1882.5999755859</ele>
        <time>2012-04-28T05:59:58.000Z</time>
      </trkpt>
      <trkpt lat="45.13691" lon="6.08735">
        <ele>1884.4000244141</ele>
        <time>2012-04-28T06:00:08.000Z</time>
      </trkpt>
      <trkpt lat="45.13691" lon="6.08744">
        <ele>1885.4000244141</ele>
        <time>2012-04-28T06:00:15.000Z</time>
      </trkpt>
      <trkpt lat="45.13692" lon="6.0876">
        <ele>1888</ele>
        <time>2012-04-28T06:00:22.000Z</time>
      </trkpt>
      <trkpt lat="45.13692" lon="6.08771">
        <ele>1889.1999511719</ele>
        <time>2012-04-28T06:00:28.000Z</time>
      </trkpt>
      <trkpt lat="45.13693" lon="6.08784">
        <ele>1891.8000488281</ele>
        <time>2012-04-28T06:00:37.000Z</time>
      </trkpt>
      <trkpt lat="45.13693" lon="6.08792">
        <ele>1893.4000244141</ele>
        <time>2012-04-28T06:00:43.000Z</time>
      </trkpt>
      <trkpt lat="45.13694" lon="6.088">
        <ele>1894.5999755859</ele>
        <time>2012-04-28T06:00:49.000Z</time>
      </trkpt>
      <trkpt lat="45.13697" lon="6.0881">
        <ele>1896</ele>
        <time>2012-04-28T06:00:59.000Z</time>
      </trkpt>
      <trkpt lat="45.13699" lon="6.0882">
        <ele>1897.4000244141</ele>
        <time>2012-04-28T06:01:07.000Z</time>
      </trkpt>
      <trkpt lat="45.13701" lon="6.08833">
        <ele>1899.8000488281</ele>
        <time>2012-04-28T06:01:16.000Z</time>
      </trkpt>
      <trkpt lat="45.13703" lon="6.08841">
        <ele>1901.4000244141</ele>
        <time>2012-04-28T06:01:23.000Z</time>
      </trkpt>
      <trkpt lat="45.13706" lon="6.0885">
        <ele>1904.1999511719</ele>
        <time>2012-04-28T06:01:32.000Z</time>
      </trkpt>
      <trkpt lat="45.1371" lon="6.08859">
        <ele>1906</ele>
        <time>2012-04-28T06:01:40.000Z</time>
      </trkpt>
      <trkpt lat="45.13712" lon="6.08867">
        <ele>1908.4000244141</ele>
        <time>2012-04-28T06:01:48.000Z</time>
      </trkpt>
      <trkpt lat="45.13715" lon="6.08872">
        <ele>1910.4000244141</ele>
        <time>2012-04-28T06:01:55.000Z</time>
      </trkpt>
      <trkpt lat="45.13717" lon="6.08878">
        <ele>1912</ele>
        <time>2012-04-28T06:02:02.000Z</time>
      </trkpt>
      <trkpt lat="45.13721" lon="6.08884">
        <ele>1914</ele>
        <time>2012-04-28T06:02:10.000Z</time>
      </trkpt>
      <trkpt lat="45.13725" lon="6.08891">
        <ele>1915.5999755859</ele>
        <time>2012-04-28T06:02:18.000Z</time>
      </trkpt>
      <trkpt lat="45.1373" lon="6.089">
        <ele>1918.4000244141</ele>
        <time>2012-04-28T06:02:27.000Z</time>
      </trkpt>
      <trkpt lat="45.13735" lon="6.08912">
        <ele>1920</ele>
        <time>2012-04-28T06:02:36.000Z</time>
      </trkpt>
      <trkpt lat="45.13739" lon="6.08919">
        <ele>1922.4000244141</ele>
        <time>2012-04-28T06:02:44.000Z</time>
      </trkpt>
      <trkpt lat="45.13743" lon="6.08931">
        <ele>1924.1999511719</ele>
        <time>2012-04-28T06:02:52.000Z</time>
      </trkpt>
      <trkpt lat="45.13744" lon="6.08933">
        <ele>1925</ele>
        <time>2012-04-28T06:02:54.000Z</time>
      </trkpt>
      <trkpt lat="45.13747" lon="6.08939">
        <ele>1927.1999511719</ele>
        <time>2012-04-28T06:03:01.000Z</time>
      </trkpt>
      <trkpt lat="45.13748" lon="6.0894">
        <ele>1928</ele>
        <time>2012-04-28T06:03:04.000Z</time>
      </trkpt>
      <trkpt lat="45.13751" lon="6.08945">
        <ele>1929.8000488281</ele>
        <time>2012-04-28T06:03:10.000Z</time>
      </trkpt>
      <trkpt lat="45.13755" lon="6.08953">
        <ele>1931.1999511719</ele>
        <time>2012-04-28T06:03:17.000Z</time>
      </trkpt>
      <trkpt lat="45.13757" lon="6.0896">
        <ele>1932.4000244141</ele>
        <time>2012-04-28T06:03:22.000Z</time>
      </trkpt>
      <trkpt lat="45.1376" lon="6.08966">
        <ele>1933.4000244141</ele>
        <time>2012-04-28T06:03:28.000Z</time>
      </trkpt>
      <trkpt lat="45.13765" lon="6.08976">
        <ele>1934.5999755859</ele>
        <time>2012-04-28T06:03:36.000Z</time>
      </trkpt>
      <trkpt lat="45.13767" lon="6.08979">
        <ele>1935</ele>
        <time>2012-04-28T06:03:40.000Z</time>
      </trkpt>
      <trkpt lat="45.1377" lon="6.08987">
        <ele>1936.1999511719</ele>
        <time>2012-04-28T06:03:47.000Z</time>
      </trkpt>
      <trkpt lat="45.13774" lon="6.08996">
        <ele>1937.5999755859</ele>
        <time>2012-04-28T06:03:54.000Z</time>
      </trkpt>
      <trkpt lat="45.13778" lon="6.09002">
        <ele>1939.1999511719</ele>
        <time>2012-04-28T06:04:01.000Z</time>
      </trkpt>
      <trkpt lat="45.13779" lon="6.09005">
        <ele>1939.5999755859</ele>
        <time>2012-04-28T06:04:04.000Z</time>
      </trkpt>
      <trkpt lat="45.13784" lon="6.09015">
        <ele>1941.1999511719</ele>
        <time>2012-04-28T06:04:13.000Z</time>
      </trkpt>
      <trkpt lat="45.13788" lon="6.09023">
        <ele>1943.1999511719</ele>
        <time>2012-04-28T06:04:21.000Z</time>
      </trkpt>
      <trkpt lat="45.13794" lon="6.09032">
        <ele>1946</ele>
        <time>2012-04-28T06:04:31.000Z</time>
      </trkpt>
      <trkpt lat="45.13797" lon="6.09033">
        <ele>1947.1999511719</ele>
        <time>2012-04-28T06:04:37.000Z</time>
      </trkpt>
      <trkpt lat="45.13799" lon="6.09038">
        <ele>1948.5999755859</ele>
        <time>2012-04-28T06:04:42.000Z</time>
      </trkpt>
      <trkpt lat="45.13803" lon="6.0904">
        <ele>1950.1999511719</ele>
        <time>2012-04-28T06:04:48.000Z</time>
      </trkpt>
      <trkpt lat="45.13808" lon="6.09043">
        <ele>1951.5999755859</ele>
        <time>2012-04-28T06:04:54.000Z</time>
      </trkpt>
      <trkpt lat="45.1381" lon="6.09046">
        <ele>1953.4000244141</ele>
        <time>2012-04-28T06:05:00.000Z</time>
      </trkpt>
      <trkpt lat="45.13812" lon="6.0905">
        <ele>1954.4000244141</ele>
        <time>2012-04-28T06:05:05.000Z</time>
      </trkpt>
      <trkpt lat="45.13815" lon="6.09057">
        <ele>1956.1999511719</ele>
        <time>2012-04-28T06:05:12.000Z</time>
      </trkpt>
      <trkpt lat="45.13819" lon="6.09063">
        <ele>1957.8000488281</ele>
        <time>2012-04-28T06:05:20.000Z</time>
      </trkpt>
      <trkpt lat="45.13823" lon="6.0907">
        <ele>1960</ele>
        <time>2012-04-28T06:05:28.000Z</time>
      </trkpt>
      <trkpt lat="45.13823" lon="6.09071">
        <ele>1960.8000488281</ele>
        <time>2012-04-28T06:05:30.000Z</time>
      </trkpt>
      <trkpt lat="45.13827" lon="6.09078">
        <ele>1962.8000488281</ele>
        <time>2012-04-28T06:05:38.000Z</time>
      </trkpt>
      <trkpt lat="45.1383" lon="6.09086">
        <ele>1964.5999755859</ele>
        <time>2012-04-28T06:05:45.000Z</time>
      </trkpt>
      <trkpt lat="45.13831" lon="6.09087">
        <ele>1964.5999755859</ele>
        <time>2012-04-28T06:05:46.000Z</time>
      </trkpt>
      <trkpt lat="45.13832" lon="6.09089">
        <ele>1965</ele>
        <time>2012-04-28T06:05:48.000Z</time>
      </trkpt>
      <trkpt lat="45.13835" lon="6.09096">
        <ele>1966.1999511719</ele>
        <time>2012-04-28T06:05:54.000Z</time>
      </trkpt>
      <trkpt lat="45.13838" lon="6.09106">
        <ele>1968</ele>
        <time>2012-04-28T06:06:04.000Z</time>
      </trkpt>
      <trkpt lat="45.13838" lon="6.09111">
        <ele>1968.8000488281</ele>
        <time>2012-04-28T06:06:08.000Z</time>
      </trkpt>
      <trkpt lat="45.13838" lon="6.09122">
        <ele>1970.5999755859</ele>
        <time>2012-04-28T06:06:16.000Z</time>
      </trkpt>
      <trkpt lat="45.13838" lon="6.09132">
        <ele>1972.1999511719</ele>
        <time>2012-04-28T06:06:23.000Z</time>
      </trkpt>
      <trkpt lat="45.1384" lon="6.09143">
        <ele>1973.8000488281</ele>
        <time>2012-04-28T06:06:31.000Z</time>
      </trkpt>
      <trkpt lat="45.13845" lon="6.09155">
        <ele>1976.1999511719</ele>
        <time>2012-04-28T06:06:40.000Z</time>
      </trkpt>
      <trkpt lat="45.13845" lon="6.09156">
        <ele>1976.4000244141</ele>
        <time>2012-04-28T06:06:41.000Z</time>
      </trkpt>
      <trkpt lat="45.13846" lon="6.09158">
        <ele>1976.5999755859</ele>
        <time>2012-04-28T06:06:42.000Z</time>
      </trkpt>
      <trkpt lat="45.13848" lon="6.09162">
        <ele>1977</ele>
        <time>2012-04-28T06:06:46.000Z</time>
      </trkpt>
      <trkpt lat="45.13854" lon="6.09176">
        <ele>1977.8000488281</ele>
        <time>2012-04-28T06:06:57.000Z</time>
      </trkpt>
      <trkpt lat="45.13859" lon="6.09186">
        <ele>1979.1999511719</ele>
        <time>2012-04-28T06:07:06.000Z</time>
      </trkpt>
      <trkpt lat="45.13861" lon="6.0919">
        <ele>1980.5999755859</ele>
        <time>2012-04-28T06:07:10.000Z</time>
      </trkpt>
      <trkpt lat="45.13865" lon="6.09197">
        <ele>1982</ele>
        <time>2012-04-28T06:07:17.000Z</time>
      </trkpt>
      <trkpt lat="45.13867" lon="6.09202">
        <ele>1983.1999511719</ele>
        <time>2012-04-28T06:07:21.000Z</time>
      </trkpt>
      <trkpt lat="45.13868" lon="6.09205">
        <ele>1983.4000244141</ele>
        <time>2012-04-28T06:07:23.000Z</time>
      </trkpt>
      <trkpt lat="45.13871" lon="6.09214">
        <ele>1985</ele>
        <time>2012-04-28T06:07:30.000Z</time>
      </trkpt>
      <trkpt lat="45.13873" lon="6.09221">
        <ele>1985.4000244141</ele>
        <time>2012-04-28T06:07:36.000Z</time>
      </trkpt>
      <trkpt lat="45.13879" lon="6.09234">
        <ele>1987.4000244141</ele>
        <time>2012-04-28T06:07:46.000Z</time>
      </trkpt>
      <trkpt lat="45.13883" lon="6.09246">
        <ele>1988.5999755859</ele>
        <time>2012-04-28T06:07:54.000Z</time>
      </trkpt>
      <trkpt lat="45.13885" lon="6.09258">
        <ele>1988.8000488281</ele>
        <time>2012-04-28T06:08:02.000Z</time>
      </trkpt>
      <trkpt lat="45.13886" lon="6.09267">
        <ele>1989.5999755859</ele>
        <time>2012-04-28T06:08:07.000Z</time>
      </trkpt>
      <trkpt lat="45.13888" lon="6.09279">
        <ele>1990.4000244141</ele>
        <time>2012-04-28T06:08:14.000Z</time>
      </trkpt>
      <trkpt lat="45.13888" lon="6.09286">
        <ele>1990.8000488281</ele>
        <time>2012-04-28T06:08:18.000Z</time>
      </trkpt>
      <trkpt lat="45.13888" lon="6.09295">
        <ele>1991.4000244141</ele>
        <time>2012-04-28T06:08:23.000Z</time>
      </trkpt>
      <trkpt lat="45.13888" lon="6.09303">
        <ele>1992</ele>
        <time>2012-04-28T06:08:28.000Z</time>
      </trkpt>
      <trkpt lat="45.13888" lon="6.09314">
        <ele>1992.5999755859</ele>
        <time>2012-04-28T06:08:34.000Z</time>
      </trkpt>
      <trkpt lat="45.13888" lon="6.09325">
        <ele>1993.4000244141</ele>
        <time>2012-04-28T06:08:40.000Z</time>
      </trkpt>
      <trkpt lat="45.13888" lon="6.09334">
        <ele>1994.5999755859</ele>
        <time>2012-04-28T06:08:45.000Z</time>
      </trkpt>
      <trkpt lat="45.13888" lon="6.09338">
        <ele>1994.5999755859</ele>
        <time>2012-04-28T06:08:47.000Z</time>
      </trkpt>
      <trkpt lat="45.13887" lon="6.09349">
        <ele>1995.5999755859</ele>
        <time>2012-04-28T06:08:54.000Z</time>
      </trkpt>
      <trkpt lat="45.13885" lon="6.09355">
        <ele>1995.1999511719</ele>
        <time>2012-04-28T06:08:58.000Z</time>
      </trkpt>
      <trkpt lat="45.13882" lon="6.09364">
        <ele>1995.8000488281</ele>
        <time>2012-04-28T06:09:04.000Z</time>
      </trkpt>
      <trkpt lat="45.1388" lon="6.09369">
        <ele>1996</ele>
        <time>2012-04-28T06:09:08.000Z</time>
      </trkpt>
      <trkpt lat="45.13876" lon="6.09375">
        <ele>1996.5999755859</ele>
        <time>2012-04-28T06:09:15.000Z</time>
      </trkpt>
      <trkpt lat="45.13868" lon="6.09384">
        <ele>1995.8000488281</ele>
        <time>2012-04-28T06:09:24.000Z</time>
      </trkpt>
      <trkpt lat="45.13862" lon="6.09391">
        <ele>1995.8000488281</ele>
        <time>2012-04-28T06:09:30.000Z</time>
      </trkpt>
      <trkpt lat="45.13856" lon="6.09399">
        <ele>1995.5999755859</ele>
        <time>2012-04-28T06:09:36.000Z</time>
      </trkpt>
      <trkpt lat="45.1385" lon="6.09407">
        <ele>1995.4000244141</ele>
        <time>2012-04-28T06:09:42.000Z</time>
      </trkpt>
      <trkpt lat="45.13848" lon="6.09409">
        <ele>1995.4000244141</ele>
        <time>2012-04-28T06:09:44.000Z</time>
      </trkpt>
      <trkpt lat="45.13845" lon="6.09414">
        <ele>1995.8000488281</ele>
        <time>2012-04-28T06:09:49.000Z</time>
      </trkpt>
      <trkpt lat="45.13842" lon="6.09418">
        <ele>1995.5999755859</ele>
        <time>2012-04-28T06:09:52.000Z</time>
      </trkpt>
      <trkpt lat="45.13835" lon="6.09426">
        <ele>1996.1999511719</ele>
        <time>2012-04-28T06:09:59.000Z</time>
      </trkpt>
      <trkpt lat="45.13832" lon="6.09427">
        <ele>1996.4000244141</ele>
        <time>2012-04-28T06:10:01.000Z</time>
      </trkpt>
      <trkpt lat="45.13822" lon="6.09437">
        <ele>1997.1999511719</ele>
        <time>2012-04-28T06:10:10.000Z</time>
      </trkpt>
      <trkpt lat="45.13812" lon="6.09446">
        <ele>1998</ele>
        <time>2012-04-28T06:10:19.000Z</time>
      </trkpt>
      <trkpt lat="45.13802" lon="6.09453">
        <ele>1999.4000244141</ele>
        <time>2012-04-28T06:10:27.000Z</time>
      </trkpt>
      <trkpt lat="45.13801" lon="6.09454">
        <ele>1999.1999511719</ele>
        <time>2012-04-28T06:10:28.000Z</time>
      </trkpt>
      <trkpt lat="45.13793" lon="6.09458">
        <ele>1999.5999755859</ele>
        <time>2012-04-28T06:10:33.000Z</time>
      </trkpt>
      <trkpt lat="45.13788" lon="6.09461">
        <ele>1999.4000244141</ele>
        <time>2012-04-28T06:10:37.000Z</time>
      </trkpt>
      <trkpt lat="45.1378" lon="6.09465">
        <ele>2000.5999755859</ele>
        <time>2012-04-28T06:10:44.000Z</time>
      </trkpt>
      <trkpt lat="45.13779" lon="6.09465">
        <ele>2000.8000488281</ele>
        <time>2012-04-28T06:10:45.000Z</time>
      </trkpt>
      <trkpt lat="45.13778" lon="6.09467">
        <ele>2001.1999511719</ele>
        <time>2012-04-28T06:10:47.000Z</time>
      </trkpt>
      <trkpt lat="45.1377" lon="6.09472">
        <ele>2003</ele>
        <time>2012-04-28T06:10:54.000Z</time>
      </trkpt>
      <trkpt lat="45.13764" lon="6.09475">
        <ele>2004.4000244141</ele>
        <time>2012-04-28T06:11:00.000Z</time>
      </trkpt>
      <trkpt lat="45.13758" lon="6.09478">
        <ele>2005.5999755859</ele>
        <time>2012-04-28T06:11:06.000Z</time>
      </trkpt>
      <trkpt lat="45.13751" lon="6.0948">
        <ele>2007.4000244141</ele>
        <time>2012-04-28T06:11:13.000Z</time>
      </trkpt>
      <trkpt lat="45.13746" lon="6.09482">
        <ele>2009</ele>
        <time>2012-04-28T06:11:19.000Z</time>
      </trkpt>
      <trkpt lat="45.13741" lon="6.09484">
        <ele>2010.1999511719</ele>
        <time>2012-04-28T06:11:24.000Z</time>
      </trkpt>
      <trkpt lat="45.13736" lon="6.09486">
        <ele>2012.1999511719</ele>
        <time>2012-04-28T06:11:30.000Z</time>
      </trkpt>
      <trkpt lat="45.1373" lon="6.09487">
        <ele>2013.4000244141</ele>
        <time>2012-04-28T06:11:36.000Z</time>
      </trkpt>
      <trkpt lat="45.1373" lon="6.09487">
        <ele>2013.5999755859</ele>
        <time>2012-04-28T06:11:37.000Z</time>
      </trkpt>
      <trkpt lat="45.13726" lon="6.0949">
        <ele>2015.4000244141</ele>
        <time>2012-04-28T06:11:42.000Z</time>
      </trkpt>
      <trkpt lat="45.13723" lon="6.09492">
        <ele>2015</ele>
        <time>2012-04-28T06:11:46.000Z</time>
      </trkpt>
      <trkpt lat="45.13718" lon="6.09493">
        <ele>2016.5999755859</ele>
        <time>2012-04-28T06:11:51.000Z</time>
      </trkpt>
      <trkpt lat="45.13717" lon="6.09493">
        <ele>2016.8000488281</ele>
        <time>2012-04-28T06:11:52.000Z</time>
      </trkpt>
      <trkpt lat="45.13711" lon="6.09493">
        <ele>2017.8000488281</ele>
        <time>2012-04-28T06:11:58.000Z</time>
      </trkpt>
      <trkpt lat="45.13703" lon="6.09495">
        <ele>2019.5999755859</ele>
        <time>2012-04-28T06:12:04.000Z</time>
      </trkpt>
      <trkpt lat="45.13696" lon="6.09495">
        <ele>2020.8000488281</ele>
        <time>2012-04-28T06:12:12.000Z</time>
      </trkpt>
      <trkpt lat="45.13695" lon="6.09495">
        <ele>2021.1999511719</ele>
        <time>2012-04-28T06:12:13.000Z</time>
      </trkpt>
      <trkpt lat="45.13686" lon="6.09493">
        <ele>2023.5999755859</ele>
        <time>2012-04-28T06:12:23.000Z</time>
      </trkpt>
      <trkpt lat="45.13681" lon="6.09493">
        <ele>2024.8000488281</ele>
        <time>2012-04-28T06:12:28.000Z</time>
      </trkpt>
      <trkpt lat="45.13679" lon="6.09492">
        <ele>2025</ele>
        <time>2012-04-28T06:12:29.000Z</time>
      </trkpt>
      <trkpt lat="45.13677" lon="6.09492">
        <ele>2025.1999511719</ele>
        <time>2012-04-28T06:12:31.000Z</time>
      </trkpt>
      <trkpt lat="45.13676" lon="6.09492">
        <ele>2025.8000488281</ele>
        <time>2012-04-28T06:12:33.000Z</time>
      </trkpt>
      <trkpt lat="45.1367" lon="6.09491">
        <ele>2027.1999511719</ele>
        <time>2012-04-28T06:12:38.000Z</time>
      </trkpt>
      <trkpt lat="45.13667" lon="6.0949">
        <ele>2027.4000244141</ele>
        <time>2012-04-28T06:12:40.000Z</time>
      </trkpt>
      <trkpt lat="45.13665" lon="6.09489">
        <ele>2028</ele>
        <time>2012-04-28T06:12:42.000Z</time>
      </trkpt>
      <trkpt lat="45.1366" lon="6.09487">
        <ele>2028.5999755859</ele>
        <time>2012-04-28T06:12:47.000Z</time>
      </trkpt>
      <trkpt lat="45.1365" lon="6.09486">
        <ele>2029.5999755859</ele>
        <time>2012-04-28T06:12:54.000Z</time>
      </trkpt>
      <trkpt lat="45.13644" lon="6.09487">
        <ele>2030.5999755859</ele>
        <time>2012-04-28T06:13:00.000Z</time>
      </trkpt>
      <trkpt lat="45.1364" lon="6.09486">
        <ele>2030.8000488281</ele>
        <time>2012-04-28T06:13:03.000Z</time>
      </trkpt>
      <trkpt lat="45.13637" lon="6.09484">
        <ele>2031</ele>
        <time>2012-04-28T06:13:05.000Z</time>
      </trkpt>
      <trkpt lat="45.1363" lon="6.09482">
        <ele>2031</ele>
        <time>2012-04-28T06:13:09.000Z</time>
      </trkpt>
      <trkpt lat="45.1362" lon="6.09483">
        <ele>2031.4000244141</ele>
        <time>2012-04-28T06:13:15.000Z</time>
      </trkpt>
      <trkpt lat="45.13615" lon="6.09486">
        <ele>2031.4000244141</ele>
        <time>2012-04-28T06:13:19.000Z</time>
      </trkpt>
      <trkpt lat="45.13612" lon="6.09487">
        <ele>2031.4000244141</ele>
        <time>2012-04-28T06:13:21.000Z</time>
      </trkpt>
      <trkpt lat="45.13603" lon="6.09489">
        <ele>2032</ele>
        <time>2012-04-28T06:13:28.000Z</time>
      </trkpt>
      <trkpt lat="45.13601" lon="6.09491">
        <ele>2032.1999511719</ele>
        <time>2012-04-28T06:13:29.000Z</time>
      </trkpt>
      <trkpt lat="45.13598" lon="6.09494">
        <ele>2032.1999511719</ele>
        <time>2012-04-28T06:13:32.000Z</time>
      </trkpt>
      <trkpt lat="45.13593" lon="6.09497">
        <ele>2032.4000244141</ele>
        <time>2012-04-28T06:13:36.000Z</time>
      </trkpt>
      <trkpt lat="45.13588" lon="6.09501">
        <ele>2033.1999511719</ele>
        <time>2012-04-28T06:13:41.000Z</time>
      </trkpt>
      <trkpt lat="45.13585" lon="6.09503">
        <ele>2033.4000244141</ele>
        <time>2012-04-28T06:13:44.000Z</time>
      </trkpt>
      <trkpt lat="45.13582" lon="6.09504">
        <ele>2033.8000488281</ele>
        <time>2012-04-28T06:13:47.000Z</time>
      </trkpt>
      <trkpt lat="45.13573" lon="6.0951">
        <ele>2034.1999511719</ele>
        <time>2012-04-28T06:13:54.000Z</time>
      </trkpt>
      <trkpt lat="45.13567" lon="6.0951">
        <ele>2034.5999755859</ele>
        <time>2012-04-28T06:13:58.000Z</time>
      </trkpt>
      <trkpt lat="45.13558" lon="6.09511">
        <ele>2035</ele>
        <time>2012-04-28T06:14:05.000Z</time>
      </trkpt>
      <trkpt lat="45.13551" lon="6.0951">
        <ele>2035</ele>
        <time>2012-04-28T06:14:10.000Z</time>
      </trkpt>
      <trkpt lat="45.13542" lon="6.0951">
        <ele>2035.5999755859</ele>
        <time>2012-04-28T06:14:16.000Z</time>
      </trkpt>
      <trkpt lat="45.13537" lon="6.09513">
        <ele>2035.5999755859</ele>
        <time>2012-04-28T06:14:20.000Z</time>
      </trkpt>
      <trkpt lat="45.13531" lon="6.09511">
        <ele>2036</ele>
        <time>2012-04-28T06:14:25.000Z</time>
      </trkpt>
      <trkpt lat="45.13519" lon="6.09507">
        <ele>2036.8000488281</ele>
        <time>2012-04-28T06:14:33.000Z</time>
      </trkpt>
      <trkpt lat="45.13516" lon="6.09507">
        <ele>2036.5999755859</ele>
        <time>2012-04-28T06:14:35.000Z</time>
      </trkpt>
      <trkpt lat="45.1351" lon="6.09506">
        <ele>2037</ele>
        <time>2012-04-28T06:14:39.000Z</time>
      </trkpt>
      <trkpt lat="45.13499" lon="6.09499">
        <ele>2037.5999755859</ele>
        <time>2012-04-28T06:14:47.000Z</time>
      </trkpt>
      <trkpt lat="45.13491" lon="6.09494">
        <ele>2038</ele>
        <time>2012-04-28T06:14:53.000Z</time>
      </trkpt>
      <trkpt lat="45.13483" lon="6.09489">
        <ele>2038.8000488281</ele>
        <time>2012-04-28T06:14:59.000Z</time>
      </trkpt>
      <trkpt lat="45.13474" lon="6.09484">
        <ele>2038.5999755859</ele>
        <time>2012-04-28T06:15:05.000Z</time>
      </trkpt>
      <trkpt lat="45.13464" lon="6.0948">
        <ele>2039</ele>
        <time>2012-04-28T06:15:11.000Z</time>
      </trkpt>
      <trkpt lat="45.1346" lon="6.09478">
        <ele>2038.4000244141</ele>
        <time>2012-04-28T06:15:14.000Z</time>
      </trkpt>
      <trkpt lat="45.13453" lon="6.09474">
        <ele>2038.4000244141</ele>
        <time>2012-04-28T06:15:18.000Z</time>
      </trkpt>
      <trkpt lat="45.13448" lon="6.09471">
        <ele>2038.1999511719</ele>
        <time>2012-04-28T06:15:21.000Z</time>
      </trkpt>
      <trkpt lat="45.13437" lon="6.09471">
        <ele>2038.4000244141</ele>
        <time>2012-04-28T06:15:28.000Z</time>
      </trkpt>
      <trkpt lat="45.1343" lon="6.0947">
        <ele>2038.5999755859</ele>
        <time>2012-04-28T06:15:33.000Z</time>
      </trkpt>
      <trkpt lat="45.13423" lon="6.09468">
        <ele>2038.8000488281</ele>
        <time>2012-04-28T06:15:38.000Z</time>
      </trkpt>
      <trkpt lat="45.13415" lon="6.09465">
        <ele>2038.4000244141</ele>
        <time>2012-04-28T06:15:44.000Z</time>
      </trkpt>
      <trkpt lat="45.13407" lon="6.09464">
        <ele>2039.1999511719</ele>
        <time>2012-04-28T06:15:50.000Z</time>
      </trkpt>
      <trkpt lat="45.134" lon="6.09462">
        <ele>2039.5999755859</ele>
        <time>2012-04-28T06:15:55.000Z</time>
      </trkpt>
      <trkpt lat="45.1339" lon="6.0946">
        <ele>2040.1999511719</ele>
        <time>2012-04-28T06:16:02.000Z</time>
      </trkpt>
      <trkpt lat="45.13382" lon="6.09458">
        <ele>2041.8000488281</ele>
        <time>2012-04-28T06:16:08.000Z</time>
      </trkpt>
      <trkpt lat="45.13376" lon="6.09458">
        <ele>2042</ele>
        <time>2012-04-28T06:16:13.000Z</time>
      </trkpt>
      <trkpt lat="45.13365" lon="6.09457">
        <ele>2043.1999511719</ele>
        <time>2012-04-28T06:16:22.000Z</time>
      </trkpt>
      <trkpt lat="45.13356" lon="6.09456">
        <ele>2043.8000488281</ele>
        <time>2012-04-28T06:16:30.000Z</time>
      </trkpt>
      <trkpt lat="45.13351" lon="6.09456">
        <ele>2044.5999755859</ele>
        <time>2012-04-28T06:16:34.000Z</time>
      </trkpt>
      <trkpt lat="45.13344" lon="6.09454">
        <ele>2045.1999511719</ele>
        <time>2012-04-28T06:16:40.000Z</time>
      </trkpt>
      <trkpt lat="45.1334" lon="6.09454">
        <ele>2045.4000244141</ele>
        <time>2012-04-28T06:16:43.000Z</time>
      </trkpt>
      <trkpt lat="45.13336" lon="6.09452">
        <ele>2045.8000488281</ele>
        <time>2012-04-28T06:16:47.000Z</time>
      </trkpt>
      <trkpt lat="45.13324" lon="6.09453">
        <ele>2047.8000488281</ele>
        <time>2012-04-28T06:16:58.000Z</time>
      </trkpt>
      <trkpt lat="45.13313" lon="6.09453">
        <ele>2049</ele>
        <time>2012-04-28T06:17:07.000Z</time>
      </trkpt>
      <trkpt lat="45.13304" lon="6.09454">
        <ele>2050</ele>
        <time>2012-04-28T06:17:14.000Z</time>
      </trkpt>
      <trkpt lat="45.13292" lon="6.09453">
        <ele>2050.6000976562</ele>
        <time>2012-04-28T06:17:23.000Z</time>
      </trkpt>
      <trkpt lat="45.13283" lon="6.09453">
        <ele>2051.1999511719</ele>
        <time>2012-04-28T06:17:31.000Z</time>
      </trkpt>
      <trkpt lat="45.13274" lon="6.09453">
        <ele>2052</ele>
        <time>2012-04-28T06:17:38.000Z</time>
      </trkpt>
      <trkpt lat="45.13266" lon="6.09453">
        <ele>2052.8000488281</ele>
        <time>2012-04-28T06:17:44.000Z</time>
      </trkpt>
      <trkpt lat="45.13263" lon="6.09453">
        <ele>2053</ele>
        <time>2012-04-28T06:17:47.000Z</time>
      </trkpt>
      <trkpt lat="45.13258" lon="6.09453">
        <ele>2054.1999511719</ele>
        <time>2012-04-28T06:17:51.000Z</time>
      </trkpt>
      <trkpt lat="45.13252" lon="6.09454">
        <ele>2054.8000488281</ele>
        <time>2012-04-28T06:17:57.000Z</time>
      </trkpt>
      <trkpt lat="45.1325" lon="6.09454">
        <ele>2054.6000976562</ele>
        <time>2012-04-28T06:17:58.000Z</time>
      </trkpt>
      <trkpt lat="45.13244" lon="6.09455">
        <ele>2055.3999023438</ele>
        <time>2012-04-28T06:18:04.000Z</time>
      </trkpt>
      <trkpt lat="45.13239" lon="6.09454">
        <ele>2056.6000976562</ele>
        <time>2012-04-28T06:18:09.000Z</time>
      </trkpt>
      <trkpt lat="45.13233" lon="6.09454">
        <ele>2056.8000488281</ele>
        <time>2012-04-28T06:18:14.000Z</time>
      </trkpt>
      <trkpt lat="45.13222" lon="6.09453">
        <ele>2058</ele>
        <time>2012-04-28T06:18:23.000Z</time>
      </trkpt>
      <trkpt lat="45.1322" lon="6.09453">
        <ele>2058</ele>
        <time>2012-04-28T06:18:25.000Z</time>
      </trkpt>
      <trkpt lat="45.13213" lon="6.09452">
        <ele>2059.3999023438</ele>
        <time>2012-04-28T06:18:31.000Z</time>
      </trkpt>
      <trkpt lat="45.13207" lon="6.09451">
        <ele>2060.3999023438</ele>
        <time>2012-04-28T06:18:35.000Z</time>
      </trkpt>
      <trkpt lat="45.13205" lon="6.09451">
        <ele>2060.6000976562</ele>
        <time>2012-04-28T06:18:37.000Z</time>
      </trkpt>
      <trkpt lat="45.13199" lon="6.09451">
        <ele>2061.1999511719</ele>
        <time>2012-04-28T06:18:42.000Z</time>
      </trkpt>
      <trkpt lat="45.13196" lon="6.09451">
        <ele>2061.1999511719</ele>
        <time>2012-04-28T06:18:44.000Z</time>
      </trkpt>
      <trkpt lat="45.13189" lon="6.0945">
        <ele>2062.6000976562</ele>
        <time>2012-04-28T06:18:51.000Z</time>
      </trkpt>
      <trkpt lat="45.13179" lon="6.09449">
        <ele>2063.1999511719</ele>
        <time>2012-04-28T06:18:58.000Z</time>
      </trkpt>
      <trkpt lat="45.13176" lon="6.09449">
        <ele>2063.1999511719</ele>
        <time>2012-04-28T06:19:01.000Z</time>
      </trkpt>
      <trkpt lat="45.1317" lon="6.09451">
        <ele>2064</ele>
        <time>2012-04-28T06:19:06.000Z</time>
      </trkpt>
      <trkpt lat="45.13164" lon="6.09449">
        <ele>2064.3999023438</ele>
        <time>2012-04-28T06:19:10.000Z</time>
      </trkpt>
      <trkpt lat="45.13158" lon="6.09449">
        <ele>2065</ele>
        <time>2012-04-28T06:19:13.000Z</time>
      </trkpt>
      <trkpt lat="45.13155" lon="6.09449">
        <ele>2066.1999511719</ele>
        <time>2012-04-28T06:19:16.000Z</time>
      </trkpt>
      <trkpt lat="45.13152" lon="6.09449">
        <ele>2067</ele>
        <time>2012-04-28T06:19:19.000Z</time>
      </trkpt>
      <trkpt lat="45.13148" lon="6.09449">
        <ele>2066.8000488281</ele>
        <time>2012-04-28T06:19:24.000Z</time>
      </trkpt>
      <trkpt lat="45.13143" lon="6.09448">
        <ele>2068</ele>
        <time>2012-04-28T06:19:29.000Z</time>
      </trkpt>
      <trkpt lat="45.13136" lon="6.09448">
        <ele>2068.8000488281</ele>
        <time>2012-04-28T06:19:34.000Z</time>
      </trkpt>
      <trkpt lat="45.13127" lon="6.09451">
        <ele>2069.6000976562</ele>
        <time>2012-04-28T06:19:42.000Z</time>
      </trkpt>
      <trkpt lat="45.13123" lon="6.0945">
        <ele>2070</ele>
        <time>2012-04-28T06:19:46.000Z</time>
      </trkpt>
      <trkpt lat="45.13116" lon="6.09452">
        <ele>2071</ele>
        <time>2012-04-28T06:19:53.000Z</time>
      </trkpt>
      <trkpt lat="45.1311" lon="6.09451">
        <ele>2072</ele>
        <time>2012-04-28T06:19:58.000Z</time>
      </trkpt>
      <trkpt lat="45.13104" lon="6.09451">
        <ele>2072</ele>
        <time>2012-04-28T06:20:03.000Z</time>
      </trkpt>
      <trkpt lat="45.131" lon="6.09452">
        <ele>2072.3999023438</ele>
        <time>2012-04-28T06:20:07.000Z</time>
      </trkpt>
      <trkpt lat="45.13093" lon="6.09452">
        <ele>2073.1999511719</ele>
        <time>2012-04-28T06:20:12.000Z</time>
      </trkpt>
      <trkpt lat="45.13089" lon="6.09451">
        <ele>2074</ele>
        <time>2012-04-28T06:20:16.000Z</time>
      </trkpt>
      <trkpt lat="45.13084" lon="6.09451">
        <ele>2074.3999023438</ele>
        <time>2012-04-28T06:20:20.000Z</time>
      </trkpt>
      <trkpt lat="45.13079" lon="6.0945">
        <ele>2075.3999023438</ele>
        <time>2012-04-28T06:20:25.000Z</time>
      </trkpt>
      <trkpt lat="45.13077" lon="6.0945">
        <ele>2075.6000976562</ele>
        <time>2012-04-28T06:20:27.000Z</time>
      </trkpt>
      <trkpt lat="45.13073" lon="6.09448">
        <ele>2075.8000488281</ele>
        <time>2012-04-28T06:20:31.000Z</time>
      </trkpt>
      <trkpt lat="45.13072" lon="6.09449">
        <ele>2076.6000976562</ele>
        <time>2012-04-28T06:20:33.000Z</time>
      </trkpt>
      <trkpt lat="45.13068" lon="6.09449">
        <ele>2077.3999023438</ele>
        <time>2012-04-28T06:20:38.000Z</time>
      </trkpt>
      <trkpt lat="45.13062" lon="6.09449">
        <ele>2078.3999023438</ele>
        <time>2012-04-28T06:20:44.000Z</time>
      </trkpt>
      <trkpt lat="45.13054" lon="6.09446">
        <ele>2079.6000976562</ele>
        <time>2012-04-28T06:20:51.000Z</time>
      </trkpt>
      <trkpt lat="45.13049" lon="6.09444">
        <ele>2080.3999023438</ele>
        <time>2012-04-28T06:20:56.000Z</time>
      </trkpt>
      <trkpt lat="45.13043" lon="6.09444">
        <ele>2081.6000976562</ele>
        <time>2012-04-28T06:21:03.000Z</time>
      </trkpt>
      <trkpt lat="45.13038" lon="6.09444">
        <ele>2082.6000976562</ele>
        <time>2012-04-28T06:21:08.000Z</time>
      </trkpt>
      <trkpt lat="45.13032" lon="6.09443">
        <ele>2083.8000488281</ele>
        <time>2012-04-28T06:21:14.000Z</time>
      </trkpt>
      <trkpt lat="45.13025" lon="6.09442">
        <ele>2084.8000488281</ele>
        <time>2012-04-28T06:21:22.000Z</time>
      </trkpt>
      <trkpt lat="45.1302" lon="6.09441">
        <ele>2086</ele>
        <time>2012-04-28T06:21:27.000Z</time>
      </trkpt>
      <trkpt lat="45.13014" lon="6.09439">
        <ele>2086.8000488281</ele>
        <time>2012-04-28T06:21:32.000Z</time>
      </trkpt>
      <trkpt lat="45.13011" lon="6.0944">
        <ele>2087.1999511719</ele>
        <time>2012-04-28T06:21:35.000Z</time>
      </trkpt>
      <trkpt lat="45.13002" lon="6.09437">
        <ele>2089</ele>
        <time>2012-04-28T06:21:45.000Z</time>
      </trkpt>
      <trkpt lat="45.12998" lon="6.09435">
        <ele>2090</ele>
        <time>2012-04-28T06:21:50.000Z</time>
      </trkpt>
      <trkpt lat="45.12991" lon="6.09432">
        <ele>2091.6000976562</ele>
        <time>2012-04-28T06:21:58.000Z</time>
      </trkpt>
      <trkpt lat="45.12983" lon="6.09429">
        <ele>2091.8000488281</ele>
        <time>2012-04-28T06:22:05.000Z</time>
      </trkpt>
      <trkpt lat="45.12982" lon="6.09429">
        <ele>2092</ele>
        <time>2012-04-28T06:22:06.000Z</time>
      </trkpt>
      <trkpt lat="45.12979" lon="6.09429">
        <ele>2093.3999023438</ele>
        <time>2012-04-28T06:22:09.000Z</time>
      </trkpt>
      <trkpt lat="45.12977" lon="6.0943">
        <ele>2093.8000488281</ele>
        <time>2012-04-28T06:22:12.000Z</time>
      </trkpt>
      <trkpt lat="45.12974" lon="6.09431">
        <ele>2094</ele>
        <time>2012-04-28T06:22:14.000Z</time>
      </trkpt>
      <trkpt lat="45.1297" lon="6.0943">
        <ele>2095</ele>
        <time>2012-04-28T06:22:19.000Z</time>
      </trkpt>
      <trkpt lat="45.12963" lon="6.09428">
        <ele>2096.3999023438</ele>
        <time>2012-04-28T06:22:26.000Z</time>
      </trkpt>
      <trkpt lat="45.12962" lon="6.09427">
        <ele>2096.8000488281</ele>
        <time>2012-04-28T06:22:27.000Z</time>
      </trkpt>
      <trkpt lat="45.12957" lon="6.09427">
        <ele>2097.3999023438</ele>
        <time>2012-04-28T06:22:31.000Z</time>
      </trkpt>
      <trkpt lat="45.12952" lon="6.09426">
        <ele>2098.3999023438</ele>
        <time>2012-04-28T06:22:38.000Z</time>
      </trkpt>
      <trkpt lat="45.1295" lon="6.09425">
        <ele>2098.8000488281</ele>
        <time>2012-04-28T06:22:40.000Z</time>
      </trkpt>
      <trkpt lat="45.12946" lon="6.09425">
        <ele>2099.3999023438</ele>
        <time>2012-04-28T06:22:44.000Z</time>
      </trkpt>
      <trkpt lat="45.12939" lon="6.09427">
        <ele>2100.8000488281</ele>
        <time>2012-04-28T06:22:51.000Z</time>
      </trkpt>
      <trkpt lat="45.12933" lon="6.09429">
        <ele>2102.1999511719</ele>
        <time>2012-04-28T06:22:58.000Z</time>
      </trkpt>
      <trkpt lat="45.12927" lon="6.09431">
        <ele>2103.1999511719</ele>
        <time>2012-04-28T06:23:04.000Z</time>
      </trkpt>
      <trkpt lat="45.12925" lon="6.09432">
        <ele>2103.8000488281</ele>
        <time>2012-04-28T06:23:07.000Z</time>
      </trkpt>
      <trkpt lat="45.12919" lon="6.09433">
        <ele>2104.6000976562</ele>
        <time>2012-04-28T06:23:13.000Z</time>
      </trkpt>
      <trkpt lat="45.12918" lon="6.09434">
        <ele>2105</ele>
        <time>2012-04-28T06:23:15.000Z</time>
      </trkpt>
      <trkpt lat="45.12913" lon="6.09438">
        <ele>2106.8000488281</ele>
        <time>2012-04-28T06:23:23.000Z</time>
      </trkpt>
      <trkpt lat="45.12909" lon="6.09442">
        <ele>2108.6000976562</ele>
        <time>2012-04-28T06:23:30.000Z</time>
      </trkpt>
      <trkpt lat="45.12906" lon="6.09446">
        <ele>2110.1999511719</ele>
        <time>2012-04-28T06:23:36.000Z</time>
      </trkpt>
      <trkpt lat="45.12903" lon="6.09448">
        <ele>2112.1999511719</ele>
        <time>2012-04-28T06:23:42.000Z</time>
      </trkpt>
      <trkpt lat="45.12899" lon="6.09453">
        <ele>2114</ele>
        <time>2012-04-28T06:23:50.000Z</time>
      </trkpt>
      <trkpt lat="45.12896" lon="6.09456">
        <ele>2115.8000488281</ele>
        <time>2012-04-28T06:23:57.000Z</time>
      </trkpt>
      <trkpt lat="45.12892" lon="6.09459">
        <ele>2118</ele>
        <time>2012-04-28T06:24:06.000Z</time>
      </trkpt>
      <trkpt lat="45.1289" lon="6.09461">
        <ele>2119.8000488281</ele>
        <time>2012-04-28T06:24:11.000Z</time>
      </trkpt>
      <trkpt lat="45.12891" lon="6.09464">
        <ele>2120.1999511719</ele>
        <time>2012-04-28T06:24:24.000Z</time>
      </trkpt>
      <trkpt lat="45.12889" lon="6.09465">
        <ele>2121.8000488281</ele>
        <time>2012-04-28T06:24:28.000Z</time>
      </trkpt>
      <trkpt lat="45.12886" lon="6.09468">
        <ele>2123.6000976562</ele>
        <time>2012-04-28T06:24:33.000Z</time>
      </trkpt>
      <trkpt lat="45.12884" lon="6.0947">
        <ele>2124.3999023438</ele>
        <time>2012-04-28T06:24:36.000Z</time>
      </trkpt>
      <trkpt lat="45.12878" lon="6.09474">
        <ele>2127.1999511719</ele>
        <time>2012-04-28T06:24:46.000Z</time>
      </trkpt>
      <trkpt lat="45.12875" lon="6.09477">
        <ele>2129.1999511719</ele>
        <time>2012-04-28T06:24:52.000Z</time>
      </trkpt>
      <trkpt lat="45.12873" lon="6.09479">
        <ele>2130.3999023438</ele>
        <time>2012-04-28T06:24:58.000Z</time>
      </trkpt>
      <trkpt lat="45.12871" lon="6.09482">
        <ele>2132</ele>
        <time>2012-04-28T06:25:03.000Z</time>
      </trkpt>
      <trkpt lat="45.12868" lon="6.09483">
        <ele>2134.1999511719</ele>
        <time>2012-04-28T06:25:09.000Z</time>
      </trkpt>
      <trkpt lat="45.12865" lon="6.09485">
        <ele>2135.6000976562</ele>
        <time>2012-04-28T06:25:15.000Z</time>
      </trkpt>
      <trkpt lat="45.12863" lon="6.09487">
        <ele>2137</ele>
        <time>2012-04-28T06:25:20.000Z</time>
      </trkpt>
      <trkpt lat="45.1286" lon="6.09492">
        <ele>2139.3999023438</ele>
        <time>2012-04-28T06:25:27.000Z</time>
      </trkpt>
      <trkpt lat="45.12859" lon="6.09494">
        <ele>2140.6000976562</ele>
        <time>2012-04-28T06:25:32.000Z</time>
      </trkpt>
      <trkpt lat="45.12859" lon="6.09495">
        <ele>2141</ele>
        <time>2012-04-28T06:25:33.000Z</time>
      </trkpt>
      <trkpt lat="45.12858" lon="6.09498">
        <ele>2142.3999023438</ele>
        <time>2012-04-28T06:25:37.000Z</time>
      </trkpt>
      <trkpt lat="45.12857" lon="6.09499">
        <ele>2142.6000976562</ele>
        <time>2012-04-28T06:25:39.000Z</time>
      </trkpt>
      <trkpt lat="45.12854" lon="6.09505">
        <ele>2144.3999023438</ele>
        <time>2012-04-28T06:25:46.000Z</time>
      </trkpt>
      <trkpt lat="45.12854" lon="6.09505">
        <ele>2144.8000488281</ele>
        <time>2012-04-28T06:25:47.000Z</time>
      </trkpt>
      <trkpt lat="45.12851" lon="6.09509">
        <ele>2146.6000976562</ele>
        <time>2012-04-28T06:25:54.000Z</time>
      </trkpt>
      <trkpt lat="45.12851" lon="6.0951">
        <ele>2147.3999023438</ele>
        <time>2012-04-28T06:25:56.000Z</time>
      </trkpt>
      <trkpt lat="45.12849" lon="6.09513">
        <ele>2148.6000976562</ele>
        <time>2012-04-28T06:26:01.000Z</time>
      </trkpt>
      <trkpt lat="45.12849" lon="6.09514">
        <ele>2149.3999023438</ele>
        <time>2012-04-28T06:26:03.000Z</time>
      </trkpt>
      <trkpt lat="45.12846" lon="6.09516">
        <ele>2150.1999511719</ele>
        <time>2012-04-28T06:26:08.000Z</time>
      </trkpt>
      <trkpt lat="45.12845" lon="6.09518">
        <ele>2151.1999511719</ele>
        <time>2012-04-28T06:26:11.000Z</time>
      </trkpt>
      <trkpt lat="45.12842" lon="6.0952">
        <ele>2152.6000976562</ele>
        <time>2012-04-28T06:26:16.000Z</time>
      </trkpt>
      <trkpt lat="45.12842" lon="6.0952">
        <ele>2152.8000488281</ele>
        <time>2012-04-28T06:26:17.000Z</time>
      </trkpt>
      <trkpt lat="45.12838" lon="6.09522">
        <ele>2153.6000976562</ele>
        <time>2012-04-28T06:26:22.000Z</time>
      </trkpt>
      <trkpt lat="45.12836" lon="6.09526">
        <ele>2155</ele>
        <time>2012-04-28T06:26:26.000Z</time>
      </trkpt>
      <trkpt lat="45.12831" lon="6.09533">
        <ele>2156.6000976562</ele>
        <time>2012-04-28T06:26:35.000Z</time>
      </trkpt>
      <trkpt lat="45.12828" lon="6.09538">
        <ele>2157.8000488281</ele>
        <time>2012-04-28T06:26:42.000Z</time>
      </trkpt>
      <trkpt lat="45.12825" lon="6.09543">
        <ele>2159.6000976562</ele>
        <time>2012-04-28T06:26:49.000Z</time>
      </trkpt>
      <trkpt lat="45.12822" lon="6.09548">
        <ele>2161.6000976562</ele>
        <time>2012-04-28T06:26:56.000Z</time>
      </trkpt>
      <trkpt lat="45.12819" lon="6.09552">
        <ele>2163</ele>
        <time>2012-04-28T06:27:03.000Z</time>
      </trkpt>
      <trkpt lat="45.12816" lon="6.09554">
        <ele>2164.6000976562</ele>
        <time>2012-04-28T06:27:08.000Z</time>
      </trkpt>
      <trkpt lat="45.12811" lon="6.09557">
        <ele>2166.1999511719</ele>
        <time>2012-04-28T06:27:15.000Z</time>
      </trkpt>
      <trkpt lat="45.12808" lon="6.0956">
        <ele>2167.1999511719</ele>
        <time>2012-04-28T06:27:20.000Z</time>
      </trkpt>
      <trkpt lat="45.12806" lon="6.09563">
        <ele>2168</ele>
        <time>2012-04-28T06:27:24.000Z</time>
      </trkpt>
      <trkpt lat="45.12802" lon="6.09564">
        <ele>2168.8000488281</ele>
        <time>2012-04-28T06:27:29.000Z</time>
      </trkpt>
      <trkpt lat="45.12798" lon="6.09566">
        <ele>2170.1999511719</ele>
        <time>2012-04-28T06:27:35.000Z</time>
      </trkpt>
      <trkpt lat="45.12794" lon="6.0957">
        <ele>2171.6000976562</ele>
        <time>2012-04-28T06:27:42.000Z</time>
      </trkpt>
      <trkpt lat="45.12791" lon="6.09573">
        <ele>2173</ele>
        <time>2012-04-28T06:27:48.000Z</time>
      </trkpt>
      <trkpt lat="45.12788" lon="6.09575">
        <ele>2174.3999023438</ele>
        <time>2012-04-28T06:27:53.000Z</time>
      </trkpt>
      <trkpt lat="45.12785" lon="6.09577">
        <ele>2175</ele>
        <time>2012-04-28T06:27:58.000Z</time>
      </trkpt>
      <trkpt lat="45.12781" lon="6.09579">
        <ele>2176.1999511719</ele>
        <time>2012-04-28T06:28:03.000Z</time>
      </trkpt>
      <trkpt lat="45.12779" lon="6.0958">
        <ele>2177.8000488281</ele>
        <time>2012-04-28T06:28:08.000Z</time>
      </trkpt>
      <trkpt lat="45.12776" lon="6.09582">
        <ele>2178.1999511719</ele>
        <time>2012-04-28T06:28:13.000Z</time>
      </trkpt>
      <trkpt lat="45.12774" lon="6.09582">
        <ele>2179.1999511719</ele>
        <time>2012-04-28T06:28:17.000Z</time>
      </trkpt>
      <trkpt lat="45.12772" lon="6.09584">
        <ele>2180</ele>
        <time>2012-04-28T06:28:22.000Z</time>
      </trkpt>
      <trkpt lat="45.12768" lon="6.09587">
        <ele>2181.6000976562</ele>
        <time>2012-04-28T06:28:27.000Z</time>
      </trkpt>
      <trkpt lat="45.12763" lon="6.09591">
        <ele>2183.1999511719</ele>
        <time>2012-04-28T06:28:34.000Z</time>
      </trkpt>
      <trkpt lat="45.12761" lon="6.09592">
        <ele>2183.3999023438</ele>
        <time>2012-04-28T06:28:36.000Z</time>
      </trkpt>
      <trkpt lat="45.12757" lon="6.09595">
        <ele>2184</ele>
        <time>2012-04-28T06:28:42.000Z</time>
      </trkpt>
      <trkpt lat="45.12755" lon="6.09596">
        <ele>2185</ele>
        <time>2012-04-28T06:28:46.000Z</time>
      </trkpt>
      <trkpt lat="45.12751" lon="6.09597">
        <ele>2186.3999023438</ele>
        <time>2012-04-28T06:28:51.000Z</time>
      </trkpt>
      <trkpt lat="45.12748" lon="6.09598">
        <ele>2188</ele>
        <time>2012-04-28T06:28:56.000Z</time>
      </trkpt>
      <trkpt lat="45.12746" lon="6.09601">
        <ele>2190.3999023438</ele>
        <time>2012-04-28T06:29:01.000Z</time>
      </trkpt>
      <trkpt lat="45.12742" lon="6.09601">
        <ele>2191.6000976562</ele>
        <time>2012-04-28T06:29:07.000Z</time>
      </trkpt>
      <trkpt lat="45.12741" lon="6.09601">
        <ele>2192.1999511719</ele>
        <time>2012-04-28T06:29:09.000Z</time>
      </trkpt>
      <trkpt lat="45.12736" lon="6.09599">
        <ele>2193.3999023438</ele>
        <time>2012-04-28T06:29:14.000Z</time>
      </trkpt>
      <trkpt lat="45.12732" lon="6.09602">
        <ele>2195.8000488281</ele>
        <time>2012-04-28T06:29:20.000Z</time>
      </trkpt>
      <trkpt lat="45.12729" lon="6.09603">
        <ele>2196.6000976562</ele>
        <time>2012-04-28T06:29:27.000Z</time>
      </trkpt>
      <trkpt lat="45.12725" lon="6.09606">
        <ele>2198.6000976562</ele>
        <time>2012-04-28T06:29:33.000Z</time>
      </trkpt>
      <trkpt lat="45.12721" lon="6.09608">
        <ele>2200.1999511719</ele>
        <time>2012-04-28T06:29:41.000Z</time>
      </trkpt>
      <trkpt lat="45.12718" lon="6.0961">
        <ele>2201.6000976562</ele>
        <time>2012-04-28T06:29:46.000Z</time>
      </trkpt>
      <trkpt lat="45.12715" lon="6.09611">
        <ele>2203.3999023438</ele>
        <time>2012-04-28T06:29:52.000Z</time>
      </trkpt>
      <trkpt lat="45.12709" lon="6.09612">
        <ele>2206.6000976562</ele>
        <time>2012-04-28T06:30:03.000Z</time>
      </trkpt>
      <trkpt lat="45.12705" lon="6.09615">
        <ele>2208.6000976562</ele>
        <time>2012-04-28T06:30:11.000Z</time>
      </trkpt>
      <trkpt lat="45.12704" lon="6.09617">
        <ele>2209</ele>
        <time>2012-04-28T06:30:16.000Z</time>
      </trkpt>
      <trkpt lat="45.127" lon="6.09618">
        <ele>2210.6000976562</ele>
        <time>2012-04-28T06:30:22.000Z</time>
      </trkpt>
      <trkpt lat="45.12697" lon="6.0962">
        <ele>2212.6000976562</ele>
        <time>2012-04-28T06:30:27.000Z</time>
      </trkpt>
      <trkpt lat="45.12693" lon="6.09622">
        <ele>2213.3999023438</ele>
        <time>2012-04-28T06:30:33.000Z</time>
      </trkpt>
      <trkpt lat="45.1269" lon="6.09625">
        <ele>2215</ele>
        <time>2012-04-28T06:30:40.000Z</time>
      </trkpt>
      <trkpt lat="45.12689" lon="6.09625">
        <ele>2215.3999023438</ele>
        <time>2012-04-28T06:30:42.000Z</time>
      </trkpt>
      <trkpt lat="45.12682" lon="6.09626">
        <ele>2217.3999023438</ele>
        <time>2012-04-28T06:30:50.000Z</time>
      </trkpt>
      <trkpt lat="45.12682" lon="6.09625">
        <ele>2217.3999023438</ele>
        <time>2012-04-28T06:30:51.000Z</time>
      </trkpt>
      <trkpt lat="45.12679" lon="6.09628">
        <ele>2219.6000976562</ele>
        <time>2012-04-28T06:30:57.000Z</time>
      </trkpt>
      <trkpt lat="45.12676" lon="6.09632">
        <ele>2221.3999023438</ele>
        <time>2012-04-28T06:31:03.000Z</time>
      </trkpt>
      <trkpt lat="45.12673" lon="6.09633">
        <ele>2222.1999511719</ele>
        <time>2012-04-28T06:31:08.000Z</time>
      </trkpt>
      <trkpt lat="45.1267" lon="6.09635">
        <ele>2223.3999023438</ele>
        <time>2012-04-28T06:31:13.000Z</time>
      </trkpt>
      <trkpt lat="45.12667" lon="6.09636">
        <ele>2224.3999023438</ele>
        <time>2012-04-28T06:31:18.000Z</time>
      </trkpt>
      <trkpt lat="45.12664" lon="6.09637">
        <ele>2226</ele>
        <time>2012-04-28T06:31:23.000Z</time>
      </trkpt>
      <trkpt lat="45.12663" lon="6.09638">
        <ele>2226.8000488281</ele>
        <time>2012-04-28T06:31:25.000Z</time>
      </trkpt>
      <trkpt lat="45.12661" lon="6.0964">
        <ele>2227.8000488281</ele>
        <time>2012-04-28T06:31:30.000Z</time>
      </trkpt>
      <trkpt lat="45.12658" lon="6.09642">
        <ele>2228.6000976562</ele>
        <time>2012-04-28T06:31:35.000Z</time>
      </trkpt>
      <trkpt lat="45.12657" lon="6.09645">
        <ele>2229</ele>
        <time>2012-04-28T06:31:39.000Z</time>
      </trkpt>
      <trkpt lat="45.12652" lon="6.09647">
        <ele>2231.6000976562</ele>
        <time>2012-04-28T06:31:47.000Z</time>
      </trkpt>
      <trkpt lat="45.12652" lon="6.09649">
        <ele>2232.1999511719</ele>
        <time>2012-04-28T06:31:49.000Z</time>
      </trkpt>
      <trkpt lat="45.12649" lon="6.09652">
        <ele>2233.3999023438</ele>
        <time>2012-04-28T06:31:54.000Z</time>
      </trkpt>
      <trkpt lat="45.12647" lon="6.09654">
        <ele>2234.6000976562</ele>
        <time>2012-04-28T06:31:59.000Z</time>
      </trkpt>
      <trkpt lat="45.12645" lon="6.09655">
        <ele>2234.6000976562</ele>
        <time>2012-04-28T06:32:03.000Z</time>
      </trkpt>
      <trkpt lat="45.12643" lon="6.09657">
        <ele>2235.3999023438</ele>
        <time>2012-04-28T06:32:07.000Z</time>
      </trkpt>
      <trkpt lat="45.12639" lon="6.0966">
        <ele>2238.3999023438</ele>
        <time>2012-04-28T06:32:14.000Z</time>
      </trkpt>
      <trkpt lat="45.12635" lon="6.09663">
        <ele>2240</ele>
        <time>2012-04-28T06:32:19.000Z</time>
      </trkpt>
      <trkpt lat="45.12635" lon="6.09663">
        <ele>2240</ele>
        <time>2012-04-28T06:32:20.000Z</time>
      </trkpt>
      <trkpt lat="45.12633" lon="6.09664">
        <ele>2240.1999511719</ele>
        <time>2012-04-28T06:32:22.000Z</time>
      </trkpt>
      <trkpt lat="45.1263" lon="6.09668">
        <ele>2241.3999023438</ele>
        <time>2012-04-28T06:32:29.000Z</time>
      </trkpt>
      <trkpt lat="45.12627" lon="6.09671">
        <ele>2242.3999023438</ele>
        <time>2012-04-28T06:32:34.000Z</time>
      </trkpt>
      <trkpt lat="45.12625" lon="6.09673">
        <ele>2243.6000976562</ele>
        <time>2012-04-28T06:32:38.000Z</time>
      </trkpt>
      <trkpt lat="45.12622" lon="6.09674">
        <ele>2245.3999023438</ele>
        <time>2012-04-28T06:32:43.000Z</time>
      </trkpt>
      <trkpt lat="45.12619" lon="6.09675">
        <ele>2248</ele>
        <time>2012-04-28T06:32:49.000Z</time>
      </trkpt>
      <trkpt lat="45.12618" lon="6.09675">
        <ele>2249.3999023438</ele>
        <time>2012-04-28T06:32:51.000Z</time>
      </trkpt>
      <trkpt lat="45.12611" lon="6.09676">
        <ele>2251</ele>
        <time>2012-04-28T06:33:00.000Z</time>
      </trkpt>
      <trkpt lat="45.12608" lon="6.09677">
        <ele>2252</ele>
        <time>2012-04-28T06:33:05.000Z</time>
      </trkpt>
      <trkpt lat="45.12604" lon="6.09677">
        <ele>2253.8000488281</ele>
        <time>2012-04-28T06:33:09.000Z</time>
      </trkpt>
      <trkpt lat="45.12601" lon="6.09677">
        <ele>2253</ele>
        <time>2012-04-28T06:33:14.000Z</time>
      </trkpt>
      <trkpt lat="45.12599" lon="6.0968">
        <ele>2253.8000488281</ele>
        <time>2012-04-28T06:33:18.000Z</time>
      </trkpt>
      <trkpt lat="45.12592" lon="6.09682">
        <ele>2256</ele>
        <time>2012-04-28T06:33:27.000Z</time>
      </trkpt>
      <trkpt lat="45.12592" lon="6.09683">
        <ele>2256.6000976562</ele>
        <time>2012-04-28T06:33:29.000Z</time>
      </trkpt>
      <trkpt lat="45.12588" lon="6.09685">
        <ele>2258.1999511719</ele>
        <time>2012-04-28T06:33:35.000Z</time>
      </trkpt>
      <trkpt lat="45.12585" lon="6.09686">
        <ele>2259.3999023438</ele>
        <time>2012-04-28T06:33:40.000Z</time>
      </trkpt>
      <trkpt lat="45.12585" lon="6.09686">
        <ele>2260</ele>
        <time>2012-04-28T06:33:42.000Z</time>
      </trkpt>
      <trkpt lat="45.12581" lon="6.09688">
        <ele>2260.8000488281</ele>
        <time>2012-04-28T06:33:47.000Z</time>
      </trkpt>
      <trkpt lat="45.12576" lon="6.09688">
        <ele>2263.1999511719</ele>
        <time>2012-04-28T06:33:54.000Z</time>
      </trkpt>
      <trkpt lat="45.12572" lon="6.09688">
        <ele>2265</ele>
        <time>2012-04-28T06:33:59.000Z</time>
      </trkpt>
      <trkpt lat="45.12566" lon="6.09687">
        <ele>2266.1999511719</ele>
        <time>2012-04-28T06:34:07.000Z</time>
      </trkpt>
      <trkpt lat="45.12563" lon="6.09686">
        <ele>2267.8000488281</ele>
        <time>2012-04-28T06:34:12.000Z</time>
      </trkpt>
      <trkpt lat="45.12558" lon="6.0969">
        <ele>2269.3999023438</ele>
        <time>2012-04-28T06:34:20.000Z</time>
      </trkpt>
      <trkpt lat="45.12554" lon="6.09692">
        <ele>2270.3999023438</ele>
        <time>2012-04-28T06:34:26.000Z</time>
      </trkpt>
      <trkpt lat="45.12547" lon="6.09692">
        <ele>2271.8000488281</ele>
        <time>2012-04-28T06:34:33.000Z</time>
      </trkpt>
      <trkpt lat="45.12541" lon="6.09693">
        <ele>2272.6000976562</ele>
        <time>2012-04-28T06:34:39.000Z</time>
      </trkpt>
      <trkpt lat="45.12535" lon="6.09694">
        <ele>2273.6000976562</ele>
        <time>2012-04-28T06:34:45.000Z</time>
      </trkpt>
      <trkpt lat="45.12531" lon="6.09694">
        <ele>2274.6000976562</ele>
        <time>2012-04-28T06:34:50.000Z</time>
      </trkpt>
      <trkpt lat="45.12527" lon="6.09691">
        <ele>2275</ele>
        <time>2012-04-28T06:34:54.000Z</time>
      </trkpt>
      <trkpt lat="45.12521" lon="6.09691">
        <ele>2277.1999511719</ele>
        <time>2012-04-28T06:35:00.000Z</time>
      </trkpt>
      <trkpt lat="45.12518" lon="6.09691">
        <ele>2277.8000488281</ele>
        <time>2012-04-28T06:35:04.000Z</time>
      </trkpt>
      <trkpt lat="45.12512" lon="6.09691">
        <ele>2279.3999023438</ele>
        <time>2012-04-28T06:35:09.000Z</time>
      </trkpt>
      <trkpt lat="45.12504" lon="6.09689">
        <ele>2280</ele>
        <time>2012-04-28T06:35:17.000Z</time>
      </trkpt>
      <trkpt lat="45.12498" lon="6.09688">
        <ele>2280.6000976562</ele>
        <time>2012-04-28T06:35:23.000Z</time>
      </trkpt>
      <trkpt lat="45.12492" lon="6.09689">
        <ele>2281.8000488281</ele>
        <time>2012-04-28T06:35:30.000Z</time>
      </trkpt>
      <trkpt lat="45.1249" lon="6.09688">
        <ele>2282.3999023438</ele>
        <time>2012-04-28T06:35:32.000Z</time>
      </trkpt>
      <trkpt lat="45.12485" lon="6.09689">
        <ele>2283.8000488281</ele>
        <time>2012-04-28T06:35:38.000Z</time>
      </trkpt>
      <trkpt lat="45.12481" lon="6.0969">
        <ele>2284.1999511719</ele>
        <time>2012-04-28T06:35:42.000Z</time>
      </trkpt>
      <trkpt lat="45.12475" lon="6.0969">
        <ele>2286.1999511719</ele>
        <time>2012-04-28T06:35:49.000Z</time>
      </trkpt>
      <trkpt lat="45.12468" lon="6.09691">
        <ele>2287.3999023438</ele>
        <time>2012-04-28T06:35:56.000Z</time>
      </trkpt>
      <trkpt lat="45.12463" lon="6.09692">
        <ele>2288.3999023438</ele>
        <time>2012-04-28T06:36:01.000Z</time>
      </trkpt>
      <trkpt lat="45.12458" lon="6.09694">
        <ele>2289.1999511719</ele>
        <time>2012-04-28T06:36:06.000Z</time>
      </trkpt>
      <trkpt lat="45.12452" lon="6.09698">
        <ele>2291</ele>
        <time>2012-04-28T06:36:14.000Z</time>
      </trkpt>
      <trkpt lat="45.12447" lon="6.09702">
        <ele>2292</ele>
        <time>2012-04-28T06:36:21.000Z</time>
      </trkpt>
      <trkpt lat="45.12444" lon="6.09704">
        <ele>2292.8000488281</ele>
        <time>2012-04-28T06:36:24.000Z</time>
      </trkpt>
      <trkpt lat="45.1244" lon="6.09709">
        <ele>2293.8000488281</ele>
        <time>2012-04-28T06:36:30.000Z</time>
      </trkpt>
      <trkpt lat="45.12433" lon="6.09718">
        <ele>2295.1999511719</ele>
        <time>2012-04-28T06:36:39.000Z</time>
      </trkpt>
      <trkpt lat="45.12431" lon="6.09721">
        <ele>2295.8000488281</ele>
        <time>2012-04-28T06:36:43.000Z</time>
      </trkpt>
      <trkpt lat="45.12429" lon="6.09725">
        <ele>2296.3999023438</ele>
        <time>2012-04-28T06:36:47.000Z</time>
      </trkpt>
      <trkpt lat="45.12425" lon="6.09733">
        <ele>2297.6000976562</ele>
        <time>2012-04-28T06:36:54.000Z</time>
      </trkpt>
      <trkpt lat="45.12424" lon="6.09735">
        <ele>2297.8000488281</ele>
        <time>2012-04-28T06:36:55.000Z</time>
      </trkpt>
      <trkpt lat="45.12422" lon="6.09741">
        <ele>2298.3999023438</ele>
        <time>2012-04-28T06:37:01.000Z</time>
      </trkpt>
      <trkpt lat="45.12419" lon="6.09748">
        <ele>2299.8000488281</ele>
        <time>2012-04-28T06:37:07.000Z</time>
      </trkpt>
      <trkpt lat="45.12418" lon="6.0975">
        <ele>2299.8000488281</ele>
        <time>2012-04-28T06:37:09.000Z</time>
      </trkpt>
      <trkpt lat="45.12414" lon="6.0976">
        <ele>2300.6000976562</ele>
        <time>2012-04-28T06:37:17.000Z</time>
      </trkpt>
      <trkpt lat="45.12412" lon="6.09763">
        <ele>2301</ele>
        <time>2012-04-28T06:37:20.000Z</time>
      </trkpt>
      <trkpt lat="45.12408" lon="6.0977">
        <ele>2302.6000976562</ele>
        <time>2012-04-28T06:37:27.000Z</time>
      </trkpt>
      <trkpt lat="45.12403" lon="6.09776">
        <ele>2303.8000488281</ele>
        <time>2012-04-28T06:37:35.000Z</time>
      </trkpt>
      <trkpt lat="45.12399" lon="6.09781">
        <ele>2304.6000976562</ele>
        <time>2012-04-28T06:37:40.000Z</time>
      </trkpt>
      <trkpt lat="45.12395" lon="6.09787">
        <ele>2305.8000488281</ele>
        <time>2012-04-28T06:37:46.000Z</time>
      </trkpt>
      <trkpt lat="45.12393" lon="6.09789">
        <ele>2306.3999023438</ele>
        <time>2012-04-28T06:37:49.000Z</time>
      </trkpt>
      <trkpt lat="45.12388" lon="6.09794">
        <ele>2307.8000488281</ele>
        <time>2012-04-28T06:37:56.000Z</time>
      </trkpt>
      <trkpt lat="45.12385" lon="6.09795">
        <ele>2308</ele>
        <time>2012-04-28T06:37:59.000Z</time>
      </trkpt>
      <trkpt lat="45.12381" lon="6.09797">
        <ele>2309.3999023438</ele>
        <time>2012-04-28T06:38:05.000Z</time>
      </trkpt>
      <trkpt lat="45.12379" lon="6.09798">
        <ele>2310.1999511719</ele>
        <time>2012-04-28T06:38:07.000Z</time>
      </trkpt>
      <trkpt lat="45.12376" lon="6.09802">
        <ele>2311</ele>
        <time>2012-04-28T06:38:11.000Z</time>
      </trkpt>
      <trkpt lat="45.1237" lon="6.09803">
        <ele>2312.1999511719</ele>
        <time>2012-04-28T06:38:18.000Z</time>
      </trkpt>
      <trkpt lat="45.12366" lon="6.09804">
        <ele>2313</ele>
        <time>2012-04-28T06:38:23.000Z</time>
      </trkpt>
      <trkpt lat="45.12364" lon="6.09805">
        <ele>2313.1999511719</ele>
        <time>2012-04-28T06:38:25.000Z</time>
      </trkpt>
      <trkpt lat="45.12362" lon="6.09805">
        <ele>2313.8000488281</ele>
        <time>2012-04-28T06:38:27.000Z</time>
      </trkpt>
      <trkpt lat="45.1236" lon="6.09805">
        <ele>2314</ele>
        <time>2012-04-28T06:38:29.000Z</time>
      </trkpt>
      <trkpt lat="45.12356" lon="6.09807">
        <ele>2314.6000976562</ele>
        <time>2012-04-28T06:38:34.000Z</time>
      </trkpt>
      <trkpt lat="45.12355" lon="6.09807">
        <ele>2314.8000488281</ele>
        <time>2012-04-28T06:38:35.000Z</time>
      </trkpt>
      <trkpt lat="45.12349" lon="6.09806">
        <ele>2316.3999023438</ele>
        <time>2012-04-28T06:38:42.000Z</time>
      </trkpt>
      <trkpt lat="45.12343" lon="6.09806">
        <ele>2318.3999023438</ele>
        <time>2012-04-28T06:38:49.000Z</time>
      </trkpt>
      <trkpt lat="45.12338" lon="6.09807">
        <ele>2319.6000976562</ele>
        <time>2012-04-28T06:38:56.000Z</time>
      </trkpt>
      <trkpt lat="45.12334" lon="6.09807">
        <ele>2320.6000976562</ele>
        <time>2012-04-28T06:39:01.000Z</time>
      </trkpt>
      <trkpt lat="45.12328" lon="6.09808">
        <ele>2323</ele>
        <time>2012-04-28T06:39:09.000Z</time>
      </trkpt>
      <trkpt lat="45.12327" lon="6.09808">
        <ele>2323.1999511719</ele>
        <time>2012-04-28T06:39:10.000Z</time>
      </trkpt>
      <trkpt lat="45.12324" lon="6.0981">
        <ele>2324.3999023438</ele>
        <time>2012-04-28T06:39:14.000Z</time>
      </trkpt>
      <trkpt lat="45.12322" lon="6.09811">
        <ele>2324.8000488281</ele>
        <time>2012-04-28T06:39:16.000Z</time>
      </trkpt>
      <trkpt lat="45.12317" lon="6.09814">
        <ele>2326.8000488281</ele>
        <time>2012-04-28T06:39:24.000Z</time>
      </trkpt>
      <trkpt lat="45.12314" lon="6.09816">
        <ele>2328.3999023438</ele>
        <time>2012-04-28T06:39:29.000Z</time>
      </trkpt>
      <trkpt lat="45.1231" lon="6.09818">
        <ele>2330.3999023438</ele>
        <time>2012-04-28T06:39:35.000Z</time>
      </trkpt>
      <trkpt lat="45.12306" lon="6.09821">
        <ele>2332.1999511719</ele>
        <time>2012-04-28T06:39:41.000Z</time>
      </trkpt>
      <trkpt lat="45.12302" lon="6.09825">
        <ele>2334.8000488281</ele>
        <time>2012-04-28T06:39:48.000Z</time>
      </trkpt>
      <trkpt lat="45.12298" lon="6.09829">
        <ele>2336</ele>
        <time>2012-04-28T06:39:56.000Z</time>
      </trkpt>
      <trkpt lat="45.12294" lon="6.09833">
        <ele>2337</ele>
        <time>2012-04-28T06:40:03.000Z</time>
      </trkpt>
      <trkpt lat="45.12291" lon="6.09836">
        <ele>2337.1999511719</ele>
        <time>2012-04-28T06:40:08.000Z</time>
      </trkpt>
      <trkpt lat="45.1229" lon="6.09838">
        <ele>2337.3999023438</ele>
        <time>2012-04-28T06:40:11.000Z</time>
      </trkpt>
      <trkpt lat="45.12287" lon="6.09841">
        <ele>2338.3999023438</ele>
        <time>2012-04-28T06:40:16.000Z</time>
      </trkpt>
      <trkpt lat="45.12286" lon="6.09841">
        <ele>2338.8000488281</ele>
        <time>2012-04-28T06:40:18.000Z</time>
      </trkpt>
      <trkpt lat="45.12283" lon="6.09843">
        <ele>2339.3999023438</ele>
        <time>2012-04-28T06:40:23.000Z</time>
      </trkpt>
      <trkpt lat="45.12281" lon="6.09846">
        <ele>2340</ele>
        <time>2012-04-28T06:40:29.000Z</time>
      </trkpt>
      <trkpt lat="45.12279" lon="6.09849">
        <ele>2342.1999511719</ele>
        <time>2012-04-28T06:40:34.000Z</time>
      </trkpt>
      <trkpt lat="45.1228" lon="6.09853">
        <ele>2342.1999511719</ele>
        <time>2012-04-28T06:40:38.000Z</time>
      </trkpt>
      <trkpt lat="45.12284" lon="6.09864">
        <ele>2344.3999023438</ele>
        <time>2012-04-28T06:40:47.000Z</time>
      </trkpt>
      <trkpt lat="45.12286" lon="6.09869">
        <ele>2345.6000976562</ele>
        <time>2012-04-28T06:40:52.000Z</time>
      </trkpt>
      <trkpt lat="45.12286" lon="6.09869">
        <ele>2345.3999023438</ele>
        <time>2012-04-28T06:40:53.000Z</time>
      </trkpt>
      <trkpt lat="45.12289" lon="6.09872">
        <ele>2347.1999511719</ele>
        <time>2012-04-28T06:40:58.000Z</time>
      </trkpt>
      <trkpt lat="45.12291" lon="6.09873">
        <ele>2348</ele>
        <time>2012-04-28T06:41:00.000Z</time>
      </trkpt>
      <trkpt lat="45.12292" lon="6.09875">
        <ele>2347.8000488281</ele>
        <time>2012-04-28T06:41:02.000Z</time>
      </trkpt>
      <trkpt lat="45.12298" lon="6.0988">
        <ele>2348.1999511719</ele>
        <time>2012-04-28T06:41:08.000Z</time>
      </trkpt>
      <trkpt lat="45.12304" lon="6.09886">
        <ele>2349.6000976562</ele>
        <time>2012-04-28T06:41:16.000Z</time>
      </trkpt>
      <trkpt lat="45.1231" lon="6.0989">
        <ele>2350.8000488281</ele>
        <time>2012-04-28T06:41:22.000Z</time>
      </trkpt>
      <trkpt lat="45.12315" lon="6.09893">
        <ele>2353</ele>
        <time>2012-04-28T06:41:29.000Z</time>
      </trkpt>
      <trkpt lat="45.12319" lon="6.09895">
        <ele>2353.8000488281</ele>
        <time>2012-04-28T06:41:35.000Z</time>
      </trkpt>
      <trkpt lat="45.12321" lon="6.09895">
        <ele>2354</ele>
        <time>2012-04-28T06:41:38.000Z</time>
      </trkpt>
      <trkpt lat="45.12326" lon="6.09897">
        <ele>2353.1999511719</ele>
        <time>2012-04-28T06:41:43.000Z</time>
      </trkpt>
      <trkpt lat="45.1233" lon="6.099">
        <ele>2359</ele>
        <time>2012-04-28T06:41:49.000Z</time>
      </trkpt>
      <trkpt lat="45.12335" lon="6.09903">
        <ele>2358.1999511719</ele>
        <time>2012-04-28T06:41:54.000Z</time>
      </trkpt>
      <trkpt lat="45.12337" lon="6.09906">
        <ele>2359.6000976562</ele>
        <time>2012-04-28T06:41:57.000Z</time>
      </trkpt>
      <trkpt lat="45.12342" lon="6.0991">
        <ele>2360.6000976562</ele>
        <time>2012-04-28T06:42:04.000Z</time>
      </trkpt>
      <trkpt lat="45.12346" lon="6.09914">
        <ele>2362.8000488281</ele>
        <time>2012-04-28T06:42:11.000Z</time>
      </trkpt>
      <trkpt lat="45.12351" lon="6.09917">
        <ele>2364.8000488281</ele>
        <time>2012-04-28T06:42:20.000Z</time>
      </trkpt>
      <trkpt lat="45.12353" lon="6.09916">
        <ele>2365.3999023438</ele>
        <time>2012-04-28T06:42:22.000Z</time>
      </trkpt>
      <trkpt lat="45.12359" lon="6.09917">
        <ele>2366.3999023438</ele>
        <time>2012-04-28T06:42:30.000Z</time>
      </trkpt>
      <trkpt lat="45.12365" lon="6.0992">
        <ele>2368</ele>
        <time>2012-04-28T06:42:36.000Z</time>
      </trkpt>
      <trkpt lat="45.12368" lon="6.09921">
        <ele>2369.6000976562</ele>
        <time>2012-04-28T06:42:41.000Z</time>
      </trkpt>
      <trkpt lat="45.12368" lon="6.09921">
        <ele>2369.1999511719</ele>
        <time>2012-04-28T06:42:44.000Z</time>
      </trkpt>
      <trkpt lat="45.12368" lon="6.09925">
        <ele>2370</ele>
        <time>2012-04-28T06:44:30.000Z</time>
      </trkpt>
      <trkpt lat="45.12376" lon="6.09924">
        <ele>2370.8000488281</ele>
        <time>2012-04-28T06:44:40.000Z</time>
      </trkpt>
      <trkpt lat="45.12385" lon="6.09928">
        <ele>2372.6000976562</ele>
        <time>2012-04-28T06:44:48.000Z</time>
      </trkpt>
      <trkpt lat="45.12391" lon="6.09933">
        <ele>2372.8000488281</ele>
        <time>2012-04-28T06:44:54.000Z</time>
      </trkpt>
      <trkpt lat="45.12397" lon="6.09933">
        <ele>2373.8000488281</ele>
        <time>2012-04-28T06:45:02.000Z</time>
      </trkpt>
      <trkpt lat="45.12405" lon="6.09936">
        <ele>2375</ele>
        <time>2012-04-28T06:45:11.000Z</time>
      </trkpt>
      <trkpt lat="45.1241" lon="6.09936">
        <ele>2376</ele>
        <time>2012-04-28T06:45:18.000Z</time>
      </trkpt>
      <trkpt lat="45.12417" lon="6.09936">
        <ele>2377.8000488281</ele>
        <time>2012-04-28T06:45:27.000Z</time>
      </trkpt>
      <trkpt lat="45.12424" lon="6.09938">
        <ele>2377.8000488281</ele>
        <time>2012-04-28T06:45:35.000Z</time>
      </trkpt>
      <trkpt lat="45.1243" lon="6.09939">
        <ele>2378.6000976562</ele>
        <time>2012-04-28T06:45:43.000Z</time>
      </trkpt>
      <trkpt lat="45.12441" lon="6.09942">
        <ele>2381.1999511719</ele>
        <time>2012-04-28T06:45:54.000Z</time>
      </trkpt>
      <trkpt lat="45.12448" lon="6.09943">
        <ele>2383.8000488281</ele>
        <time>2012-04-28T06:46:03.000Z</time>
      </trkpt>
      <trkpt lat="45.12451" lon="6.09944">
        <ele>2385.3999023438</ele>
        <time>2012-04-28T06:46:08.000Z</time>
      </trkpt>
      <trkpt lat="45.12457" lon="6.09946">
        <ele>2388</ele>
        <time>2012-04-28T06:46:18.000Z</time>
      </trkpt>
      <trkpt lat="45.12464" lon="6.09948">
        <ele>2390</ele>
        <time>2012-04-28T06:46:27.000Z</time>
      </trkpt>
      <trkpt lat="45.12469" lon="6.09951">
        <ele>2391.8000488281</ele>
        <time>2012-04-28T06:46:36.000Z</time>
      </trkpt>
      <trkpt lat="45.12473" lon="6.09953">
        <ele>2393.3999023438</ele>
        <time>2012-04-28T06:46:41.000Z</time>
      </trkpt>
      <trkpt lat="45.12477" lon="6.09954">
        <ele>2394.6000976562</ele>
        <time>2012-04-28T06:46:48.000Z</time>
      </trkpt>
      <trkpt lat="45.12483" lon="6.09957">
        <ele>2397.1999511719</ele>
        <time>2012-04-28T06:46:57.000Z</time>
      </trkpt>
      <trkpt lat="45.12487" lon="6.0996">
        <ele>2399.3999023438</ele>
        <time>2012-04-28T06:47:04.000Z</time>
      </trkpt>
      <trkpt lat="45.12492" lon="6.09965">
        <ele>2400.3999023438</ele>
        <time>2012-04-28T06:47:13.000Z</time>
      </trkpt>
      <trkpt lat="45.12498" lon="6.09972">
        <ele>2402.3999023438</ele>
        <time>2012-04-28T06:47:23.000Z</time>
      </trkpt>
      <trkpt lat="45.12503" lon="6.09976">
        <ele>2405.3999023438</ele>
        <time>2012-04-28T06:47:32.000Z</time>
      </trkpt>
      <trkpt lat="45.12507" lon="6.0998">
        <ele>2406.8000488281</ele>
        <time>2012-04-28T06:47:40.000Z</time>
      </trkpt>
      <trkpt lat="45.12508" lon="6.09981">
        <ele>2407.8000488281</ele>
        <time>2012-04-28T06:47:44.000Z</time>
      </trkpt>
      <trkpt lat="45.12509" lon="6.09982">
        <ele>2408.1999511719</ele>
        <time>2012-04-28T06:47:47.000Z</time>
      </trkpt>
      <trkpt lat="45.1251" lon="6.09983">
        <ele>2409</ele>
        <time>2012-04-28T06:47:49.000Z</time>
      </trkpt>
      <trkpt lat="45.12514" lon="6.09987">
        <ele>2410.6000976562</ele>
        <time>2012-04-28T06:47:56.000Z</time>
      </trkpt>
      <trkpt lat="45.12516" lon="6.09989">
        <ele>2412</ele>
        <time>2012-04-28T06:48:01.000Z</time>
      </trkpt>
      <trkpt lat="45.12519" lon="6.09992">
        <ele>2413.3999023438</ele>
        <time>2012-04-28T06:48:06.000Z</time>
      </trkpt>
      <trkpt lat="45.12521" lon="6.09997">
        <ele>2415.6000976562</ele>
        <time>2012-04-28T06:48:14.000Z</time>
      </trkpt>
      <trkpt lat="45.12526" lon="6.10002">
        <ele>2417.6000976562</ele>
        <time>2012-04-28T06:48:21.000Z</time>
      </trkpt>
      <trkpt lat="45.12534" lon="6.10011">
        <ele>2419.1999511719</ele>
        <time>2012-04-28T06:48:29.000Z</time>
      </trkpt>
      <trkpt lat="45.12538" lon="6.10017">
        <ele>2420.3999023438</ele>
        <time>2012-04-28T06:48:34.000Z</time>
      </trkpt>
      <trkpt lat="45.12541" lon="6.10022">
        <ele>2422.8000488281</ele>
        <time>2012-04-28T06:48:41.000Z</time>
      </trkpt>
      <trkpt lat="45.12546" lon="6.10026">
        <ele>2424.3999023438</ele>
        <time>2012-04-28T06:48:48.000Z</time>
      </trkpt>
      <trkpt lat="45.12551" lon="6.10034">
        <ele>2426.8000488281</ele>
        <time>2012-04-28T06:48:56.000Z</time>
      </trkpt>
      <trkpt lat="45.12554" lon="6.10036">
        <ele>2428.3999023438</ele>
        <time>2012-04-28T06:49:01.000Z</time>
      </trkpt>
      <trkpt lat="45.12559" lon="6.10041">
        <ele>2429.8000488281</ele>
        <time>2012-04-28T06:49:05.000Z</time>
      </trkpt>
      <trkpt lat="45.12565" lon="6.10046">
        <ele>2431.8000488281</ele>
        <time>2012-04-28T06:49:14.000Z</time>
      </trkpt>
      <trkpt lat="45.12568" lon="6.10047">
        <ele>2433.8000488281</ele>
        <time>2012-04-28T06:49:21.000Z</time>
      </trkpt>
      <trkpt lat="45.12573" lon="6.10055">
        <ele>2435.1999511719</ele>
        <time>2012-04-28T06:49:28.000Z</time>
      </trkpt>
      <trkpt lat="45.12575" lon="6.10059">
        <ele>2436.8000488281</ele>
        <time>2012-04-28T06:49:35.000Z</time>
      </trkpt>
      <trkpt lat="45.12576" lon="6.1006">
        <ele>2437.8000488281</ele>
        <time>2012-04-28T06:49:40.000Z</time>
      </trkpt>
      <trkpt lat="45.12578" lon="6.10065">
        <ele>2438.8000488281</ele>
        <time>2012-04-28T06:49:45.000Z</time>
      </trkpt>
      <trkpt lat="45.1258" lon="6.10071">
        <ele>2439.8000488281</ele>
        <time>2012-04-28T06:49:53.000Z</time>
      </trkpt>
      <trkpt lat="45.1258" lon="6.10071">
        <ele>2440.1999511719</ele>
        <time>2012-04-28T06:49:54.000Z</time>
      </trkpt>
      <trkpt lat="45.12586" lon="6.10067">
        <ele>2439.1999511719</ele>
        <time>2012-04-28T06:50:42.000Z</time>
      </trkpt>
      <trkpt lat="45.12587" lon="6.10066">
        <ele>2438</ele>
        <time>2012-04-28T06:50:45.000Z</time>
      </trkpt>
      <trkpt lat="45.12588" lon="6.10062">
        <ele>2438</ele>
        <time>2012-04-28T06:50:49.000Z</time>
      </trkpt>
      <trkpt lat="45.12588" lon="6.10061">
        <ele>2440</ele>
        <time>2012-04-28T06:51:55.000Z</time>
      </trkpt>
      <trkpt lat="45.12588" lon="6.10061">
        <ele>2440.1999511719</ele>
        <time>2012-04-28T06:51:59.000Z</time>
      </trkpt>
      <trkpt lat="45.12585" lon="6.10056">
        <ele>2440</ele>
        <time>2012-04-28T06:52:11.000Z</time>
      </trkpt>
      <trkpt lat="45.12587" lon="6.10064">
        <ele>2439</ele>
        <time>2012-04-28T06:53:11.000Z</time>
      </trkpt>
      <trkpt lat="45.12586" lon="6.10064">
        <ele>2440</ele>
        <time>2012-04-28T06:53:13.000Z</time>
      </trkpt>
      <trkpt lat="45.1258" lon="6.10064">
        <ele>2440.1999511719</ele>
        <time>2012-04-28T06:53:23.000Z</time>
      </trkpt>
      <trkpt lat="45.12576" lon="6.10064">
        <ele>2444.8000488281</ele>
        <time>2012-04-28T06:53:30.000Z</time>
      </trkpt>
      <trkpt lat="45.12576" lon="6.10063">
        <ele>2444.8000488281</ele>
        <time>2012-04-28T06:53:31.000Z</time>
      </trkpt>
      <trkpt lat="45.12576" lon="6.10063">
        <ele>2444.8000488281</ele>
        <time>2012-04-28T06:53:32.000Z</time>
      </trkpt>
      <trkpt lat="45.12573" lon="6.10078">
        <ele>2443</ele>
        <time>2012-04-28T06:54:52.000Z</time>
      </trkpt>
      <trkpt lat="45.12572" lon="6.10082">
        <ele>2445</ele>
        <time>2012-04-28T06:54:59.000Z</time>
      </trkpt>
      <trkpt lat="45.12571" lon="6.10084">
        <ele>2445.1999511719</ele>
        <time>2012-04-28T06:55:02.000Z</time>
      </trkpt>
      <trkpt lat="45.12569" lon="6.1008">
        <ele>2446.3999023438</ele>
        <time>2012-04-28T06:55:24.000Z</time>
      </trkpt>
      <trkpt lat="45.12567" lon="6.10088">
        <ele>2447.3999023438</ele>
        <time>2012-04-28T06:55:30.000Z</time>
      </trkpt>
      <trkpt lat="45.12563" lon="6.10096">
        <ele>2448.6000976562</ele>
        <time>2012-04-28T06:55:35.000Z</time>
      </trkpt>
      <trkpt lat="45.12557" lon="6.10102">
        <ele>2450.1999511719</ele>
        <time>2012-04-28T06:55:43.000Z</time>
      </trkpt>
      <trkpt lat="45.12552" lon="6.10109">
        <ele>2451.6000976562</ele>
        <time>2012-04-28T06:55:53.000Z</time>
      </trkpt>
      <trkpt lat="45.12546" lon="6.10116">
        <ele>2453.8000488281</ele>
        <time>2012-04-28T06:56:03.000Z</time>
      </trkpt>
      <trkpt lat="45.12541" lon="6.10122">
        <ele>2455.3999023438</ele>
        <time>2012-04-28T06:56:12.000Z</time>
      </trkpt>
      <trkpt lat="45.12534" lon="6.10128">
        <ele>2456.3999023438</ele>
        <time>2012-04-28T06:56:21.000Z</time>
      </trkpt>
      <trkpt lat="45.12531" lon="6.10129">
        <ele>2456.8000488281</ele>
        <time>2012-04-28T06:56:25.000Z</time>
      </trkpt>
      <trkpt lat="45.12526" lon="6.10129">
        <ele>2457.6000976562</ele>
        <time>2012-04-28T06:56:34.000Z</time>
      </trkpt>
      <trkpt lat="45.12523" lon="6.10128">
        <ele>2458.8000488281</ele>
        <time>2012-04-28T06:56:40.000Z</time>
      </trkpt>
      <trkpt lat="45.12519" lon="6.1013">
        <ele>2460.3999023438</ele>
        <time>2012-04-28T06:56:45.000Z</time>
      </trkpt>
      <trkpt lat="45.12516" lon="6.10128">
        <ele>2461.3999023438</ele>
        <time>2012-04-28T06:56:48.000Z</time>
      </trkpt>
      <trkpt lat="45.12508" lon="6.10126">
        <ele>2464.1999511719</ele>
        <time>2012-04-28T06:56:57.000Z</time>
      </trkpt>
      <trkpt lat="45.12504" lon="6.10126">
        <ele>2465.1999511719</ele>
        <time>2012-04-28T06:57:01.000Z</time>
      </trkpt>
      <trkpt lat="45.12495" lon="6.10129">
        <ele>2467.3999023438</ele>
        <time>2012-04-28T06:57:09.000Z</time>
      </trkpt>
      <trkpt lat="45.1249" lon="6.1013">
        <ele>2468.3999023438</ele>
        <time>2012-04-28T06:57:16.000Z</time>
      </trkpt>
      <trkpt lat="45.12482" lon="6.10131">
        <ele>2470.3999023438</ele>
        <time>2012-04-28T06:57:24.000Z</time>
      </trkpt>
      <trkpt lat="45.12474" lon="6.10133">
        <ele>2472</ele>
        <time>2012-04-28T06:57:34.000Z</time>
      </trkpt>
      <trkpt lat="45.12469" lon="6.10137">
        <ele>2473.6000976562</ele>
        <time>2012-04-28T06:57:42.000Z</time>
      </trkpt>
      <trkpt lat="45.12464" lon="6.10137">
        <ele>2475.1999511719</ele>
        <time>2012-04-28T06:57:48.000Z</time>
      </trkpt>
      <trkpt lat="45.1246" lon="6.1014">
        <ele>2477.6000976562</ele>
        <time>2012-04-28T06:57:56.000Z</time>
      </trkpt>
      <trkpt lat="45.12454" lon="6.10144">
        <ele>2479</ele>
        <time>2012-04-28T06:58:07.000Z</time>
      </trkpt>
      <trkpt lat="45.12448" lon="6.10146">
        <ele>2481.1999511719</ele>
        <time>2012-04-28T06:58:16.000Z</time>
      </trkpt>
      <trkpt lat="45.12442" lon="6.1015">
        <ele>2483.6000976562</ele>
        <time>2012-04-28T06:58:24.000Z</time>
      </trkpt>
      <trkpt lat="45.12437" lon="6.10152">
        <ele>2485</ele>
        <time>2012-04-28T06:58:31.000Z</time>
      </trkpt>
      <trkpt lat="45.12434" lon="6.10153">
        <ele>2487.1999511719</ele>
        <time>2012-04-28T06:58:35.000Z</time>
      </trkpt>
      <trkpt lat="45.12434" lon="6.10153">
        <ele>2487.8000488281</ele>
        <time>2012-04-28T06:58:37.000Z</time>
      </trkpt>
      <trkpt lat="45.12431" lon="6.10156">
        <ele>2488.3999023438</ele>
        <time>2012-04-28T06:58:44.000Z</time>
      </trkpt>
      <trkpt lat="45.12427" lon="6.10158">
        <ele>2490.3999023438</ele>
        <time>2012-04-28T06:58:50.000Z</time>
      </trkpt>
      <trkpt lat="45.12424" lon="6.10161">
        <ele>2492.1999511719</ele>
        <time>2012-04-28T06:58:56.000Z</time>
      </trkpt>
      <trkpt lat="45.12418" lon="6.10164">
        <ele>2494.8000488281</ele>
        <time>2012-04-28T06:59:05.000Z</time>
      </trkpt>
      <trkpt lat="45.12416" lon="6.10166">
        <ele>2497</ele>
        <time>2012-04-28T06:59:09.000Z</time>
      </trkpt>
      <trkpt lat="45.1241" lon="6.10171">
        <ele>2498.1999511719</ele>
        <time>2012-04-28T06:59:19.000Z</time>
      </trkpt>
      <trkpt lat="45.12407" lon="6.10173">
        <ele>2498.8000488281</ele>
        <time>2012-04-28T06:59:24.000Z</time>
      </trkpt>
      <trkpt lat="45.12403" lon="6.10175">
        <ele>2499.1999511719</ele>
        <time>2012-04-28T06:59:31.000Z</time>
      </trkpt>
      <trkpt lat="45.12401" lon="6.10178">
        <ele>2501.8000488281</ele>
        <time>2012-04-28T06:59:36.000Z</time>
      </trkpt>
      <trkpt lat="45.12394" lon="6.10181">
        <ele>2505</ele>
        <time>2012-04-28T06:59:45.000Z</time>
      </trkpt>
      <trkpt lat="45.12393" lon="6.10183">
        <ele>2506.3999023438</ele>
        <time>2012-04-28T06:59:49.000Z</time>
      </trkpt>
      <trkpt lat="45.12391" lon="6.10185">
        <ele>2508.3999023438</ele>
        <time>2012-04-28T06:59:53.000Z</time>
      </trkpt>
      <trkpt lat="45.12389" lon="6.10188">
        <ele>2509.6000976562</ele>
        <time>2012-04-28T06:59:58.000Z</time>
      </trkpt>
      <trkpt lat="45.12384" lon="6.10191">
        <ele>2511.3999023438</ele>
        <time>2012-04-28T07:00:06.000Z</time>
      </trkpt>
      <trkpt lat="45.12378" lon="6.10193">
        <ele>2514.1999511719</ele>
        <time>2012-04-28T07:00:13.000Z</time>
      </trkpt>
      <trkpt lat="45.12377" lon="6.10196">
        <ele>2515.8000488281</ele>
        <time>2012-04-28T07:00:18.000Z</time>
      </trkpt>
      <trkpt lat="45.12374" lon="6.10199">
        <ele>2517.1999511719</ele>
        <time>2012-04-28T07:00:22.000Z</time>
      </trkpt>
      <trkpt lat="45.12369" lon="6.10204">
        <ele>2517.3999023438</ele>
        <time>2012-04-28T07:00:30.000Z</time>
      </trkpt>
      <trkpt lat="45.12366" lon="6.10209">
        <ele>2518.8000488281</ele>
        <time>2012-04-28T07:00:37.000Z</time>
      </trkpt>
      <trkpt lat="45.12364" lon="6.10212">
        <ele>2522.1999511719</ele>
        <time>2012-04-28T07:00:42.000Z</time>
      </trkpt>
      <trkpt lat="45.12362" lon="6.10216">
        <ele>2521.3999023438</ele>
        <time>2012-04-28T07:00:49.000Z</time>
      </trkpt>
      <trkpt lat="45.1236" lon="6.10222">
        <ele>2522.8000488281</ele>
        <time>2012-04-28T07:00:57.000Z</time>
      </trkpt>
      <trkpt lat="45.12356" lon="6.10226">
        <ele>2525</ele>
        <time>2012-04-28T07:01:05.000Z</time>
      </trkpt>
      <trkpt lat="45.12352" lon="6.1023">
        <ele>2526</ele>
        <time>2012-04-28T07:01:12.000Z</time>
      </trkpt>
      <trkpt lat="45.12348" lon="6.10231">
        <ele>2527.6000976562</ele>
        <time>2012-04-28T07:01:17.000Z</time>
      </trkpt>
      <trkpt lat="45.12344" lon="6.10235">
        <ele>2528.6000976562</ele>
        <time>2012-04-28T07:01:24.000Z</time>
      </trkpt>
      <trkpt lat="45.12342" lon="6.10239">
        <ele>2530.6000976562</ele>
        <time>2012-04-28T07:01:29.000Z</time>
      </trkpt>
      <trkpt lat="45.12338" lon="6.10245">
        <ele>2532.3999023438</ele>
        <time>2012-04-28T07:01:37.000Z</time>
      </trkpt>
      <trkpt lat="45.12335" lon="6.10249">
        <ele>2530.8000488281</ele>
        <time>2012-04-28T07:01:43.000Z</time>
      </trkpt>
      <trkpt lat="45.12332" lon="6.10255">
        <ele>2531.6000976562</ele>
        <time>2012-04-28T07:01:50.000Z</time>
      </trkpt>
      <trkpt lat="45.1233" lon="6.10263">
        <ele>2535</ele>
        <time>2012-04-28T07:01:58.000Z</time>
      </trkpt>
      <trkpt lat="45.1233" lon="6.10264">
        <ele>2535.1999511719</ele>
        <time>2012-04-28T07:01:59.000Z</time>
      </trkpt>
      <trkpt lat="45.12327" lon="6.10272">
        <ele>2536.3999023438</ele>
        <time>2012-04-28T07:02:07.000Z</time>
      </trkpt>
      <trkpt lat="45.12323" lon="6.10278">
        <ele>2537</ele>
        <time>2012-04-28T07:02:15.000Z</time>
      </trkpt>
      <trkpt lat="45.1232" lon="6.10282">
        <ele>2540.6000976562</ele>
        <time>2012-04-28T07:02:22.000Z</time>
      </trkpt>
      <trkpt lat="45.12319" lon="6.10283">
        <ele>2540.8000488281</ele>
        <time>2012-04-28T07:02:23.000Z</time>
      </trkpt>
      <trkpt lat="45.12316" lon="6.1029">
        <ele>2543.1999511719</ele>
        <time>2012-04-28T07:02:32.000Z</time>
      </trkpt>
      <trkpt lat="45.12312" lon="6.10298">
        <ele>2546.8000488281</ele>
        <time>2012-04-28T07:02:41.000Z</time>
      </trkpt>
      <trkpt lat="45.12309" lon="6.10306">
        <ele>2548.8000488281</ele>
        <time>2012-04-28T07:02:50.000Z</time>
      </trkpt>
      <trkpt lat="45.12306" lon="6.10313">
        <ele>2552.8000488281</ele>
        <time>2012-04-28T07:02:59.000Z</time>
      </trkpt>
      <trkpt lat="45.12302" lon="6.10319">
        <ele>2554.6000976562</ele>
        <time>2012-04-28T07:03:07.000Z</time>
      </trkpt>
      <trkpt lat="45.12297" lon="6.10325">
        <ele>2555.1999511719</ele>
        <time>2012-04-28T07:03:16.000Z</time>
      </trkpt>
      <trkpt lat="45.12292" lon="6.10331">
        <ele>2555.6000976562</ele>
        <time>2012-04-28T07:03:25.000Z</time>
      </trkpt>
      <trkpt lat="45.12287" lon="6.1034">
        <ele>2557.3999023438</ele>
        <time>2012-04-28T07:03:35.000Z</time>
      </trkpt>
      <trkpt lat="45.12283" lon="6.10345">
        <ele>2558.8000488281</ele>
        <time>2012-04-28T07:03:42.000Z</time>
      </trkpt>
      <trkpt lat="45.12276" lon="6.1035">
        <ele>2560.3999023438</ele>
        <time>2012-04-28T07:03:51.000Z</time>
      </trkpt>
      <trkpt lat="45.12275" lon="6.10353">
        <ele>2561.3999023438</ele>
        <time>2012-04-28T07:03:54.000Z</time>
      </trkpt>
      <trkpt lat="45.12271" lon="6.10359">
        <ele>2563.6000976562</ele>
        <time>2012-04-28T07:04:03.000Z</time>
      </trkpt>
      <trkpt lat="45.12267" lon="6.10367">
        <ele>2565.1999511719</ele>
        <time>2012-04-28T07:04:11.000Z</time>
      </trkpt>
      <trkpt lat="45.12262" lon="6.10372">
        <ele>2566.6000976562</ele>
        <time>2012-04-28T07:04:18.000Z</time>
      </trkpt>
      <trkpt lat="45.12255" lon="6.10379">
        <ele>2568</ele>
        <time>2012-04-28T07:04:27.000Z</time>
      </trkpt>
      <trkpt lat="45.12249" lon="6.10385">
        <ele>2568.8000488281</ele>
        <time>2012-04-28T07:04:36.000Z</time>
      </trkpt>
      <trkpt lat="45.12241" lon="6.10389">
        <ele>2571</ele>
        <time>2012-04-28T07:04:44.000Z</time>
      </trkpt>
      <trkpt lat="45.12234" lon="6.10392">
        <ele>2572.6000976562</ele>
        <time>2012-04-28T07:04:53.000Z</time>
      </trkpt>
      <trkpt lat="45.12227" lon="6.10396">
        <ele>2574.6000976562</ele>
        <time>2012-04-28T07:05:02.000Z</time>
      </trkpt>
      <trkpt lat="45.12223" lon="6.10398">
        <ele>2576</ele>
        <time>2012-04-28T07:05:09.000Z</time>
      </trkpt>
      <trkpt lat="45.12219" lon="6.10401">
        <ele>2577.3999023438</ele>
        <time>2012-04-28T07:05:16.000Z</time>
      </trkpt>
      <trkpt lat="45.12217" lon="6.10402">
        <ele>2578.3999023438</ele>
        <time>2012-04-28T07:05:18.000Z</time>
      </trkpt>
      <trkpt lat="45.12215" lon="6.10403">
        <ele>2579.8000488281</ele>
        <time>2012-04-28T07:05:21.000Z</time>
      </trkpt>
      <trkpt lat="45.1221" lon="6.10407">
        <ele>2582</ele>
        <time>2012-04-28T07:05:31.000Z</time>
      </trkpt>
      <trkpt lat="45.12203" lon="6.10409">
        <ele>2583.6000976562</ele>
        <time>2012-04-28T07:05:42.000Z</time>
      </trkpt>
      <trkpt lat="45.12198" lon="6.10411">
        <ele>2586.3999023438</ele>
        <time>2012-04-28T07:05:50.000Z</time>
      </trkpt>
      <trkpt lat="45.12195" lon="6.10413">
        <ele>2587.6000976562</ele>
        <time>2012-04-28T07:05:56.000Z</time>
      </trkpt>
      <trkpt lat="45.1219" lon="6.10418">
        <ele>2589.1999511719</ele>
        <time>2012-04-28T07:06:06.000Z</time>
      </trkpt>
      <trkpt lat="45.12185" lon="6.10422">
        <ele>2591</ele>
        <time>2012-04-28T07:06:16.000Z</time>
      </trkpt>
      <trkpt lat="45.1218" lon="6.10428">
        <ele>2591</ele>
        <time>2012-04-28T07:06:26.000Z</time>
      </trkpt>
      <trkpt lat="45.12175" lon="6.10432">
        <ele>2591.8000488281</ele>
        <time>2012-04-28T07:06:35.000Z</time>
      </trkpt>
      <trkpt lat="45.12171" lon="6.10437">
        <ele>2593.3999023438</ele>
        <time>2012-04-28T07:06:43.000Z</time>
      </trkpt>
      <trkpt lat="45.12166" lon="6.10442">
        <ele>2595.6000976562</ele>
        <time>2012-04-28T07:06:51.000Z</time>
      </trkpt>
      <trkpt lat="45.1216" lon="6.10447">
        <ele>2596.6000976562</ele>
        <time>2012-04-28T07:07:00.000Z</time>
      </trkpt>
      <trkpt lat="45.12158" lon="6.10449">
        <ele>2596.1999511719</ele>
        <time>2012-04-28T07:07:04.000Z</time>
      </trkpt>
      <trkpt lat="45.12155" lon="6.10452">
        <ele>2594</ele>
        <time>2012-04-28T07:07:09.000Z</time>
      </trkpt>
      <trkpt lat="45.12148" lon="6.10458">
        <ele>2599.1999511719</ele>
        <time>2012-04-28T07:07:19.000Z</time>
      </trkpt>
      <trkpt lat="45.12147" lon="6.10459">
        <ele>2600</ele>
        <time>2012-04-28T07:07:21.000Z</time>
      </trkpt>
      <trkpt lat="45.12143" lon="6.10465">
        <ele>2601.1999511719</ele>
        <time>2012-04-28T07:07:29.000Z</time>
      </trkpt>
      <trkpt lat="45.12142" lon="6.10466">
        <ele>2601</ele>
        <time>2012-04-28T07:07:30.000Z</time>
      </trkpt>
      <trkpt lat="45.12136" lon="6.10472">
        <ele>2604.3999023438</ele>
        <time>2012-04-28T07:07:39.000Z</time>
      </trkpt>
      <trkpt lat="45.12132" lon="6.10476">
        <ele>2606.3999023438</ele>
        <time>2012-04-28T07:07:45.000Z</time>
      </trkpt>
      <trkpt lat="45.12126" lon="6.10481">
        <ele>2606.6000976562</ele>
        <time>2012-04-28T07:07:53.000Z</time>
      </trkpt>
      <trkpt lat="45.12125" lon="6.10482">
        <ele>2605.6000976562</ele>
        <time>2012-04-28T07:07:55.000Z</time>
      </trkpt>
      <trkpt lat="45.1212" lon="6.10488">
        <ele>2613.1999511719</ele>
        <time>2012-04-28T07:08:03.000Z</time>
      </trkpt>
      <trkpt lat="45.12115" lon="6.10499">
        <ele>2615.1999511719</ele>
        <time>2012-04-28T07:08:13.000Z</time>
      </trkpt>
      <trkpt lat="45.12113" lon="6.10509">
        <ele>2615.6000976562</ele>
        <time>2012-04-28T07:08:21.000Z</time>
      </trkpt>
      <trkpt lat="45.12113" lon="6.1051">
        <ele>2616</ele>
        <time>2012-04-28T07:08:22.000Z</time>
      </trkpt>
      <trkpt lat="45.12114" lon="6.10511">
        <ele>2616.8000488281</ele>
        <time>2012-04-28T07:08:23.000Z</time>
      </trkpt>
      <trkpt lat="45.12118" lon="6.10523">
        <ele>2621.3999023438</ele>
        <time>2012-04-28T07:08:33.000Z</time>
      </trkpt>
      <trkpt lat="45.12124" lon="6.10531">
        <ele>2622</ele>
        <time>2012-04-28T07:08:41.000Z</time>
      </trkpt>
      <trkpt lat="45.12131" lon="6.10536">
        <ele>2622</ele>
        <time>2012-04-28T07:08:49.000Z</time>
      </trkpt>
      <trkpt lat="45.1214" lon="6.10544">
        <ele>2621.8000488281</ele>
        <time>2012-04-28T07:08:58.000Z</time>
      </trkpt>
      <trkpt lat="45.12148" lon="6.1055">
        <ele>2622.3999023438</ele>
        <time>2012-04-28T07:09:06.000Z</time>
      </trkpt>
      <trkpt lat="45.12155" lon="6.10555">
        <ele>2626.8000488281</ele>
        <time>2012-04-28T07:09:13.000Z</time>
      </trkpt>
      <trkpt lat="45.12162" lon="6.10557">
        <ele>2629.8000488281</ele>
        <time>2012-04-28T07:09:21.000Z</time>
      </trkpt>
      <trkpt lat="45.12172" lon="6.10558">
        <ele>2633</ele>
        <time>2012-04-28T07:09:31.000Z</time>
      </trkpt>
      <trkpt lat="45.1218" lon="6.1056">
        <ele>2635.3999023438</ele>
        <time>2012-04-28T07:09:39.000Z</time>
      </trkpt>
      <trkpt lat="45.12181" lon="6.10561">
        <ele>2635.6000976562</ele>
        <time>2012-04-28T07:09:40.000Z</time>
      </trkpt>
      <trkpt lat="45.1219" lon="6.10562">
        <ele>2637.1999511719</ele>
        <time>2012-04-28T07:09:50.000Z</time>
      </trkpt>
      <trkpt lat="45.12193" lon="6.10563">
        <ele>2634.1999511719</ele>
        <time>2012-04-28T07:09:53.000Z</time>
      </trkpt>
      <trkpt lat="45.12198" lon="6.10565">
        <ele>2636</ele>
        <time>2012-04-28T07:10:01.000Z</time>
      </trkpt>
      <trkpt lat="45.12201" lon="6.10565">
        <ele>2637.3999023438</ele>
        <time>2012-04-28T07:10:04.000Z</time>
      </trkpt>
      <trkpt lat="45.12207" lon="6.10566">
        <ele>2636.8000488281</ele>
        <time>2012-04-28T07:10:13.000Z</time>
      </trkpt>
      <trkpt lat="45.1221" lon="6.10567">
        <ele>2638.8000488281</ele>
        <time>2012-04-28T07:10:18.000Z</time>
      </trkpt>
      <trkpt lat="45.12216" lon="6.10569">
        <ele>2638.1999511719</ele>
        <time>2012-04-28T07:10:26.000Z</time>
      </trkpt>
      <trkpt lat="45.12219" lon="6.10568">
        <ele>2641.1999511719</ele>
        <time>2012-04-28T07:10:33.000Z</time>
      </trkpt>
      <trkpt lat="45.12227" lon="6.10565">
        <ele>2641.8000488281</ele>
        <time>2012-04-28T07:10:48.000Z</time>
      </trkpt>
      <trkpt lat="45.12233" lon="6.10562">
        <ele>2645.1999511719</ele>
        <time>2012-04-28T07:10:57.000Z</time>
      </trkpt>
      <trkpt lat="45.12233" lon="6.10561">
        <ele>2645</ele>
        <time>2012-04-28T07:10:58.000Z</time>
      </trkpt>
      <trkpt lat="45.12241" lon="6.10555">
        <ele>2648.1999511719</ele>
        <time>2012-04-28T07:11:10.000Z</time>
      </trkpt>
      <trkpt lat="45.12246" lon="6.10548">
        <ele>2649.6000976562</ele>
        <time>2012-04-28T07:11:19.000Z</time>
      </trkpt>
      <trkpt lat="45.12252" lon="6.10539">
        <ele>2652</ele>
        <time>2012-04-28T07:11:30.000Z</time>
      </trkpt>
      <trkpt lat="45.12254" lon="6.10535">
        <ele>2654</ele>
        <time>2012-04-28T07:11:35.000Z</time>
      </trkpt>
      <trkpt lat="45.12259" lon="6.10528">
        <ele>2655</ele>
        <time>2012-04-28T07:11:43.000Z</time>
      </trkpt>
      <trkpt lat="45.12264" lon="6.10523">
        <ele>2656.8000488281</ele>
        <time>2012-04-28T07:11:51.000Z</time>
      </trkpt>
      <trkpt lat="45.1227" lon="6.10516">
        <ele>2659.6000976562</ele>
        <time>2012-04-28T07:12:01.000Z</time>
      </trkpt>
      <trkpt lat="45.12277" lon="6.10509">
        <ele>2662.6000976562</ele>
        <time>2012-04-28T07:12:11.000Z</time>
      </trkpt>
      <trkpt lat="45.1228" lon="6.10508">
        <ele>2663.6000976562</ele>
        <time>2012-04-28T07:12:15.000Z</time>
      </trkpt>
      <trkpt lat="45.12289" lon="6.10505">
        <ele>2664.3999023438</ele>
        <time>2012-04-28T07:12:26.000Z</time>
      </trkpt>
      <trkpt lat="45.12293" lon="6.10506">
        <ele>2665.6000976562</ele>
        <time>2012-04-28T07:12:32.000Z</time>
      </trkpt>
      <trkpt lat="45.12301" lon="6.10509">
        <ele>2666</ele>
        <time>2012-04-28T07:12:41.000Z</time>
      </trkpt>
      <trkpt lat="45.12306" lon="6.10513">
        <ele>2669.6000976562</ele>
        <time>2012-04-28T07:12:49.000Z</time>
      </trkpt>
      <trkpt lat="45.12309" lon="6.10516">
        <ele>2669.6000976562</ele>
        <time>2012-04-28T07:12:53.000Z</time>
      </trkpt>
      <trkpt lat="45.12315" lon="6.10526">
        <ele>2668.6000976562</ele>
        <time>2012-04-28T07:13:02.000Z</time>
      </trkpt>
      <trkpt lat="45.12317" lon="6.10529">
        <ele>2670.6000976562</ele>
        <time>2012-04-28T07:13:05.000Z</time>
      </trkpt>
      <trkpt lat="45.12321" lon="6.10536">
        <ele>2670.8000488281</ele>
        <time>2012-04-28T07:13:13.000Z</time>
      </trkpt>
      <trkpt lat="45.12322" lon="6.10538">
        <ele>2671.6000976562</ele>
        <time>2012-04-28T07:13:15.000Z</time>
      </trkpt>
      <trkpt lat="45.12327" lon="6.10547">
        <ele>2673.1999511719</ele>
        <time>2012-04-28T07:13:24.000Z</time>
      </trkpt>
      <trkpt lat="45.12329" lon="6.1055">
        <ele>2674.8000488281</ele>
        <time>2012-04-28T07:13:27.000Z</time>
      </trkpt>
      <trkpt lat="45.12332" lon="6.10553">
        <ele>2672.3999023438</ele>
        <time>2012-04-28T07:13:32.000Z</time>
      </trkpt>
      <trkpt lat="45.12336" lon="6.10558">
        <ele>2675.3999023438</ele>
        <time>2012-04-28T07:13:39.000Z</time>
      </trkpt>
      <trkpt lat="45.12338" lon="6.10558">
        <ele>2677.6000976562</ele>
        <time>2012-04-28T07:13:41.000Z</time>
      </trkpt>
      <trkpt lat="45.12344" lon="6.10561">
        <ele>2676.1999511719</ele>
        <time>2012-04-28T07:13:48.000Z</time>
      </trkpt>
      <trkpt lat="45.12352" lon="6.10563">
        <ele>2681.3999023438</ele>
        <time>2012-04-28T07:13:57.000Z</time>
      </trkpt>
      <trkpt lat="45.12355" lon="6.10564">
        <ele>2685.3999023438</ele>
        <time>2012-04-28T07:14:01.000Z</time>
      </trkpt>
      <trkpt lat="45.12358" lon="6.10564">
        <ele>2687.6000976562</ele>
        <time>2012-04-28T07:14:04.000Z</time>
      </trkpt>
      <trkpt lat="45.12364" lon="6.10566">
        <ele>2690.8000488281</ele>
        <time>2012-04-28T07:14:13.000Z</time>
      </trkpt>
      <trkpt lat="45.12372" lon="6.10567">
        <ele>2692.8000488281</ele>
        <time>2012-04-28T07:14:23.000Z</time>
      </trkpt>
      <trkpt lat="45.12374" lon="6.10567">
        <ele>2694.3999023438</ele>
        <time>2012-04-28T07:14:26.000Z</time>
      </trkpt>
      <trkpt lat="45.12376" lon="6.10567">
        <ele>2692</ele>
        <time>2012-04-28T07:14:30.000Z</time>
      </trkpt>
      <trkpt lat="45.12383" lon="6.10566">
        <ele>2696.6000976562</ele>
        <time>2012-04-28T07:14:39.000Z</time>
      </trkpt>
      <trkpt lat="45.12385" lon="6.10565">
        <ele>2699.1999511719</ele>
        <time>2012-04-28T07:14:43.000Z</time>
      </trkpt>
      <trkpt lat="45.1239" lon="6.10562">
        <ele>2698</ele>
        <time>2012-04-28T07:14:52.000Z</time>
      </trkpt>
      <trkpt lat="45.12392" lon="6.10561">
        <ele>2702</ele>
        <time>2012-04-28T07:14:57.000Z</time>
      </trkpt>
      <trkpt lat="45.12396" lon="6.1056">
        <ele>2708.8000488281</ele>
        <time>2012-04-28T07:15:04.000Z</time>
      </trkpt>
      <trkpt lat="45.12402" lon="6.10556">
        <ele>2708.8000488281</ele>
        <time>2012-04-28T07:15:13.000Z</time>
      </trkpt>
      <trkpt lat="45.12402" lon="6.10556">
        <ele>2708.6000976562</ele>
        <time>2012-04-28T07:15:14.000Z</time>
      </trkpt>
      <trkpt lat="45.12408" lon="6.10551">
        <ele>2710.8000488281</ele>
        <time>2012-04-28T07:15:24.000Z</time>
      </trkpt>
      <trkpt lat="45.12409" lon="6.1055">
        <ele>2712</ele>
        <time>2012-04-28T07:15:26.000Z</time>
      </trkpt>
      <trkpt lat="45.1241" lon="6.1055">
        <ele>2713.1999511719</ele>
        <time>2012-04-28T07:15:27.000Z</time>
      </trkpt>
      <trkpt lat="45.12412" lon="6.10548">
        <ele>2716.3999023438</ele>
        <time>2012-04-28T07:15:32.000Z</time>
      </trkpt>
      <trkpt lat="45.12417" lon="6.10546">
        <ele>2717.1999511719</ele>
        <time>2012-04-28T07:15:38.000Z</time>
      </trkpt>
      <trkpt lat="45.12421" lon="6.10545">
        <ele>2718</ele>
        <time>2012-04-28T07:15:45.000Z</time>
      </trkpt>
      <trkpt lat="45.12424" lon="6.10544">
        <ele>2715</ele>
        <time>2012-04-28T07:15:50.000Z</time>
      </trkpt>
      <trkpt lat="45.12427" lon="6.10544">
        <ele>2714.6000976562</ele>
        <time>2012-04-28T07:15:54.000Z</time>
      </trkpt>
      <trkpt lat="45.12433" lon="6.10542">
        <ele>2716.6000976562</ele>
        <time>2012-04-28T07:16:03.000Z</time>
      </trkpt>
      <trkpt lat="45.12436" lon="6.10542">
        <ele>2718.1999511719</ele>
        <time>2012-04-28T07:16:09.000Z</time>
      </trkpt>
      <trkpt lat="45.12443" lon="6.10543">
        <ele>2719.3999023438</ele>
        <time>2012-04-28T07:16:18.000Z</time>
      </trkpt>
      <trkpt lat="45.12447" lon="6.10545">
        <ele>2719.1999511719</ele>
        <time>2012-04-28T07:16:25.000Z</time>
      </trkpt>
      <trkpt lat="45.12449" lon="6.10546">
        <ele>2717.3999023438</ele>
        <time>2012-04-28T07:16:28.000Z</time>
      </trkpt>
      <trkpt lat="45.12457" lon="6.10547">
        <ele>2719.8000488281</ele>
        <time>2012-04-28T07:16:39.000Z</time>
      </trkpt>
      <trkpt lat="45.12462" lon="6.10549">
        <ele>2720.6000976562</ele>
        <time>2012-04-28T07:16:47.000Z</time>
      </trkpt>
      <trkpt lat="45.12466" lon="6.1055">
        <ele>2723.6000976562</ele>
        <time>2012-04-28T07:16:54.000Z</time>
      </trkpt>
      <trkpt lat="45.12472" lon="6.10553">
        <ele>2726</ele>
        <time>2012-04-28T07:17:03.000Z</time>
      </trkpt>
      <trkpt lat="45.12478" lon="6.10556">
        <ele>2728.1999511719</ele>
        <time>2012-04-28T07:17:12.000Z</time>
      </trkpt>
      <trkpt lat="45.12483" lon="6.10558">
        <ele>2730.6000976562</ele>
        <time>2012-04-28T07:17:21.000Z</time>
      </trkpt>
      <trkpt lat="45.12487" lon="6.10559">
        <ele>2730</ele>
        <time>2012-04-28T07:17:27.000Z</time>
      </trkpt>
      <trkpt lat="45.12491" lon="6.10561">
        <ele>2733.8000488281</ele>
        <time>2012-04-28T07:17:32.000Z</time>
      </trkpt>
      <trkpt lat="45.12496" lon="6.10564">
        <ele>2738.8000488281</ele>
        <time>2012-04-28T07:17:40.000Z</time>
      </trkpt>
      <trkpt lat="45.125" lon="6.10566">
        <ele>2740</ele>
        <time>2012-04-28T07:17:46.000Z</time>
      </trkpt>
      <trkpt lat="45.12505" lon="6.10567">
        <ele>2739.8000488281</ele>
        <time>2012-04-28T07:17:54.000Z</time>
      </trkpt>
      <trkpt lat="45.1251" lon="6.10571">
        <ele>2740.3999023438</ele>
        <time>2012-04-28T07:18:03.000Z</time>
      </trkpt>
      <trkpt lat="45.12514" lon="6.10573">
        <ele>2741.3999023438</ele>
        <time>2012-04-28T07:18:08.000Z</time>
      </trkpt>
      <trkpt lat="45.12518" lon="6.10574">
        <ele>2743.1999511719</ele>
        <time>2012-04-28T07:18:15.000Z</time>
      </trkpt>
      <trkpt lat="45.12524" lon="6.10575">
        <ele>2749</ele>
        <time>2012-04-28T07:18:23.000Z</time>
      </trkpt>
      <trkpt lat="45.12531" lon="6.10579">
        <ele>2749.1999511719</ele>
        <time>2012-04-28T07:18:32.000Z</time>
      </trkpt>
      <trkpt lat="45.12539" lon="6.10583">
        <ele>2747.8000488281</ele>
        <time>2012-04-28T07:18:41.000Z</time>
      </trkpt>
      <trkpt lat="45.12547" lon="6.10586">
        <ele>2749.1999511719</ele>
        <time>2012-04-28T07:18:50.000Z</time>
      </trkpt>
      <trkpt lat="45.12552" lon="6.10589">
        <ele>2751.6000976562</ele>
        <time>2012-04-28T07:18:55.000Z</time>
      </trkpt>
      <trkpt lat="45.12561" lon="6.10592">
        <ele>2752.6000976562</ele>
        <time>2012-04-28T07:19:05.000Z</time>
      </trkpt>
      <trkpt lat="45.1257" lon="6.10595">
        <ele>2759.6000976562</ele>
        <time>2012-04-28T07:19:14.000Z</time>
      </trkpt>
      <trkpt lat="45.12574" lon="6.10596">
        <ele>2756.1999511719</ele>
        <time>2012-04-28T07:19:18.000Z</time>
      </trkpt>
      <trkpt lat="45.12581" lon="6.10599">
        <ele>2758.8000488281</ele>
        <time>2012-04-28T07:19:25.000Z</time>
      </trkpt>
      <trkpt lat="45.12583" lon="6.10599">
        <ele>2759</ele>
        <time>2012-04-28T07:19:28.000Z</time>
      </trkpt>
      <trkpt lat="45.12588" lon="6.10602">
        <ele>2760.1999511719</ele>
        <time>2012-04-28T07:19:45.000Z</time>
      </trkpt>
      <trkpt lat="45.12601" lon="6.10603">
        <ele>2763</ele>
        <time>2012-04-28T07:19:55.000Z</time>
      </trkpt>
      <trkpt lat="45.12606" lon="6.10605">
        <ele>2760.3999023438</ele>
        <time>2012-04-28T07:19:59.000Z</time>
      </trkpt>
      <trkpt lat="45.12617" lon="6.10605">
        <ele>2758</ele>
        <time>2012-04-28T07:20:07.000Z</time>
      </trkpt>
      <trkpt lat="45.12627" lon="6.10607">
        <ele>2762.1999511719</ele>
        <time>2012-04-28T07:20:15.000Z</time>
      </trkpt>
      <trkpt lat="45.12637" lon="6.10605">
        <ele>2765.3999023438</ele>
        <time>2012-04-28T07:20:24.000Z</time>
      </trkpt>
      <trkpt lat="45.12643" lon="6.10604">
        <ele>2769.8000488281</ele>
        <time>2012-04-28T07:20:28.000Z</time>
      </trkpt>
      <trkpt lat="45.12655" lon="6.10604">
        <ele>2765.6000976562</ele>
        <time>2012-04-28T07:20:35.000Z</time>
      </trkpt>
      <trkpt lat="45.12665" lon="6.10603">
        <ele>2762.3999023438</ele>
        <time>2012-04-28T07:20:42.000Z</time>
      </trkpt>
      <trkpt lat="45.12676" lon="6.10603">
        <ele>2766.8000488281</ele>
        <time>2012-04-28T07:20:50.000Z</time>
      </trkpt>
      <trkpt lat="45.12684" lon="6.10604">
        <ele>2762.1999511719</ele>
        <time>2012-04-28T07:20:55.000Z</time>
      </trkpt>
      <trkpt lat="45.12697" lon="6.10605">
        <ele>2761.3999023438</ele>
        <time>2012-04-28T07:21:04.000Z</time>
      </trkpt>
      <trkpt lat="45.1271" lon="6.10606">
        <ele>2764</ele>
        <time>2012-04-28T07:21:15.000Z</time>
      </trkpt>
      <trkpt lat="45.12724" lon="6.10607">
        <ele>2765.1999511719</ele>
        <time>2012-04-28T07:21:25.000Z</time>
      </trkpt>
      <trkpt lat="45.12736" lon="6.10607">
        <ele>2771.1999511719</ele>
        <time>2012-04-28T07:21:35.000Z</time>
      </trkpt>
      <trkpt lat="45.12743" lon="6.10608">
        <ele>2768.6000976562</ele>
        <time>2012-04-28T07:21:40.000Z</time>
      </trkpt>
      <trkpt lat="45.12756" lon="6.10606">
        <ele>2768.8000488281</ele>
        <time>2012-04-28T07:21:50.000Z</time>
      </trkpt>
      <trkpt lat="45.12762" lon="6.10605">
        <ele>2767.3999023438</ele>
        <time>2012-04-28T07:21:54.000Z</time>
      </trkpt>
      <trkpt lat="45.12771" lon="6.10602">
        <ele>2767.1999511719</ele>
        <time>2012-04-28T07:22:01.000Z</time>
      </trkpt>
      <trkpt lat="45.12782" lon="6.10601">
        <ele>2767.8000488281</ele>
        <time>2012-04-28T07:22:09.000Z</time>
      </trkpt>
      <trkpt lat="45.1279" lon="6.10599">
        <ele>2770</ele>
        <time>2012-04-28T07:22:15.000Z</time>
      </trkpt>
      <trkpt lat="45.12799" lon="6.10599">
        <ele>2770.8000488281</ele>
        <time>2012-04-28T07:22:23.000Z</time>
      </trkpt>
      <trkpt lat="45.12807" lon="6.10601">
        <ele>2770.6000976562</ele>
        <time>2012-04-28T07:22:30.000Z</time>
      </trkpt>
      <trkpt lat="45.12821" lon="6.10606">
        <ele>2772.1999511719</ele>
        <time>2012-04-28T07:22:40.000Z</time>
      </trkpt>
      <trkpt lat="45.12827" lon="6.10608">
        <ele>2771.3999023438</ele>
        <time>2012-04-28T07:22:48.000Z</time>
      </trkpt>
      <trkpt lat="45.1283" lon="6.10609">
        <ele>2768.3999023438</ele>
        <time>2012-04-28T07:22:53.000Z</time>
      </trkpt>
      <trkpt lat="45.12832" lon="6.10609">
        <ele>2767.3999023438</ele>
        <time>2012-04-28T07:22:55.000Z</time>
      </trkpt>
      <trkpt lat="45.12835" lon="6.10607">
        <ele>2767.1999511719</ele>
        <time>2012-04-28T07:23:00.000Z</time>
      </trkpt>
      <trkpt lat="45.12834" lon="6.10607">
        <ele>2769.3999023438</ele>
        <time>2012-04-28T07:24:27.000Z</time>
      </trkpt>
      <trkpt lat="45.12834" lon="6.10612">
        <ele>2770</ele>
        <time>2012-04-28T07:25:14.000Z</time>
      </trkpt>
      <trkpt lat="45.12834" lon="6.10613">
        <ele>2770.1999511719</ele>
        <time>2012-04-28T07:25:15.000Z</time>
      </trkpt>
      <trkpt lat="45.12834" lon="6.10618">
        <ele>2768.6000976562</ele>
        <time>2012-04-28T07:25:29.000Z</time>
      </trkpt>
      <trkpt lat="45.12828" lon="6.10613">
        <ele>2771</ele>
        <time>2012-04-28T07:27:34.000Z</time>
      </trkpt>
      <trkpt lat="45.12828" lon="6.10613">
        <ele>2771.1999511719</ele>
        <time>2012-04-28T07:27:38.000Z</time>
      </trkpt>
      <trkpt lat="45.12831" lon="6.1062">
        <ele>2770.8000488281</ele>
        <time>2012-04-28T07:27:45.000Z</time>
      </trkpt>
      <trkpt lat="45.12832" lon="6.10621">
        <ele>2769</ele>
        <time>2012-04-28T07:27:46.000Z</time>
      </trkpt>
      <trkpt lat="45.12832" lon="6.10619">
        <ele>2767.6000976562</ele>
        <time>2012-04-28T07:27:59.000Z</time>
      </trkpt>
      <trkpt lat="45.12827" lon="6.10615">
        <ele>2768.8000488281</ele>
        <time>2012-04-28T07:29:08.000Z</time>
      </trkpt>
      <trkpt lat="45.12833" lon="6.10608">
        <ele>2781.6000976562</ele>
        <time>2012-04-28T07:29:26.000Z</time>
      </trkpt>
      <trkpt lat="45.12828" lon="6.10605">
        <ele>2779.1999511719</ele>
        <time>2012-04-28T07:29:41.000Z</time>
      </trkpt>
      <trkpt lat="45.12819" lon="6.10605">
        <ele>2777.3999023438</ele>
        <time>2012-04-28T07:29:48.000Z</time>
      </trkpt>
      <trkpt lat="45.12807" lon="6.10607">
        <ele>2777.3999023438</ele>
        <time>2012-04-28T07:29:55.000Z</time>
      </trkpt>
      <trkpt lat="45.12799" lon="6.10607">
        <ele>2776</ele>
        <time>2012-04-28T07:30:01.000Z</time>
      </trkpt>
      <trkpt lat="45.12797" lon="6.10607">
        <ele>2775</ele>
        <time>2012-04-28T07:30:03.000Z</time>
      </trkpt>
      <trkpt lat="45.12784" lon="6.10609">
        <ele>2775.6000976562</ele>
        <time>2012-04-28T07:30:11.000Z</time>
      </trkpt>
      <trkpt lat="45.12774" lon="6.1061">
        <ele>2775.8000488281</ele>
        <time>2012-04-28T07:30:18.000Z</time>
      </trkpt>
      <trkpt lat="45.12764" lon="6.10609">
        <ele>2779.8000488281</ele>
        <time>2012-04-28T07:30:23.000Z</time>
      </trkpt>
      <trkpt lat="45.12755" lon="6.1061">
        <ele>2776.8000488281</ele>
        <time>2012-04-28T07:30:28.000Z</time>
      </trkpt>
      <trkpt lat="45.12739" lon="6.1061">
        <ele>2778</ele>
        <time>2012-04-28T07:30:35.000Z</time>
      </trkpt>
      <trkpt lat="45.12733" lon="6.1061">
        <ele>2779</ele>
        <time>2012-04-28T07:30:37.000Z</time>
      </trkpt>
      <trkpt lat="45.12715" lon="6.10609">
        <ele>2775</ele>
        <time>2012-04-28T07:30:43.000Z</time>
      </trkpt>
      <trkpt lat="45.12696" lon="6.10608">
        <ele>2774.8000488281</ele>
        <time>2012-04-28T07:30:52.000Z</time>
      </trkpt>
      <trkpt lat="45.12683" lon="6.10609">
        <ele>2775.6000976562</ele>
        <time>2012-04-28T07:30:57.000Z</time>
      </trkpt>
      <trkpt lat="45.12657" lon="6.10606">
        <ele>2771.1999511719</ele>
        <time>2012-04-28T07:31:05.000Z</time>
      </trkpt>
      <trkpt lat="45.12631" lon="6.10604">
        <ele>2765.1999511719</ele>
        <time>2012-04-28T07:31:12.000Z</time>
      </trkpt>
      <trkpt lat="45.12608" lon="6.10603">
        <ele>2763.1999511719</ele>
        <time>2012-04-28T07:31:20.000Z</time>
      </trkpt>
      <trkpt lat="45.12586" lon="6.10597">
        <ele>2762</ele>
        <time>2012-04-28T07:31:26.000Z</time>
      </trkpt>
      <trkpt lat="45.12581" lon="6.10596">
        <ele>2762.3999023438</ele>
        <time>2012-04-28T07:31:27.000Z</time>
      </trkpt>
      <trkpt lat="45.12562" lon="6.10584">
        <ele>2758.1999511719</ele>
        <time>2012-04-28T07:31:31.000Z</time>
      </trkpt>
      <trkpt lat="45.12543" lon="6.10585">
        <ele>2753.6000976562</ele>
        <time>2012-04-28T07:31:34.000Z</time>
      </trkpt>
      <trkpt lat="45.12522" lon="6.10574">
        <ele>2750.3999023438</ele>
        <time>2012-04-28T07:31:37.000Z</time>
      </trkpt>
      <trkpt lat="45.125" lon="6.1056">
        <ele>2744.6000976562</ele>
        <time>2012-04-28T07:31:40.000Z</time>
      </trkpt>
      <trkpt lat="45.12485" lon="6.10559">
        <ele>2741.1999511719</ele>
        <time>2012-04-28T07:31:42.000Z</time>
      </trkpt>
      <trkpt lat="45.12472" lon="6.10548">
        <ele>2737.3999023438</ele>
        <time>2012-04-28T07:31:44.000Z</time>
      </trkpt>
      <trkpt lat="45.1245" lon="6.10543">
        <ele>2730.1999511719</ele>
        <time>2012-04-28T07:31:47.000Z</time>
      </trkpt>
      <trkpt lat="45.12435" lon="6.10541">
        <ele>2724.8000488281</ele>
        <time>2012-04-28T07:31:49.000Z</time>
      </trkpt>
      <trkpt lat="45.124" lon="6.10558">
        <ele>2710.1999511719</ele>
        <time>2012-04-28T07:31:54.000Z</time>
      </trkpt>
      <trkpt lat="45.12392" lon="6.10558">
        <ele>2707</ele>
        <time>2012-04-28T07:31:55.000Z</time>
      </trkpt>
      <trkpt lat="45.12343" lon="6.10563">
        <ele>2692.1999511719</ele>
        <time>2012-04-28T07:32:00.000Z</time>
      </trkpt>
      <trkpt lat="45.12322" lon="6.10534">
        <ele>2685.3999023438</ele>
        <time>2012-04-28T07:32:04.000Z</time>
      </trkpt>
      <trkpt lat="45.12318" lon="6.10527">
        <ele>2683.3999023438</ele>
        <time>2012-04-28T07:32:05.000Z</time>
      </trkpt>
      <trkpt lat="45.12309" lon="6.10511">
        <ele>2680.1999511719</ele>
        <time>2012-04-28T07:32:07.000Z</time>
      </trkpt>
      <trkpt lat="45.12281" lon="6.105">
        <ele>2676.1999511719</ele>
        <time>2012-04-28T07:32:11.000Z</time>
      </trkpt>
      <trkpt lat="45.12272" lon="6.10505">
        <ele>2673.1999511719</ele>
        <time>2012-04-28T07:32:13.000Z</time>
      </trkpt>
      <trkpt lat="45.12267" lon="6.10506">
        <ele>2670.1999511719</ele>
        <time>2012-04-28T07:32:16.000Z</time>
      </trkpt>
      <trkpt lat="45.12266" lon="6.10506">
        <ele>2670.1999511719</ele>
        <time>2012-04-28T07:32:17.000Z</time>
      </trkpt>
      <trkpt lat="45.12266" lon="6.10506">
        <ele>2669.1999511719</ele>
        <time>2012-04-28T07:32:18.000Z</time>
      </trkpt>
      <trkpt lat="45.1226" lon="6.10517">
        <ele>2664.3999023438</ele>
        <time>2012-04-28T07:32:24.000Z</time>
      </trkpt>
      <trkpt lat="45.12257" lon="6.10522">
        <ele>2662.1999511719</ele>
        <time>2012-04-28T07:32:25.000Z</time>
      </trkpt>
      <trkpt lat="45.12246" lon="6.1055">
        <ele>2656</ele>
        <time>2012-04-28T07:32:29.000Z</time>
      </trkpt>
      <trkpt lat="45.12231" lon="6.10567">
        <ele>2651.6000976562</ele>
        <time>2012-04-28T07:32:32.000Z</time>
      </trkpt>
      <trkpt lat="45.12207" lon="6.1057">
        <ele>2646.1999511719</ele>
        <time>2012-04-28T07:32:35.000Z</time>
      </trkpt>
      <trkpt lat="45.12187" lon="6.10566">
        <ele>2642.8000488281</ele>
        <time>2012-04-28T07:32:37.000Z</time>
      </trkpt>
      <trkpt lat="45.12136" lon="6.10548">
        <ele>2634.6000976562</ele>
        <time>2012-04-28T07:32:42.000Z</time>
      </trkpt>
      <trkpt lat="45.12127" lon="6.10543">
        <ele>2633</ele>
        <time>2012-04-28T07:32:43.000Z</time>
      </trkpt>
      <trkpt lat="45.12105" lon="6.10499">
        <ele>2626.6000976562</ele>
        <time>2012-04-28T07:32:48.000Z</time>
      </trkpt>
      <trkpt lat="45.1211" lon="6.10495">
        <ele>2624</ele>
        <time>2012-04-28T07:32:50.000Z</time>
      </trkpt>
      <trkpt lat="45.12119" lon="6.1049">
        <ele>2623.3999023438</ele>
        <time>2012-04-28T07:32:52.000Z</time>
      </trkpt>
      <trkpt lat="45.12131" lon="6.10473">
        <ele>2619.6000976562</ele>
        <time>2012-04-28T07:32:55.000Z</time>
      </trkpt>
      <trkpt lat="45.12141" lon="6.10462">
        <ele>2617.1999511719</ele>
        <time>2012-04-28T07:32:57.000Z</time>
      </trkpt>
      <trkpt lat="45.12165" lon="6.10433">
        <ele>2610.6000976562</ele>
        <time>2012-04-28T07:33:02.000Z</time>
      </trkpt>
      <trkpt lat="45.12183" lon="6.10424">
        <ele>2605.3999023438</ele>
        <time>2012-04-28T07:33:05.000Z</time>
      </trkpt>
      <trkpt lat="45.12189" lon="6.10422">
        <ele>2603</ele>
        <time>2012-04-28T07:33:06.000Z</time>
      </trkpt>
      <trkpt lat="45.12222" lon="6.10395">
        <ele>2589</ele>
        <time>2012-04-28T07:33:11.000Z</time>
      </trkpt>
      <trkpt lat="45.1225" lon="6.10371">
        <ele>2581</ele>
        <time>2012-04-28T07:33:14.000Z</time>
      </trkpt>
      <trkpt lat="45.12267" lon="6.10371">
        <ele>2576.3999023438</ele>
        <time>2012-04-28T07:33:16.000Z</time>
      </trkpt>
      <trkpt lat="45.1228" lon="6.10352">
        <ele>2572.3999023438</ele>
        <time>2012-04-28T07:33:19.000Z</time>
      </trkpt>
      <trkpt lat="45.12285" lon="6.10346">
        <ele>2570.8000488281</ele>
        <time>2012-04-28T07:33:20.000Z</time>
      </trkpt>
      <trkpt lat="45.12295" lon="6.10328">
        <ele>2567.1999511719</ele>
        <time>2012-04-28T07:33:23.000Z</time>
      </trkpt>
      <trkpt lat="45.12307" lon="6.10302">
        <ele>2561.6000976562</ele>
        <time>2012-04-28T07:33:27.000Z</time>
      </trkpt>
      <trkpt lat="45.12319" lon="6.10269">
        <ele>2553.6000976562</ele>
        <time>2012-04-28T07:33:32.000Z</time>
      </trkpt>
      <trkpt lat="45.12331" lon="6.10243">
        <ele>2546.3999023438</ele>
        <time>2012-04-28T07:33:36.000Z</time>
      </trkpt>
      <trkpt lat="45.12335" lon="6.10223">
        <ele>2541.8000488281</ele>
        <time>2012-04-28T07:33:39.000Z</time>
      </trkpt>
      <trkpt lat="45.12347" lon="6.10211">
        <ele>2538</ele>
        <time>2012-04-28T07:33:42.000Z</time>
      </trkpt>
      <trkpt lat="45.12356" lon="6.10192">
        <ele>2531.3999023438</ele>
        <time>2012-04-28T07:33:45.000Z</time>
      </trkpt>
      <trkpt lat="45.12365" lon="6.10185">
        <ele>2528.1999511719</ele>
        <time>2012-04-28T07:33:47.000Z</time>
      </trkpt>
      <trkpt lat="45.12396" lon="6.10171">
        <ele>2518</ele>
        <time>2012-04-28T07:33:52.000Z</time>
      </trkpt>
      <trkpt lat="45.12409" lon="6.10157">
        <ele>2510.3999023438</ele>
        <time>2012-04-28T07:33:55.000Z</time>
      </trkpt>
      <trkpt lat="45.12424" lon="6.10147">
        <ele>2504.6000976562</ele>
        <time>2012-04-28T07:33:58.000Z</time>
      </trkpt>
      <trkpt lat="45.12441" lon="6.10135">
        <ele>2496.3999023438</ele>
        <time>2012-04-28T07:34:01.000Z</time>
      </trkpt>
      <trkpt lat="45.12464" lon="6.10124">
        <ele>2489.8000488281</ele>
        <time>2012-04-28T07:34:04.000Z</time>
      </trkpt>
      <trkpt lat="45.1248" lon="6.10128">
        <ele>2484.1999511719</ele>
        <time>2012-04-28T07:34:07.000Z</time>
      </trkpt>
      <trkpt lat="45.12487" lon="6.10126">
        <ele>2482</ele>
        <time>2012-04-28T07:34:08.000Z</time>
      </trkpt>
      <trkpt lat="45.12521" lon="6.10126">
        <ele>2473.3999023438</ele>
        <time>2012-04-28T07:34:13.000Z</time>
      </trkpt>
      <trkpt lat="45.12546" lon="6.10107">
        <ele>2465.8000488281</ele>
        <time>2012-04-28T07:34:17.000Z</time>
      </trkpt>
      <trkpt lat="45.12559" lon="6.10114">
        <ele>2463.1999511719</ele>
        <time>2012-04-28T07:34:20.000Z</time>
      </trkpt>
      <trkpt lat="45.12553" lon="6.1011">
        <ele>2463.6000976562</ele>
        <time>2012-04-28T07:34:24.000Z</time>
      </trkpt>
      <trkpt lat="45.12552" lon="6.1011">
        <ele>2463.8000488281</ele>
        <time>2012-04-28T07:34:25.000Z</time>
      </trkpt>
      <trkpt lat="45.12554" lon="6.10103">
        <ele>2464.1999511719</ele>
        <time>2012-04-28T07:34:28.000Z</time>
      </trkpt>
      <trkpt lat="45.12568" lon="6.10086">
        <ele>2460.3999023438</ele>
        <time>2012-04-28T07:34:32.000Z</time>
      </trkpt>
      <trkpt lat="45.12567" lon="6.10074">
        <ele>2456.8000488281</ele>
        <time>2012-04-28T07:34:35.000Z</time>
      </trkpt>
      <trkpt lat="45.12568" lon="6.10058">
        <ele>2453</ele>
        <time>2012-04-28T07:34:38.000Z</time>
      </trkpt>
      <trkpt lat="45.1256" lon="6.10059">
        <ele>2449.3999023438</ele>
        <time>2012-04-28T07:34:41.000Z</time>
      </trkpt>
      <trkpt lat="45.12556" lon="6.10041">
        <ele>2446.3999023438</ele>
        <time>2012-04-28T07:34:44.000Z</time>
      </trkpt>
      <trkpt lat="45.12545" lon="6.10031">
        <ele>2442.1999511719</ele>
        <time>2012-04-28T07:34:47.000Z</time>
      </trkpt>
      <trkpt lat="45.12533" lon="6.10019">
        <ele>2437</ele>
        <time>2012-04-28T07:34:50.000Z</time>
      </trkpt>
      <trkpt lat="45.12521" lon="6.10008">
        <ele>2432.3999023438</ele>
        <time>2012-04-28T07:34:53.000Z</time>
      </trkpt>
      <trkpt lat="45.12507" lon="6.0999">
        <ele>2427.8000488281</ele>
        <time>2012-04-28T07:34:56.000Z</time>
      </trkpt>
      <trkpt lat="45.1249" lon="6.09974">
        <ele>2419.6000976562</ele>
        <time>2012-04-28T07:35:01.000Z</time>
      </trkpt>
      <trkpt lat="45.12475" lon="6.09966">
        <ele>2414.1999511719</ele>
        <time>2012-04-28T07:35:04.000Z</time>
      </trkpt>
      <trkpt lat="45.1245" lon="6.09957">
        <ele>2406</ele>
        <time>2012-04-28T07:35:08.000Z</time>
      </trkpt>
      <trkpt lat="45.12423" lon="6.09953">
        <ele>2397</ele>
        <time>2012-04-28T07:35:11.000Z</time>
      </trkpt>
      <trkpt lat="45.12386" lon="6.09932">
        <ele>2385.8000488281</ele>
        <time>2012-04-28T07:35:16.000Z</time>
      </trkpt>
      <trkpt lat="45.12356" lon="6.0992">
        <ele>2381.1999511719</ele>
        <time>2012-04-28T07:35:21.000Z</time>
      </trkpt>
      <trkpt lat="45.12333" lon="6.09907">
        <ele>2376.8000488281</ele>
        <time>2012-04-28T07:35:25.000Z</time>
      </trkpt>
      <trkpt lat="45.12305" lon="6.09885">
        <ele>2374.6000976562</ele>
        <time>2012-04-28T07:35:28.000Z</time>
      </trkpt>
      <trkpt lat="45.1228" lon="6.09874">
        <ele>2366.6000976562</ele>
        <time>2012-04-28T07:35:31.000Z</time>
      </trkpt>
      <trkpt lat="45.12273" lon="6.09862">
        <ele>2361</ele>
        <time>2012-04-28T07:35:33.000Z</time>
      </trkpt>
      <trkpt lat="45.12282" lon="6.09846">
        <ele>2356</ele>
        <time>2012-04-28T07:35:37.000Z</time>
      </trkpt>
      <trkpt lat="45.12283" lon="6.09842">
        <ele>2355.6000976562</ele>
        <time>2012-04-28T07:35:38.000Z</time>
      </trkpt>
      <trkpt lat="45.12289" lon="6.09827">
        <ele>2353.3999023438</ele>
        <time>2012-04-28T07:35:41.000Z</time>
      </trkpt>
      <trkpt lat="45.12296" lon="6.0982">
        <ele>2349.3999023438</ele>
        <time>2012-04-28T07:35:43.000Z</time>
      </trkpt>
      <trkpt lat="45.12319" lon="6.09798">
        <ele>2341.3999023438</ele>
        <time>2012-04-28T07:35:48.000Z</time>
      </trkpt>
      <trkpt lat="45.12336" lon="6.09799">
        <ele>2338</ele>
        <time>2012-04-28T07:35:51.000Z</time>
      </trkpt>
      <trkpt lat="45.12355" lon="6.09795">
        <ele>2332.8000488281</ele>
        <time>2012-04-28T07:35:54.000Z</time>
      </trkpt>
      <trkpt lat="45.1238" lon="6.0978">
        <ele>2326.1999511719</ele>
        <time>2012-04-28T07:35:58.000Z</time>
      </trkpt>
      <trkpt lat="45.12402" lon="6.09767">
        <ele>2319.8000488281</ele>
        <time>2012-04-28T07:36:01.000Z</time>
      </trkpt>
      <trkpt lat="45.12413" lon="6.09744">
        <ele>2315.8000488281</ele>
        <time>2012-04-28T07:36:03.000Z</time>
      </trkpt>
      <trkpt lat="45.12437" lon="6.09702">
        <ele>2310.3999023438</ele>
        <time>2012-04-28T07:36:08.000Z</time>
      </trkpt>
      <trkpt lat="45.12456" lon="6.0968">
        <ele>2308</ele>
        <time>2012-04-28T07:36:12.000Z</time>
      </trkpt>
      <trkpt lat="45.12464" lon="6.09679">
        <ele>2307.1999511719</ele>
        <time>2012-04-28T07:36:13.000Z</time>
      </trkpt>
      <trkpt lat="45.12468" lon="6.0968">
        <ele>2306.8000488281</ele>
        <time>2012-04-28T07:36:15.000Z</time>
      </trkpt>
      <trkpt lat="45.12475" lon="6.09682">
        <ele>2305.3999023438</ele>
        <time>2012-04-28T07:36:20.000Z</time>
      </trkpt>
      <trkpt lat="45.12485" lon="6.09685">
        <ele>2303.1999511719</ele>
        <time>2012-04-28T07:36:23.000Z</time>
      </trkpt>
      <trkpt lat="45.12511" lon="6.09687">
        <ele>2296.8000488281</ele>
        <time>2012-04-28T07:36:28.000Z</time>
      </trkpt>
      <trkpt lat="45.12526" lon="6.09682">
        <ele>2294.1999511719</ele>
        <time>2012-04-28T07:36:31.000Z</time>
      </trkpt>
      <trkpt lat="45.12545" lon="6.09691">
        <ele>2292.8000488281</ele>
        <time>2012-04-28T07:36:34.000Z</time>
      </trkpt>
      <trkpt lat="45.12556" lon="6.09687">
        <ele>2291.6000976562</ele>
        <time>2012-04-28T07:36:36.000Z</time>
      </trkpt>
      <trkpt lat="45.12566" lon="6.09684">
        <ele>2288.8000488281</ele>
        <time>2012-04-28T07:36:38.000Z</time>
      </trkpt>
      <trkpt lat="45.12586" lon="6.09679">
        <ele>2281.8000488281</ele>
        <time>2012-04-28T07:36:42.000Z</time>
      </trkpt>
      <trkpt lat="45.12607" lon="6.09678">
        <ele>2276.1999511719</ele>
        <time>2012-04-28T07:36:46.000Z</time>
      </trkpt>
      <trkpt lat="45.12622" lon="6.09668">
        <ele>2269.3999023438</ele>
        <time>2012-04-28T07:36:49.000Z</time>
      </trkpt>
      <trkpt lat="45.12626" lon="6.0967">
        <ele>2267.6000976562</ele>
        <time>2012-04-28T07:36:50.000Z</time>
      </trkpt>
      <trkpt lat="45.12636" lon="6.09668">
        <ele>2263.3999023438</ele>
        <time>2012-04-28T07:36:53.000Z</time>
      </trkpt>
      <trkpt lat="45.1265" lon="6.09654">
        <ele>2256</ele>
        <time>2012-04-28T07:36:57.000Z</time>
      </trkpt>
      <trkpt lat="45.12661" lon="6.09625">
        <ele>2248.1999511719</ele>
        <time>2012-04-28T07:37:01.000Z</time>
      </trkpt>
      <trkpt lat="45.12666" lon="6.09625">
        <ele>2246</ele>
        <time>2012-04-28T07:37:02.000Z</time>
      </trkpt>
      <trkpt lat="45.12681" lon="6.09614">
        <ele>2240.3999023438</ele>
        <time>2012-04-28T07:37:05.000Z</time>
      </trkpt>
      <trkpt lat="45.12695" lon="6.09605">
        <ele>2233.1999511719</ele>
        <time>2012-04-28T07:37:09.000Z</time>
      </trkpt>
      <trkpt lat="45.12715" lon="6.09595">
        <ele>2226.3999023438</ele>
        <time>2012-04-28T07:37:13.000Z</time>
      </trkpt>
      <trkpt lat="45.12728" lon="6.09601">
        <ele>2222.1999511719</ele>
        <time>2012-04-28T07:37:16.000Z</time>
      </trkpt>
      <trkpt lat="45.12738" lon="6.09592">
        <ele>2216.3999023438</ele>
        <time>2012-04-28T07:37:19.000Z</time>
      </trkpt>
      <trkpt lat="45.12755" lon="6.09592">
        <ele>2209.8000488281</ele>
        <time>2012-04-28T07:37:22.000Z</time>
      </trkpt>
      <trkpt lat="45.12771" lon="6.09572">
        <ele>2202.3999023438</ele>
        <time>2012-04-28T07:37:25.000Z</time>
      </trkpt>
      <trkpt lat="45.1279" lon="6.09575">
        <ele>2196.8000488281</ele>
        <time>2012-04-28T07:37:28.000Z</time>
      </trkpt>
      <trkpt lat="45.12801" lon="6.09561">
        <ele>2192.8000488281</ele>
        <time>2012-04-28T07:37:31.000Z</time>
      </trkpt>
      <trkpt lat="45.12811" lon="6.09558">
        <ele>2187.1999511719</ele>
        <time>2012-04-28T07:37:33.000Z</time>
      </trkpt>
      <trkpt lat="45.12822" lon="6.09539">
        <ele>2181</ele>
        <time>2012-04-28T07:37:38.000Z</time>
      </trkpt>
      <trkpt lat="45.12834" lon="6.09531">
        <ele>2177</ele>
        <time>2012-04-28T07:37:41.000Z</time>
      </trkpt>
      <trkpt lat="45.12835" lon="6.09521">
        <ele>2175</ele>
        <time>2012-04-28T07:37:44.000Z</time>
      </trkpt>
      <trkpt lat="45.12838" lon="6.09508">
        <ele>2172.1999511719</ele>
        <time>2012-04-28T07:37:47.000Z</time>
      </trkpt>
      <trkpt lat="45.12841" lon="6.09505">
        <ele>2170.8000488281</ele>
        <time>2012-04-28T07:37:48.000Z</time>
      </trkpt>
      <trkpt lat="45.12844" lon="6.09483">
        <ele>2165.1999511719</ele>
        <time>2012-04-28T07:37:53.000Z</time>
      </trkpt>
      <trkpt lat="45.12851" lon="6.09466">
        <ele>2161</ele>
        <time>2012-04-28T07:37:56.000Z</time>
      </trkpt>
      <trkpt lat="45.12858" lon="6.09457">
        <ele>2156.3999023438</ele>
        <time>2012-04-28T07:37:58.000Z</time>
      </trkpt>
      <trkpt lat="45.1288" lon="6.09446">
        <ele>2147.8000488281</ele>
        <time>2012-04-28T07:38:03.000Z</time>
      </trkpt>
      <trkpt lat="45.1289" lon="6.09435">
        <ele>2142.6000976562</ele>
        <time>2012-04-28T07:38:06.000Z</time>
      </trkpt>
      <trkpt lat="45.12912" lon="6.09434">
        <ele>2134.8000488281</ele>
        <time>2012-04-28T07:38:09.000Z</time>
      </trkpt>
      <trkpt lat="45.12916" lon="6.09422">
        <ele>2129.3999023438</ele>
        <time>2012-04-28T07:38:12.000Z</time>
      </trkpt>
      <trkpt lat="45.12919" lon="6.09415">
        <ele>2127</ele>
        <time>2012-04-28T07:38:17.000Z</time>
      </trkpt>
      <trkpt lat="45.1292" lon="6.09415">
        <ele>2127.3999023438</ele>
        <time>2012-04-28T07:38:19.000Z</time>
      </trkpt>
      <trkpt lat="45.12937" lon="6.0941">
        <ele>2124.8000488281</ele>
        <time>2012-04-28T07:38:42.000Z</time>
      </trkpt>
      <trkpt lat="45.12945" lon="6.09412">
        <ele>2123.1999511719</ele>
        <time>2012-04-28T07:38:44.000Z</time>
      </trkpt>
      <trkpt lat="45.12967" lon="6.09417">
        <ele>2119.8000488281</ele>
        <time>2012-04-28T07:38:48.000Z</time>
      </trkpt>
      <trkpt lat="45.12988" lon="6.09415">
        <ele>2115.1999511719</ele>
        <time>2012-04-28T07:38:53.000Z</time>
      </trkpt>
      <trkpt lat="45.13005" lon="6.0942">
        <ele>2112.1999511719</ele>
        <time>2012-04-28T07:38:56.000Z</time>
      </trkpt>
      <trkpt lat="45.13023" lon="6.09423">
        <ele>2109</ele>
        <time>2012-04-28T07:38:59.000Z</time>
      </trkpt>
      <trkpt lat="45.13042" lon="6.09423">
        <ele>2105.8000488281</ele>
        <time>2012-04-28T07:39:02.000Z</time>
      </trkpt>
      <trkpt lat="45.13063" lon="6.09423">
        <ele>2102</ele>
        <time>2012-04-28T07:39:05.000Z</time>
      </trkpt>
      <trkpt lat="45.13083" lon="6.09437">
        <ele>2097.8000488281</ele>
        <time>2012-04-28T07:39:08.000Z</time>
      </trkpt>
      <trkpt lat="45.1309" lon="6.09435">
        <ele>2096.6000976562</ele>
        <time>2012-04-28T07:39:09.000Z</time>
      </trkpt>
      <trkpt lat="45.13124" lon="6.09441">
        <ele>2092</ele>
        <time>2012-04-28T07:39:14.000Z</time>
      </trkpt>
      <trkpt lat="45.13156" lon="6.09443">
        <ele>2088.8000488281</ele>
        <time>2012-04-28T07:39:19.000Z</time>
      </trkpt>
      <trkpt lat="45.13185" lon="6.09443">
        <ele>2085.1999511719</ele>
        <time>2012-04-28T07:39:24.000Z</time>
      </trkpt>
      <trkpt lat="45.13197" lon="6.09446">
        <ele>2084</ele>
        <time>2012-04-28T07:39:26.000Z</time>
      </trkpt>
      <trkpt lat="45.1321" lon="6.09452">
        <ele>2082.8000488281</ele>
        <time>2012-04-28T07:39:29.000Z</time>
      </trkpt>
      <trkpt lat="45.13214" lon="6.09442">
        <ele>2083.1999511719</ele>
        <time>2012-04-28T07:39:32.000Z</time>
      </trkpt>
      <trkpt lat="45.13214" lon="6.09429">
        <ele>2082.3999023438</ele>
        <time>2012-04-28T07:39:40.000Z</time>
      </trkpt>
      <trkpt lat="45.13214" lon="6.09428">
        <ele>2082.1999511719</ele>
        <time>2012-04-28T07:39:41.000Z</time>
      </trkpt>
      <trkpt lat="45.13221" lon="6.09434">
        <ele>2078</ele>
        <time>2012-04-28T07:43:18.000Z</time>
      </trkpt>
      <trkpt lat="45.13213" lon="6.0944">
        <ele>2080</ele>
        <time>2012-04-28T07:44:56.000Z</time>
      </trkpt>
      <trkpt lat="45.13204" lon="6.09444">
        <ele>2078.6000976562</ele>
        <time>2012-04-28T07:45:05.000Z</time>
      </trkpt>
      <trkpt lat="45.13194" lon="6.09446">
        <ele>2080.6000976562</ele>
        <time>2012-04-28T07:45:14.000Z</time>
      </trkpt>
      <trkpt lat="45.13193" lon="6.09446">
        <ele>2081.1999511719</ele>
        <time>2012-04-28T07:45:15.000Z</time>
      </trkpt>
      <trkpt lat="45.1319" lon="6.09443">
        <ele>2081.1999511719</ele>
        <time>2012-04-28T07:45:20.000Z</time>
      </trkpt>
      <trkpt lat="45.13181" lon="6.09445">
        <ele>2081.8000488281</ele>
        <time>2012-04-28T07:45:28.000Z</time>
      </trkpt>
      <trkpt lat="45.13169" lon="6.09445">
        <ele>2085</ele>
        <time>2012-04-28T07:45:38.000Z</time>
      </trkpt>
      <trkpt lat="45.13157" lon="6.09446">
        <ele>2085.3999023438</ele>
        <time>2012-04-28T07:45:48.000Z</time>
      </trkpt>
      <trkpt lat="45.13146" lon="6.09446">
        <ele>2086</ele>
        <time>2012-04-28T07:45:58.000Z</time>
      </trkpt>
      <trkpt lat="45.13135" lon="6.09446">
        <ele>2087</ele>
        <time>2012-04-28T07:46:08.000Z</time>
      </trkpt>
      <trkpt lat="45.13134" lon="6.09446">
        <ele>2087.1999511719</ele>
        <time>2012-04-28T07:46:09.000Z</time>
      </trkpt>
      <trkpt lat="45.13125" lon="6.09445">
        <ele>2087.6000976562</ele>
        <time>2012-04-28T07:46:17.000Z</time>
      </trkpt>
      <trkpt lat="45.13116" lon="6.09444">
        <ele>2089.3999023438</ele>
        <time>2012-04-28T07:46:24.000Z</time>
      </trkpt>
      <trkpt lat="45.13104" lon="6.09442">
        <ele>2090.1999511719</ele>
        <time>2012-04-28T07:46:34.000Z</time>
      </trkpt>
      <trkpt lat="45.13093" lon="6.09441">
        <ele>2090.6000976562</ele>
        <time>2012-04-28T07:46:44.000Z</time>
      </trkpt>
      <trkpt lat="45.13081" lon="6.09438">
        <ele>2093.8000488281</ele>
        <time>2012-04-28T07:46:54.000Z</time>
      </trkpt>
      <trkpt lat="45.13076" lon="6.09437">
        <ele>2095.8000488281</ele>
        <time>2012-04-28T07:46:59.000Z</time>
      </trkpt>
      <trkpt lat="45.13065" lon="6.09435">
        <ele>2097.6000976562</ele>
        <time>2012-04-28T07:47:08.000Z</time>
      </trkpt>
      <trkpt lat="45.13057" lon="6.09436">
        <ele>2097.6000976562</ele>
        <time>2012-04-28T07:47:17.000Z</time>
      </trkpt>
      <trkpt lat="45.13049" lon="6.09437">
        <ele>2098.8000488281</ele>
        <time>2012-04-28T07:47:26.000Z</time>
      </trkpt>
      <trkpt lat="45.1304" lon="6.09432">
        <ele>2099.8000488281</ele>
        <time>2012-04-28T07:47:34.000Z</time>
      </trkpt>
      <trkpt lat="45.13031" lon="6.09428">
        <ele>2100.8000488281</ele>
        <time>2012-04-28T07:47:43.000Z</time>
      </trkpt>
      <trkpt lat="45.1302" lon="6.09428">
        <ele>2103.3999023438</ele>
        <time>2012-04-28T07:47:54.000Z</time>
      </trkpt>
      <trkpt lat="45.13013" lon="6.09426">
        <ele>2105</ele>
        <time>2012-04-28T07:48:02.000Z</time>
      </trkpt>
      <trkpt lat="45.13004" lon="6.09428">
        <ele>2107.6000976562</ele>
        <time>2012-04-28T07:48:12.000Z</time>
      </trkpt>
      <trkpt lat="45.12996" lon="6.09427">
        <ele>2109</ele>
        <time>2012-04-28T07:48:21.000Z</time>
      </trkpt>
      <trkpt lat="45.12988" lon="6.09425">
        <ele>2109.3999023438</ele>
        <time>2012-04-28T07:48:30.000Z</time>
      </trkpt>
      <trkpt lat="45.12978" lon="6.09424">
        <ele>2111.1999511719</ele>
        <time>2012-04-28T07:48:41.000Z</time>
      </trkpt>
      <trkpt lat="45.12969" lon="6.09423">
        <ele>2113.1999511719</ele>
        <time>2012-04-28T07:48:51.000Z</time>
      </trkpt>
      <trkpt lat="45.12963" lon="6.09421">
        <ele>2114.6000976562</ele>
        <time>2012-04-28T07:48:58.000Z</time>
      </trkpt>
      <trkpt lat="45.12954" lon="6.09418">
        <ele>2114.3999023438</ele>
        <time>2012-04-28T07:49:08.000Z</time>
      </trkpt>
      <trkpt lat="45.1295" lon="6.09419">
        <ele>2114.1999511719</ele>
        <time>2012-04-28T07:49:14.000Z</time>
      </trkpt>
      <trkpt lat="45.12944" lon="6.09423">
        <ele>2115</ele>
        <time>2012-04-28T07:49:21.000Z</time>
      </trkpt>
      <trkpt lat="45.12943" lon="6.09424">
        <ele>2116</ele>
        <time>2012-04-28T07:49:23.000Z</time>
      </trkpt>
      <trkpt lat="45.12936" lon="6.09429">
        <ele>2118.8000488281</ele>
        <time>2012-04-28T07:49:31.000Z</time>
      </trkpt>
      <trkpt lat="45.12934" lon="6.09432">
        <ele>2119.3999023438</ele>
        <time>2012-04-28T07:49:37.000Z</time>
      </trkpt>
      <trkpt lat="45.12932" lon="6.09435">
        <ele>2119.8000488281</ele>
        <time>2012-04-28T07:50:01.000Z</time>
      </trkpt>
      <trkpt lat="45.12927" lon="6.0944">
        <ele>2120.3999023438</ele>
        <time>2012-04-28T07:50:07.000Z</time>
      </trkpt>
      <trkpt lat="45.12924" lon="6.09445">
        <ele>2122</ele>
        <time>2012-04-28T07:50:12.000Z</time>
      </trkpt>
      <trkpt lat="45.12922" lon="6.09446">
        <ele>2123.6000976562</ele>
        <time>2012-04-28T07:50:15.000Z</time>
      </trkpt>
      <trkpt lat="45.12918" lon="6.09447">
        <ele>2125.1999511719</ele>
        <time>2012-04-28T07:50:21.000Z</time>
      </trkpt>
      <trkpt lat="45.12914" lon="6.0945">
        <ele>2128</ele>
        <time>2012-04-28T07:50:28.000Z</time>
      </trkpt>
      <trkpt lat="45.1291" lon="6.09453">
        <ele>2129.6000976562</ele>
        <time>2012-04-28T07:50:35.000Z</time>
      </trkpt>
      <trkpt lat="45.12908" lon="6.09454">
        <ele>2130.6000976562</ele>
        <time>2012-04-28T07:50:38.000Z</time>
      </trkpt>
      <trkpt lat="45.12906" lon="6.09455">
        <ele>2131.3999023438</ele>
        <time>2012-04-28T07:50:40.000Z</time>
      </trkpt>
      <trkpt lat="45.12902" lon="6.0946">
        <ele>2133.3999023438</ele>
        <time>2012-04-28T07:50:48.000Z</time>
      </trkpt>
      <trkpt lat="45.12898" lon="6.09463">
        <ele>2134.1999511719</ele>
        <time>2012-04-28T07:50:56.000Z</time>
      </trkpt>
      <trkpt lat="45.12896" lon="6.09466">
        <ele>2137</ele>
        <time>2012-04-28T07:51:01.000Z</time>
      </trkpt>
      <trkpt lat="45.12894" lon="6.09467">
        <ele>2137.1999511719</ele>
        <time>2012-04-28T07:51:07.000Z</time>
      </trkpt>
      <trkpt lat="45.12894" lon="6.09467">
        <ele>2139</ele>
        <time>2012-04-28T07:51:09.000Z</time>
      </trkpt>
      <trkpt lat="45.12891" lon="6.09469">
        <ele>2142.1999511719</ele>
        <time>2012-04-28T07:51:14.000Z</time>
      </trkpt>
      <trkpt lat="45.12891" lon="6.09471">
        <ele>2142.1999511719</ele>
        <time>2012-04-28T07:51:18.000Z</time>
      </trkpt>
      <trkpt lat="45.12889" lon="6.09475">
        <ele>2140.8000488281</ele>
        <time>2012-04-28T07:51:24.000Z</time>
      </trkpt>
      <trkpt lat="45.12887" lon="6.09478">
        <ele>2143.3999023438</ele>
        <time>2012-04-28T07:51:31.000Z</time>
      </trkpt>
      <trkpt lat="45.12887" lon="6.09479">
        <ele>2143.1999511719</ele>
        <time>2012-04-28T07:51:33.000Z</time>
      </trkpt>
      <trkpt lat="45.12881" lon="6.09483">
        <ele>2146.8000488281</ele>
        <time>2012-04-28T07:51:46.000Z</time>
      </trkpt>
      <trkpt lat="45.12879" lon="6.09486">
        <ele>2147.8000488281</ele>
        <time>2012-04-28T07:51:51.000Z</time>
      </trkpt>
      <trkpt lat="45.12877" lon="6.09488">
        <ele>2148.8000488281</ele>
        <time>2012-04-28T07:51:55.000Z</time>
      </trkpt>
      <trkpt lat="45.12874" lon="6.09491">
        <ele>2150.8000488281</ele>
        <time>2012-04-28T07:52:02.000Z</time>
      </trkpt>
      <trkpt lat="45.12873" lon="6.09493">
        <ele>2151.6000976562</ele>
        <time>2012-04-28T07:52:05.000Z</time>
      </trkpt>
      <trkpt lat="45.12872" lon="6.09495">
        <ele>2152.3999023438</ele>
        <time>2012-04-28T07:52:10.000Z</time>
      </trkpt>
      <trkpt lat="45.1287" lon="6.09497">
        <ele>2152.8000488281</ele>
        <time>2012-04-28T07:52:14.000Z</time>
      </trkpt>
      <trkpt lat="45.12868" lon="6.09498">
        <ele>2153.1999511719</ele>
        <time>2012-04-28T07:52:19.000Z</time>
      </trkpt>
      <trkpt lat="45.12866" lon="6.09499">
        <ele>2153.6000976562</ele>
        <time>2012-04-28T07:52:23.000Z</time>
      </trkpt>
      <trkpt lat="45.12863" lon="6.09503">
        <ele>2155.1999511719</ele>
        <time>2012-04-28T07:52:29.000Z</time>
      </trkpt>
      <trkpt lat="45.12861" lon="6.09506">
        <ele>2156.8000488281</ele>
        <time>2012-04-28T07:52:35.000Z</time>
      </trkpt>
      <trkpt lat="45.12859" lon="6.09509">
        <ele>2157.3999023438</ele>
        <time>2012-04-28T07:52:39.000Z</time>
      </trkpt>
      <trkpt lat="45.12856" lon="6.09513">
        <ele>2158.8000488281</ele>
        <time>2012-04-28T07:52:44.000Z</time>
      </trkpt>
      <trkpt lat="45.12855" lon="6.09513">
        <ele>2159</ele>
        <time>2012-04-28T07:52:45.000Z</time>
      </trkpt>
      <trkpt lat="45.12854" lon="6.09514">
        <ele>2160</ele>
        <time>2012-04-28T07:52:47.000Z</time>
      </trkpt>
      <trkpt lat="45.12852" lon="6.09516">
        <ele>2159.6000976562</ele>
        <time>2012-04-28T07:52:53.000Z</time>
      </trkpt>
      <trkpt lat="45.1285" lon="6.09519">
        <ele>2160.6000976562</ele>
        <time>2012-04-28T07:52:58.000Z</time>
      </trkpt>
      <trkpt lat="45.12847" lon="6.09523">
        <ele>2162.3999023438</ele>
        <time>2012-04-28T07:53:06.000Z</time>
      </trkpt>
      <trkpt lat="45.12846" lon="6.09526">
        <ele>2165.1999511719</ele>
        <time>2012-04-28T07:53:13.000Z</time>
      </trkpt>
      <trkpt lat="45.12842" lon="6.09535">
        <ele>2167.1999511719</ele>
        <time>2012-04-28T07:53:23.000Z</time>
      </trkpt>
      <trkpt lat="45.12834" lon="6.09546">
        <ele>2169.6000976562</ele>
        <time>2012-04-28T07:53:35.000Z</time>
      </trkpt>
      <trkpt lat="45.12831" lon="6.09551">
        <ele>2171.3999023438</ele>
        <time>2012-04-28T07:53:45.000Z</time>
      </trkpt>
      <trkpt lat="45.12826" lon="6.09556">
        <ele>2173.3999023438</ele>
        <time>2012-04-28T07:53:54.000Z</time>
      </trkpt>
      <trkpt lat="45.12826" lon="6.09556">
        <ele>2173.6000976562</ele>
        <time>2012-04-28T07:53:55.000Z</time>
      </trkpt>
      <trkpt lat="45.12822" lon="6.09563">
        <ele>2176.1999511719</ele>
        <time>2012-04-28T07:54:05.000Z</time>
      </trkpt>
      <trkpt lat="45.12818" lon="6.09567">
        <ele>2178.3999023438</ele>
        <time>2012-04-28T07:54:13.000Z</time>
      </trkpt>
      <trkpt lat="45.12814" lon="6.09569">
        <ele>2178</ele>
        <time>2012-04-28T07:54:19.000Z</time>
      </trkpt>
      <trkpt lat="45.12807" lon="6.09572">
        <ele>2182.6000976562</ele>
        <time>2012-04-28T07:54:28.000Z</time>
      </trkpt>
      <trkpt lat="45.12802" lon="6.09577">
        <ele>2183.6000976562</ele>
        <time>2012-04-28T07:54:38.000Z</time>
      </trkpt>
      <trkpt lat="45.12801" lon="6.09579">
        <ele>2184.3999023438</ele>
        <time>2012-04-28T07:54:40.000Z</time>
      </trkpt>
      <trkpt lat="45.12797" lon="6.09581">
        <ele>2185.6000976562</ele>
        <time>2012-04-28T07:54:48.000Z</time>
      </trkpt>
      <trkpt lat="45.12793" lon="6.09582">
        <ele>2187.8000488281</ele>
        <time>2012-04-28T07:54:55.000Z</time>
      </trkpt>
      <trkpt lat="45.1279" lon="6.09585">
        <ele>2189.8000488281</ele>
        <time>2012-04-28T07:55:02.000Z</time>
      </trkpt>
      <trkpt lat="45.12786" lon="6.09589">
        <ele>2190.6000976562</ele>
        <time>2012-04-28T07:55:10.000Z</time>
      </trkpt>
      <trkpt lat="45.12782" lon="6.09591">
        <ele>2190.6000976562</ele>
        <time>2012-04-28T07:55:15.000Z</time>
      </trkpt>
      <trkpt lat="45.12778" lon="6.09593">
        <ele>2192.3999023438</ele>
        <time>2012-04-28T07:55:21.000Z</time>
      </trkpt>
      <trkpt lat="45.12775" lon="6.09594">
        <ele>2194.3999023438</ele>
        <time>2012-04-28T07:55:26.000Z</time>
      </trkpt>
      <trkpt lat="45.12771" lon="6.09595">
        <ele>2195.8000488281</ele>
        <time>2012-04-28T07:55:31.000Z</time>
      </trkpt>
      <trkpt lat="45.12767" lon="6.09594">
        <ele>2197.6000976562</ele>
        <time>2012-04-28T07:55:36.000Z</time>
      </trkpt>
      <trkpt lat="45.12764" lon="6.09595">
        <ele>2199</ele>
        <time>2012-04-28T07:55:42.000Z</time>
      </trkpt>
      <trkpt lat="45.12762" lon="6.096">
        <ele>2199.8000488281</ele>
        <time>2012-04-28T07:55:47.000Z</time>
      </trkpt>
      <trkpt lat="45.12761" lon="6.09601">
        <ele>2202.1999511719</ele>
        <time>2012-04-28T07:55:51.000Z</time>
      </trkpt>
      <trkpt lat="45.1276" lon="6.09604">
        <ele>2203.3999023438</ele>
        <time>2012-04-28T07:55:55.000Z</time>
      </trkpt>
      <trkpt lat="45.12757" lon="6.09608">
        <ele>2204</ele>
        <time>2012-04-28T07:56:01.000Z</time>
      </trkpt>
      <trkpt lat="45.12754" lon="6.09609">
        <ele>2206</ele>
        <time>2012-04-28T07:56:06.000Z</time>
      </trkpt>
      <trkpt lat="45.12749" lon="6.0961">
        <ele>2207.1999511719</ele>
        <time>2012-04-28T07:56:14.000Z</time>
      </trkpt>
      <trkpt lat="45.12748" lon="6.09612">
        <ele>2207.6000976562</ele>
        <time>2012-04-28T07:56:18.000Z</time>
      </trkpt>
      <trkpt lat="45.12745" lon="6.09614">
        <ele>2208.3999023438</ele>
        <time>2012-04-28T07:56:22.000Z</time>
      </trkpt>
      <trkpt lat="45.1274" lon="6.09614">
        <ele>2209.6000976562</ele>
        <time>2012-04-28T07:56:27.000Z</time>
      </trkpt>
      <trkpt lat="45.12737" lon="6.09615">
        <ele>2211.3999023438</ele>
        <time>2012-04-28T07:56:33.000Z</time>
      </trkpt>
      <trkpt lat="45.12732" lon="6.09614">
        <ele>2213</ele>
        <time>2012-04-28T07:56:40.000Z</time>
      </trkpt>
      <trkpt lat="45.1273" lon="6.09616">
        <ele>2213.6000976562</ele>
        <time>2012-04-28T07:56:44.000Z</time>
      </trkpt>
      <trkpt lat="45.12729" lon="6.09616">
        <ele>2214.3999023438</ele>
        <time>2012-04-28T07:56:46.000Z</time>
      </trkpt>
      <trkpt lat="45.12725" lon="6.09616">
        <ele>2215.3999023438</ele>
        <time>2012-04-28T07:56:52.000Z</time>
      </trkpt>
      <trkpt lat="45.12722" lon="6.09618">
        <ele>2217.6000976562</ele>
        <time>2012-04-28T07:56:59.000Z</time>
      </trkpt>
      <trkpt lat="45.12719" lon="6.09623">
        <ele>2217.6000976562</ele>
        <time>2012-04-28T07:57:07.000Z</time>
      </trkpt>
      <trkpt lat="45.12716" lon="6.09624">
        <ele>2218.8000488281</ele>
        <time>2012-04-28T07:57:14.000Z</time>
      </trkpt>
      <trkpt lat="45.12715" lon="6.09624">
        <ele>2219</ele>
        <time>2012-04-28T07:57:15.000Z</time>
      </trkpt>
      <trkpt lat="45.12712" lon="6.09626">
        <ele>2220.8000488281</ele>
        <time>2012-04-28T07:57:21.000Z</time>
      </trkpt>
      <trkpt lat="45.1271" lon="6.09629">
        <ele>2221.3999023438</ele>
        <time>2012-04-28T07:57:26.000Z</time>
      </trkpt>
      <trkpt lat="45.12707" lon="6.0963">
        <ele>2222.1999511719</ele>
        <time>2012-04-28T07:57:31.000Z</time>
      </trkpt>
      <trkpt lat="45.12702" lon="6.09631">
        <ele>2223.1999511719</ele>
        <time>2012-04-28T07:57:39.000Z</time>
      </trkpt>
      <trkpt lat="45.12698" lon="6.09633">
        <ele>2224.8000488281</ele>
        <time>2012-04-28T07:57:46.000Z</time>
      </trkpt>
      <trkpt lat="45.12695" lon="6.09634">
        <ele>2226.6000976562</ele>
        <time>2012-04-28T07:57:51.000Z</time>
      </trkpt>
      <trkpt lat="45.12692" lon="6.09633">
        <ele>2227.3999023438</ele>
        <time>2012-04-28T07:57:56.000Z</time>
      </trkpt>
      <trkpt lat="45.1269" lon="6.09636">
        <ele>2228.3999023438</ele>
        <time>2012-04-28T07:58:01.000Z</time>
      </trkpt>
      <trkpt lat="45.12686" lon="6.09637">
        <ele>2229.6000976562</ele>
        <time>2012-04-28T07:58:07.000Z</time>
      </trkpt>
      <trkpt lat="45.12686" lon="6.09637">
        <ele>2229.6000976562</ele>
        <time>2012-04-28T07:58:08.000Z</time>
      </trkpt>
      <trkpt lat="45.12683" lon="6.0964">
        <ele>2232</ele>
        <time>2012-04-28T07:58:20.000Z</time>
      </trkpt>
      <trkpt lat="45.12682" lon="6.0964">
        <ele>2232.3999023438</ele>
        <time>2012-04-28T07:58:21.000Z</time>
      </trkpt>
      <trkpt lat="45.12678" lon="6.09643">
        <ele>2235.1999511719</ele>
        <time>2012-04-28T07:58:29.000Z</time>
      </trkpt>
      <trkpt lat="45.12673" lon="6.09645">
        <ele>2236.8000488281</ele>
        <time>2012-04-28T07:58:37.000Z</time>
      </trkpt>
      <trkpt lat="45.1267" lon="6.09645">
        <ele>2238.1999511719</ele>
        <time>2012-04-28T07:58:42.000Z</time>
      </trkpt>
      <trkpt lat="45.12666" lon="6.09648">
        <ele>2239</ele>
        <time>2012-04-28T07:58:50.000Z</time>
      </trkpt>
      <trkpt lat="45.12662" lon="6.09649">
        <ele>2239.6000976562</ele>
        <time>2012-04-28T07:58:56.000Z</time>
      </trkpt>
      <trkpt lat="45.12659" lon="6.09651">
        <ele>2239.6000976562</ele>
        <time>2012-04-28T07:59:02.000Z</time>
      </trkpt>
      <trkpt lat="45.12655" lon="6.09656">
        <ele>2242.3999023438</ele>
        <time>2012-04-28T07:59:10.000Z</time>
      </trkpt>
      <trkpt lat="45.1265" lon="6.09661">
        <ele>2244</ele>
        <time>2012-04-28T07:59:20.000Z</time>
      </trkpt>
      <trkpt lat="45.12647" lon="6.09664">
        <ele>2246</ele>
        <time>2012-04-28T07:59:26.000Z</time>
      </trkpt>
      <trkpt lat="45.12646" lon="6.09664">
        <ele>2247.1999511719</ele>
        <time>2012-04-28T07:59:27.000Z</time>
      </trkpt>
      <trkpt lat="45.12644" lon="6.09665">
        <ele>2248.6000976562</ele>
        <time>2012-04-28T07:59:31.000Z</time>
      </trkpt>
      <trkpt lat="45.1264" lon="6.09667">
        <ele>2248.3999023438</ele>
        <time>2012-04-28T07:59:37.000Z</time>
      </trkpt>
      <trkpt lat="45.12639" lon="6.09668">
        <ele>2249.1999511719</ele>
        <time>2012-04-28T07:59:39.000Z</time>
      </trkpt>
      <trkpt lat="45.12632" lon="6.09675">
        <ele>2252</ele>
        <time>2012-04-28T07:59:54.000Z</time>
      </trkpt>
      <trkpt lat="45.12627" lon="6.09674">
        <ele>2253.1999511719</ele>
        <time>2012-04-28T08:00:01.000Z</time>
      </trkpt>
      <trkpt lat="45.12623" lon="6.09676">
        <ele>2255.1999511719</ele>
        <time>2012-04-28T08:00:07.000Z</time>
      </trkpt>
      <trkpt lat="45.12621" lon="6.09676">
        <ele>2256.1999511719</ele>
        <time>2012-04-28T08:00:09.000Z</time>
      </trkpt>
      <trkpt lat="45.1262" lon="6.09676">
        <ele>2257.1999511719</ele>
        <time>2012-04-28T08:00:11.000Z</time>
      </trkpt>
      <trkpt lat="45.12618" lon="6.09676">
        <ele>2258.3999023438</ele>
        <time>2012-04-28T08:00:16.000Z</time>
      </trkpt>
      <trkpt lat="45.12616" lon="6.09676">
        <ele>2259.1999511719</ele>
        <time>2012-04-28T08:00:22.000Z</time>
      </trkpt>
      <trkpt lat="45.12608" lon="6.09671">
        <ele>2261.8000488281</ele>
        <time>2012-04-28T08:00:30.000Z</time>
      </trkpt>
      <trkpt lat="45.12603" lon="6.09668">
        <ele>2263.8000488281</ele>
        <time>2012-04-28T08:00:35.000Z</time>
      </trkpt>
      <trkpt lat="45.126" lon="6.09672">
        <ele>2265.6000976562</ele>
        <time>2012-04-28T08:00:43.000Z</time>
      </trkpt>
      <trkpt lat="45.12598" lon="6.0968">
        <ele>2267</ele>
        <time>2012-04-28T08:00:49.000Z</time>
      </trkpt>
      <trkpt lat="45.12594" lon="6.09684">
        <ele>2268</ele>
        <time>2012-04-28T08:00:56.000Z</time>
      </trkpt>
      <trkpt lat="45.12589" lon="6.09685">
        <ele>2269.1999511719</ele>
        <time>2012-04-28T08:01:04.000Z</time>
      </trkpt>
      <trkpt lat="45.12582" lon="6.09685">
        <ele>2270.1999511719</ele>
        <time>2012-04-28T08:01:13.000Z</time>
      </trkpt>
      <trkpt lat="45.12581" lon="6.09685">
        <ele>2270.6000976562</ele>
        <time>2012-04-28T08:01:14.000Z</time>
      </trkpt>
      <trkpt lat="45.1258" lon="6.09685">
        <ele>2271.3999023438</ele>
        <time>2012-04-28T08:01:16.000Z</time>
      </trkpt>
      <trkpt lat="45.12577" lon="6.09689">
        <ele>2274.6000976562</ele>
        <time>2012-04-28T08:01:23.000Z</time>
      </trkpt>
      <trkpt lat="45.12571" lon="6.09688">
        <ele>2274</ele>
        <time>2012-04-28T08:01:31.000Z</time>
      </trkpt>
      <trkpt lat="45.12567" lon="6.09691">
        <ele>2276.8000488281</ele>
        <time>2012-04-28T08:01:38.000Z</time>
      </trkpt>
      <trkpt lat="45.12562" lon="6.09692">
        <ele>2276.1999511719</ele>
        <time>2012-04-28T08:01:46.000Z</time>
      </trkpt>
      <trkpt lat="45.12558" lon="6.09694">
        <ele>2279.1999511719</ele>
        <time>2012-04-28T08:01:53.000Z</time>
      </trkpt>
      <trkpt lat="45.12555" lon="6.09696">
        <ele>2279.8000488281</ele>
        <time>2012-04-28T08:01:59.000Z</time>
      </trkpt>
      <trkpt lat="45.1255" lon="6.09698">
        <ele>2281</ele>
        <time>2012-04-28T08:02:07.000Z</time>
      </trkpt>
      <trkpt lat="45.12549" lon="6.097">
        <ele>2282.3999023438</ele>
        <time>2012-04-28T08:02:10.000Z</time>
      </trkpt>
      <trkpt lat="45.12543" lon="6.097">
        <ele>2283.6000976562</ele>
        <time>2012-04-28T08:02:18.000Z</time>
      </trkpt>
      <trkpt lat="45.12542" lon="6.09702">
        <ele>2282.8000488281</ele>
        <time>2012-04-28T08:02:20.000Z</time>
      </trkpt>
      <trkpt lat="45.12539" lon="6.09704">
        <ele>2283.6000976562</ele>
        <time>2012-04-28T08:02:25.000Z</time>
      </trkpt>
      <trkpt lat="45.12533" lon="6.09705">
        <ele>2286.1999511719</ele>
        <time>2012-04-28T08:02:33.000Z</time>
      </trkpt>
      <trkpt lat="45.12528" lon="6.09704">
        <ele>2286.8000488281</ele>
        <time>2012-04-28T08:02:39.000Z</time>
      </trkpt>
      <trkpt lat="45.1252" lon="6.09703">
        <ele>2289.8000488281</ele>
        <time>2012-04-28T08:02:48.000Z</time>
      </trkpt>
      <trkpt lat="45.12512" lon="6.09702">
        <ele>2288.1999511719</ele>
        <time>2012-04-28T08:02:57.000Z</time>
      </trkpt>
      <trkpt lat="45.12506" lon="6.09703">
        <ele>2288.1999511719</ele>
        <time>2012-04-28T08:03:06.000Z</time>
      </trkpt>
      <trkpt lat="45.125" lon="6.09705">
        <ele>2292.8000488281</ele>
        <time>2012-04-28T08:03:15.000Z</time>
      </trkpt>
      <trkpt lat="45.12492" lon="6.09702">
        <ele>2296</ele>
        <time>2012-04-28T08:03:24.000Z</time>
      </trkpt>
      <trkpt lat="45.12485" lon="6.09698">
        <ele>2298.8000488281</ele>
        <time>2012-04-28T08:03:32.000Z</time>
      </trkpt>
      <trkpt lat="45.12478" lon="6.09697">
        <ele>2300.3999023438</ele>
        <time>2012-04-28T08:03:41.000Z</time>
      </trkpt>
      <trkpt lat="45.1247" lon="6.09696">
        <ele>2303.1999511719</ele>
        <time>2012-04-28T08:03:51.000Z</time>
      </trkpt>
      <trkpt lat="45.12465" lon="6.09697">
        <ele>2302.3999023438</ele>
        <time>2012-04-28T08:04:00.000Z</time>
      </trkpt>
      <trkpt lat="45.12462" lon="6.09698">
        <ele>2301</ele>
        <time>2012-04-28T08:04:05.000Z</time>
      </trkpt>
      <trkpt lat="45.12458" lon="6.09701">
        <ele>2297.6000976562</ele>
        <time>2012-04-28T08:04:11.000Z</time>
      </trkpt>
      <trkpt lat="45.12453" lon="6.09705">
        <ele>2301.1999511719</ele>
        <time>2012-04-28T08:04:19.000Z</time>
      </trkpt>
      <trkpt lat="45.12445" lon="6.09713">
        <ele>2302.8000488281</ele>
        <time>2012-04-28T08:04:31.000Z</time>
      </trkpt>
      <trkpt lat="45.12438" lon="6.09717">
        <ele>2303</ele>
        <time>2012-04-28T08:04:39.000Z</time>
      </trkpt>
      <trkpt lat="45.12431" lon="6.09722">
        <ele>2304.6000976562</ele>
        <time>2012-04-28T08:04:48.000Z</time>
      </trkpt>
      <trkpt lat="45.12429" lon="6.09724">
        <ele>2305.6000976562</ele>
        <time>2012-04-28T08:04:50.000Z</time>
      </trkpt>
      <trkpt lat="45.12425" lon="6.09735">
        <ele>2306.6000976562</ele>
        <time>2012-04-28T08:04:58.000Z</time>
      </trkpt>
      <trkpt lat="45.12423" lon="6.09743">
        <ele>2304.1999511719</ele>
        <time>2012-04-28T08:05:05.000Z</time>
      </trkpt>
      <trkpt lat="45.12422" lon="6.09752">
        <ele>2303</ele>
        <time>2012-04-28T08:05:13.000Z</time>
      </trkpt>
      <trkpt lat="45.12417" lon="6.09762">
        <ele>2303</ele>
        <time>2012-04-28T08:05:23.000Z</time>
      </trkpt>
      <trkpt lat="45.12413" lon="6.09766">
        <ele>2305.1999511719</ele>
        <time>2012-04-28T08:05:29.000Z</time>
      </trkpt>
      <trkpt lat="45.12404" lon="6.09773">
        <ele>2305.8000488281</ele>
        <time>2012-04-28T08:05:38.000Z</time>
      </trkpt>
      <trkpt lat="45.124" lon="6.09778">
        <ele>2309.8000488281</ele>
        <time>2012-04-28T08:05:46.000Z</time>
      </trkpt>
      <trkpt lat="45.12398" lon="6.09788">
        <ele>2311.6000976562</ele>
        <time>2012-04-28T08:05:54.000Z</time>
      </trkpt>
      <trkpt lat="45.12392" lon="6.09792">
        <ele>2314</ele>
        <time>2012-04-28T08:06:03.000Z</time>
      </trkpt>
      <trkpt lat="45.12387" lon="6.09797">
        <ele>2317.8000488281</ele>
        <time>2012-04-28T08:06:10.000Z</time>
      </trkpt>
      <trkpt lat="45.12384" lon="6.09806">
        <ele>2318.8000488281</ele>
        <time>2012-04-28T08:06:18.000Z</time>
      </trkpt>
      <trkpt lat="45.12383" lon="6.09807">
        <ele>2319</ele>
        <time>2012-04-28T08:06:20.000Z</time>
      </trkpt>
      <trkpt lat="45.12377" lon="6.09811">
        <ele>2319.8000488281</ele>
        <time>2012-04-28T08:06:28.000Z</time>
      </trkpt>
      <trkpt lat="45.1237" lon="6.09813">
        <ele>2319.8000488281</ele>
        <time>2012-04-28T08:06:37.000Z</time>
      </trkpt>
      <trkpt lat="45.12365" lon="6.09812">
        <ele>2321.8000488281</ele>
        <time>2012-04-28T08:06:43.000Z</time>
      </trkpt>
      <trkpt lat="45.1236" lon="6.0981">
        <ele>2324</ele>
        <time>2012-04-28T08:06:49.000Z</time>
      </trkpt>
      <trkpt lat="45.12348" lon="6.0981">
        <ele>2324.3999023438</ele>
        <time>2012-04-28T08:07:03.000Z</time>
      </trkpt>
      <trkpt lat="45.12343" lon="6.09809">
        <ele>2325.1999511719</ele>
        <time>2012-04-28T08:07:11.000Z</time>
      </trkpt>
      <trkpt lat="45.12338" lon="6.09809">
        <ele>2326.6000976562</ele>
        <time>2012-04-28T08:07:18.000Z</time>
      </trkpt>
      <trkpt lat="45.12332" lon="6.0981">
        <ele>2327.8000488281</ele>
        <time>2012-04-28T08:07:28.000Z</time>
      </trkpt>
      <trkpt lat="45.12328" lon="6.0981">
        <ele>2330</ele>
        <time>2012-04-28T08:07:34.000Z</time>
      </trkpt>
      <trkpt lat="45.12325" lon="6.0981">
        <ele>2331.8000488281</ele>
        <time>2012-04-28T08:07:38.000Z</time>
      </trkpt>
      <trkpt lat="45.12319" lon="6.09813">
        <ele>2331.8000488281</ele>
        <time>2012-04-28T08:07:47.000Z</time>
      </trkpt>
      <trkpt lat="45.12314" lon="6.09816">
        <ele>2333.3999023438</ele>
        <time>2012-04-28T08:07:56.000Z</time>
      </trkpt>
      <trkpt lat="45.12313" lon="6.09816">
        <ele>2334.6000976562</ele>
        <time>2012-04-28T08:07:58.000Z</time>
      </trkpt>
      <trkpt lat="45.12311" lon="6.09818">
        <ele>2335.8000488281</ele>
        <time>2012-04-28T08:08:03.000Z</time>
      </trkpt>
      <trkpt lat="45.12309" lon="6.09819">
        <ele>2335.6000976562</ele>
        <time>2012-04-28T08:08:06.000Z</time>
      </trkpt>
      <trkpt lat="45.12308" lon="6.0982">
        <ele>2337.6000976562</ele>
        <time>2012-04-28T08:08:10.000Z</time>
      </trkpt>
      <trkpt lat="45.12305" lon="6.09822">
        <ele>2338</ele>
        <time>2012-04-28T08:08:14.000Z</time>
      </trkpt>
      <trkpt lat="45.12304" lon="6.09823">
        <ele>2338.1999511719</ele>
        <time>2012-04-28T08:08:16.000Z</time>
      </trkpt>
      <trkpt lat="45.123" lon="6.09826">
        <ele>2341.3999023438</ele>
        <time>2012-04-28T08:09:19.000Z</time>
      </trkpt>
      <trkpt lat="45.12298" lon="6.09827">
        <ele>2342.6000976562</ele>
        <time>2012-04-28T08:09:22.000Z</time>
      </trkpt>
      <trkpt lat="45.12295" lon="6.09831">
        <ele>2343.3999023438</ele>
        <time>2012-04-28T08:09:27.000Z</time>
      </trkpt>
      <trkpt lat="45.12293" lon="6.09833">
        <ele>2344</ele>
        <time>2012-04-28T08:09:31.000Z</time>
      </trkpt>
      <trkpt lat="45.12289" lon="6.09837">
        <ele>2347.1999511719</ele>
        <time>2012-04-28T08:09:38.000Z</time>
      </trkpt>
      <trkpt lat="45.12286" lon="6.09842">
        <ele>2347.3999023438</ele>
        <time>2012-04-28T08:09:45.000Z</time>
      </trkpt>
      <trkpt lat="45.12284" lon="6.09849">
        <ele>2349</ele>
        <time>2012-04-28T08:09:52.000Z</time>
      </trkpt>
      <trkpt lat="45.12284" lon="6.09851">
        <ele>2350</ele>
        <time>2012-04-28T08:09:54.000Z</time>
      </trkpt>
      <trkpt lat="45.12282" lon="6.09854">
        <ele>2349.3999023438</ele>
        <time>2012-04-28T08:09:57.000Z</time>
      </trkpt>
      <trkpt lat="45.12282" lon="6.09861">
        <ele>2350.6000976562</ele>
        <time>2012-04-28T08:10:03.000Z</time>
      </trkpt>
      <trkpt lat="45.12282" lon="6.09865">
        <ele>2349.3999023438</ele>
        <time>2012-04-28T08:10:08.000Z</time>
      </trkpt>
      <trkpt lat="45.12289" lon="6.09874">
        <ele>2348.3999023438</ele>
        <time>2012-04-28T08:10:15.000Z</time>
      </trkpt>
      <trkpt lat="45.12292" lon="6.09878">
        <ele>2351</ele>
        <time>2012-04-28T08:10:24.000Z</time>
      </trkpt>
      <trkpt lat="45.12297" lon="6.09884">
        <ele>2350.8000488281</ele>
        <time>2012-04-28T08:10:35.000Z</time>
      </trkpt>
      <trkpt lat="45.12302" lon="6.09887">
        <ele>2352</ele>
        <time>2012-04-28T08:10:41.000Z</time>
      </trkpt>
      <trkpt lat="45.12303" lon="6.09887">
        <ele>2353</ele>
        <time>2012-04-28T08:10:43.000Z</time>
      </trkpt>
      <trkpt lat="45.12309" lon="6.0989">
        <ele>2352.8000488281</ele>
        <time>2012-04-28T08:10:51.000Z</time>
      </trkpt>
      <trkpt lat="45.12314" lon="6.09893">
        <ele>2356.3999023438</ele>
        <time>2012-04-28T08:10:57.000Z</time>
      </trkpt>
      <trkpt lat="45.12315" lon="6.09891">
        <ele>2357.8000488281</ele>
        <time>2012-04-28T08:11:00.000Z</time>
      </trkpt>
      <trkpt lat="45.12321" lon="6.09895">
        <ele>2359.1999511719</ele>
        <time>2012-04-28T08:11:07.000Z</time>
      </trkpt>
      <trkpt lat="45.12326" lon="6.09898">
        <ele>2360.8000488281</ele>
        <time>2012-04-28T08:11:13.000Z</time>
      </trkpt>
      <trkpt lat="45.1233" lon="6.09901">
        <ele>2357.1999511719</ele>
        <time>2012-04-28T08:11:18.000Z</time>
      </trkpt>
      <trkpt lat="45.12333" lon="6.09904">
        <ele>2363.1999511719</ele>
        <time>2012-04-28T08:11:23.000Z</time>
      </trkpt>
      <trkpt lat="45.12336" lon="6.09903">
        <ele>2367</ele>
        <time>2012-04-28T08:11:28.000Z</time>
      </trkpt>
      <trkpt lat="45.12337" lon="6.09903">
        <ele>2367.6000976562</ele>
        <time>2012-04-28T08:11:30.000Z</time>
      </trkpt>
      <trkpt lat="45.12339" lon="6.09905">
        <ele>2365.6000976562</ele>
        <time>2012-04-28T08:11:34.000Z</time>
      </trkpt>
      <trkpt lat="45.12344" lon="6.09907">
        <ele>2367.1999511719</ele>
        <time>2012-04-28T08:11:42.000Z</time>
      </trkpt>
      <trkpt lat="45.12347" lon="6.09911">
        <ele>2366.6000976562</ele>
        <time>2012-04-28T08:11:47.000Z</time>
      </trkpt>
      <trkpt lat="45.12352" lon="6.09914">
        <ele>2367.3999023438</ele>
        <time>2012-04-28T08:11:55.000Z</time>
      </trkpt>
      <trkpt lat="45.12355" lon="6.09916">
        <ele>2371.6000976562</ele>
        <time>2012-04-28T08:12:00.000Z</time>
      </trkpt>
      <trkpt lat="45.12359" lon="6.09917">
        <ele>2368.8000488281</ele>
        <time>2012-04-28T08:12:05.000Z</time>
      </trkpt>
      <trkpt lat="45.12362" lon="6.09919">
        <ele>2368</ele>
        <time>2012-04-28T08:12:10.000Z</time>
      </trkpt>
      <trkpt lat="45.12364" lon="6.0992">
        <ele>2370.3999023438</ele>
        <time>2012-04-28T08:12:13.000Z</time>
      </trkpt>
      <trkpt lat="45.12367" lon="6.09922">
        <ele>2372</ele>
        <time>2012-04-28T08:12:18.000Z</time>
      </trkpt>
      <trkpt lat="45.12371" lon="6.09922">
        <ele>2374</ele>
        <time>2012-04-28T08:12:23.000Z</time>
      </trkpt>
      <trkpt lat="45.12376" lon="6.09924">
        <ele>2376</ele>
        <time>2012-04-28T08:12:30.000Z</time>
      </trkpt>
      <trkpt lat="45.12381" lon="6.09926">
        <ele>2379.8000488281</ele>
        <time>2012-04-28T08:12:35.000Z</time>
      </trkpt>
      <trkpt lat="45.12383" lon="6.09927">
        <ele>2378.1999511719</ele>
        <time>2012-04-28T08:12:38.000Z</time>
      </trkpt>
      <trkpt lat="45.1239" lon="6.09927">
        <ele>2381.1999511719</ele>
        <time>2012-04-28T08:12:47.000Z</time>
      </trkpt>
      <trkpt lat="45.12391" lon="6.09927">
        <ele>2381.1999511719</ele>
        <time>2012-04-28T08:12:48.000Z</time>
      </trkpt>
      <trkpt lat="45.12395" lon="6.09927">
        <ele>2380.1999511719</ele>
        <time>2012-04-28T08:12:54.000Z</time>
      </trkpt>
      <trkpt lat="45.12401" lon="6.09929">
        <ele>2381.3999023438</ele>
        <time>2012-04-28T08:13:01.000Z</time>
      </trkpt>
      <trkpt lat="45.12404" lon="6.09929">
        <ele>2381.6000976562</ele>
        <time>2012-04-28T08:13:05.000Z</time>
      </trkpt>
      <trkpt lat="45.12406" lon="6.09928">
        <ele>2382.8000488281</ele>
        <time>2012-04-28T08:13:08.000Z</time>
      </trkpt>
      <trkpt lat="45.1241" lon="6.09928">
        <ele>2382</ele>
        <time>2012-04-28T08:13:12.000Z</time>
      </trkpt>
      <trkpt lat="45.12416" lon="6.09932">
        <ele>2381.6000976562</ele>
        <time>2012-04-28T08:13:18.000Z</time>
      </trkpt>
      <trkpt lat="45.12425" lon="6.09936">
        <ele>2382.1999511719</ele>
        <time>2012-04-28T08:13:27.000Z</time>
      </trkpt>
      <trkpt lat="45.12432" lon="6.09939">
        <ele>2382.6000976562</ele>
        <time>2012-04-28T08:13:35.000Z</time>
      </trkpt>
      <trkpt lat="45.12439" lon="6.09944">
        <ele>2383.8000488281</ele>
        <time>2012-04-28T08:13:43.000Z</time>
      </trkpt>
      <trkpt lat="45.12444" lon="6.09947">
        <ele>2386.1999511719</ele>
        <time>2012-04-28T08:13:48.000Z</time>
      </trkpt>
      <trkpt lat="45.1245" lon="6.09949">
        <ele>2386.3999023438</ele>
        <time>2012-04-28T08:13:56.000Z</time>
      </trkpt>
      <trkpt lat="45.12453" lon="6.09948">
        <ele>2390.3999023438</ele>
        <time>2012-04-28T08:14:02.000Z</time>
      </trkpt>
      <trkpt lat="45.12459" lon="6.0995">
        <ele>2394.6000976562</ele>
        <time>2012-04-28T08:14:11.000Z</time>
      </trkpt>
      <trkpt lat="45.12459" lon="6.0995">
        <ele>2394.1999511719</ele>
        <time>2012-04-28T08:14:12.000Z</time>
      </trkpt>
      <trkpt lat="45.12464" lon="6.09951">
        <ele>2398</ele>
        <time>2012-04-28T08:14:19.000Z</time>
      </trkpt>
      <trkpt lat="45.12467" lon="6.09953">
        <ele>2401</ele>
        <time>2012-04-28T08:14:23.000Z</time>
      </trkpt>
      <trkpt lat="45.1247" lon="6.09953">
        <ele>2397.6000976562</ele>
        <time>2012-04-28T08:14:28.000Z</time>
      </trkpt>
      <trkpt lat="45.12472" lon="6.09955">
        <ele>2401.8000488281</ele>
        <time>2012-04-28T08:14:34.000Z</time>
      </trkpt>
      <trkpt lat="45.12475" lon="6.09957">
        <ele>2405</ele>
        <time>2012-04-28T08:14:38.000Z</time>
      </trkpt>
      <trkpt lat="45.12478" lon="6.09958">
        <ele>2405.1999511719</ele>
        <time>2012-04-28T08:14:43.000Z</time>
      </trkpt>
      <trkpt lat="45.12481" lon="6.09961">
        <ele>2406</ele>
        <time>2012-04-28T08:14:48.000Z</time>
      </trkpt>
      <trkpt lat="45.12484" lon="6.09963">
        <ele>2406</ele>
        <time>2012-04-28T08:14:54.000Z</time>
      </trkpt>
      <trkpt lat="45.12488" lon="6.09966">
        <ele>2406.6000976562</ele>
        <time>2012-04-28T08:14:59.000Z</time>
      </trkpt>
      <trkpt lat="45.12489" lon="6.09966">
        <ele>2406.3999023438</ele>
        <time>2012-04-28T08:15:00.000Z</time>
      </trkpt>
      <trkpt lat="45.12494" lon="6.09972">
        <ele>2406</ele>
        <time>2012-04-28T08:15:07.000Z</time>
      </trkpt>
      <trkpt lat="45.12497" lon="6.09976">
        <ele>2405.3999023438</ele>
        <time>2012-04-28T08:15:14.000Z</time>
      </trkpt>
      <trkpt lat="45.12499" lon="6.09977">
        <ele>2406.8000488281</ele>
        <time>2012-04-28T08:15:17.000Z</time>
      </trkpt>
      <trkpt lat="45.12501" lon="6.09979">
        <ele>2409.1999511719</ele>
        <time>2012-04-28T08:15:22.000Z</time>
      </trkpt>
      <trkpt lat="45.12502" lon="6.09979">
        <ele>2409.3999023438</ele>
        <time>2012-04-28T08:15:23.000Z</time>
      </trkpt>
      <trkpt lat="45.12505" lon="6.09982">
        <ele>2409.6000976562</ele>
        <time>2012-04-28T08:15:28.000Z</time>
      </trkpt>
      <trkpt lat="45.12508" lon="6.09986">
        <ele>2412</ele>
        <time>2012-04-28T08:15:32.000Z</time>
      </trkpt>
      <trkpt lat="45.12509" lon="6.09985">
        <ele>2414</ele>
        <time>2012-04-28T08:15:37.000Z</time>
      </trkpt>
      <trkpt lat="45.12511" lon="6.09986">
        <ele>2414.1999511719</ele>
        <time>2012-04-28T08:15:45.000Z</time>
      </trkpt>
      <trkpt lat="45.12515" lon="6.09991">
        <ele>2417.8000488281</ele>
        <time>2012-04-28T08:15:52.000Z</time>
      </trkpt>
      <trkpt lat="45.12517" lon="6.09993">
        <ele>2420.1999511719</ele>
        <time>2012-04-28T08:15:57.000Z</time>
      </trkpt>
      <trkpt lat="45.12518" lon="6.09993">
        <ele>2420.1999511719</ele>
        <time>2012-04-28T08:15:58.000Z</time>
      </trkpt>
      <trkpt lat="45.12521" lon="6.09994">
        <ele>2421.6000976562</ele>
        <time>2012-04-28T08:16:06.000Z</time>
      </trkpt>
      <trkpt lat="45.12522" lon="6.09994">
        <ele>2422.1999511719</ele>
        <time>2012-04-28T08:16:08.000Z</time>
      </trkpt>
      <trkpt lat="45.12524" lon="6.09996">
        <ele>2423.1999511719</ele>
        <time>2012-04-28T08:16:15.000Z</time>
      </trkpt>
      <trkpt lat="45.12527" lon="6.1">
        <ele>2425.3999023438</ele>
        <time>2012-04-28T08:16:22.000Z</time>
      </trkpt>
      <trkpt lat="45.12529" lon="6.10002">
        <ele>2429.3999023438</ele>
        <time>2012-04-28T08:16:27.000Z</time>
      </trkpt>
      <trkpt lat="45.1253" lon="6.10003">
        <ele>2426.3999023438</ele>
        <time>2012-04-28T08:16:31.000Z</time>
      </trkpt>
      <trkpt lat="45.12532" lon="6.10005">
        <ele>2428.6000976562</ele>
        <time>2012-04-28T08:16:36.000Z</time>
      </trkpt>
      <trkpt lat="45.12533" lon="6.10005">
        <ele>2429.8000488281</ele>
        <time>2012-04-28T08:16:40.000Z</time>
      </trkpt>
      <trkpt lat="45.12535" lon="6.10008">
        <ele>2431.1999511719</ele>
        <time>2012-04-28T08:16:44.000Z</time>
      </trkpt>
      <trkpt lat="45.12539" lon="6.10013">
        <ele>2433.3999023438</ele>
        <time>2012-04-28T08:16:50.000Z</time>
      </trkpt>
      <trkpt lat="45.12542" lon="6.10017">
        <ele>2435.1999511719</ele>
        <time>2012-04-28T08:16:56.000Z</time>
      </trkpt>
      <trkpt lat="45.12548" lon="6.10023">
        <ele>2435</ele>
        <time>2012-04-28T08:17:05.000Z</time>
      </trkpt>
      <trkpt lat="45.12552" lon="6.10029">
        <ele>2438.8000488281</ele>
        <time>2012-04-28T08:17:13.000Z</time>
      </trkpt>
      <trkpt lat="45.12555" lon="6.10031">
        <ele>2440</ele>
        <time>2012-04-28T08:17:18.000Z</time>
      </trkpt>
      <trkpt lat="45.12559" lon="6.10038">
        <ele>2438.1999511719</ele>
        <time>2012-04-28T08:17:27.000Z</time>
      </trkpt>
      <trkpt lat="45.12559" lon="6.10039">
        <ele>2438.1999511719</ele>
        <time>2012-04-28T08:17:28.000Z</time>
      </trkpt>
      <trkpt lat="45.1256" lon="6.10041">
        <ele>2439.1999511719</ele>
        <time>2012-04-28T08:17:31.000Z</time>
      </trkpt>
      <trkpt lat="45.1256" lon="6.10049">
        <ele>2439.1999511719</ele>
        <time>2012-04-28T08:17:41.000Z</time>
      </trkpt>
      <trkpt lat="45.12564" lon="6.10059">
        <ele>2439.3999023438</ele>
        <time>2012-04-28T08:17:52.000Z</time>
      </trkpt>
      <trkpt lat="45.12568" lon="6.10067">
        <ele>2442.6000976562</ele>
        <time>2012-04-28T08:18:01.000Z</time>
      </trkpt>
      <trkpt lat="45.12569" lon="6.10069">
        <ele>2444.1999511719</ele>
        <time>2012-04-28T08:18:04.000Z</time>
      </trkpt>
      <trkpt lat="45.1257" lon="6.10073">
        <ele>2443.1999511719</ele>
        <time>2012-04-28T08:18:12.000Z</time>
      </trkpt>
      <trkpt lat="45.1257" lon="6.10081">
        <ele>2443</ele>
        <time>2012-04-28T08:18:22.000Z</time>
      </trkpt>
      <trkpt lat="45.12568" lon="6.10086">
        <ele>2445.1999511719</ele>
        <time>2012-04-28T08:18:30.000Z</time>
      </trkpt>
      <trkpt lat="45.12567" lon="6.10088">
        <ele>2447.3999023438</ele>
        <time>2012-04-28T08:18:34.000Z</time>
      </trkpt>
      <trkpt lat="45.12561" lon="6.101">
        <ele>2450.3999023438</ele>
        <time>2012-04-28T08:18:49.000Z</time>
      </trkpt>
      <trkpt lat="45.12555" lon="6.10101">
        <ele>2452</ele>
        <time>2012-04-28T08:18:55.000Z</time>
      </trkpt>
      <trkpt lat="45.12551" lon="6.10104">
        <ele>2452</ele>
        <time>2012-04-28T08:19:03.000Z</time>
      </trkpt>
      <trkpt lat="45.12545" lon="6.10107">
        <ele>2453.3999023438</ele>
        <time>2012-04-28T08:19:09.000Z</time>
      </trkpt>
      <trkpt lat="45.12542" lon="6.10107">
        <ele>2454.1999511719</ele>
        <time>2012-04-28T08:19:14.000Z</time>
      </trkpt>
      <trkpt lat="45.12541" lon="6.10109">
        <ele>2454.6000976562</ele>
        <time>2012-04-28T08:19:18.000Z</time>
      </trkpt>
      <trkpt lat="45.12537" lon="6.1011">
        <ele>2456.1999511719</ele>
        <time>2012-04-28T08:19:24.000Z</time>
      </trkpt>
      <trkpt lat="45.12532" lon="6.10112">
        <ele>2457.6000976562</ele>
        <time>2012-04-28T08:19:31.000Z</time>
      </trkpt>
      <trkpt lat="45.12525" lon="6.10113">
        <ele>2458.8000488281</ele>
        <time>2012-04-28T08:19:38.000Z</time>
      </trkpt>
      <trkpt lat="45.12525" lon="6.10115">
        <ele>2458.6000976562</ele>
        <time>2012-04-28T08:19:39.000Z</time>
      </trkpt>
      <trkpt lat="45.12519" lon="6.10117">
        <ele>2461.1999511719</ele>
        <time>2012-04-28T08:19:48.000Z</time>
      </trkpt>
      <trkpt lat="45.12514" lon="6.10119">
        <ele>2462.8000488281</ele>
        <time>2012-04-28T08:19:55.000Z</time>
      </trkpt>
      <trkpt lat="45.12511" lon="6.10121">
        <ele>2463</ele>
        <time>2012-04-28T08:20:01.000Z</time>
      </trkpt>
      <trkpt lat="45.12508" lon="6.10122">
        <ele>2463.1999511719</ele>
        <time>2012-04-28T08:20:06.000Z</time>
      </trkpt>
      <trkpt lat="45.12504" lon="6.10123">
        <ele>2463</ele>
        <time>2012-04-28T08:20:12.000Z</time>
      </trkpt>
      <trkpt lat="45.12501" lon="6.10127">
        <ele>2463.8000488281</ele>
        <time>2012-04-28T08:20:17.000Z</time>
      </trkpt>
      <trkpt lat="45.12497" lon="6.10126">
        <ele>2465</ele>
        <time>2012-04-28T08:20:24.000Z</time>
      </trkpt>
      <trkpt lat="45.12493" lon="6.10126">
        <ele>2467.1999511719</ele>
        <time>2012-04-28T08:20:30.000Z</time>
      </trkpt>
      <trkpt lat="45.12492" lon="6.10126">
        <ele>2468</ele>
        <time>2012-04-28T08:20:32.000Z</time>
      </trkpt>
      <trkpt lat="45.12488" lon="6.10124">
        <ele>2468.3999023438</ele>
        <time>2012-04-28T08:20:37.000Z</time>
      </trkpt>
      <trkpt lat="45.12486" lon="6.10124">
        <ele>2468.3999023438</ele>
        <time>2012-04-28T08:20:41.000Z</time>
      </trkpt>
      <trkpt lat="45.12482" lon="6.10125">
        <ele>2469</ele>
        <time>2012-04-28T08:20:47.000Z</time>
      </trkpt>
      <trkpt lat="45.12478" lon="6.10125">
        <ele>2469</ele>
        <time>2012-04-28T08:20:52.000Z</time>
      </trkpt>
      <trkpt lat="45.12478" lon="6.10125">
        <ele>2469</ele>
        <time>2012-04-28T08:20:53.000Z</time>
      </trkpt>
      <trkpt lat="45.12475" lon="6.10126">
        <ele>2470.3999023438</ele>
        <time>2012-04-28T08:20:56.000Z</time>
      </trkpt>
      <trkpt lat="45.1247" lon="6.10126">
        <ele>2471.8000488281</ele>
        <time>2012-04-28T08:21:03.000Z</time>
      </trkpt>
      <trkpt lat="45.12464" lon="6.10126">
        <ele>2472.6000976562</ele>
        <time>2012-04-28T08:21:12.000Z</time>
      </trkpt>
      <trkpt lat="45.12461" lon="6.10127">
        <ele>2472.8000488281</ele>
        <time>2012-04-28T08:21:17.000Z</time>
      </trkpt>
      <trkpt lat="45.12457" lon="6.1013">
        <ele>2475.3999023438</ele>
        <time>2012-04-28T08:21:24.000Z</time>
      </trkpt>
      <trkpt lat="45.12454" lon="6.10131">
        <ele>2475.1999511719</ele>
        <time>2012-04-28T08:21:29.000Z</time>
      </trkpt>
      <trkpt lat="45.12449" lon="6.10133">
        <ele>2476</ele>
        <time>2012-04-28T08:21:36.000Z</time>
      </trkpt>
      <trkpt lat="45.12445" lon="6.10134">
        <ele>2478</ele>
        <time>2012-04-28T08:21:42.000Z</time>
      </trkpt>
      <trkpt lat="45.12441" lon="6.10136">
        <ele>2479.8000488281</ele>
        <time>2012-04-28T08:21:49.000Z</time>
      </trkpt>
      <trkpt lat="45.12432" lon="6.10142">
        <ele>2484.8000488281</ele>
        <time>2012-04-28T08:22:06.000Z</time>
      </trkpt>
      <trkpt lat="45.12428" lon="6.10145">
        <ele>2486.1999511719</ele>
        <time>2012-04-28T08:22:16.000Z</time>
      </trkpt>
      <trkpt lat="45.12425" lon="6.10147">
        <ele>2485.8000488281</ele>
        <time>2012-04-28T08:22:20.000Z</time>
      </trkpt>
      <trkpt lat="45.1242" lon="6.10147">
        <ele>2488.6000976562</ele>
        <time>2012-04-28T08:22:30.000Z</time>
      </trkpt>
      <trkpt lat="45.12416" lon="6.10153">
        <ele>2491.1999511719</ele>
        <time>2012-04-28T08:22:39.000Z</time>
      </trkpt>
      <trkpt lat="45.12414" lon="6.10155">
        <ele>2492.6000976562</ele>
        <time>2012-04-28T08:22:44.000Z</time>
      </trkpt>
      <trkpt lat="45.12412" lon="6.10156">
        <ele>2494.6000976562</ele>
        <time>2012-04-28T08:22:49.000Z</time>
      </trkpt>
      <trkpt lat="45.1241" lon="6.10156">
        <ele>2494.1999511719</ele>
        <time>2012-04-28T08:22:54.000Z</time>
      </trkpt>
      <trkpt lat="45.12402" lon="6.10161">
        <ele>2497.1999511719</ele>
        <time>2012-04-28T08:23:09.000Z</time>
      </trkpt>
      <trkpt lat="45.12402" lon="6.10162">
        <ele>2498</ele>
        <time>2012-04-28T08:23:13.000Z</time>
      </trkpt>
      <trkpt lat="45.124" lon="6.10165">
        <ele>2499</ele>
        <time>2012-04-28T08:23:19.000Z</time>
      </trkpt>
      <trkpt lat="45.12398" lon="6.10167">
        <ele>2499.6000976562</ele>
        <time>2012-04-28T08:23:24.000Z</time>
      </trkpt>
      <trkpt lat="45.12395" lon="6.1017">
        <ele>2500</ele>
        <time>2012-04-28T08:23:30.000Z</time>
      </trkpt>
      <trkpt lat="45.12396" lon="6.10172">
        <ele>2500.8000488281</ele>
        <time>2012-04-28T08:23:35.000Z</time>
      </trkpt>
      <trkpt lat="45.12392" lon="6.10175">
        <ele>2500.6000976562</ele>
        <time>2012-04-28T08:23:48.000Z</time>
      </trkpt>
      <trkpt lat="45.12391" lon="6.10175">
        <ele>2502.6000976562</ele>
        <time>2012-04-28T08:23:51.000Z</time>
      </trkpt>
      <trkpt lat="45.12388" lon="6.10177">
        <ele>2503.1999511719</ele>
        <time>2012-04-28T08:23:55.000Z</time>
      </trkpt>
      <trkpt lat="45.12387" lon="6.10177">
        <ele>2503.3999023438</ele>
        <time>2012-04-28T08:23:58.000Z</time>
      </trkpt>
      <trkpt lat="45.12384" lon="6.10179">
        <ele>2506.1999511719</ele>
        <time>2012-04-28T08:24:03.000Z</time>
      </trkpt>
      <trkpt lat="45.12384" lon="6.10179">
        <ele>2506.1999511719</ele>
        <time>2012-04-28T08:24:04.000Z</time>
      </trkpt>
      <trkpt lat="45.12382" lon="6.10182">
        <ele>2507.8000488281</ele>
        <time>2012-04-28T08:24:10.000Z</time>
      </trkpt>
      <trkpt lat="45.12379" lon="6.10186">
        <ele>2508.8000488281</ele>
        <time>2012-04-28T08:24:16.000Z</time>
      </trkpt>
      <trkpt lat="45.12378" lon="6.10185">
        <ele>2510.1999511719</ele>
        <time>2012-04-28T08:24:18.000Z</time>
      </trkpt>
      <trkpt lat="45.12376" lon="6.10188">
        <ele>2510.6000976562</ele>
        <time>2012-04-28T08:24:22.000Z</time>
      </trkpt>
      <trkpt lat="45.12372" lon="6.10189">
        <ele>2512.3999023438</ele>
        <time>2012-04-28T08:24:29.000Z</time>
      </trkpt>
      <trkpt lat="45.1237" lon="6.1019">
        <ele>2513.3999023438</ele>
        <time>2012-04-28T08:24:34.000Z</time>
      </trkpt>
      <trkpt lat="45.12369" lon="6.10193">
        <ele>2514.8000488281</ele>
        <time>2012-04-28T08:24:38.000Z</time>
      </trkpt>
      <trkpt lat="45.12367" lon="6.10195">
        <ele>2515.1999511719</ele>
        <time>2012-04-28T08:24:42.000Z</time>
      </trkpt>
      <trkpt lat="45.12364" lon="6.10196">
        <ele>2513.8000488281</ele>
        <time>2012-04-28T08:24:46.000Z</time>
      </trkpt>
      <trkpt lat="45.12361" lon="6.10198">
        <ele>2514.3999023438</ele>
        <time>2012-04-28T08:24:51.000Z</time>
      </trkpt>
      <trkpt lat="45.12361" lon="6.10199">
        <ele>2515.1999511719</ele>
        <time>2012-04-28T08:24:52.000Z</time>
      </trkpt>
      <trkpt lat="45.1236" lon="6.10201">
        <ele>2516</ele>
        <time>2012-04-28T08:24:54.000Z</time>
      </trkpt>
      <trkpt lat="45.12357" lon="6.10204">
        <ele>2516.3999023438</ele>
        <time>2012-04-28T08:24:59.000Z</time>
      </trkpt>
      <trkpt lat="45.12355" lon="6.10205">
        <ele>2518</ele>
        <time>2012-04-28T08:25:05.000Z</time>
      </trkpt>
      <trkpt lat="45.12348" lon="6.10215">
        <ele>2521</ele>
        <time>2012-04-28T08:25:19.000Z</time>
      </trkpt>
      <trkpt lat="45.12347" lon="6.10217">
        <ele>2521</ele>
        <time>2012-04-28T08:25:23.000Z</time>
      </trkpt>
      <trkpt lat="45.12344" lon="6.10221">
        <ele>2521.3999023438</ele>
        <time>2012-04-28T08:25:35.000Z</time>
      </trkpt>
      <trkpt lat="45.12343" lon="6.10224">
        <ele>2523.6000976562</ele>
        <time>2012-04-28T08:25:40.000Z</time>
      </trkpt>
      <trkpt lat="45.12342" lon="6.10227">
        <ele>2524</ele>
        <time>2012-04-28T08:25:44.000Z</time>
      </trkpt>
      <trkpt lat="45.12341" lon="6.10232">
        <ele>2527</ele>
        <time>2012-04-28T08:25:50.000Z</time>
      </trkpt>
      <trkpt lat="45.12337" lon="6.10236">
        <ele>2528</ele>
        <time>2012-04-28T08:26:01.000Z</time>
      </trkpt>
      <trkpt lat="45.12335" lon="6.10238">
        <ele>2527.8000488281</ele>
        <time>2012-04-28T08:26:04.000Z</time>
      </trkpt>
      <trkpt lat="45.12333" lon="6.10242">
        <ele>2527.8000488281</ele>
        <time>2012-04-28T08:26:10.000Z</time>
      </trkpt>
      <trkpt lat="45.12331" lon="6.10245">
        <ele>2529.6000976562</ele>
        <time>2012-04-28T08:26:15.000Z</time>
      </trkpt>
      <trkpt lat="45.12329" lon="6.10249">
        <ele>2529.3999023438</ele>
        <time>2012-04-28T08:26:20.000Z</time>
      </trkpt>
      <trkpt lat="45.12329" lon="6.10251">
        <ele>2531.3999023438</ele>
        <time>2012-04-28T08:26:24.000Z</time>
      </trkpt>
      <trkpt lat="45.12325" lon="6.10257">
        <ele>2531.1999511719</ele>
        <time>2012-04-28T08:26:33.000Z</time>
      </trkpt>
      <trkpt lat="45.12323" lon="6.10264">
        <ele>2532.1999511719</ele>
        <time>2012-04-28T08:26:42.000Z</time>
      </trkpt>
      <trkpt lat="45.12323" lon="6.10265">
        <ele>2534</ele>
        <time>2012-04-28T08:26:44.000Z</time>
      </trkpt>
      <trkpt lat="45.12321" lon="6.10273">
        <ele>2535.8000488281</ele>
        <time>2012-04-28T08:26:52.000Z</time>
      </trkpt>
      <trkpt lat="45.1232" lon="6.10276">
        <ele>2537.1999511719</ele>
        <time>2012-04-28T08:26:56.000Z</time>
      </trkpt>
      <trkpt lat="45.12319" lon="6.10281">
        <ele>2535.3999023438</ele>
        <time>2012-04-28T08:27:04.000Z</time>
      </trkpt>
      <trkpt lat="45.12318" lon="6.10282">
        <ele>2534.6000976562</ele>
        <time>2012-04-28T08:27:06.000Z</time>
      </trkpt>
      <trkpt lat="45.12315" lon="6.10288">
        <ele>2535.1999511719</ele>
        <time>2012-04-28T08:27:12.000Z</time>
      </trkpt>
      <trkpt lat="45.12312" lon="6.10291">
        <ele>2537.3999023438</ele>
        <time>2012-04-28T08:27:18.000Z</time>
      </trkpt>
      <trkpt lat="45.12311" lon="6.10295">
        <ele>2536.6000976562</ele>
        <time>2012-04-28T08:27:23.000Z</time>
      </trkpt>
      <trkpt lat="45.12312" lon="6.10301">
        <ele>2538</ele>
        <time>2012-04-28T08:27:30.000Z</time>
      </trkpt>
      <trkpt lat="45.12311" lon="6.10302">
        <ele>2538.1999511719</ele>
        <time>2012-04-28T08:27:32.000Z</time>
      </trkpt>
      <trkpt lat="45.12304" lon="6.10307">
        <ele>2540.6000976562</ele>
        <time>2012-04-28T08:27:40.000Z</time>
      </trkpt>
      <trkpt lat="45.12302" lon="6.10308">
        <ele>2541.3999023438</ele>
        <time>2012-04-28T08:27:45.000Z</time>
      </trkpt>
      <trkpt lat="45.12301" lon="6.1031">
        <ele>2541.3999023438</ele>
        <time>2012-04-28T08:27:48.000Z</time>
      </trkpt>
      <trkpt lat="45.12301" lon="6.10317">
        <ele>2542.3999023438</ele>
        <time>2012-04-28T08:27:59.000Z</time>
      </trkpt>
      <trkpt lat="45.12301" lon="6.10318">
        <ele>2542.6000976562</ele>
        <time>2012-04-28T08:28:00.000Z</time>
      </trkpt>
      <trkpt lat="45.12298" lon="6.10322">
        <ele>2546.6000976562</ele>
        <time>2012-04-28T08:28:08.000Z</time>
      </trkpt>
      <trkpt lat="45.12296" lon="6.10326">
        <ele>2546.3999023438</ele>
        <time>2012-04-28T08:28:14.000Z</time>
      </trkpt>
      <trkpt lat="45.12294" lon="6.10329">
        <ele>2546.1999511719</ele>
        <time>2012-04-28T08:28:18.000Z</time>
      </trkpt>
      <trkpt lat="45.12292" lon="6.10333">
        <ele>2547.6000976562</ele>
        <time>2012-04-28T08:28:25.000Z</time>
      </trkpt>
      <trkpt lat="45.12287" lon="6.10339">
        <ele>2549.6000976562</ele>
        <time>2012-04-28T08:28:31.000Z</time>
      </trkpt>
      <trkpt lat="45.12285" lon="6.10341">
        <ele>2550.6000976562</ele>
        <time>2012-04-28T08:28:33.000Z</time>
      </trkpt>
      <trkpt lat="45.12281" lon="6.10344">
        <ele>2553</ele>
        <time>2012-04-28T08:28:39.000Z</time>
      </trkpt>
      <trkpt lat="45.12278" lon="6.10348">
        <ele>2553.3999023438</ele>
        <time>2012-04-28T08:28:45.000Z</time>
      </trkpt>
      <trkpt lat="45.12275" lon="6.10352">
        <ele>2555.8000488281</ele>
        <time>2012-04-28T08:28:51.000Z</time>
      </trkpt>
      <trkpt lat="45.1227" lon="6.10357">
        <ele>2553.8000488281</ele>
        <time>2012-04-28T08:28:58.000Z</time>
      </trkpt>
      <trkpt lat="45.12266" lon="6.10362">
        <ele>2557.1999511719</ele>
        <time>2012-04-28T08:29:04.000Z</time>
      </trkpt>
      <trkpt lat="45.12264" lon="6.10365">
        <ele>2558</ele>
        <time>2012-04-28T08:29:09.000Z</time>
      </trkpt>
      <trkpt lat="45.12261" lon="6.10369">
        <ele>2560.6000976562</ele>
        <time>2012-04-28T08:29:14.000Z</time>
      </trkpt>
      <trkpt lat="45.12257" lon="6.10372">
        <ele>2560</ele>
        <time>2012-04-28T08:29:20.000Z</time>
      </trkpt>
      <trkpt lat="45.12254" lon="6.10373">
        <ele>2561.1999511719</ele>
        <time>2012-04-28T08:29:24.000Z</time>
      </trkpt>
      <trkpt lat="45.1225" lon="6.10373">
        <ele>2564.3999023438</ele>
        <time>2012-04-28T08:29:29.000Z</time>
      </trkpt>
      <trkpt lat="45.12247" lon="6.10374">
        <ele>2567.6000976562</ele>
        <time>2012-04-28T08:29:35.000Z</time>
      </trkpt>
      <trkpt lat="45.12244" lon="6.10375">
        <ele>2566</ele>
        <time>2012-04-28T08:29:40.000Z</time>
      </trkpt>
      <trkpt lat="45.12238" lon="6.10379">
        <ele>2566.8000488281</ele>
        <time>2012-04-28T08:29:49.000Z</time>
      </trkpt>
      <trkpt lat="45.12235" lon="6.1038">
        <ele>2568.1999511719</ele>
        <time>2012-04-28T08:29:55.000Z</time>
      </trkpt>
      <trkpt lat="45.12231" lon="6.10382">
        <ele>2568.3999023438</ele>
        <time>2012-04-28T08:30:01.000Z</time>
      </trkpt>
      <trkpt lat="45.12226" lon="6.10383">
        <ele>2568.1999511719</ele>
        <time>2012-04-28T08:30:08.000Z</time>
      </trkpt>
      <trkpt lat="45.12225" lon="6.10384">
        <ele>2569</ele>
        <time>2012-04-28T08:30:10.000Z</time>
      </trkpt>
      <trkpt lat="45.1222" lon="6.10387">
        <ele>2569.1999511719</ele>
        <time>2012-04-28T08:30:18.000Z</time>
      </trkpt>
      <trkpt lat="45.12217" lon="6.10388">
        <ele>2570</ele>
        <time>2012-04-28T08:30:24.000Z</time>
      </trkpt>
      <trkpt lat="45.12214" lon="6.1039">
        <ele>2571.3999023438</ele>
        <time>2012-04-28T08:30:29.000Z</time>
      </trkpt>
      <trkpt lat="45.12211" lon="6.10393">
        <ele>2574.8000488281</ele>
        <time>2012-04-28T08:30:36.000Z</time>
      </trkpt>
      <trkpt lat="45.12208" lon="6.10396">
        <ele>2574.8000488281</ele>
        <time>2012-04-28T08:30:43.000Z</time>
      </trkpt>
      <trkpt lat="45.12202" lon="6.10401">
        <ele>2576.8000488281</ele>
        <time>2012-04-28T08:30:54.000Z</time>
      </trkpt>
      <trkpt lat="45.12202" lon="6.10401">
        <ele>2578.3999023438</ele>
        <time>2012-04-28T08:30:56.000Z</time>
      </trkpt>
      <trkpt lat="45.12198" lon="6.10401">
        <ele>2582.8000488281</ele>
        <time>2012-04-28T08:31:01.000Z</time>
      </trkpt>
      <trkpt lat="45.12195" lon="6.10402">
        <ele>2581.6000976562</ele>
        <time>2012-04-28T08:31:06.000Z</time>
      </trkpt>
      <trkpt lat="45.12195" lon="6.10402">
        <ele>2582.6000976562</ele>
        <time>2012-04-28T08:31:07.000Z</time>
      </trkpt>
      <trkpt lat="45.12191" lon="6.10405">
        <ele>2582</ele>
        <time>2012-04-28T08:31:17.000Z</time>
      </trkpt>
      <trkpt lat="45.12189" lon="6.10406">
        <ele>2584.8000488281</ele>
        <time>2012-04-28T08:31:22.000Z</time>
      </trkpt>
      <trkpt lat="45.12189" lon="6.10409">
        <ele>2586.8000488281</ele>
        <time>2012-04-28T08:31:25.000Z</time>
      </trkpt>
      <trkpt lat="45.12187" lon="6.1041">
        <ele>2586.6000976562</ele>
        <time>2012-04-28T08:31:29.000Z</time>
      </trkpt>
      <trkpt lat="45.12183" lon="6.10411">
        <ele>2588.1999511719</ele>
        <time>2012-04-28T08:31:36.000Z</time>
      </trkpt>
      <trkpt lat="45.12181" lon="6.10414">
        <ele>2589</ele>
        <time>2012-04-28T08:31:42.000Z</time>
      </trkpt>
      <trkpt lat="45.12181" lon="6.10414">
        <ele>2589.8000488281</ele>
        <time>2012-04-28T08:31:43.000Z</time>
      </trkpt>
      <trkpt lat="45.12178" lon="6.10416">
        <ele>2591</ele>
        <time>2012-04-28T08:31:49.000Z</time>
      </trkpt>
      <trkpt lat="45.12177" lon="6.10418">
        <ele>2590.3999023438</ele>
        <time>2012-04-28T08:31:53.000Z</time>
      </trkpt>
      <trkpt lat="45.12174" lon="6.10421">
        <ele>2591.1999511719</ele>
        <time>2012-04-28T08:32:00.000Z</time>
      </trkpt>
      <trkpt lat="45.12172" lon="6.10422">
        <ele>2591</ele>
        <time>2012-04-28T08:32:05.000Z</time>
      </trkpt>
      <trkpt lat="45.12169" lon="6.10426">
        <ele>2593.3999023438</ele>
        <time>2012-04-28T08:32:11.000Z</time>
      </trkpt>
      <trkpt lat="45.12167" lon="6.10428">
        <ele>2592.6000976562</ele>
        <time>2012-04-28T08:32:15.000Z</time>
      </trkpt>
      <trkpt lat="45.12165" lon="6.10431">
        <ele>2594.8000488281</ele>
        <time>2012-04-28T08:32:19.000Z</time>
      </trkpt>
      <trkpt lat="45.1216" lon="6.10438">
        <ele>2593</ele>
        <time>2012-04-28T08:32:29.000Z</time>
      </trkpt>
      <trkpt lat="45.12155" lon="6.10443">
        <ele>2595.1999511719</ele>
        <time>2012-04-28T08:32:38.000Z</time>
      </trkpt>
      <trkpt lat="45.12152" lon="6.10446">
        <ele>2597.8000488281</ele>
        <time>2012-04-28T08:32:44.000Z</time>
      </trkpt>
      <trkpt lat="45.12148" lon="6.1045">
        <ele>2598.3999023438</ele>
        <time>2012-04-28T08:32:49.000Z</time>
      </trkpt>
      <trkpt lat="45.12144" lon="6.10455">
        <ele>2594.6000976562</ele>
        <time>2012-04-28T08:32:56.000Z</time>
      </trkpt>
      <trkpt lat="45.12143" lon="6.10457">
        <ele>2596</ele>
        <time>2012-04-28T08:32:59.000Z</time>
      </trkpt>
      <trkpt lat="45.12138" lon="6.10461">
        <ele>2598.1999511719</ele>
        <time>2012-04-28T08:33:06.000Z</time>
      </trkpt>
      <trkpt lat="45.12138" lon="6.10461">
        <ele>2598.1999511719</ele>
        <time>2012-04-28T08:33:07.000Z</time>
      </trkpt>
      <trkpt lat="45.12137" lon="6.10463">
        <ele>2598.8000488281</ele>
        <time>2012-04-28T08:33:10.000Z</time>
      </trkpt>
      <trkpt lat="45.12134" lon="6.10465">
        <ele>2600.6000976562</ele>
        <time>2012-04-28T08:33:15.000Z</time>
      </trkpt>
      <trkpt lat="45.1213" lon="6.1047">
        <ele>2601</ele>
        <time>2012-04-28T08:33:22.000Z</time>
      </trkpt>
      <trkpt lat="45.12126" lon="6.10475">
        <ele>2605.1999511719</ele>
        <time>2012-04-28T08:33:29.000Z</time>
      </trkpt>
      <trkpt lat="45.12119" lon="6.10481">
        <ele>2606.3999023438</ele>
        <time>2012-04-28T08:33:39.000Z</time>
      </trkpt>
      <trkpt lat="45.12116" lon="6.1049">
        <ele>2605.8000488281</ele>
        <time>2012-04-28T08:33:50.000Z</time>
      </trkpt>
      <trkpt lat="45.12118" lon="6.105">
        <ele>2607.1999511719</ele>
        <time>2012-04-28T08:33:59.000Z</time>
      </trkpt>
      <trkpt lat="45.12119" lon="6.10504">
        <ele>2602.6000976562</ele>
        <time>2012-04-28T08:34:03.000Z</time>
      </trkpt>
      <trkpt lat="45.1212" lon="6.10507">
        <ele>2604.3999023438</ele>
        <time>2012-04-28T08:34:07.000Z</time>
      </trkpt>
      <trkpt lat="45.12122" lon="6.1052">
        <ele>2607.1999511719</ele>
        <time>2012-04-28T08:34:17.000Z</time>
      </trkpt>
      <trkpt lat="45.12122" lon="6.10527">
        <ele>2607.8000488281</ele>
        <time>2012-04-28T08:34:22.000Z</time>
      </trkpt>
      <trkpt lat="45.12124" lon="6.10534">
        <ele>2610.3999023438</ele>
        <time>2012-04-28T08:34:29.000Z</time>
      </trkpt>
      <trkpt lat="45.12129" lon="6.10542">
        <ele>2614</ele>
        <time>2012-04-28T08:34:38.000Z</time>
      </trkpt>
      <trkpt lat="45.12135" lon="6.10549">
        <ele>2617.3999023438</ele>
        <time>2012-04-28T08:34:46.000Z</time>
      </trkpt>
      <trkpt lat="45.12136" lon="6.10551">
        <ele>2616.6000976562</ele>
        <time>2012-04-28T08:34:48.000Z</time>
      </trkpt>
      <trkpt lat="45.12142" lon="6.10555">
        <ele>2617.8000488281</ele>
        <time>2012-04-28T08:34:57.000Z</time>
      </trkpt>
      <trkpt lat="45.12154" lon="6.10561">
        <ele>2621.1999511719</ele>
        <time>2012-04-28T08:35:09.000Z</time>
      </trkpt>
      <trkpt lat="45.12159" lon="6.10563">
        <ele>2622</ele>
        <time>2012-04-28T08:35:17.000Z</time>
      </trkpt>
      <trkpt lat="45.12164" lon="6.10562">
        <ele>2622.6000976562</ele>
        <time>2012-04-28T08:35:24.000Z</time>
      </trkpt>
      <trkpt lat="45.1217" lon="6.10564">
        <ele>2620.6000976562</ele>
        <time>2012-04-28T08:35:30.000Z</time>
      </trkpt>
      <trkpt lat="45.12175" lon="6.10564">
        <ele>2621.1999511719</ele>
        <time>2012-04-28T08:35:38.000Z</time>
      </trkpt>
      <trkpt lat="45.12179" lon="6.10565">
        <ele>2623.3999023438</ele>
        <time>2012-04-28T08:35:45.000Z</time>
      </trkpt>
      <trkpt lat="45.12184" lon="6.10566">
        <ele>2626.1999511719</ele>
        <time>2012-04-28T08:35:52.000Z</time>
      </trkpt>
      <trkpt lat="45.12184" lon="6.10566">
        <ele>2626.6000976562</ele>
        <time>2012-04-28T08:35:53.000Z</time>
      </trkpt>
      <trkpt lat="45.12188" lon="6.10567">
        <ele>2623.3999023438</ele>
        <time>2012-04-28T08:35:59.000Z</time>
      </trkpt>
      <trkpt lat="45.12193" lon="6.10569">
        <ele>2628.6000976562</ele>
        <time>2012-04-28T08:36:07.000Z</time>
      </trkpt>
      <trkpt lat="45.122" lon="6.10571">
        <ele>2628.8000488281</ele>
        <time>2012-04-28T08:36:15.000Z</time>
      </trkpt>
      <trkpt lat="45.12203" lon="6.10571">
        <ele>2630.3999023438</ele>
        <time>2012-04-28T08:36:22.000Z</time>
      </trkpt>
      <trkpt lat="45.12209" lon="6.10571">
        <ele>2632.6000976562</ele>
        <time>2012-04-28T08:36:30.000Z</time>
      </trkpt>
      <trkpt lat="45.12215" lon="6.1057">
        <ele>2634.6000976562</ele>
        <time>2012-04-28T08:36:39.000Z</time>
      </trkpt>
      <trkpt lat="45.12218" lon="6.10569">
        <ele>2634.8000488281</ele>
        <time>2012-04-28T08:36:46.000Z</time>
      </trkpt>
      <trkpt lat="45.12223" lon="6.1057">
        <ele>2635.8000488281</ele>
        <time>2012-04-28T08:36:53.000Z</time>
      </trkpt>
      <trkpt lat="45.12227" lon="6.10568">
        <ele>2638.1999511719</ele>
        <time>2012-04-28T08:37:00.000Z</time>
      </trkpt>
      <trkpt lat="45.12234" lon="6.10564">
        <ele>2638.6000976562</ele>
        <time>2012-04-28T08:37:11.000Z</time>
      </trkpt>
      <trkpt lat="45.12236" lon="6.10563">
        <ele>2637.8000488281</ele>
        <time>2012-04-28T08:37:13.000Z</time>
      </trkpt>
      <trkpt lat="45.1224" lon="6.1056">
        <ele>2641.8000488281</ele>
        <time>2012-04-28T08:37:21.000Z</time>
      </trkpt>
      <trkpt lat="45.12241" lon="6.10559">
        <ele>2642.8000488281</ele>
        <time>2012-04-28T08:37:23.000Z</time>
      </trkpt>
      <trkpt lat="45.12244" lon="6.10554">
        <ele>2643.3999023438</ele>
        <time>2012-04-28T08:37:30.000Z</time>
      </trkpt>
      <trkpt lat="45.12247" lon="6.10551">
        <ele>2646.6000976562</ele>
        <time>2012-04-28T08:37:35.000Z</time>
      </trkpt>
      <trkpt lat="45.1225" lon="6.10547">
        <ele>2651.3999023438</ele>
        <time>2012-04-28T08:37:41.000Z</time>
      </trkpt>
      <trkpt lat="45.12255" lon="6.10541">
        <ele>2652.3999023438</ele>
        <time>2012-04-28T08:37:49.000Z</time>
      </trkpt>
      <trkpt lat="45.12257" lon="6.10538">
        <ele>2654.3999023438</ele>
        <time>2012-04-28T08:37:52.000Z</time>
      </trkpt>
      <trkpt lat="45.1226" lon="6.10533">
        <ele>2655</ele>
        <time>2012-04-28T08:37:59.000Z</time>
      </trkpt>
      <trkpt lat="45.12264" lon="6.10527">
        <ele>2655.6000976562</ele>
        <time>2012-04-28T08:38:07.000Z</time>
      </trkpt>
      <trkpt lat="45.12268" lon="6.10523">
        <ele>2655.6000976562</ele>
        <time>2012-04-28T08:38:13.000Z</time>
      </trkpt>
      <trkpt lat="45.12269" lon="6.10522">
        <ele>2656.3999023438</ele>
        <time>2012-04-28T08:38:15.000Z</time>
      </trkpt>
      <trkpt lat="45.12273" lon="6.10515">
        <ele>2663</ele>
        <time>2012-04-28T08:38:24.000Z</time>
      </trkpt>
      <trkpt lat="45.12276" lon="6.10513">
        <ele>2664.8000488281</ele>
        <time>2012-04-28T08:38:28.000Z</time>
      </trkpt>
      <trkpt lat="45.12278" lon="6.10511">
        <ele>2662.6000976562</ele>
        <time>2012-04-28T08:38:33.000Z</time>
      </trkpt>
      <trkpt lat="45.12285" lon="6.1051">
        <ele>2658.1999511719</ele>
        <time>2012-04-28T08:38:42.000Z</time>
      </trkpt>
      <trkpt lat="45.12286" lon="6.10509">
        <ele>2658.3999023438</ele>
        <time>2012-04-28T08:38:43.000Z</time>
      </trkpt>
      <trkpt lat="45.12294" lon="6.10511">
        <ele>2659</ele>
        <time>2012-04-28T08:38:53.000Z</time>
      </trkpt>
      <trkpt lat="45.12301" lon="6.10514">
        <ele>2664.1999511719</ele>
        <time>2012-04-28T08:39:02.000Z</time>
      </trkpt>
      <trkpt lat="45.12303" lon="6.10515">
        <ele>2662.3999023438</ele>
        <time>2012-04-28T08:39:05.000Z</time>
      </trkpt>
      <trkpt lat="45.12308" lon="6.10519">
        <ele>2665.6000976562</ele>
        <time>2012-04-28T08:39:31.000Z</time>
      </trkpt>
      <trkpt lat="45.12311" lon="6.10521">
        <ele>2668</ele>
        <time>2012-04-28T08:39:37.000Z</time>
      </trkpt>
      <trkpt lat="45.12314" lon="6.10524">
        <ele>2675</ele>
        <time>2012-04-28T08:39:42.000Z</time>
      </trkpt>
      <trkpt lat="45.12316" lon="6.1053">
        <ele>2667.3999023438</ele>
        <time>2012-04-28T08:39:49.000Z</time>
      </trkpt>
      <trkpt lat="45.12318" lon="6.10535">
        <ele>2666.1999511719</ele>
        <time>2012-04-28T08:39:56.000Z</time>
      </trkpt>
      <trkpt lat="45.12322" lon="6.10543">
        <ele>2667.8000488281</ele>
        <time>2012-04-28T08:40:04.000Z</time>
      </trkpt>
      <trkpt lat="45.12328" lon="6.10552">
        <ele>2668.8000488281</ele>
        <time>2012-04-28T08:40:13.000Z</time>
      </trkpt>
      <trkpt lat="45.12332" lon="6.10556">
        <ele>2669.3999023438</ele>
        <time>2012-04-28T08:40:20.000Z</time>
      </trkpt>
      <trkpt lat="45.12334" lon="6.10557">
        <ele>2670.3999023438</ele>
        <time>2012-04-28T08:40:22.000Z</time>
      </trkpt>
      <trkpt lat="45.12339" lon="6.10561">
        <ele>2670.3999023438</ele>
        <time>2012-04-28T08:40:28.000Z</time>
      </trkpt>
      <trkpt lat="45.12346" lon="6.10566">
        <ele>2671.6000976562</ele>
        <time>2012-04-28T08:40:37.000Z</time>
      </trkpt>
      <trkpt lat="45.12349" lon="6.10568">
        <ele>2674.3999023438</ele>
        <time>2012-04-28T08:40:42.000Z</time>
      </trkpt>
      <trkpt lat="45.12356" lon="6.10568">
        <ele>2676.1999511719</ele>
        <time>2012-04-28T08:40:50.000Z</time>
      </trkpt>
      <trkpt lat="45.1236" lon="6.10567">
        <ele>2677.6000976562</ele>
        <time>2012-04-28T08:40:55.000Z</time>
      </trkpt>
      <trkpt lat="45.12363" lon="6.10566">
        <ele>2678.6000976562</ele>
        <time>2012-04-28T08:41:01.000Z</time>
      </trkpt>
      <trkpt lat="45.12366" lon="6.10566">
        <ele>2680.1999511719</ele>
        <time>2012-04-28T08:41:07.000Z</time>
      </trkpt>
      <trkpt lat="45.12372" lon="6.10567">
        <ele>2681.6000976562</ele>
        <time>2012-04-28T08:41:15.000Z</time>
      </trkpt>
      <trkpt lat="45.12377" lon="6.10567">
        <ele>2684.1999511719</ele>
        <time>2012-04-28T08:41:22.000Z</time>
      </trkpt>
      <trkpt lat="45.12381" lon="6.10566">
        <ele>2684.6000976562</ele>
        <time>2012-04-28T08:41:28.000Z</time>
      </trkpt>
      <trkpt lat="45.12386" lon="6.10564">
        <ele>2686.8000488281</ele>
        <time>2012-04-28T08:41:36.000Z</time>
      </trkpt>
      <trkpt lat="45.12392" lon="6.10562">
        <ele>2687.3999023438</ele>
        <time>2012-04-28T08:41:44.000Z</time>
      </trkpt>
      <trkpt lat="45.12395" lon="6.1056">
        <ele>2692</ele>
        <time>2012-04-28T08:41:51.000Z</time>
      </trkpt>
      <trkpt lat="45.12396" lon="6.10559">
        <ele>2693.1999511719</ele>
        <time>2012-04-28T08:41:54.000Z</time>
      </trkpt>
      <trkpt lat="45.124" lon="6.10558">
        <ele>2694.1999511719</ele>
        <time>2012-04-28T08:42:01.000Z</time>
      </trkpt>
      <trkpt lat="45.12404" lon="6.10555">
        <ele>2695.6000976562</ele>
        <time>2012-04-28T08:42:07.000Z</time>
      </trkpt>
      <trkpt lat="45.12408" lon="6.10551">
        <ele>2695.3999023438</ele>
        <time>2012-04-28T08:42:15.000Z</time>
      </trkpt>
      <trkpt lat="45.12411" lon="6.1055">
        <ele>2696</ele>
        <time>2012-04-28T08:42:21.000Z</time>
      </trkpt>
      <trkpt lat="45.12417" lon="6.10548">
        <ele>2698.1999511719</ele>
        <time>2012-04-28T08:42:29.000Z</time>
      </trkpt>
      <trkpt lat="45.12423" lon="6.10546">
        <ele>2699.6000976562</ele>
        <time>2012-04-28T08:42:39.000Z</time>
      </trkpt>
      <trkpt lat="45.12428" lon="6.10545">
        <ele>2701.8000488281</ele>
        <time>2012-04-28T08:42:47.000Z</time>
      </trkpt>
      <trkpt lat="45.1243" lon="6.10544">
        <ele>2704.1999511719</ele>
        <time>2012-04-28T08:42:51.000Z</time>
      </trkpt>
      <trkpt lat="45.12433" lon="6.10544">
        <ele>2705</ele>
        <time>2012-04-28T08:42:56.000Z</time>
      </trkpt>
      <trkpt lat="45.12436" lon="6.10545">
        <ele>2707.8000488281</ele>
        <time>2012-04-28T08:43:00.000Z</time>
      </trkpt>
      <trkpt lat="45.1244" lon="6.10545">
        <ele>2708.3999023438</ele>
        <time>2012-04-28T08:43:07.000Z</time>
      </trkpt>
      <trkpt lat="45.12444" lon="6.10545">
        <ele>2708.6000976562</ele>
        <time>2012-04-28T08:43:13.000Z</time>
      </trkpt>
      <trkpt lat="45.12449" lon="6.10547">
        <ele>2708.8000488281</ele>
        <time>2012-04-28T08:43:19.000Z</time>
      </trkpt>
      <trkpt lat="45.12452" lon="6.10549">
        <ele>2712.1999511719</ele>
        <time>2012-04-28T08:43:24.000Z</time>
      </trkpt>
      <trkpt lat="45.12457" lon="6.1055">
        <ele>2711.8000488281</ele>
        <time>2012-04-28T08:43:31.000Z</time>
      </trkpt>
      <trkpt lat="45.12457" lon="6.1055">
        <ele>2712.1999511719</ele>
        <time>2012-04-28T08:43:32.000Z</time>
      </trkpt>
      <trkpt lat="45.12462" lon="6.10551">
        <ele>2712</ele>
        <time>2012-04-28T08:43:40.000Z</time>
      </trkpt>
      <trkpt lat="45.12466" lon="6.10552">
        <ele>2711.6000976562</ele>
        <time>2012-04-28T08:43:46.000Z</time>
      </trkpt>
      <trkpt lat="45.12471" lon="6.10555">
        <ele>2710</ele>
        <time>2012-04-28T08:43:54.000Z</time>
      </trkpt>
      <trkpt lat="45.12474" lon="6.10557">
        <ele>2712.3999023438</ele>
        <time>2012-04-28T08:44:00.000Z</time>
      </trkpt>
      <trkpt lat="45.12477" lon="6.10559">
        <ele>2714</ele>
        <time>2012-04-28T08:44:07.000Z</time>
      </trkpt>
      <trkpt lat="45.12478" lon="6.10559">
        <ele>2714.6000976562</ele>
        <time>2012-04-28T08:44:08.000Z</time>
      </trkpt>
      <trkpt lat="45.12482" lon="6.1056">
        <ele>2717</ele>
        <time>2012-04-28T08:44:18.000Z</time>
      </trkpt>
      <trkpt lat="45.12484" lon="6.10561">
        <ele>2718.6000976562</ele>
        <time>2012-04-28T08:44:22.000Z</time>
      </trkpt>
      <trkpt lat="45.12487" lon="6.10562">
        <ele>2719.3999023438</ele>
        <time>2012-04-28T08:44:27.000Z</time>
      </trkpt>
      <trkpt lat="45.1249" lon="6.10564">
        <ele>2719</ele>
        <time>2012-04-28T08:44:32.000Z</time>
      </trkpt>
      <trkpt lat="45.12491" lon="6.10564">
        <ele>2719</ele>
        <time>2012-04-28T08:44:33.000Z</time>
      </trkpt>
      <trkpt lat="45.12496" lon="6.10566">
        <ele>2723.3999023438</ele>
        <time>2012-04-28T08:44:41.000Z</time>
      </trkpt>
      <trkpt lat="45.12497" lon="6.10567">
        <ele>2725.3999023438</ele>
        <time>2012-04-28T08:44:44.000Z</time>
      </trkpt>
      <trkpt lat="45.12499" lon="6.10567">
        <ele>2725</ele>
        <time>2012-04-28T08:44:49.000Z</time>
      </trkpt>
      <trkpt lat="45.12501" lon="6.10568">
        <ele>2726.1999511719</ele>
        <time>2012-04-28T08:44:53.000Z</time>
      </trkpt>
      <trkpt lat="45.12506" lon="6.1057">
        <ele>2727.6000976562</ele>
        <time>2012-04-28T08:45:03.000Z</time>
      </trkpt>
      <trkpt lat="45.12512" lon="6.10573">
        <ele>2727.8000488281</ele>
        <time>2012-04-28T08:45:11.000Z</time>
      </trkpt>
      <trkpt lat="45.12517" lon="6.10575">
        <ele>2730.8000488281</ele>
        <time>2012-04-28T08:45:21.000Z</time>
      </trkpt>
      <trkpt lat="45.12521" lon="6.10576">
        <ele>2731</ele>
        <time>2012-04-28T08:45:28.000Z</time>
      </trkpt>
      <trkpt lat="45.12524" lon="6.10577">
        <ele>2733.1999511719</ele>
        <time>2012-04-28T08:45:33.000Z</time>
      </trkpt>
      <trkpt lat="45.12529" lon="6.1058">
        <ele>2737.3999023438</ele>
        <time>2012-04-28T08:45:40.000Z</time>
      </trkpt>
      <trkpt lat="45.12533" lon="6.10582">
        <ele>2740.3999023438</ele>
        <time>2012-04-28T08:45:45.000Z</time>
      </trkpt>
      <trkpt lat="45.12538" lon="6.10584">
        <ele>2739.3999023438</ele>
        <time>2012-04-28T08:45:54.000Z</time>
      </trkpt>
      <trkpt lat="45.12541" lon="6.10585">
        <ele>2740.6000976562</ele>
        <time>2012-04-28T08:46:00.000Z</time>
      </trkpt>
      <trkpt lat="45.12542" lon="6.10586">
        <ele>2741</ele>
        <time>2012-04-28T08:46:01.000Z</time>
      </trkpt>
      <trkpt lat="45.1255" lon="6.10589">
        <ele>2741</ele>
        <time>2012-04-28T08:46:10.000Z</time>
      </trkpt>
      <trkpt lat="45.12558" lon="6.10592">
        <ele>2739</ele>
        <time>2012-04-28T08:46:18.000Z</time>
      </trkpt>
      <trkpt lat="45.12566" lon="6.10596">
        <ele>2739.6000976562</ele>
        <time>2012-04-28T08:46:26.000Z</time>
      </trkpt>
      <trkpt lat="45.12574" lon="6.106">
        <ele>2742</ele>
        <time>2012-04-28T08:46:36.000Z</time>
      </trkpt>
      <trkpt lat="45.12578" lon="6.10601">
        <ele>2746.8000488281</ele>
        <time>2012-04-28T08:46:42.000Z</time>
      </trkpt>
      <trkpt lat="45.12581" lon="6.10603">
        <ele>2751.8000488281</ele>
        <time>2012-04-28T08:47:06.000Z</time>
      </trkpt>
      <trkpt lat="45.12592" lon="6.10607">
        <ele>2754.3999023438</ele>
        <time>2012-04-28T08:47:15.000Z</time>
      </trkpt>
      <trkpt lat="45.12599" lon="6.10606">
        <ele>2755.3999023438</ele>
        <time>2012-04-28T08:47:23.000Z</time>
      </trkpt>
      <trkpt lat="45.12605" lon="6.10604">
        <ele>2754.1999511719</ele>
        <time>2012-04-28T08:47:30.000Z</time>
      </trkpt>
      <trkpt lat="45.12613" lon="6.10604">
        <ele>2755</ele>
        <time>2012-04-28T08:47:36.000Z</time>
      </trkpt>
      <trkpt lat="45.12615" lon="6.10604">
        <ele>2756</ele>
        <time>2012-04-28T08:47:38.000Z</time>
      </trkpt>
      <trkpt lat="45.12626" lon="6.10604">
        <ele>2758.1999511719</ele>
        <time>2012-04-28T08:47:46.000Z</time>
      </trkpt>
      <trkpt lat="45.12637" lon="6.10603">
        <ele>2757.6000976562</ele>
        <time>2012-04-28T08:47:54.000Z</time>
      </trkpt>
      <trkpt lat="45.12648" lon="6.10602">
        <ele>2759.6000976562</ele>
        <time>2012-04-28T08:48:02.000Z</time>
      </trkpt>
      <trkpt lat="45.1265" lon="6.10602">
        <ele>2760</ele>
        <time>2012-04-28T08:48:03.000Z</time>
      </trkpt>
      <trkpt lat="45.12663" lon="6.10602">
        <ele>2760</ele>
        <time>2012-04-28T08:48:10.000Z</time>
      </trkpt>
      <trkpt lat="45.1268" lon="6.10603">
        <ele>2764.6000976562</ele>
        <time>2012-04-28T08:48:18.000Z</time>
      </trkpt>
      <trkpt lat="45.12688" lon="6.10601">
        <ele>2764.6000976562</ele>
        <time>2012-04-28T08:48:23.000Z</time>
      </trkpt>
      <trkpt lat="45.12703" lon="6.10603">
        <ele>2757.3999023438</ele>
        <time>2012-04-28T08:48:32.000Z</time>
      </trkpt>
      <trkpt lat="45.12711" lon="6.10603">
        <ele>2755</ele>
        <time>2012-04-28T08:48:38.000Z</time>
      </trkpt>
      <trkpt lat="45.12719" lon="6.10603">
        <ele>2761.1999511719</ele>
        <time>2012-04-28T08:48:45.000Z</time>
      </trkpt>
      <trkpt lat="45.12729" lon="6.10603">
        <ele>2760.8000488281</ele>
        <time>2012-04-28T08:48:52.000Z</time>
      </trkpt>
      <trkpt lat="45.12738" lon="6.10604">
        <ele>2759.1999511719</ele>
        <time>2012-04-28T08:49:00.000Z</time>
      </trkpt>
      <trkpt lat="45.12744" lon="6.10605">
        <ele>2762.1999511719</ele>
        <time>2012-04-28T08:49:04.000Z</time>
      </trkpt>
      <trkpt lat="45.12753" lon="6.10603">
        <ele>2769.3999023438</ele>
        <time>2012-04-28T08:49:11.000Z</time>
      </trkpt>
      <trkpt lat="45.12754" lon="6.10602">
        <ele>2769.1999511719</ele>
        <time>2012-04-28T08:49:12.000Z</time>
      </trkpt>
      <trkpt lat="45.12767" lon="6.106">
        <ele>2776</ele>
        <time>2012-04-28T08:49:21.000Z</time>
      </trkpt>
      <trkpt lat="45.12778" lon="6.10601">
        <ele>2772.8000488281</ele>
        <time>2012-04-28T08:49:28.000Z</time>
      </trkpt>
      <trkpt lat="45.12781" lon="6.10601">
        <ele>2771.6000976562</ele>
        <time>2012-04-28T08:49:30.000Z</time>
      </trkpt>
      <trkpt lat="45.12784" lon="6.10602">
        <ele>2770.3999023438</ele>
        <time>2012-04-28T08:49:32.000Z</time>
      </trkpt>
      <trkpt lat="45.12798" lon="6.10604">
        <ele>2768</ele>
        <time>2012-04-28T08:49:40.000Z</time>
      </trkpt>
      <trkpt lat="45.12804" lon="6.10603">
        <ele>2772.8000488281</ele>
        <time>2012-04-28T08:49:44.000Z</time>
      </trkpt>
      <trkpt lat="45.1281" lon="6.10603">
        <ele>2769.1999511719</ele>
        <time>2012-04-28T08:49:49.000Z</time>
      </trkpt>
      <trkpt lat="45.12821" lon="6.10607">
        <ele>2764.3999023438</ele>
        <time>2012-04-28T08:49:57.000Z</time>
      </trkpt>
      <trkpt lat="45.12826" lon="6.10608">
        <ele>2765.3999023438</ele>
        <time>2012-04-28T08:50:03.000Z</time>
      </trkpt>
      <trkpt lat="45.12833" lon="6.1061">
        <ele>2763.6000976562</ele>
        <time>2012-04-28T08:50:11.000Z</time>
      </trkpt>
      <trkpt lat="45.12837" lon="6.10611">
        <ele>2764.3999023438</ele>
        <time>2012-04-28T08:50:15.000Z</time>
      </trkpt>
      <trkpt lat="45.12838" lon="6.10614">
        <ele>2765.8000488281</ele>
        <time>2012-04-28T08:50:20.000Z</time>
      </trkpt>
      <trkpt lat="45.12836" lon="6.10617">
        <ele>2772</ele>
        <time>2012-04-28T08:50:31.000Z</time>
      </trkpt>
      <trkpt lat="45.12828" lon="6.10604">
        <ele>2757.1999511719</ele>
        <time>2012-04-28T08:51:10.000Z</time>
      </trkpt>
      <trkpt lat="45.12828" lon="6.10606">
        <ele>2758</ele>
        <time>2012-04-28T08:51:11.000Z</time>
      </trkpt>
      <trkpt lat="45.12828" lon="6.10605">
        <ele>2762.1999511719</ele>
        <time>2012-04-28T08:51:16.000Z</time>
      </trkpt>
      <trkpt lat="45.12833" lon="6.10613">
        <ele>2764.3999023438</ele>
        <time>2012-04-28T08:51:20.000Z</time>
      </trkpt>
      <trkpt lat="45.12839" lon="6.10629">
        <ele>2764.1999511719</ele>
        <time>2012-04-28T08:51:25.000Z</time>
      </trkpt>
      <trkpt lat="45.12842" lon="6.10629">
        <ele>2765.6000976562</ele>
        <time>2012-04-28T08:51:28.000Z</time>
      </trkpt>
      <trkpt lat="45.12847" lon="6.10642">
        <ele>2766.1999511719</ele>
        <time>2012-04-28T08:51:32.000Z</time>
      </trkpt>
      <trkpt lat="45.12853" lon="6.10658">
        <ele>2763.6000976562</ele>
        <time>2012-04-28T08:51:36.000Z</time>
      </trkpt>
      <trkpt lat="45.12856" lon="6.10662">
        <ele>2761.6000976562</ele>
        <time>2012-04-28T08:51:37.000Z</time>
      </trkpt>
      <trkpt lat="45.12857" lon="6.10663">
        <ele>2759.3999023438</ele>
        <time>2012-04-28T08:51:38.000Z</time>
      </trkpt>
      <trkpt lat="45.12857" lon="6.10664">
        <ele>2757.3999023438</ele>
        <time>2012-04-28T08:51:41.000Z</time>
      </trkpt>
      <trkpt lat="45.12857" lon="6.10662">
        <ele>2758.1999511719</ele>
        <time>2012-04-28T08:51:42.000Z</time>
      </trkpt>
      <trkpt lat="45.12833" lon="6.10616">
        <ele>2761.8000488281</ele>
        <time>2012-04-28T08:51:56.000Z</time>
      </trkpt>
      <trkpt lat="45.12823" lon="6.10609">
        <ele>2765.1999511719</ele>
        <time>2012-04-28T08:52:14.000Z</time>
      </trkpt>
      <trkpt lat="45.12824" lon="6.10621">
        <ele>2767.8000488281</ele>
        <time>2012-04-28T08:53:01.000Z</time>
      </trkpt>
      <trkpt lat="45.12827" lon="6.10628">
        <ele>2767.3999023438</ele>
        <time>2012-04-28T08:53:05.000Z</time>
      </trkpt>
      <trkpt lat="45.12827" lon="6.10629">
        <ele>2765.1999511719</ele>
        <time>2012-04-28T08:53:10.000Z</time>
      </trkpt>
      <trkpt lat="45.12828" lon="6.10631">
        <ele>2765.6000976562</ele>
        <time>2012-04-28T08:53:11.000Z</time>
      </trkpt>
      <trkpt lat="45.12829" lon="6.1063">
        <ele>2765.6000976562</ele>
        <time>2012-04-28T08:53:19.000Z</time>
      </trkpt>
      <trkpt lat="45.12829" lon="6.10615">
        <ele>2764.3999023438</ele>
        <time>2012-04-28T08:54:33.000Z</time>
      </trkpt>
      <trkpt lat="45.12829" lon="6.10619">
        <ele>2765.6000976562</ele>
        <time>2012-04-28T08:54:53.000Z</time>
      </trkpt>
      <trkpt lat="45.1283" lon="6.10618">
        <ele>2760.1999511719</ele>
        <time>2012-04-28T08:56:04.000Z</time>
      </trkpt>
      <trkpt lat="45.1283" lon="6.10617">
        <ele>2759.6000976562</ele>
        <time>2012-04-28T08:56:07.000Z</time>
      </trkpt>
      <trkpt lat="45.12832" lon="6.10618">
        <ele>2759.3999023438</ele>
        <time>2012-04-28T08:56:12.000Z</time>
      </trkpt>
      <trkpt lat="45.12833" lon="6.10618">
        <ele>2760</ele>
        <time>2012-04-28T08:56:13.000Z</time>
      </trkpt>
      <trkpt lat="45.12829" lon="6.10631">
        <ele>2768.1999511719</ele>
        <time>2012-04-28T08:56:55.000Z</time>
      </trkpt>
      <trkpt lat="45.12826" lon="6.10621">
        <ele>2772</ele>
        <time>2012-04-28T08:57:05.000Z</time>
      </trkpt>
      <trkpt lat="45.12832" lon="6.10612">
        <ele>2771.6000976562</ele>
        <time>2012-04-28T08:57:35.000Z</time>
      </trkpt>
      <trkpt lat="45.1283" lon="6.10608">
        <ele>2769.6000976562</ele>
        <time>2012-04-28T08:57:40.000Z</time>
      </trkpt>
      <trkpt lat="45.12827" lon="6.10608">
        <ele>2772.1999511719</ele>
        <time>2012-04-28T08:57:45.000Z</time>
      </trkpt>
      <trkpt lat="45.12827" lon="6.10608">
        <ele>2772.3999023438</ele>
        <time>2012-04-28T08:57:46.000Z</time>
      </trkpt>
      <trkpt lat="45.12826" lon="6.10608">
        <ele>2772.6000976562</ele>
        <time>2012-04-28T08:57:48.000Z</time>
      </trkpt>
      <trkpt lat="45.12824" lon="6.1061">
        <ele>2769.1999511719</ele>
        <time>2012-04-28T08:58:06.000Z</time>
      </trkpt>
      <trkpt lat="45.12824" lon="6.1061">
        <ele>2766.6000976562</ele>
        <time>2012-04-28T08:58:08.000Z</time>
      </trkpt>
      <trkpt lat="45.12821" lon="6.10611">
        <ele>2768.8000488281</ele>
        <time>2012-04-28T08:58:15.000Z</time>
      </trkpt>
      <trkpt lat="45.12816" lon="6.10608">
        <ele>2772.3999023438</ele>
        <time>2012-04-28T08:58:22.000Z</time>
      </trkpt>
      <trkpt lat="45.12815" lon="6.10607">
        <ele>2770</ele>
        <time>2012-04-28T08:58:24.000Z</time>
      </trkpt>
      <trkpt lat="45.12807" lon="6.10609">
        <ele>2770.3999023438</ele>
        <time>2012-04-28T08:58:42.000Z</time>
      </trkpt>
      <trkpt lat="45.128" lon="6.10607">
        <ele>2769.1999511719</ele>
        <time>2012-04-28T08:58:49.000Z</time>
      </trkpt>
      <trkpt lat="45.12794" lon="6.10606">
        <ele>2770.6000976562</ele>
        <time>2012-04-28T08:58:52.000Z</time>
      </trkpt>
      <trkpt lat="45.12786" lon="6.10605">
        <ele>2768.3999023438</ele>
        <time>2012-04-28T08:58:57.000Z</time>
      </trkpt>
      <trkpt lat="45.12781" lon="6.10606">
        <ele>2770.3999023438</ele>
        <time>2012-04-28T08:59:02.000Z</time>
      </trkpt>
      <trkpt lat="45.12772" lon="6.10607">
        <ele>2769.8000488281</ele>
        <time>2012-04-28T08:59:11.000Z</time>
      </trkpt>
      <trkpt lat="45.12767" lon="6.10607">
        <ele>2768</ele>
        <time>2012-04-28T08:59:15.000Z</time>
      </trkpt>
      <trkpt lat="45.12763" lon="6.10607">
        <ele>2770.1999511719</ele>
        <time>2012-04-28T08:59:21.000Z</time>
      </trkpt>
      <trkpt lat="45.12763" lon="6.10607">
        <ele>2771.3999023438</ele>
        <time>2012-04-28T08:59:22.000Z</time>
      </trkpt>
      <trkpt lat="45.12756" lon="6.10608">
        <ele>2770.8000488281</ele>
        <time>2012-04-28T08:59:31.000Z</time>
      </trkpt>
      <trkpt lat="45.12755" lon="6.10607">
        <ele>2770.3999023438</ele>
        <time>2012-04-28T08:59:32.000Z</time>
      </trkpt>
      <trkpt lat="45.1275" lon="6.10607">
        <ele>2769.8000488281</ele>
        <time>2012-04-28T08:59:39.000Z</time>
      </trkpt>
      <trkpt lat="45.12748" lon="6.10606">
        <ele>2769.3999023438</ele>
        <time>2012-04-28T08:59:43.000Z</time>
      </trkpt>
      <trkpt lat="45.12743" lon="6.10605">
        <ele>2769.1999511719</ele>
        <time>2012-04-28T08:59:48.000Z</time>
      </trkpt>
      <trkpt lat="45.12739" lon="6.10606">
        <ele>2770.6000976562</ele>
        <time>2012-04-28T08:59:54.000Z</time>
      </trkpt>
      <trkpt lat="45.12735" lon="6.10606">
        <ele>2767.8000488281</ele>
        <time>2012-04-28T08:59:58.000Z</time>
      </trkpt>
      <trkpt lat="45.1273" lon="6.10605">
        <ele>2765.1999511719</ele>
        <time>2012-04-28T09:00:04.000Z</time>
      </trkpt>
      <trkpt lat="45.12727" lon="6.10605">
        <ele>2764</ele>
        <time>2012-04-28T09:00:06.000Z</time>
      </trkpt>
      <trkpt lat="45.12716" lon="6.10606">
        <ele>2767.3999023438</ele>
        <time>2012-04-28T09:00:11.000Z</time>
      </trkpt>
      <trkpt lat="45.12707" lon="6.10606">
        <ele>2770</ele>
        <time>2012-04-28T09:00:16.000Z</time>
      </trkpt>
      <trkpt lat="45.127" lon="6.10609">
        <ele>2765.3999023438</ele>
        <time>2012-04-28T09:00:21.000Z</time>
      </trkpt>
      <trkpt lat="45.12692" lon="6.10608">
        <ele>2763.8000488281</ele>
        <time>2012-04-28T09:00:28.000Z</time>
      </trkpt>
      <trkpt lat="45.12683" lon="6.10607">
        <ele>2765.8000488281</ele>
        <time>2012-04-28T09:00:33.000Z</time>
      </trkpt>
      <trkpt lat="45.12677" lon="6.10607">
        <ele>2767.6000976562</ele>
        <time>2012-04-28T09:00:36.000Z</time>
      </trkpt>
      <trkpt lat="45.12662" lon="6.10607">
        <ele>2762.8000488281</ele>
        <time>2012-04-28T09:00:43.000Z</time>
      </trkpt>
      <trkpt lat="45.12658" lon="6.10606">
        <ele>2762.6000976562</ele>
        <time>2012-04-28T09:00:48.000Z</time>
      </trkpt>
      <trkpt lat="45.12655" lon="6.10606">
        <ele>2763.6000976562</ele>
        <time>2012-04-28T09:00:52.000Z</time>
      </trkpt>
      <trkpt lat="45.12646" lon="6.10605">
        <ele>2760</ele>
        <time>2012-04-28T09:00:59.000Z</time>
      </trkpt>
      <trkpt lat="45.12636" lon="6.10604">
        <ele>2754.1999511719</ele>
        <time>2012-04-28T09:01:06.000Z</time>
      </trkpt>
      <trkpt lat="45.12621" lon="6.10603">
        <ele>2754.3999023438</ele>
        <time>2012-04-28T09:01:14.000Z</time>
      </trkpt>
      <trkpt lat="45.12606" lon="6.10599">
        <ele>2758.6000976562</ele>
        <time>2012-04-28T09:01:21.000Z</time>
      </trkpt>
      <trkpt lat="45.12603" lon="6.10599">
        <ele>2758.8000488281</ele>
        <time>2012-04-28T09:01:22.000Z</time>
      </trkpt>
      <trkpt lat="45.12586" lon="6.10601">
        <ele>2757.3999023438</ele>
        <time>2012-04-28T09:01:27.000Z</time>
      </trkpt>
      <trkpt lat="45.12571" lon="6.10593">
        <ele>2757.3999023438</ele>
        <time>2012-04-28T09:01:31.000Z</time>
      </trkpt>
      <trkpt lat="45.12559" lon="6.10592">
        <ele>2758</ele>
        <time>2012-04-28T09:01:34.000Z</time>
      </trkpt>
      <trkpt lat="45.1254" lon="6.1058">
        <ele>2753</ele>
        <time>2012-04-28T09:01:39.000Z</time>
      </trkpt>
      <trkpt lat="45.12524" lon="6.10579">
        <ele>2751.1999511719</ele>
        <time>2012-04-28T09:01:42.000Z</time>
      </trkpt>
      <trkpt lat="45.12513" lon="6.10568">
        <ele>2742.3999023438</ele>
        <time>2012-04-28T09:01:45.000Z</time>
      </trkpt>
      <trkpt lat="45.12496" lon="6.10566">
        <ele>2737.3999023438</ele>
        <time>2012-04-28T09:01:48.000Z</time>
      </trkpt>
      <trkpt lat="45.12487" lon="6.10553">
        <ele>2732.8000488281</ele>
        <time>2012-04-28T09:01:51.000Z</time>
      </trkpt>
      <trkpt lat="45.12473" lon="6.10552">
        <ele>2729</ele>
        <time>2012-04-28T09:01:54.000Z</time>
      </trkpt>
      <trkpt lat="45.12455" lon="6.10546">
        <ele>2723.1999511719</ele>
        <time>2012-04-28T09:01:57.000Z</time>
      </trkpt>
      <trkpt lat="45.12433" lon="6.10542">
        <ele>2716.1999511719</ele>
        <time>2012-04-28T09:02:00.000Z</time>
      </trkpt>
      <trkpt lat="45.12426" lon="6.10548">
        <ele>2712.8000488281</ele>
        <time>2012-04-28T09:02:02.000Z</time>
      </trkpt>
      <trkpt lat="45.12421" lon="6.10553">
        <ele>2708.3999023438</ele>
        <time>2012-04-28T09:02:07.000Z</time>
      </trkpt>
      <trkpt lat="45.12421" lon="6.10552">
        <ele>2705.6000976562</ele>
        <time>2012-04-28T09:02:08.000Z</time>
      </trkpt>
      <trkpt lat="45.12417" lon="6.10558">
        <ele>2706</ele>
        <time>2012-04-28T09:03:32.000Z</time>
      </trkpt>
      <trkpt lat="45.1241" lon="6.10559">
        <ele>2704.6000976562</ele>
        <time>2012-04-28T09:03:34.000Z</time>
      </trkpt>
      <trkpt lat="45.12401" lon="6.10564">
        <ele>2702.1999511719</ele>
        <time>2012-04-28T09:03:36.000Z</time>
      </trkpt>
      <trkpt lat="45.12373" lon="6.10571">
        <ele>2695</ele>
        <time>2012-04-28T09:03:40.000Z</time>
      </trkpt>
      <trkpt lat="45.12354" lon="6.10569">
        <ele>2690</ele>
        <time>2012-04-28T09:03:43.000Z</time>
      </trkpt>
      <trkpt lat="45.12347" lon="6.10568">
        <ele>2687.6000976562</ele>
        <time>2012-04-28T09:03:44.000Z</time>
      </trkpt>
      <trkpt lat="45.12321" lon="6.10547">
        <ele>2682.3999023438</ele>
        <time>2012-04-28T09:03:49.000Z</time>
      </trkpt>
      <trkpt lat="45.12314" lon="6.10531">
        <ele>2678.6000976562</ele>
        <time>2012-04-28T09:03:51.000Z</time>
      </trkpt>
      <trkpt lat="45.12293" lon="6.1051">
        <ele>2667.8000488281</ele>
        <time>2012-04-28T09:03:56.000Z</time>
      </trkpt>
      <trkpt lat="45.12289" lon="6.10512">
        <ele>2663.1999511719</ele>
        <time>2012-04-28T09:03:59.000Z</time>
      </trkpt>
      <trkpt lat="45.12289" lon="6.10512">
        <ele>2662.3999023438</ele>
        <time>2012-04-28T09:04:00.000Z</time>
      </trkpt>
      <trkpt lat="45.12288" lon="6.10516">
        <ele>2658.3999023438</ele>
        <time>2012-04-28T09:04:15.000Z</time>
      </trkpt>
      <trkpt lat="45.12273" lon="6.10522">
        <ele>2658.3999023438</ele>
        <time>2012-04-28T09:04:18.000Z</time>
      </trkpt>
      <trkpt lat="45.12268" lon="6.10527">
        <ele>2657.8000488281</ele>
        <time>2012-04-28T09:04:19.000Z</time>
      </trkpt>
      <trkpt lat="45.12242" lon="6.10559">
        <ele>2646.6000976562</ele>
        <time>2012-04-28T09:04:24.000Z</time>
      </trkpt>
      <trkpt lat="45.12228" lon="6.10572">
        <ele>2643</ele>
        <time>2012-04-28T09:04:27.000Z</time>
      </trkpt>
      <trkpt lat="45.12203" lon="6.10575">
        <ele>2640.1999511719</ele>
        <time>2012-04-28T09:04:31.000Z</time>
      </trkpt>
      <trkpt lat="45.12188" lon="6.10572">
        <ele>2634.6000976562</ele>
        <time>2012-04-28T09:04:33.000Z</time>
      </trkpt>
      <trkpt lat="45.12134" lon="6.10552">
        <ele>2620.1999511719</ele>
        <time>2012-04-28T09:04:39.000Z</time>
      </trkpt>
      <trkpt lat="45.12105" lon="6.10522">
        <ele>2617.8000488281</ele>
        <time>2012-04-28T09:04:43.000Z</time>
      </trkpt>
      <trkpt lat="45.12085" lon="6.10479">
        <ele>2615.6000976562</ele>
        <time>2012-04-28T09:04:47.000Z</time>
      </trkpt>
      <trkpt lat="45.12071" lon="6.10456">
        <ele>2613.8000488281</ele>
        <time>2012-04-28T09:04:50.000Z</time>
      </trkpt>
      <trkpt lat="45.12054" lon="6.10442">
        <ele>2611.3999023438</ele>
        <time>2012-04-28T09:04:53.000Z</time>
      </trkpt>
      <trkpt lat="45.12031" lon="6.10426">
        <ele>2606.1999511719</ele>
        <time>2012-04-28T09:04:57.000Z</time>
      </trkpt>
      <trkpt lat="45.12013" lon="6.1043">
        <ele>2602.6000976562</ele>
        <time>2012-04-28T09:05:00.000Z</time>
      </trkpt>
      <trkpt lat="45.12006" lon="6.10432">
        <ele>2602.1999511719</ele>
        <time>2012-04-28T09:05:01.000Z</time>
      </trkpt>
      <trkpt lat="45.11972" lon="6.10432">
        <ele>2597.8000488281</ele>
        <time>2012-04-28T09:05:08.000Z</time>
      </trkpt>
      <trkpt lat="45.11947" lon="6.10423">
        <ele>2596.1999511719</ele>
        <time>2012-04-28T09:05:15.000Z</time>
      </trkpt>
      <trkpt lat="45.11928" lon="6.10418">
        <ele>2597</ele>
        <time>2012-04-28T09:05:21.000Z</time>
      </trkpt>
      <trkpt lat="45.11912" lon="6.10417">
        <ele>2598.1999511719</ele>
        <time>2012-04-28T09:05:28.000Z</time>
      </trkpt>
      <trkpt lat="45.11916" lon="6.10408">
        <ele>2596</ele>
        <time>2012-04-28T09:05:32.000Z</time>
      </trkpt>
      <trkpt lat="45.11917" lon="6.10398">
        <ele>2587.8000488281</ele>
        <time>2012-04-28T09:05:35.000Z</time>
      </trkpt>
      <trkpt lat="45.11918" lon="6.10377">
        <ele>2580</ele>
        <time>2012-04-28T09:05:39.000Z</time>
      </trkpt>
      <trkpt lat="45.11907" lon="6.10371">
        <ele>2577.3999023438</ele>
        <time>2012-04-28T09:05:42.000Z</time>
      </trkpt>
      <trkpt lat="45.11908" lon="6.10367">
        <ele>2574.1999511719</ele>
        <time>2012-04-28T09:05:45.000Z</time>
      </trkpt>
      <trkpt lat="45.11918" lon="6.10355">
        <ele>2572.6000976562</ele>
        <time>2012-04-28T09:05:50.000Z</time>
      </trkpt>
      <trkpt lat="45.11928" lon="6.10344">
        <ele>2571</ele>
        <time>2012-04-28T09:05:52.000Z</time>
      </trkpt>
      <trkpt lat="45.11953" lon="6.1031">
        <ele>2564</ele>
        <time>2012-04-28T09:05:57.000Z</time>
      </trkpt>
      <trkpt lat="45.11941" lon="6.10304">
        <ele>2563.3999023438</ele>
        <time>2012-04-28T09:06:01.000Z</time>
      </trkpt>
      <trkpt lat="45.11932" lon="6.10301">
        <ele>2562.1999511719</ele>
        <time>2012-04-28T09:06:04.000Z</time>
      </trkpt>
      <trkpt lat="45.11918" lon="6.10285">
        <ele>2557.1999511719</ele>
        <time>2012-04-28T09:06:08.000Z</time>
      </trkpt>
      <trkpt lat="45.11911" lon="6.10277">
        <ele>2554.8000488281</ele>
        <time>2012-04-28T09:06:10.000Z</time>
      </trkpt>
      <trkpt lat="45.11884" lon="6.10263">
        <ele>2547.3999023438</ele>
        <time>2012-04-28T09:06:15.000Z</time>
      </trkpt>
      <trkpt lat="45.1185" lon="6.10242">
        <ele>2538.6000976562</ele>
        <time>2012-04-28T09:06:20.000Z</time>
      </trkpt>
      <trkpt lat="45.11815" lon="6.10219">
        <ele>2530.6000976562</ele>
        <time>2012-04-28T09:06:24.000Z</time>
      </trkpt>
      <trkpt lat="45.11782" lon="6.102">
        <ele>2525.8000488281</ele>
        <time>2012-04-28T09:06:28.000Z</time>
      </trkpt>
      <trkpt lat="45.11761" lon="6.10183">
        <ele>2523.3999023438</ele>
        <time>2012-04-28T09:06:31.000Z</time>
      </trkpt>
      <trkpt lat="45.11743" lon="6.10166">
        <ele>2520</ele>
        <time>2012-04-28T09:06:34.000Z</time>
      </trkpt>
      <trkpt lat="45.11722" lon="6.10146">
        <ele>2514.1999511719</ele>
        <time>2012-04-28T09:06:38.000Z</time>
      </trkpt>
      <trkpt lat="45.11715" lon="6.10133">
        <ele>2512</ele>
        <time>2012-04-28T09:06:41.000Z</time>
      </trkpt>
      <trkpt lat="45.11692" lon="6.10106">
        <ele>2499.3999023438</ele>
        <time>2012-04-28T09:06:46.000Z</time>
      </trkpt>
      <trkpt lat="45.11681" lon="6.10091">
        <ele>2492.1999511719</ele>
        <time>2012-04-28T09:06:49.000Z</time>
      </trkpt>
      <trkpt lat="45.11673" lon="6.10079">
        <ele>2486.8000488281</ele>
        <time>2012-04-28T09:06:52.000Z</time>
      </trkpt>
      <trkpt lat="45.11656" lon="6.10054">
        <ele>2478.3999023438</ele>
        <time>2012-04-28T09:06:57.000Z</time>
      </trkpt>
      <trkpt lat="45.11656" lon="6.10058">
        <ele>2476</ele>
        <time>2012-04-28T09:07:00.000Z</time>
      </trkpt>
      <trkpt lat="45.11654" lon="6.1006">
        <ele>2474.1999511719</ele>
        <time>2012-04-28T09:07:04.000Z</time>
      </trkpt>
      <trkpt lat="45.11643" lon="6.10064">
        <ele>2473.1999511719</ele>
        <time>2012-04-28T09:07:09.000Z</time>
      </trkpt>
      <trkpt lat="45.11626" lon="6.10071">
        <ele>2469.6000976562</ele>
        <time>2012-04-28T09:07:13.000Z</time>
      </trkpt>
      <trkpt lat="45.11614" lon="6.10073">
        <ele>2465.1999511719</ele>
        <time>2012-04-28T09:07:15.000Z</time>
      </trkpt>
      <trkpt lat="45.11593" lon="6.10058">
        <ele>2454.6000976562</ele>
        <time>2012-04-28T09:07:19.000Z</time>
      </trkpt>
      <trkpt lat="45.11584" lon="6.10027">
        <ele>2446.3999023438</ele>
        <time>2012-04-28T09:07:22.000Z</time>
      </trkpt>
      <trkpt lat="45.11587" lon="6.09991">
        <ele>2438.3999023438</ele>
        <time>2012-04-28T09:07:26.000Z</time>
      </trkpt>
      <trkpt lat="45.11588" lon="6.0998">
        <ele>2436</ele>
        <time>2012-04-28T09:07:27.000Z</time>
      </trkpt>
      <trkpt lat="45.11567" lon="6.09943">
        <ele>2432</ele>
        <time>2012-04-28T09:07:32.000Z</time>
      </trkpt>
      <trkpt lat="45.1155" lon="6.09935">
        <ele>2424.3999023438</ele>
        <time>2012-04-28T09:07:35.000Z</time>
      </trkpt>
      <trkpt lat="45.11538" lon="6.09927">
        <ele>2420.1999511719</ele>
        <time>2012-04-28T09:07:37.000Z</time>
      </trkpt>
      <trkpt lat="45.11506" lon="6.09903">
        <ele>2407.3999023438</ele>
        <time>2012-04-28T09:07:42.000Z</time>
      </trkpt>
      <trkpt lat="45.11484" lon="6.09884">
        <ele>2400.6000976562</ele>
        <time>2012-04-28T09:07:45.000Z</time>
      </trkpt>
      <trkpt lat="45.11429" lon="6.09852">
        <ele>2391</ele>
        <time>2012-04-28T09:07:53.000Z</time>
      </trkpt>
      <trkpt lat="45.11408" lon="6.09842">
        <ele>2392.8000488281</ele>
        <time>2012-04-28T09:07:58.000Z</time>
      </trkpt>
      <trkpt lat="45.11395" lon="6.09843">
        <ele>2389.8000488281</ele>
        <time>2012-04-28T09:08:03.000Z</time>
      </trkpt>
      <trkpt lat="45.11387" lon="6.09845">
        <ele>2387.1999511719</ele>
        <time>2012-04-28T09:08:09.000Z</time>
      </trkpt>
      <trkpt lat="45.11371" lon="6.0984">
        <ele>2386.3999023438</ele>
        <time>2012-04-28T09:08:16.000Z</time>
      </trkpt>
      <trkpt lat="45.11367" lon="6.09839">
        <ele>2385</ele>
        <time>2012-04-28T09:08:17.000Z</time>
      </trkpt>
      <trkpt lat="45.11349" lon="6.09826">
        <ele>2381.1999511719</ele>
        <time>2012-04-28T09:08:21.000Z</time>
      </trkpt>
      <trkpt lat="45.1132" lon="6.09805">
        <ele>2369.1999511719</ele>
        <time>2012-04-28T09:08:26.000Z</time>
      </trkpt>
      <trkpt lat="45.11293" lon="6.09787">
        <ele>2363.1999511719</ele>
        <time>2012-04-28T09:08:31.000Z</time>
      </trkpt>
      <trkpt lat="45.11281" lon="6.09779">
        <ele>2365.8000488281</ele>
        <time>2012-04-28T09:08:35.000Z</time>
      </trkpt>
      <trkpt lat="45.11261" lon="6.09774">
        <ele>2360.1999511719</ele>
        <time>2012-04-28T09:08:42.000Z</time>
      </trkpt>
      <trkpt lat="45.11247" lon="6.09764">
        <ele>2355</ele>
        <time>2012-04-28T09:08:45.000Z</time>
      </trkpt>
      <trkpt lat="45.11234" lon="6.09748">
        <ele>2351.3999023438</ele>
        <time>2012-04-28T09:08:47.000Z</time>
      </trkpt>
      <trkpt lat="45.11222" lon="6.09724">
        <ele>2345.6000976562</ele>
        <time>2012-04-28T09:08:49.000Z</time>
      </trkpt>
      <trkpt lat="45.11206" lon="6.0967">
        <ele>2336.8000488281</ele>
        <time>2012-04-28T09:08:53.000Z</time>
      </trkpt>
      <trkpt lat="45.11194" lon="6.09633">
        <ele>2330.6000976562</ele>
        <time>2012-04-28T09:08:56.000Z</time>
      </trkpt>
      <trkpt lat="45.1119" lon="6.09621">
        <ele>2328</ele>
        <time>2012-04-28T09:08:57.000Z</time>
      </trkpt>
      <trkpt lat="45.11182" lon="6.09597">
        <ele>2323</ele>
        <time>2012-04-28T09:08:59.000Z</time>
      </trkpt>
      <trkpt lat="45.11169" lon="6.09543">
        <ele>2311.6000976562</ele>
        <time>2012-04-28T09:09:03.000Z</time>
      </trkpt>
      <trkpt lat="45.11167" lon="6.09516">
        <ele>2305.8000488281</ele>
        <time>2012-04-28T09:09:05.000Z</time>
      </trkpt>
      <trkpt lat="45.11163" lon="6.09473">
        <ele>2293.3999023438</ele>
        <time>2012-04-28T09:09:08.000Z</time>
      </trkpt>
      <trkpt lat="45.11159" lon="6.09424">
        <ele>2279.1999511719</ele>
        <time>2012-04-28T09:09:12.000Z</time>
      </trkpt>
      <trkpt lat="45.11158" lon="6.09372">
        <ele>2264.3999023438</ele>
        <time>2012-04-28T09:09:17.000Z</time>
      </trkpt>
      <trkpt lat="45.11164" lon="6.09365">
        <ele>2259.1999511719</ele>
        <time>2012-04-28T09:09:20.000Z</time>
      </trkpt>
      <trkpt lat="45.11165" lon="6.09365">
        <ele>2258.3999023438</ele>
        <time>2012-04-28T09:09:22.000Z</time>
      </trkpt>
      <trkpt lat="45.11157" lon="6.0937">
        <ele>2259</ele>
        <time>2012-04-28T09:09:29.000Z</time>
      </trkpt>
      <trkpt lat="45.1116" lon="6.0937">
        <ele>2259</ele>
        <time>2012-04-28T09:09:31.000Z</time>
      </trkpt>
      <trkpt lat="45.1116" lon="6.09363">
        <ele>2256.8000488281</ele>
        <time>2012-04-28T09:10:09.000Z</time>
      </trkpt>
      <trkpt lat="45.11156" lon="6.0936">
        <ele>2257.8000488281</ele>
        <time>2012-04-28T09:10:11.000Z</time>
      </trkpt>
      <trkpt lat="45.11144" lon="6.0933">
        <ele>2258</ele>
        <time>2012-04-28T09:10:16.000Z</time>
      </trkpt>
      <trkpt lat="45.11121" lon="6.09308">
        <ele>2256</ele>
        <time>2012-04-28T09:10:20.000Z</time>
      </trkpt>
      <trkpt lat="45.11102" lon="6.09297">
        <ele>2254</ele>
        <time>2012-04-28T09:10:23.000Z</time>
      </trkpt>
      <trkpt lat="45.11087" lon="6.0929">
        <ele>2250</ele>
        <time>2012-04-28T09:10:25.000Z</time>
      </trkpt>
      <trkpt lat="45.11047" lon="6.09275">
        <ele>2232</ele>
        <time>2012-04-28T09:10:30.000Z</time>
      </trkpt>
      <trkpt lat="45.11019" lon="6.09265">
        <ele>2215.3999023438</ele>
        <time>2012-04-28T09:10:34.000Z</time>
      </trkpt>
      <trkpt lat="45.10993" lon="6.09237">
        <ele>2203.3999023438</ele>
        <time>2012-04-28T09:10:38.000Z</time>
      </trkpt>
      <trkpt lat="45.1097" lon="6.09204">
        <ele>2190.1999511719</ele>
        <time>2012-04-28T09:10:43.000Z</time>
      </trkpt>
      <trkpt lat="45.1096" lon="6.09188">
        <ele>2185.8000488281</ele>
        <time>2012-04-28T09:10:45.000Z</time>
      </trkpt>
      <trkpt lat="45.10937" lon="6.09156">
        <ele>2177.1999511719</ele>
        <time>2012-04-28T09:10:49.000Z</time>
      </trkpt>
      <trkpt lat="45.10928" lon="6.0914">
        <ele>2170.6000976562</ele>
        <time>2012-04-28T09:10:51.000Z</time>
      </trkpt>
      <trkpt lat="45.10908" lon="6.09112">
        <ele>2160</ele>
        <time>2012-04-28T09:10:55.000Z</time>
      </trkpt>
      <trkpt lat="45.10895" lon="6.09098">
        <ele>2148.1999511719</ele>
        <time>2012-04-28T09:10:59.000Z</time>
      </trkpt>
      <trkpt lat="45.10883" lon="6.0908">
        <ele>2142</ele>
        <time>2012-04-28T09:11:02.000Z</time>
      </trkpt>
      <trkpt lat="45.10865" lon="6.09052">
        <ele>2133.6000976562</ele>
        <time>2012-04-28T09:11:07.000Z</time>
      </trkpt>
      <trkpt lat="45.10863" lon="6.09035">
        <ele>2129.6000976562</ele>
        <time>2012-04-28T09:11:10.000Z</time>
      </trkpt>
      <trkpt lat="45.10864" lon="6.09011">
        <ele>2125</ele>
        <time>2012-04-28T09:11:13.000Z</time>
      </trkpt>
      <trkpt lat="45.10864" lon="6.08992">
        <ele>2119</ele>
        <time>2012-04-28T09:11:16.000Z</time>
      </trkpt>
      <trkpt lat="45.10861" lon="6.08983">
        <ele>2117.3999023438</ele>
        <time>2012-04-28T09:11:19.000Z</time>
      </trkpt>
      <trkpt lat="45.10863" lon="6.08977">
        <ele>2118.8000488281</ele>
        <time>2012-04-28T09:11:22.000Z</time>
      </trkpt>
      <trkpt lat="45.10864" lon="6.08976">
        <ele>2118</ele>
        <time>2012-04-28T09:11:25.000Z</time>
      </trkpt>
      <trkpt lat="45.10862" lon="6.08979">
        <ele>2114.6000976562</ele>
        <time>2012-04-28T09:11:38.000Z</time>
      </trkpt>
      <trkpt lat="45.10862" lon="6.08979">
        <ele>2115</ele>
        <time>2012-04-28T09:11:39.000Z</time>
      </trkpt>
      <trkpt lat="45.10859" lon="6.08981">
        <ele>2112.1999511719</ele>
        <time>2012-04-28T09:11:48.000Z</time>
      </trkpt>
      <trkpt lat="45.10857" lon="6.08986">
        <ele>2114.1999511719</ele>
        <time>2012-04-28T09:11:53.000Z</time>
      </trkpt>
      <trkpt lat="45.10857" lon="6.08986">
        <ele>2108.1999511719</ele>
        <time>2012-04-28T09:13:01.000Z</time>
      </trkpt>
      <trkpt lat="45.10862" lon="6.08998">
        <ele>2114.1999511719</ele>
        <time>2012-04-28T09:16:08.000Z</time>
      </trkpt>
      <trkpt lat="45.10863" lon="6.08998">
        <ele>2113</ele>
        <time>2012-04-28T09:16:26.000Z</time>
      </trkpt>
      <trkpt lat="45.10864" lon="6.09003">
        <ele>2111.6000976562</ele>
        <time>2012-04-28T09:16:30.000Z</time>
      </trkpt>
      <trkpt lat="45.10866" lon="6.09016">
        <ele>2114.8000488281</ele>
        <time>2012-04-28T09:16:40.000Z</time>
      </trkpt>
      <trkpt lat="45.10866" lon="6.09018">
        <ele>2115.6000976562</ele>
        <time>2012-04-28T09:16:42.000Z</time>
      </trkpt>
      <trkpt lat="45.10868" lon="6.09028">
        <ele>2118.3999023438</ele>
        <time>2012-04-28T09:16:52.000Z</time>
      </trkpt>
      <trkpt lat="45.10868" lon="6.09031">
        <ele>2118.6000976562</ele>
        <time>2012-04-28T09:16:55.000Z</time>
      </trkpt>
      <trkpt lat="45.10869" lon="6.09039">
        <ele>2120</ele>
        <time>2012-04-28T09:17:02.000Z</time>
      </trkpt>
      <trkpt lat="45.1087" lon="6.09046">
        <ele>2122</ele>
        <time>2012-04-28T09:17:11.000Z</time>
      </trkpt>
      <trkpt lat="45.10873" lon="6.09052">
        <ele>2121.1999511719</ele>
        <time>2012-04-28T09:17:19.000Z</time>
      </trkpt>
      <trkpt lat="45.10873" lon="6.09055">
        <ele>2123.1999511719</ele>
        <time>2012-04-28T09:17:22.000Z</time>
      </trkpt>
      <trkpt lat="45.10872" lon="6.09057">
        <ele>2123.3999023438</ele>
        <time>2012-04-28T09:17:24.000Z</time>
      </trkpt>
      <trkpt lat="45.10872" lon="6.09063">
        <ele>2123.8000488281</ele>
        <time>2012-04-28T09:17:40.000Z</time>
      </trkpt>
      <trkpt lat="45.10872" lon="6.09065">
        <ele>2125.1999511719</ele>
        <time>2012-04-28T09:17:43.000Z</time>
      </trkpt>
      <trkpt lat="45.10875" lon="6.09074">
        <ele>2125.8000488281</ele>
        <time>2012-04-28T09:17:52.000Z</time>
      </trkpt>
      <trkpt lat="45.10879" lon="6.09079">
        <ele>2128</ele>
        <time>2012-04-28T09:18:00.000Z</time>
      </trkpt>
      <trkpt lat="45.1088" lon="6.09082">
        <ele>2129.1999511719</ele>
        <time>2012-04-28T09:18:04.000Z</time>
      </trkpt>
      <trkpt lat="45.10882" lon="6.09084">
        <ele>2130.6000976562</ele>
        <time>2012-04-28T09:18:07.000Z</time>
      </trkpt>
      <trkpt lat="45.10883" lon="6.09088">
        <ele>2131</ele>
        <time>2012-04-28T09:18:13.000Z</time>
      </trkpt>
      <trkpt lat="45.10888" lon="6.09095">
        <ele>2132</ele>
        <time>2012-04-28T09:18:23.000Z</time>
      </trkpt>
      <trkpt lat="45.10893" lon="6.09098">
        <ele>2135</ele>
        <time>2012-04-28T09:18:31.000Z</time>
      </trkpt>
      <trkpt lat="45.10895" lon="6.09101">
        <ele>2138.8000488281</ele>
        <time>2012-04-28T09:18:36.000Z</time>
      </trkpt>
      <trkpt lat="45.10895" lon="6.09101">
        <ele>2139.1999511719</ele>
        <time>2012-04-28T09:18:37.000Z</time>
      </trkpt>
      <trkpt lat="45.10897" lon="6.09104">
        <ele>2139</ele>
        <time>2012-04-28T09:18:42.000Z</time>
      </trkpt>
      <trkpt lat="45.10901" lon="6.0911">
        <ele>2138</ele>
        <time>2012-04-28T09:18:50.000Z</time>
      </trkpt>
      <trkpt lat="45.10903" lon="6.09112">
        <ele>2138.6000976562</ele>
        <time>2012-04-28T09:18:55.000Z</time>
      </trkpt>
      <trkpt lat="45.10906" lon="6.09114">
        <ele>2140.6000976562</ele>
        <time>2012-04-28T09:19:02.000Z</time>
      </trkpt>
      <trkpt lat="45.10906" lon="6.09115">
        <ele>2140.8000488281</ele>
        <time>2012-04-28T09:19:03.000Z</time>
      </trkpt>
      <trkpt lat="45.10909" lon="6.09117">
        <ele>2141.8000488281</ele>
        <time>2012-04-28T09:19:08.000Z</time>
      </trkpt>
      <trkpt lat="45.10911" lon="6.0912">
        <ele>2144</ele>
        <time>2012-04-28T09:19:13.000Z</time>
      </trkpt>
      <trkpt lat="45.10913" lon="6.09123">
        <ele>2145.3999023438</ele>
        <time>2012-04-28T09:19:18.000Z</time>
      </trkpt>
      <trkpt lat="45.10914" lon="6.09123">
        <ele>2145.8000488281</ele>
        <time>2012-04-28T09:19:19.000Z</time>
      </trkpt>
      <trkpt lat="45.10916" lon="6.09125">
        <ele>2146.6000976562</ele>
        <time>2012-04-28T09:19:25.000Z</time>
      </trkpt>
      <trkpt lat="45.10919" lon="6.09129">
        <ele>2149.6000976562</ele>
        <time>2012-04-28T09:19:33.000Z</time>
      </trkpt>
      <trkpt lat="45.1092" lon="6.0913">
        <ele>2149.8000488281</ele>
        <time>2012-04-28T09:19:34.000Z</time>
      </trkpt>
      <trkpt lat="45.10922" lon="6.09133">
        <ele>2150.1999511719</ele>
        <time>2012-04-28T09:19:42.000Z</time>
      </trkpt>
      <trkpt lat="45.10925" lon="6.09137">
        <ele>2152.6000976562</ele>
        <time>2012-04-28T09:19:51.000Z</time>
      </trkpt>
      <trkpt lat="45.10929" lon="6.09142">
        <ele>2153.8000488281</ele>
        <time>2012-04-28T09:19:58.000Z</time>
      </trkpt>
      <trkpt lat="45.10931" lon="6.09146">
        <ele>2155.1999511719</ele>
        <time>2012-04-28T09:20:03.000Z</time>
      </trkpt>
      <trkpt lat="45.10933" lon="6.0915">
        <ele>2157</ele>
        <time>2012-04-28T09:20:09.000Z</time>
      </trkpt>
      <trkpt lat="45.10937" lon="6.09154">
        <ele>2158.6000976562</ele>
        <time>2012-04-28T09:20:17.000Z</time>
      </trkpt>
      <trkpt lat="45.1094" lon="6.0916">
        <ele>2159</ele>
        <time>2012-04-28T09:20:27.000Z</time>
      </trkpt>
      <trkpt lat="45.10942" lon="6.09164">
        <ele>2160.6000976562</ele>
        <time>2012-04-28T09:20:32.000Z</time>
      </trkpt>
      <trkpt lat="45.10945" lon="6.09168">
        <ele>2163.1999511719</ele>
        <time>2012-04-28T09:20:41.000Z</time>
      </trkpt>
      <trkpt lat="45.10948" lon="6.09174">
        <ele>2165</ele>
        <time>2012-04-28T09:20:49.000Z</time>
      </trkpt>
      <trkpt lat="45.10951" lon="6.09178">
        <ele>2169</ele>
        <time>2012-04-28T09:20:56.000Z</time>
      </trkpt>
      <trkpt lat="45.10954" lon="6.09183">
        <ele>2169.6000976562</ele>
        <time>2012-04-28T09:21:05.000Z</time>
      </trkpt>
      <trkpt lat="45.10954" lon="6.09183">
        <ele>2169.8000488281</ele>
        <time>2012-04-28T09:21:06.000Z</time>
      </trkpt>
      <trkpt lat="45.10957" lon="6.09189">
        <ele>2170.6000976562</ele>
        <time>2012-04-28T09:21:14.000Z</time>
      </trkpt>
      <trkpt lat="45.1096" lon="6.09193">
        <ele>2173.1999511719</ele>
        <time>2012-04-28T09:21:21.000Z</time>
      </trkpt>
      <trkpt lat="45.10963" lon="6.09199">
        <ele>2173.8000488281</ele>
        <time>2012-04-28T09:21:29.000Z</time>
      </trkpt>
      <trkpt lat="45.10966" lon="6.09206">
        <ele>2176.3999023438</ele>
        <time>2012-04-28T09:21:38.000Z</time>
      </trkpt>
      <trkpt lat="45.10967" lon="6.09209">
        <ele>2178.1999511719</ele>
        <time>2012-04-28T09:21:41.000Z</time>
      </trkpt>
      <trkpt lat="45.10967" lon="6.09213">
        <ele>2179.1999511719</ele>
        <time>2012-04-28T09:21:45.000Z</time>
      </trkpt>
      <trkpt lat="45.10968" lon="6.09217">
        <ele>2179.1999511719</ele>
        <time>2012-04-28T09:21:51.000Z</time>
      </trkpt>
      <trkpt lat="45.10971" lon="6.09223">
        <ele>2181.6000976562</ele>
        <time>2012-04-28T09:21:58.000Z</time>
      </trkpt>
      <trkpt lat="45.10973" lon="6.09226">
        <ele>2183</ele>
        <time>2012-04-28T09:22:04.000Z</time>
      </trkpt>
      <trkpt lat="45.10976" lon="6.09229">
        <ele>2182.8000488281</ele>
        <time>2012-04-28T09:22:10.000Z</time>
      </trkpt>
      <trkpt lat="45.10979" lon="6.09233">
        <ele>2183</ele>
        <time>2012-04-28T09:22:17.000Z</time>
      </trkpt>
      <trkpt lat="45.10983" lon="6.09235">
        <ele>2184.6000976562</ele>
        <time>2012-04-28T09:22:23.000Z</time>
      </trkpt>
      <trkpt lat="45.10985" lon="6.09238">
        <ele>2184.8000488281</ele>
        <time>2012-04-28T09:22:29.000Z</time>
      </trkpt>
      <trkpt lat="45.10988" lon="6.09241">
        <ele>2187.1999511719</ele>
        <time>2012-04-28T09:22:36.000Z</time>
      </trkpt>
      <trkpt lat="45.10989" lon="6.09241">
        <ele>2187.8000488281</ele>
        <time>2012-04-28T09:22:37.000Z</time>
      </trkpt>
      <trkpt lat="45.10993" lon="6.09245">
        <ele>2187.1999511719</ele>
        <time>2012-04-28T09:22:46.000Z</time>
      </trkpt>
      <trkpt lat="45.10996" lon="6.09248">
        <ele>2188.1999511719</ele>
        <time>2012-04-28T09:22:55.000Z</time>
      </trkpt>
      <trkpt lat="45.11001" lon="6.09252">
        <ele>2191.3999023438</ele>
        <time>2012-04-28T09:23:04.000Z</time>
      </trkpt>
      <trkpt lat="45.11002" lon="6.09253">
        <ele>2191.3999023438</ele>
        <time>2012-04-28T09:23:05.000Z</time>
      </trkpt>
      <trkpt lat="45.11005" lon="6.09256">
        <ele>2193</ele>
        <time>2012-04-28T09:23:12.000Z</time>
      </trkpt>
      <trkpt lat="45.11006" lon="6.09258">
        <ele>2194.6000976562</ele>
        <time>2012-04-28T09:23:16.000Z</time>
      </trkpt>
      <trkpt lat="45.11009" lon="6.09261">
        <ele>2196</ele>
        <time>2012-04-28T09:23:21.000Z</time>
      </trkpt>
      <trkpt lat="45.11011" lon="6.09262">
        <ele>2196.8000488281</ele>
        <time>2012-04-28T09:23:26.000Z</time>
      </trkpt>
      <trkpt lat="45.11015" lon="6.09265">
        <ele>2200.3999023438</ele>
        <time>2012-04-28T09:23:35.000Z</time>
      </trkpt>
      <trkpt lat="45.11019" lon="6.0927">
        <ele>2200.3999023438</ele>
        <time>2012-04-28T09:23:42.000Z</time>
      </trkpt>
      <trkpt lat="45.11022" lon="6.09271">
        <ele>2201.6000976562</ele>
        <time>2012-04-28T09:23:48.000Z</time>
      </trkpt>
      <trkpt lat="45.11023" lon="6.09271">
        <ele>2202.6000976562</ele>
        <time>2012-04-28T09:23:50.000Z</time>
      </trkpt>
      <trkpt lat="45.11028" lon="6.09274">
        <ele>2203.1999511719</ele>
        <time>2012-04-28T09:23:58.000Z</time>
      </trkpt>
      <trkpt lat="45.1103" lon="6.09275">
        <ele>2205</ele>
        <time>2012-04-28T09:24:02.000Z</time>
      </trkpt>
      <trkpt lat="45.11035" lon="6.09276">
        <ele>2206.8000488281</ele>
        <time>2012-04-28T09:24:09.000Z</time>
      </trkpt>
      <trkpt lat="45.11036" lon="6.09276">
        <ele>2208.3999023438</ele>
        <time>2012-04-28T09:24:11.000Z</time>
      </trkpt>
      <trkpt lat="45.11039" lon="6.09278">
        <ele>2209.8000488281</ele>
        <time>2012-04-28T09:24:17.000Z</time>
      </trkpt>
      <trkpt lat="45.11044" lon="6.09278">
        <ele>2211.3999023438</ele>
        <time>2012-04-28T09:24:25.000Z</time>
      </trkpt>
      <trkpt lat="45.11051" lon="6.09279">
        <ele>2210.8000488281</ele>
        <time>2012-04-28T09:24:35.000Z</time>
      </trkpt>
      <trkpt lat="45.11055" lon="6.0928">
        <ele>2213.1999511719</ele>
        <time>2012-04-28T09:24:40.000Z</time>
      </trkpt>
      <trkpt lat="45.11055" lon="6.0928">
        <ele>2213.6000976562</ele>
        <time>2012-04-28T09:24:41.000Z</time>
      </trkpt>
      <trkpt lat="45.11061" lon="6.09282">
        <ele>2216.3999023438</ele>
        <time>2012-04-28T09:24:51.000Z</time>
      </trkpt>
      <trkpt lat="45.11067" lon="6.09282">
        <ele>2217.6000976562</ele>
        <time>2012-04-28T09:24:59.000Z</time>
      </trkpt>
      <trkpt lat="45.11072" lon="6.09282">
        <ele>2218.6000976562</ele>
        <time>2012-04-28T09:25:06.000Z</time>
      </trkpt>
      <trkpt lat="45.11077" lon="6.09282">
        <ele>2220.3999023438</ele>
        <time>2012-04-28T09:25:15.000Z</time>
      </trkpt>
      <trkpt lat="45.11081" lon="6.09282">
        <ele>2224.3999023438</ele>
        <time>2012-04-28T09:25:23.000Z</time>
      </trkpt>
      <trkpt lat="45.11084" lon="6.09282">
        <ele>2227.1999511719</ele>
        <time>2012-04-28T09:25:30.000Z</time>
      </trkpt>
      <trkpt lat="45.11088" lon="6.09282">
        <ele>2229</ele>
        <time>2012-04-28T09:25:38.000Z</time>
      </trkpt>
      <trkpt lat="45.11093" lon="6.09282">
        <ele>2232.1999511719</ele>
        <time>2012-04-28T09:25:47.000Z</time>
      </trkpt>
      <trkpt lat="45.11098" lon="6.09285">
        <ele>2234.1999511719</ele>
        <time>2012-04-28T09:25:55.000Z</time>
      </trkpt>
      <trkpt lat="45.11102" lon="6.09287">
        <ele>2235.3999023438</ele>
        <time>2012-04-28T09:26:04.000Z</time>
      </trkpt>
      <trkpt lat="45.11104" lon="6.09288">
        <ele>2235.6000976562</ele>
        <time>2012-04-28T09:26:09.000Z</time>
      </trkpt>
      <trkpt lat="45.11106" lon="6.09292">
        <ele>2237.1999511719</ele>
        <time>2012-04-28T09:26:16.000Z</time>
      </trkpt>
      <trkpt lat="45.11112" lon="6.09297">
        <ele>2238.6000976562</ele>
        <time>2012-04-28T09:26:25.000Z</time>
      </trkpt>
      <trkpt lat="45.11116" lon="6.09303">
        <ele>2240</ele>
        <time>2012-04-28T09:26:35.000Z</time>
      </trkpt>
      <trkpt lat="45.1112" lon="6.09308">
        <ele>2241.6000976562</ele>
        <time>2012-04-28T09:26:44.000Z</time>
      </trkpt>
      <trkpt lat="45.11125" lon="6.09313">
        <ele>2242.8000488281</ele>
        <time>2012-04-28T09:26:53.000Z</time>
      </trkpt>
      <trkpt lat="45.11133" lon="6.09315">
        <ele>2244</ele>
        <time>2012-04-28T09:27:02.000Z</time>
      </trkpt>
      <trkpt lat="45.11139" lon="6.09322">
        <ele>2244.3999023438</ele>
        <time>2012-04-28T09:27:12.000Z</time>
      </trkpt>
      <trkpt lat="45.11142" lon="6.09329">
        <ele>2245.8000488281</ele>
        <time>2012-04-28T09:27:19.000Z</time>
      </trkpt>
      <trkpt lat="45.11149" lon="6.0934">
        <ele>2247</ele>
        <time>2012-04-28T09:27:30.000Z</time>
      </trkpt>
      <trkpt lat="45.11153" lon="6.09348">
        <ele>2248</ele>
        <time>2012-04-28T09:27:38.000Z</time>
      </trkpt>
      <trkpt lat="45.11157" lon="6.09358">
        <ele>2250.3999023438</ele>
        <time>2012-04-28T09:27:46.000Z</time>
      </trkpt>
      <trkpt lat="45.11159" lon="6.09367">
        <ele>2251</ele>
        <time>2012-04-28T09:27:52.000Z</time>
      </trkpt>
      <trkpt lat="45.11162" lon="6.09378">
        <ele>2252.8000488281</ele>
        <time>2012-04-28T09:28:02.000Z</time>
      </trkpt>
      <trkpt lat="45.11165" lon="6.09389">
        <ele>2253.6000976562</ele>
        <time>2012-04-28T09:28:11.000Z</time>
      </trkpt>
      <trkpt lat="45.11166" lon="6.09398">
        <ele>2254.8000488281</ele>
        <time>2012-04-28T09:28:19.000Z</time>
      </trkpt>
      <trkpt lat="45.11166" lon="6.09403">
        <ele>2254.8000488281</ele>
        <time>2012-04-28T09:28:23.000Z</time>
      </trkpt>
      <trkpt lat="45.11167" lon="6.0941">
        <ele>2255.1999511719</ele>
        <time>2012-04-28T09:28:30.000Z</time>
      </trkpt>
      <trkpt lat="45.11168" lon="6.0942">
        <ele>2257.1999511719</ele>
        <time>2012-04-28T09:28:41.000Z</time>
      </trkpt>
      <trkpt lat="45.11168" lon="6.09426">
        <ele>2256.8000488281</ele>
        <time>2012-04-28T09:28:49.000Z</time>
      </trkpt>
      <trkpt lat="45.11168" lon="6.09429">
        <ele>2257.6000976562</ele>
        <time>2012-04-28T09:28:54.000Z</time>
      </trkpt>
      <trkpt lat="45.11169" lon="6.09433">
        <ele>2260.1999511719</ele>
        <time>2012-04-28T09:29:11.000Z</time>
      </trkpt>
      <trkpt lat="45.11168" lon="6.09439">
        <ele>2262.8000488281</ele>
        <time>2012-04-28T09:29:18.000Z</time>
      </trkpt>
      <trkpt lat="45.11168" lon="6.09448">
        <ele>2265</ele>
        <time>2012-04-28T09:29:28.000Z</time>
      </trkpt>
      <trkpt lat="45.11169" lon="6.09456">
        <ele>2269.3999023438</ele>
        <time>2012-04-28T09:29:37.000Z</time>
      </trkpt>
      <trkpt lat="45.11169" lon="6.09457">
        <ele>2269.6000976562</ele>
        <time>2012-04-28T09:29:38.000Z</time>
      </trkpt>
      <trkpt lat="45.1117" lon="6.09462">
        <ele>2269.6000976562</ele>
        <time>2012-04-28T09:29:44.000Z</time>
      </trkpt>
      <trkpt lat="45.11171" lon="6.0947">
        <ele>2270.3999023438</ele>
        <time>2012-04-28T09:29:53.000Z</time>
      </trkpt>
      <trkpt lat="45.11171" lon="6.09471">
        <ele>2271.1999511719</ele>
        <time>2012-04-28T09:29:55.000Z</time>
      </trkpt>
      <trkpt lat="45.11171" lon="6.09475">
        <ele>2271.8000488281</ele>
        <time>2012-04-28T09:30:01.000Z</time>
      </trkpt>
      <trkpt lat="45.11173" lon="6.09483">
        <ele>2273.6000976562</ele>
        <time>2012-04-28T09:30:11.000Z</time>
      </trkpt>
      <trkpt lat="45.11173" lon="6.0949">
        <ele>2278</ele>
        <time>2012-04-28T09:30:19.000Z</time>
      </trkpt>
      <trkpt lat="45.11173" lon="6.09496">
        <ele>2279</ele>
        <time>2012-04-28T09:30:27.000Z</time>
      </trkpt>
      <trkpt lat="45.11174" lon="6.09498">
        <ele>2280.1999511719</ele>
        <time>2012-04-28T09:30:30.000Z</time>
      </trkpt>
      <trkpt lat="45.11173" lon="6.09505">
        <ele>2279.8000488281</ele>
        <time>2012-04-28T09:30:38.000Z</time>
      </trkpt>
      <trkpt lat="45.11171" lon="6.09512">
        <ele>2282.8000488281</ele>
        <time>2012-04-28T09:30:45.000Z</time>
      </trkpt>
      <trkpt lat="45.11171" lon="6.09519">
        <ele>2285</ele>
        <time>2012-04-28T09:30:52.000Z</time>
      </trkpt>
      <trkpt lat="45.11169" lon="6.09527">
        <ele>2286.1999511719</ele>
        <time>2012-04-28T09:31:00.000Z</time>
      </trkpt>
      <trkpt lat="45.11169" lon="6.09532">
        <ele>2287.8000488281</ele>
        <time>2012-04-28T09:31:06.000Z</time>
      </trkpt>
      <trkpt lat="45.11169" lon="6.09538">
        <ele>2289.8000488281</ele>
        <time>2012-04-28T09:31:14.000Z</time>
      </trkpt>
      <trkpt lat="45.1117" lon="6.09544">
        <ele>2291.1999511719</ele>
        <time>2012-04-28T09:31:22.000Z</time>
      </trkpt>
      <trkpt lat="45.1117" lon="6.09551">
        <ele>2292.6000976562</ele>
        <time>2012-04-28T09:31:31.000Z</time>
      </trkpt>
      <trkpt lat="45.1117" lon="6.09559">
        <ele>2295</ele>
        <time>2012-04-28T09:31:40.000Z</time>
      </trkpt>
      <trkpt lat="45.11171" lon="6.09561">
        <ele>2296.3999023438</ele>
        <time>2012-04-28T09:31:43.000Z</time>
      </trkpt>
      <trkpt lat="45.11172" lon="6.09569">
        <ele>2299.3999023438</ele>
        <time>2012-04-28T09:31:53.000Z</time>
      </trkpt>
      <trkpt lat="45.11173" lon="6.09578">
        <ele>2301.1999511719</ele>
        <time>2012-04-28T09:32:04.000Z</time>
      </trkpt>
      <trkpt lat="45.11175" lon="6.09586">
        <ele>2302.8000488281</ele>
        <time>2012-04-28T09:32:14.000Z</time>
      </trkpt>
      <trkpt lat="45.11176" lon="6.09593">
        <ele>2305</ele>
        <time>2012-04-28T09:32:24.000Z</time>
      </trkpt>
      <trkpt lat="45.11178" lon="6.09599">
        <ele>2305.6000976562</ele>
        <time>2012-04-28T09:32:31.000Z</time>
      </trkpt>
      <trkpt lat="45.11179" lon="6.09604">
        <ele>2306.3999023438</ele>
        <time>2012-04-28T09:32:38.000Z</time>
      </trkpt>
      <trkpt lat="45.1118" lon="6.09605">
        <ele>2306.3999023438</ele>
        <time>2012-04-28T09:32:39.000Z</time>
      </trkpt>
      <trkpt lat="45.11181" lon="6.0961">
        <ele>2309.3999023438</ele>
        <time>2012-04-28T09:32:45.000Z</time>
      </trkpt>
      <trkpt lat="45.11183" lon="6.09617">
        <ele>2310.1999511719</ele>
        <time>2012-04-28T09:32:54.000Z</time>
      </trkpt>
      <trkpt lat="45.11187" lon="6.09625">
        <ele>2312.3999023438</ele>
        <time>2012-04-28T09:33:03.000Z</time>
      </trkpt>
      <trkpt lat="45.11188" lon="6.09628">
        <ele>2312.8000488281</ele>
        <time>2012-04-28T09:33:08.000Z</time>
      </trkpt>
      <trkpt lat="45.1119" lon="6.09632">
        <ele>2313.1999511719</ele>
        <time>2012-04-28T09:33:12.000Z</time>
      </trkpt>
      <trkpt lat="45.11193" lon="6.09641">
        <ele>2314.8000488281</ele>
        <time>2012-04-28T09:33:21.000Z</time>
      </trkpt>
      <trkpt lat="45.11195" lon="6.09647">
        <ele>2315.1999511719</ele>
        <time>2012-04-28T09:33:29.000Z</time>
      </trkpt>
      <trkpt lat="45.11198" lon="6.09654">
        <ele>2316.3999023438</ele>
        <time>2012-04-28T09:33:37.000Z</time>
      </trkpt>
      <trkpt lat="45.112" lon="6.0966">
        <ele>2317</ele>
        <time>2012-04-28T09:33:43.000Z</time>
      </trkpt>
      <trkpt lat="45.11203" lon="6.09666">
        <ele>2318.6000976562</ele>
        <time>2012-04-28T09:33:49.000Z</time>
      </trkpt>
      <trkpt lat="45.11204" lon="6.09669">
        <ele>2319.6000976562</ele>
        <time>2012-04-28T09:33:52.000Z</time>
      </trkpt>
      <trkpt lat="45.11205" lon="6.09672">
        <ele>2320.8000488281</ele>
        <time>2012-04-28T09:33:55.000Z</time>
      </trkpt>
      <trkpt lat="45.11208" lon="6.09681">
        <ele>2320.3999023438</ele>
        <time>2012-04-28T09:34:03.000Z</time>
      </trkpt>
      <trkpt lat="45.11211" lon="6.09692">
        <ele>2326.6000976562</ele>
        <time>2012-04-28T09:34:13.000Z</time>
      </trkpt>
      <trkpt lat="45.11211" lon="6.09694">
        <ele>2326.6000976562</ele>
        <time>2012-04-28T09:34:14.000Z</time>
      </trkpt>
      <trkpt lat="45.11214" lon="6.097">
        <ele>2326.3999023438</ele>
        <time>2012-04-28T09:34:20.000Z</time>
      </trkpt>
      <trkpt lat="45.11215" lon="6.09711">
        <ele>2326.6000976562</ele>
        <time>2012-04-28T09:34:29.000Z</time>
      </trkpt>
      <trkpt lat="45.11218" lon="6.0972">
        <ele>2328.3999023438</ele>
        <time>2012-04-28T09:34:37.000Z</time>
      </trkpt>
      <trkpt lat="45.11221" lon="6.0973">
        <ele>2329.6000976562</ele>
        <time>2012-04-28T09:34:46.000Z</time>
      </trkpt>
      <trkpt lat="45.11224" lon="6.09736">
        <ele>2331.3999023438</ele>
        <time>2012-04-28T09:34:54.000Z</time>
      </trkpt>
      <trkpt lat="45.11226" lon="6.09741">
        <ele>2334</ele>
        <time>2012-04-28T09:34:59.000Z</time>
      </trkpt>
      <trkpt lat="45.1123" lon="6.0975">
        <ele>2335.6000976562</ele>
        <time>2012-04-28T09:35:10.000Z</time>
      </trkpt>
      <trkpt lat="45.11233" lon="6.09756">
        <ele>2337</ele>
        <time>2012-04-28T09:35:18.000Z</time>
      </trkpt>
      <trkpt lat="45.11237" lon="6.09761">
        <ele>2338.8000488281</ele>
        <time>2012-04-28T09:35:26.000Z</time>
      </trkpt>
      <trkpt lat="45.11242" lon="6.09765">
        <ele>2340.6000976562</ele>
        <time>2012-04-28T09:35:34.000Z</time>
      </trkpt>
      <trkpt lat="45.11246" lon="6.09771">
        <ele>2343.3999023438</ele>
        <time>2012-04-28T09:35:43.000Z</time>
      </trkpt>
      <trkpt lat="45.11253" lon="6.09777">
        <ele>2344.8000488281</ele>
        <time>2012-04-28T09:35:55.000Z</time>
      </trkpt>
      <trkpt lat="45.11259" lon="6.09781">
        <ele>2346.1999511719</ele>
        <time>2012-04-28T09:36:04.000Z</time>
      </trkpt>
      <trkpt lat="45.11267" lon="6.09785">
        <ele>2348</ele>
        <time>2012-04-28T09:36:15.000Z</time>
      </trkpt>
      <trkpt lat="45.11273" lon="6.09788">
        <ele>2348.8000488281</ele>
        <time>2012-04-28T09:36:22.000Z</time>
      </trkpt>
      <trkpt lat="45.11275" lon="6.09789">
        <ele>2349</ele>
        <time>2012-04-28T09:36:26.000Z</time>
      </trkpt>
      <trkpt lat="45.11282" lon="6.09792">
        <ele>2348.8000488281</ele>
        <time>2012-04-28T09:36:39.000Z</time>
      </trkpt>
      <trkpt lat="45.11292" lon="6.09799">
        <ele>2350.1999511719</ele>
        <time>2012-04-28T09:36:50.000Z</time>
      </trkpt>
      <trkpt lat="45.11299" lon="6.09802">
        <ele>2351.1999511719</ele>
        <time>2012-04-28T09:36:57.000Z</time>
      </trkpt>
      <trkpt lat="45.11305" lon="6.09806">
        <ele>2351.6000976562</ele>
        <time>2012-04-28T09:37:04.000Z</time>
      </trkpt>
      <trkpt lat="45.11311" lon="6.09812">
        <ele>2349.6000976562</ele>
        <time>2012-04-28T09:37:13.000Z</time>
      </trkpt>
      <trkpt lat="45.11315" lon="6.09821">
        <ele>2352.6000976562</ele>
        <time>2012-04-28T09:37:22.000Z</time>
      </trkpt>
      <trkpt lat="45.11318" lon="6.09827">
        <ele>2356</ele>
        <time>2012-04-28T09:37:29.000Z</time>
      </trkpt>
      <trkpt lat="45.1132" lon="6.09832">
        <ele>2355</ele>
        <time>2012-04-28T09:37:34.000Z</time>
      </trkpt>
      <trkpt lat="45.11322" lon="6.09837">
        <ele>2354.6000976562</ele>
        <time>2012-04-28T09:37:40.000Z</time>
      </trkpt>
      <trkpt lat="45.11324" lon="6.09842">
        <ele>2356.1999511719</ele>
        <time>2012-04-28T09:37:46.000Z</time>
      </trkpt>
      <trkpt lat="45.11327" lon="6.09848">
        <ele>2357.8000488281</ele>
        <time>2012-04-28T09:37:54.000Z</time>
      </trkpt>
      <trkpt lat="45.1133" lon="6.09853">
        <ele>2359.6000976562</ele>
        <time>2012-04-28T09:38:02.000Z</time>
      </trkpt>
      <trkpt lat="45.11333" lon="6.09857">
        <ele>2361.8000488281</ele>
        <time>2012-04-28T09:38:09.000Z</time>
      </trkpt>
      <trkpt lat="45.11336" lon="6.0986">
        <ele>2363.6000976562</ele>
        <time>2012-04-28T09:38:15.000Z</time>
      </trkpt>
      <trkpt lat="45.11338" lon="6.09865">
        <ele>2365.3999023438</ele>
        <time>2012-04-28T09:38:21.000Z</time>
      </trkpt>
      <trkpt lat="45.1134" lon="6.09869">
        <ele>2366.6000976562</ele>
        <time>2012-04-28T09:38:28.000Z</time>
      </trkpt>
      <trkpt lat="45.1134" lon="6.09878">
        <ele>2366</ele>
        <time>2012-04-28T09:38:36.000Z</time>
      </trkpt>
      <trkpt lat="45.1134" lon="6.09878">
        <ele>2367.1999511719</ele>
        <time>2012-04-28T09:38:37.000Z</time>
      </trkpt>
      <trkpt lat="45.11343" lon="6.09877">
        <ele>2369</ele>
        <time>2012-04-28T09:38:50.000Z</time>
      </trkpt>
      <trkpt lat="45.11345" lon="6.09877">
        <ele>2369.3999023438</ele>
        <time>2012-04-28T09:38:52.000Z</time>
      </trkpt>
      <trkpt lat="45.11355" lon="6.09872">
        <ele>2371.6000976562</ele>
        <time>2012-04-28T09:39:03.000Z</time>
      </trkpt>
      <trkpt lat="45.11361" lon="6.09868">
        <ele>2372.6000976562</ele>
        <time>2012-04-28T09:39:12.000Z</time>
      </trkpt>
      <trkpt lat="45.11367" lon="6.09862">
        <ele>2378.8000488281</ele>
        <time>2012-04-28T09:39:19.000Z</time>
      </trkpt>
      <trkpt lat="45.11373" lon="6.09857">
        <ele>2376</ele>
        <time>2012-04-28T09:39:24.000Z</time>
      </trkpt>
      <trkpt lat="45.11383" lon="6.0985">
        <ele>2375.6000976562</ele>
        <time>2012-04-28T09:39:34.000Z</time>
      </trkpt>
      <trkpt lat="45.1139" lon="6.09847">
        <ele>2377.1999511719</ele>
        <time>2012-04-28T09:39:44.000Z</time>
      </trkpt>
      <trkpt lat="45.11397" lon="6.09845">
        <ele>2380.1999511719</ele>
        <time>2012-04-28T09:39:52.000Z</time>
      </trkpt>
      <trkpt lat="45.11404" lon="6.09846">
        <ele>2381.3999023438</ele>
        <time>2012-04-28T09:39:59.000Z</time>
      </trkpt>
      <trkpt lat="45.11409" lon="6.09846">
        <ele>2380.6000976562</ele>
        <time>2012-04-28T09:40:04.000Z</time>
      </trkpt>
      <trkpt lat="45.11417" lon="6.09849">
        <ele>2374.6000976562</ele>
        <time>2012-04-28T09:40:09.000Z</time>
      </trkpt>
      <trkpt lat="45.11419" lon="6.09851">
        <ele>2373.8000488281</ele>
        <time>2012-04-28T09:40:11.000Z</time>
      </trkpt>
      <trkpt lat="45.11422" lon="6.09852">
        <ele>2373.3999023438</ele>
        <time>2012-04-28T09:40:14.000Z</time>
      </trkpt>
      <trkpt lat="45.1143" lon="6.09855">
        <ele>2376</ele>
        <time>2012-04-28T09:40:19.000Z</time>
      </trkpt>
      <trkpt lat="45.11439" lon="6.09861">
        <ele>2378.8000488281</ele>
        <time>2012-04-28T09:40:27.000Z</time>
      </trkpt>
      <trkpt lat="45.11448" lon="6.09865">
        <ele>2381</ele>
        <time>2012-04-28T09:40:35.000Z</time>
      </trkpt>
      <trkpt lat="45.11455" lon="6.09869">
        <ele>2380</ele>
        <time>2012-04-28T09:40:43.000Z</time>
      </trkpt>
      <trkpt lat="45.11463" lon="6.09875">
        <ele>2380</ele>
        <time>2012-04-28T09:40:52.000Z</time>
      </trkpt>
      <trkpt lat="45.11471" lon="6.09881">
        <ele>2380.1999511719</ele>
        <time>2012-04-28T09:41:01.000Z</time>
      </trkpt>
      <trkpt lat="45.11476" lon="6.09887">
        <ele>2384.8000488281</ele>
        <time>2012-04-28T09:41:09.000Z</time>
      </trkpt>
      <trkpt lat="45.11479" lon="6.09888">
        <ele>2385.1999511719</ele>
        <time>2012-04-28T09:41:13.000Z</time>
      </trkpt>
      <trkpt lat="45.11486" lon="6.09894">
        <ele>2387.3999023438</ele>
        <time>2012-04-28T09:41:22.000Z</time>
      </trkpt>
      <trkpt lat="45.11487" lon="6.09894">
        <ele>2388.1999511719</ele>
        <time>2012-04-28T09:41:24.000Z</time>
      </trkpt>
      <trkpt lat="45.1149" lon="6.09897">
        <ele>2389.1999511719</ele>
        <time>2012-04-28T09:41:33.000Z</time>
      </trkpt>
      <trkpt lat="45.11495" lon="6.09901">
        <ele>2390.8000488281</ele>
        <time>2012-04-28T09:41:42.000Z</time>
      </trkpt>
      <trkpt lat="45.11501" lon="6.09905">
        <ele>2392.8000488281</ele>
        <time>2012-04-28T09:41:51.000Z</time>
      </trkpt>
      <trkpt lat="45.11501" lon="6.09906">
        <ele>2393.6000976562</ele>
        <time>2012-04-28T09:41:53.000Z</time>
      </trkpt>
      <trkpt lat="45.11505" lon="6.0991">
        <ele>2393.8000488281</ele>
        <time>2012-04-28T09:41:59.000Z</time>
      </trkpt>
      <trkpt lat="45.11509" lon="6.09913">
        <ele>2394.1999511719</ele>
        <time>2012-04-28T09:42:05.000Z</time>
      </trkpt>
      <trkpt lat="45.11514" lon="6.09915">
        <ele>2396</ele>
        <time>2012-04-28T09:42:12.000Z</time>
      </trkpt>
      <trkpt lat="45.1152" lon="6.09918">
        <ele>2397.6000976562</ele>
        <time>2012-04-28T09:42:21.000Z</time>
      </trkpt>
      <trkpt lat="45.11524" lon="6.09921">
        <ele>2399.8000488281</ele>
        <time>2012-04-28T09:42:29.000Z</time>
      </trkpt>
      <trkpt lat="45.11526" lon="6.09923">
        <ele>2400.3999023438</ele>
        <time>2012-04-28T09:42:33.000Z</time>
      </trkpt>
      <trkpt lat="45.11533" lon="6.09926">
        <ele>2401.6000976562</ele>
        <time>2012-04-28T09:42:42.000Z</time>
      </trkpt>
      <trkpt lat="45.11541" lon="6.09929">
        <ele>2404</ele>
        <time>2012-04-28T09:42:51.000Z</time>
      </trkpt>
      <trkpt lat="45.11546" lon="6.09932">
        <ele>2405.6000976562</ele>
        <time>2012-04-28T09:42:59.000Z</time>
      </trkpt>
      <trkpt lat="45.11552" lon="6.09936">
        <ele>2406.6000976562</ele>
        <time>2012-04-28T09:43:08.000Z</time>
      </trkpt>
      <trkpt lat="45.11556" lon="6.0994">
        <ele>2409</ele>
        <time>2012-04-28T09:43:17.000Z</time>
      </trkpt>
      <trkpt lat="45.11561" lon="6.09944">
        <ele>2411</ele>
        <time>2012-04-28T09:43:27.000Z</time>
      </trkpt>
      <trkpt lat="45.11566" lon="6.09947">
        <ele>2411.6000976562</ele>
        <time>2012-04-28T09:43:36.000Z</time>
      </trkpt>
      <trkpt lat="45.1157" lon="6.09948">
        <ele>2411.6000976562</ele>
        <time>2012-04-28T09:43:40.000Z</time>
      </trkpt>
      <trkpt lat="45.11571" lon="6.0995">
        <ele>2410.1999511719</ele>
        <time>2012-04-28T09:43:44.000Z</time>
      </trkpt>
      <trkpt lat="45.11573" lon="6.09953">
        <ele>2412</ele>
        <time>2012-04-28T09:43:50.000Z</time>
      </trkpt>
      <trkpt lat="45.11577" lon="6.09959">
        <ele>2414</ele>
        <time>2012-04-28T09:43:59.000Z</time>
      </trkpt>
      <trkpt lat="45.11581" lon="6.09961">
        <ele>2415.8000488281</ele>
        <time>2012-04-28T09:44:03.000Z</time>
      </trkpt>
      <trkpt lat="45.11586" lon="6.09965">
        <ele>2417.1999511719</ele>
        <time>2012-04-28T09:44:10.000Z</time>
      </trkpt>
      <trkpt lat="45.11587" lon="6.09968">
        <ele>2418.1999511719</ele>
        <time>2012-04-28T09:44:15.000Z</time>
      </trkpt>
      <trkpt lat="45.11589" lon="6.0997">
        <ele>2419</ele>
        <time>2012-04-28T09:44:17.000Z</time>
      </trkpt>
      <trkpt lat="45.11591" lon="6.09976">
        <ele>2419.6000976562</ele>
        <time>2012-04-28T09:44:24.000Z</time>
      </trkpt>
      <trkpt lat="45.11592" lon="6.09986">
        <ele>2420.6000976562</ele>
        <time>2012-04-28T09:44:33.000Z</time>
      </trkpt>
      <trkpt lat="45.11591" lon="6.09992">
        <ele>2421.8000488281</ele>
        <time>2012-04-28T09:44:40.000Z</time>
      </trkpt>
      <trkpt lat="45.11592" lon="6.09999">
        <ele>2422.8000488281</ele>
        <time>2012-04-28T09:44:47.000Z</time>
      </trkpt>
      <trkpt lat="45.11593" lon="6.10002">
        <ele>2423.3999023438</ele>
        <time>2012-04-28T09:44:51.000Z</time>
      </trkpt>
      <trkpt lat="45.11592" lon="6.10006">
        <ele>2424.1999511719</ele>
        <time>2012-04-28T09:44:56.000Z</time>
      </trkpt>
      <trkpt lat="45.11592" lon="6.10007">
        <ele>2424.8000488281</ele>
        <time>2012-04-28T09:44:57.000Z</time>
      </trkpt>
      <trkpt lat="45.11592" lon="6.1001">
        <ele>2426.1999511719</ele>
        <time>2012-04-28T09:45:03.000Z</time>
      </trkpt>
      <trkpt lat="45.1159" lon="6.10018">
        <ele>2428.1999511719</ele>
        <time>2012-04-28T09:45:11.000Z</time>
      </trkpt>
      <trkpt lat="45.1159" lon="6.10021">
        <ele>2428.1999511719</ele>
        <time>2012-04-28T09:45:16.000Z</time>
      </trkpt>
      <trkpt lat="45.11589" lon="6.10031">
        <ele>2430.3999023438</ele>
        <time>2012-04-28T09:45:27.000Z</time>
      </trkpt>
      <trkpt lat="45.1159" lon="6.10037">
        <ele>2432</ele>
        <time>2012-04-28T09:45:35.000Z</time>
      </trkpt>
      <trkpt lat="45.11591" lon="6.10039">
        <ele>2429</ele>
        <time>2012-04-28T09:45:41.000Z</time>
      </trkpt>
      <trkpt lat="45.1159" lon="6.10043">
        <ele>2433.3999023438</ele>
        <time>2012-04-28T09:45:54.000Z</time>
      </trkpt>
      <trkpt lat="45.1159" lon="6.10045">
        <ele>2435</ele>
        <time>2012-04-28T09:45:58.000Z</time>
      </trkpt>
      <trkpt lat="45.11593" lon="6.1005">
        <ele>2437.1999511719</ele>
        <time>2012-04-28T09:46:12.000Z</time>
      </trkpt>
      <trkpt lat="45.11595" lon="6.10053">
        <ele>2438.6000976562</ele>
        <time>2012-04-28T09:46:18.000Z</time>
      </trkpt>
      <trkpt lat="45.11597" lon="6.10057">
        <ele>2439.1999511719</ele>
        <time>2012-04-28T09:46:24.000Z</time>
      </trkpt>
      <trkpt lat="45.11599" lon="6.1006">
        <ele>2438.6000976562</ele>
        <time>2012-04-28T09:46:30.000Z</time>
      </trkpt>
      <trkpt lat="45.11602" lon="6.10062">
        <ele>2440.6000976562</ele>
        <time>2012-04-28T09:46:36.000Z</time>
      </trkpt>
      <trkpt lat="45.11603" lon="6.10063">
        <ele>2441.3999023438</ele>
        <time>2012-04-28T09:46:38.000Z</time>
      </trkpt>
      <trkpt lat="45.11606" lon="6.10062">
        <ele>2441.6000976562</ele>
        <time>2012-04-28T09:46:44.000Z</time>
      </trkpt>
      <trkpt lat="45.11608" lon="6.10062">
        <ele>2443.1999511719</ele>
        <time>2012-04-28T09:46:49.000Z</time>
      </trkpt>
      <trkpt lat="45.11612" lon="6.10061">
        <ele>2447</ele>
        <time>2012-04-28T09:46:56.000Z</time>
      </trkpt>
      <trkpt lat="45.11617" lon="6.10062">
        <ele>2447</ele>
        <time>2012-04-28T09:47:03.000Z</time>
      </trkpt>
      <trkpt lat="45.11623" lon="6.10064">
        <ele>2449.1999511719</ele>
        <time>2012-04-28T09:47:14.000Z</time>
      </trkpt>
      <trkpt lat="45.11627" lon="6.10064">
        <ele>2451.6000976562</ele>
        <time>2012-04-28T09:47:18.000Z</time>
      </trkpt>
      <trkpt lat="45.11631" lon="6.10064">
        <ele>2454</ele>
        <time>2012-04-28T09:47:23.000Z</time>
      </trkpt>
      <trkpt lat="45.11632" lon="6.10063">
        <ele>2455.3999023438</ele>
        <time>2012-04-28T09:47:26.000Z</time>
      </trkpt>
      <trkpt lat="45.11636" lon="6.10062">
        <ele>2456.6000976562</ele>
        <time>2012-04-28T09:47:34.000Z</time>
      </trkpt>
      <trkpt lat="45.1164" lon="6.10062">
        <ele>2458</ele>
        <time>2012-04-28T09:47:42.000Z</time>
      </trkpt>
      <trkpt lat="45.11643" lon="6.10061">
        <ele>2461.3999023438</ele>
        <time>2012-04-28T09:47:47.000Z</time>
      </trkpt>
      <trkpt lat="45.11646" lon="6.10061">
        <ele>2463.1999511719</ele>
        <time>2012-04-28T09:47:52.000Z</time>
      </trkpt>
      <trkpt lat="45.11647" lon="6.10061">
        <ele>2463.8000488281</ele>
        <time>2012-04-28T09:47:54.000Z</time>
      </trkpt>
      <trkpt lat="45.1165" lon="6.10062">
        <ele>2466.3999023438</ele>
        <time>2012-04-28T09:47:58.000Z</time>
      </trkpt>
      <trkpt lat="45.11651" lon="6.10062">
        <ele>2467.3999023438</ele>
        <time>2012-04-28T09:48:00.000Z</time>
      </trkpt>
      <trkpt lat="45.11656" lon="6.1006">
        <ele>2470.1999511719</ele>
        <time>2012-04-28T09:48:10.000Z</time>
      </trkpt>
      <trkpt lat="45.11663" lon="6.10064">
        <ele>2466.8000488281</ele>
        <time>2012-04-28T09:48:17.000Z</time>
      </trkpt>
      <trkpt lat="45.11671" lon="6.10066">
        <ele>2467.1999511719</ele>
        <time>2012-04-28T09:48:23.000Z</time>
      </trkpt>
      <trkpt lat="45.11671" lon="6.10068">
        <ele>2468.3999023438</ele>
        <time>2012-04-28T09:48:27.000Z</time>
      </trkpt>
      <trkpt lat="45.11673" lon="6.10073">
        <ele>2469.8000488281</ele>
        <time>2012-04-28T09:48:33.000Z</time>
      </trkpt>
      <trkpt lat="45.11674" lon="6.10075">
        <ele>2470</ele>
        <time>2012-04-28T09:48:38.000Z</time>
      </trkpt>
      <trkpt lat="45.11674" lon="6.1008">
        <ele>2472</ele>
        <time>2012-04-28T09:48:45.000Z</time>
      </trkpt>
      <trkpt lat="45.11677" lon="6.10084">
        <ele>2473.6000976562</ele>
        <time>2012-04-28T09:48:51.000Z</time>
      </trkpt>
      <trkpt lat="45.11677" lon="6.10086">
        <ele>2474.3999023438</ele>
        <time>2012-04-28T09:48:54.000Z</time>
      </trkpt>
      <trkpt lat="45.1168" lon="6.10089">
        <ele>2475.8000488281</ele>
        <time>2012-04-28T09:49:00.000Z</time>
      </trkpt>
      <trkpt lat="45.11684" lon="6.10094">
        <ele>2478</ele>
        <time>2012-04-28T09:49:08.000Z</time>
      </trkpt>
      <trkpt lat="45.11687" lon="6.10095">
        <ele>2479.6000976562</ele>
        <time>2012-04-28T09:49:14.000Z</time>
      </trkpt>
      <trkpt lat="45.11691" lon="6.10097">
        <ele>2481.3999023438</ele>
        <time>2012-04-28T09:49:22.000Z</time>
      </trkpt>
      <trkpt lat="45.11693" lon="6.10099">
        <ele>2479.3999023438</ele>
        <time>2012-04-28T09:49:27.000Z</time>
      </trkpt>
      <trkpt lat="45.11694" lon="6.101">
        <ele>2480</ele>
        <time>2012-04-28T09:49:31.000Z</time>
      </trkpt>
      <trkpt lat="45.11697" lon="6.10102">
        <ele>2481.1999511719</ele>
        <time>2012-04-28T09:49:35.000Z</time>
      </trkpt>
      <trkpt lat="45.117" lon="6.10105">
        <ele>2485.1999511719</ele>
        <time>2012-04-28T09:49:41.000Z</time>
      </trkpt>
      <trkpt lat="45.11705" lon="6.1011">
        <ele>2486.1999511719</ele>
        <time>2012-04-28T09:49:50.000Z</time>
      </trkpt>
      <trkpt lat="45.11706" lon="6.10114">
        <ele>2488</ele>
        <time>2012-04-28T09:49:56.000Z</time>
      </trkpt>
      <trkpt lat="45.11707" lon="6.10117">
        <ele>2487.6000976562</ele>
        <time>2012-04-28T09:50:01.000Z</time>
      </trkpt>
      <trkpt lat="45.1171" lon="6.10121">
        <ele>2488.1999511719</ele>
        <time>2012-04-28T09:50:08.000Z</time>
      </trkpt>
      <trkpt lat="45.11715" lon="6.10125">
        <ele>2489.1999511719</ele>
        <time>2012-04-28T09:50:18.000Z</time>
      </trkpt>
      <trkpt lat="45.11718" lon="6.10128">
        <ele>2490</ele>
        <time>2012-04-28T09:50:24.000Z</time>
      </trkpt>
      <trkpt lat="45.11721" lon="6.10131">
        <ele>2491.1999511719</ele>
        <time>2012-04-28T09:50:32.000Z</time>
      </trkpt>
      <trkpt lat="45.11725" lon="6.10137">
        <ele>2490.1999511719</ele>
        <time>2012-04-28T09:50:42.000Z</time>
      </trkpt>
      <trkpt lat="45.11727" lon="6.10141">
        <ele>2490.8000488281</ele>
        <time>2012-04-28T09:50:49.000Z</time>
      </trkpt>
      <trkpt lat="45.11729" lon="6.10143">
        <ele>2496.6000976562</ele>
        <time>2012-04-28T09:50:55.000Z</time>
      </trkpt>
      <trkpt lat="45.11729" lon="6.10144">
        <ele>2496.6000976562</ele>
        <time>2012-04-28T09:50:56.000Z</time>
      </trkpt>
      <trkpt lat="45.11732" lon="6.10147">
        <ele>2496.8000488281</ele>
        <time>2012-04-28T09:51:01.000Z</time>
      </trkpt>
      <trkpt lat="45.11735" lon="6.10151">
        <ele>2503.3999023438</ele>
        <time>2012-04-28T09:51:10.000Z</time>
      </trkpt>
      <trkpt lat="45.11736" lon="6.10151">
        <ele>2503.6000976562</ele>
        <time>2012-04-28T09:51:11.000Z</time>
      </trkpt>
      <trkpt lat="45.11739" lon="6.10155">
        <ele>2503.1999511719</ele>
        <time>2012-04-28T09:51:17.000Z</time>
      </trkpt>
      <trkpt lat="45.11742" lon="6.10158">
        <ele>2503.1999511719</ele>
        <time>2012-04-28T09:51:23.000Z</time>
      </trkpt>
      <trkpt lat="45.11745" lon="6.10161">
        <ele>2504.1999511719</ele>
        <time>2012-04-28T09:51:28.000Z</time>
      </trkpt>
      <trkpt lat="45.1175" lon="6.10165">
        <ele>2502.8000488281</ele>
        <time>2012-04-28T09:51:36.000Z</time>
      </trkpt>
      <trkpt lat="45.11755" lon="6.10169">
        <ele>2505</ele>
        <time>2012-04-28T09:51:45.000Z</time>
      </trkpt>
      <trkpt lat="45.11759" lon="6.10174">
        <ele>2505.1999511719</ele>
        <time>2012-04-28T09:51:53.000Z</time>
      </trkpt>
      <trkpt lat="45.1176" lon="6.10176">
        <ele>2506.3999023438</ele>
        <time>2012-04-28T09:51:56.000Z</time>
      </trkpt>
      <trkpt lat="45.11763" lon="6.10178">
        <ele>2508.3999023438</ele>
        <time>2012-04-28T09:52:00.000Z</time>
      </trkpt>
      <trkpt lat="45.11768" lon="6.10183">
        <ele>2512</ele>
        <time>2012-04-28T09:52:07.000Z</time>
      </trkpt>
      <trkpt lat="45.1177" lon="6.10186">
        <ele>2513.8000488281</ele>
        <time>2012-04-28T09:52:11.000Z</time>
      </trkpt>
      <trkpt lat="45.11773" lon="6.10188">
        <ele>2511.6000976562</ele>
        <time>2012-04-28T09:52:16.000Z</time>
      </trkpt>
      <trkpt lat="45.11772" lon="6.10196">
        <ele>2514.8000488281</ele>
        <time>2012-04-28T09:52:57.000Z</time>
      </trkpt>
      <trkpt lat="45.11777" lon="6.102">
        <ele>2514.3999023438</ele>
        <time>2012-04-28T09:53:03.000Z</time>
      </trkpt>
      <trkpt lat="45.11784" lon="6.10204">
        <ele>2516.6000976562</ele>
        <time>2012-04-28T09:53:10.000Z</time>
      </trkpt>
      <trkpt lat="45.11793" lon="6.10208">
        <ele>2516.3999023438</ele>
        <time>2012-04-28T09:53:19.000Z</time>
      </trkpt>
      <trkpt lat="45.11794" lon="6.10209">
        <ele>2516.6000976562</ele>
        <time>2012-04-28T09:53:21.000Z</time>
      </trkpt>
      <trkpt lat="45.11801" lon="6.10211">
        <ele>2517.8000488281</ele>
        <time>2012-04-28T09:53:30.000Z</time>
      </trkpt>
      <trkpt lat="45.1181" lon="6.10215">
        <ele>2520.6000976562</ele>
        <time>2012-04-28T09:53:39.000Z</time>
      </trkpt>
      <trkpt lat="45.11816" lon="6.10217">
        <ele>2520.1999511719</ele>
        <time>2012-04-28T09:53:45.000Z</time>
      </trkpt>
      <trkpt lat="45.11821" lon="6.1022">
        <ele>2523.6000976562</ele>
        <time>2012-04-28T09:53:50.000Z</time>
      </trkpt>
      <trkpt lat="45.11829" lon="6.10223">
        <ele>2520.6000976562</ele>
        <time>2012-04-28T09:53:59.000Z</time>
      </trkpt>
      <trkpt lat="45.11835" lon="6.10229">
        <ele>2520</ele>
        <time>2012-04-28T09:54:05.000Z</time>
      </trkpt>
      <trkpt lat="45.11842" lon="6.10233">
        <ele>2519.8000488281</ele>
        <time>2012-04-28T09:54:12.000Z</time>
      </trkpt>
      <trkpt lat="45.11846" lon="6.10237">
        <ele>2522.3999023438</ele>
        <time>2012-04-28T09:54:18.000Z</time>
      </trkpt>
      <trkpt lat="45.11847" lon="6.10237">
        <ele>2522.8000488281</ele>
        <time>2012-04-28T09:54:19.000Z</time>
      </trkpt>
      <trkpt lat="45.11853" lon="6.10238">
        <ele>2521.3999023438</ele>
        <time>2012-04-28T09:54:26.000Z</time>
      </trkpt>
      <trkpt lat="45.1186" lon="6.10243">
        <ele>2524.8000488281</ele>
        <time>2012-04-28T09:54:34.000Z</time>
      </trkpt>
      <trkpt lat="45.11864" lon="6.10247">
        <ele>2525.1999511719</ele>
        <time>2012-04-28T09:54:40.000Z</time>
      </trkpt>
      <trkpt lat="45.1187" lon="6.10252">
        <ele>2525.8000488281</ele>
        <time>2012-04-28T09:54:50.000Z</time>
      </trkpt>
      <trkpt lat="45.11874" lon="6.10255">
        <ele>2528.3999023438</ele>
        <time>2012-04-28T09:54:58.000Z</time>
      </trkpt>
      <trkpt lat="45.11878" lon="6.10259">
        <ele>2530.8000488281</ele>
        <time>2012-04-28T09:55:06.000Z</time>
      </trkpt>
      <trkpt lat="45.11881" lon="6.10257">
        <ele>2532.8000488281</ele>
        <time>2012-04-28T09:55:15.000Z</time>
      </trkpt>
      <trkpt lat="45.11885" lon="6.10262">
        <ele>2533.1999511719</ele>
        <time>2012-04-28T09:55:32.000Z</time>
      </trkpt>
      <trkpt lat="45.1189" lon="6.10267">
        <ele>2535.1999511719</ele>
        <time>2012-04-28T09:55:40.000Z</time>
      </trkpt>
      <trkpt lat="45.11895" lon="6.1027">
        <ele>2537.1999511719</ele>
        <time>2012-04-28T09:55:48.000Z</time>
      </trkpt>
      <trkpt lat="45.11896" lon="6.10271">
        <ele>2538.8000488281</ele>
        <time>2012-04-28T09:55:54.000Z</time>
      </trkpt>
      <trkpt lat="45.11898" lon="6.10271">
        <ele>2539.1999511719</ele>
        <time>2012-04-28T09:55:58.000Z</time>
      </trkpt>
      <trkpt lat="45.119" lon="6.10272">
        <ele>2540.8000488281</ele>
        <time>2012-04-28T09:56:04.000Z</time>
      </trkpt>
      <trkpt lat="45.11904" lon="6.10274">
        <ele>2541.8000488281</ele>
        <time>2012-04-28T09:56:09.000Z</time>
      </trkpt>
      <trkpt lat="45.11906" lon="6.10276">
        <ele>2542.1999511719</ele>
        <time>2012-04-28T09:56:12.000Z</time>
      </trkpt>
      <trkpt lat="45.11909" lon="6.1028">
        <ele>2543</ele>
        <time>2012-04-28T09:56:19.000Z</time>
      </trkpt>
      <trkpt lat="45.11909" lon="6.10281">
        <ele>2543.6000976562</ele>
        <time>2012-04-28T09:56:20.000Z</time>
      </trkpt>
      <trkpt lat="45.11913" lon="6.10284">
        <ele>2545.1999511719</ele>
        <time>2012-04-28T09:56:28.000Z</time>
      </trkpt>
      <trkpt lat="45.11914" lon="6.10284">
        <ele>2545.1999511719</ele>
        <time>2012-04-28T09:56:29.000Z</time>
      </trkpt>
      <trkpt lat="45.11918" lon="6.10287">
        <ele>2547</ele>
        <time>2012-04-28T09:56:39.000Z</time>
      </trkpt>
      <trkpt lat="45.1192" lon="6.1029">
        <ele>2549</ele>
        <time>2012-04-28T09:56:46.000Z</time>
      </trkpt>
      <trkpt lat="45.11921" lon="6.10292">
        <ele>2550.1999511719</ele>
        <time>2012-04-28T09:56:49.000Z</time>
      </trkpt>
      <trkpt lat="45.11924" lon="6.10294">
        <ele>2551.1999511719</ele>
        <time>2012-04-28T09:56:53.000Z</time>
      </trkpt>
      <trkpt lat="45.11928" lon="6.10297">
        <ele>2554.6000976562</ele>
        <time>2012-04-28T09:57:01.000Z</time>
      </trkpt>
      <trkpt lat="45.1193" lon="6.10299">
        <ele>2555.1999511719</ele>
        <time>2012-04-28T09:57:06.000Z</time>
      </trkpt>
      <trkpt lat="45.11933" lon="6.10303">
        <ele>2555.6000976562</ele>
        <time>2012-04-28T09:57:14.000Z</time>
      </trkpt>
      <trkpt lat="45.11935" lon="6.10306">
        <ele>2555</ele>
        <time>2012-04-28T09:57:20.000Z</time>
      </trkpt>
      <trkpt lat="45.11938" lon="6.10309">
        <ele>2552.8000488281</ele>
        <time>2012-04-28T09:57:25.000Z</time>
      </trkpt>
      <trkpt lat="45.11942" lon="6.10313">
        <ele>2554.8000488281</ele>
        <time>2012-04-28T09:57:31.000Z</time>
      </trkpt>
      <trkpt lat="45.11949" lon="6.10318">
        <ele>2554.8000488281</ele>
        <time>2012-04-28T09:57:40.000Z</time>
      </trkpt>
      <trkpt lat="45.11951" lon="6.10321">
        <ele>2552.1999511719</ele>
        <time>2012-04-28T09:57:44.000Z</time>
      </trkpt>
      <trkpt lat="45.11957" lon="6.10328">
        <ele>2555</ele>
        <time>2012-04-28T09:57:53.000Z</time>
      </trkpt>
      <trkpt lat="45.11962" lon="6.10334">
        <ele>2556.6000976562</ele>
        <time>2012-04-28T09:58:02.000Z</time>
      </trkpt>
      <trkpt lat="45.11965" lon="6.10339">
        <ele>2560.1999511719</ele>
        <time>2012-04-28T09:58:09.000Z</time>
      </trkpt>
      <trkpt lat="45.11967" lon="6.10347">
        <ele>2565.1999511719</ele>
        <time>2012-04-28T09:58:18.000Z</time>
      </trkpt>
      <trkpt lat="45.11968" lon="6.1035">
        <ele>2566</ele>
        <time>2012-04-28T09:58:21.000Z</time>
      </trkpt>
      <trkpt lat="45.1197" lon="6.10359">
        <ele>2565.3999023438</ele>
        <time>2012-04-28T09:58:30.000Z</time>
      </trkpt>
      <trkpt lat="45.11972" lon="6.10365">
        <ele>2566.8000488281</ele>
        <time>2012-04-28T09:58:39.000Z</time>
      </trkpt>
      <trkpt lat="45.11974" lon="6.10369">
        <ele>2568.1999511719</ele>
        <time>2012-04-28T09:58:46.000Z</time>
      </trkpt>
      <trkpt lat="45.11974" lon="6.10372">
        <ele>2570</ele>
        <time>2012-04-28T09:58:50.000Z</time>
      </trkpt>
      <trkpt lat="45.11976" lon="6.10377">
        <ele>2570.8000488281</ele>
        <time>2012-04-28T09:58:59.000Z</time>
      </trkpt>
      <trkpt lat="45.11978" lon="6.10381">
        <ele>2572.8000488281</ele>
        <time>2012-04-28T09:59:05.000Z</time>
      </trkpt>
      <trkpt lat="45.11979" lon="6.10385">
        <ele>2573.6000976562</ele>
        <time>2012-04-28T09:59:11.000Z</time>
      </trkpt>
      <trkpt lat="45.11979" lon="6.10388">
        <ele>2577.3999023438</ele>
        <time>2012-04-28T09:59:16.000Z</time>
      </trkpt>
      <trkpt lat="45.1198" lon="6.10393">
        <ele>2578.3999023438</ele>
        <time>2012-04-28T09:59:22.000Z</time>
      </trkpt>
      <trkpt lat="45.11981" lon="6.10397">
        <ele>2577.6000976562</ele>
        <time>2012-04-28T09:59:28.000Z</time>
      </trkpt>
      <trkpt lat="45.11982" lon="6.10402">
        <ele>2580</ele>
        <time>2012-04-28T09:59:34.000Z</time>
      </trkpt>
      <trkpt lat="45.11982" lon="6.10403">
        <ele>2580.1999511719</ele>
        <time>2012-04-28T09:59:35.000Z</time>
      </trkpt>
      <trkpt lat="45.11983" lon="6.10405">
        <ele>2581.6000976562</ele>
        <time>2012-04-28T09:59:40.000Z</time>
      </trkpt>
      <trkpt lat="45.11984" lon="6.10411">
        <ele>2583.3999023438</ele>
        <time>2012-04-28T09:59:48.000Z</time>
      </trkpt>
      <trkpt lat="45.11986" lon="6.10414">
        <ele>2585</ele>
        <time>2012-04-28T09:59:54.000Z</time>
      </trkpt>
      <trkpt lat="45.11987" lon="6.10418">
        <ele>2586.3999023438</ele>
        <time>2012-04-28T10:00:00.000Z</time>
      </trkpt>
      <trkpt lat="45.11988" lon="6.10421">
        <ele>2586.1999511719</ele>
        <time>2012-04-28T10:00:05.000Z</time>
      </trkpt>
      <trkpt lat="45.11988" lon="6.10422">
        <ele>2587.6000976562</ele>
        <time>2012-04-28T10:00:08.000Z</time>
      </trkpt>
      <trkpt lat="45.1199" lon="6.10425">
        <ele>2589.3999023438</ele>
        <time>2012-04-28T10:00:13.000Z</time>
      </trkpt>
      <trkpt lat="45.1199" lon="6.10426">
        <ele>2590</ele>
        <time>2012-04-28T10:00:14.000Z</time>
      </trkpt>
      <trkpt lat="45.11998" lon="6.10433">
        <ele>2593.1999511719</ele>
        <time>2012-04-28T10:00:38.000Z</time>
      </trkpt>
      <trkpt lat="45.12001" lon="6.10434">
        <ele>2593.8000488281</ele>
        <time>2012-04-28T10:00:42.000Z</time>
      </trkpt>
      <trkpt lat="45.12004" lon="6.10434">
        <ele>2593</ele>
        <time>2012-04-28T10:00:46.000Z</time>
      </trkpt>
      <trkpt lat="45.12011" lon="6.10429">
        <ele>2594</ele>
        <time>2012-04-28T10:00:55.000Z</time>
      </trkpt>
      <trkpt lat="45.12018" lon="6.10432">
        <ele>2594</ele>
        <time>2012-04-28T10:01:03.000Z</time>
      </trkpt>
      <trkpt lat="45.12024" lon="6.10434">
        <ele>2595.1999511719</ele>
        <time>2012-04-28T10:01:10.000Z</time>
      </trkpt>
      <trkpt lat="45.12033" lon="6.10438">
        <ele>2596.3999023438</ele>
        <time>2012-04-28T10:01:19.000Z</time>
      </trkpt>
      <trkpt lat="45.12035" lon="6.10437">
        <ele>2597.1999511719</ele>
        <time>2012-04-28T10:01:23.000Z</time>
      </trkpt>
      <trkpt lat="45.12039" lon="6.10438">
        <ele>2601</ele>
        <time>2012-04-28T10:01:29.000Z</time>
      </trkpt>
      <trkpt lat="45.12042" lon="6.1044">
        <ele>2604.1999511719</ele>
        <time>2012-04-28T10:01:33.000Z</time>
      </trkpt>
      <trkpt lat="45.12047" lon="6.10443">
        <ele>2601.6000976562</ele>
        <time>2012-04-28T10:01:39.000Z</time>
      </trkpt>
      <trkpt lat="45.12054" lon="6.10447">
        <ele>2601.8000488281</ele>
        <time>2012-04-28T10:01:48.000Z</time>
      </trkpt>
      <trkpt lat="45.1206" lon="6.10452">
        <ele>2603.1999511719</ele>
        <time>2012-04-28T10:01:58.000Z</time>
      </trkpt>
      <trkpt lat="45.12065" lon="6.10456">
        <ele>2601.1999511719</ele>
        <time>2012-04-28T10:02:05.000Z</time>
      </trkpt>
      <trkpt lat="45.12073" lon="6.10461">
        <ele>2605.6000976562</ele>
        <time>2012-04-28T10:02:15.000Z</time>
      </trkpt>
      <trkpt lat="45.12075" lon="6.10463">
        <ele>2607.3999023438</ele>
        <time>2012-04-28T10:02:18.000Z</time>
      </trkpt>
      <trkpt lat="45.12082" lon="6.10471">
        <ele>2606.3999023438</ele>
        <time>2012-04-28T10:02:29.000Z</time>
      </trkpt>
      <trkpt lat="45.12084" lon="6.10473">
        <ele>2607</ele>
        <time>2012-04-28T10:02:32.000Z</time>
      </trkpt>
      <trkpt lat="45.12086" lon="6.10479">
        <ele>2608.8000488281</ele>
        <time>2012-04-28T10:02:38.000Z</time>
      </trkpt>
      <trkpt lat="45.12088" lon="6.10483">
        <ele>2607.3999023438</ele>
        <time>2012-04-28T10:02:42.000Z</time>
      </trkpt>
      <trkpt lat="45.12089" lon="6.10486">
        <ele>2608.6000976562</ele>
        <time>2012-04-28T10:02:48.000Z</time>
      </trkpt>
      <trkpt lat="45.12089" lon="6.10487">
        <ele>2609.6000976562</ele>
        <time>2012-04-28T10:02:50.000Z</time>
      </trkpt>
      <trkpt lat="45.1208" lon="6.10467">
        <ele>2607</ele>
        <time>2012-04-28T10:07:45.000Z</time>
      </trkpt>
      <trkpt lat="45.12066" lon="6.10454">
        <ele>2603.8000488281</ele>
        <time>2012-04-28T10:07:49.000Z</time>
      </trkpt>
      <trkpt lat="45.12061" lon="6.10452">
        <ele>2603</ele>
        <time>2012-04-28T10:07:50.000Z</time>
      </trkpt>
      <trkpt lat="45.1204" lon="6.10435">
        <ele>2601</ele>
        <time>2012-04-28T10:07:54.000Z</time>
      </trkpt>
      <trkpt lat="45.1202" lon="6.10427">
        <ele>2596.3999023438</ele>
        <time>2012-04-28T10:07:57.000Z</time>
      </trkpt>
      <trkpt lat="45.12012" lon="6.10426">
        <ele>2593.3999023438</ele>
        <time>2012-04-28T10:07:58.000Z</time>
      </trkpt>
      <trkpt lat="45.11992" lon="6.10429">
        <ele>2589.3999023438</ele>
        <time>2012-04-28T10:08:01.000Z</time>
      </trkpt>
      <trkpt lat="45.11978" lon="6.10428">
        <ele>2592.1999511719</ele>
        <time>2012-04-28T10:08:05.000Z</time>
      </trkpt>
      <trkpt lat="45.11978" lon="6.10428">
        <ele>2592.8000488281</ele>
        <time>2012-04-28T10:08:07.000Z</time>
      </trkpt>
      <trkpt lat="45.11982" lon="6.10414">
        <ele>2590.1999511719</ele>
        <time>2012-04-28T10:08:11.000Z</time>
      </trkpt>
      <trkpt lat="45.11982" lon="6.10399">
        <ele>2585.1999511719</ele>
        <time>2012-04-28T10:08:14.000Z</time>
      </trkpt>
      <trkpt lat="45.11977" lon="6.10374">
        <ele>2579.3999023438</ele>
        <time>2012-04-28T10:08:18.000Z</time>
      </trkpt>
      <trkpt lat="45.1197" lon="6.10351">
        <ele>2572.6000976562</ele>
        <time>2012-04-28T10:08:21.000Z</time>
      </trkpt>
      <trkpt lat="45.11949" lon="6.10305">
        <ele>2561.8000488281</ele>
        <time>2012-04-28T10:08:26.000Z</time>
      </trkpt>
      <trkpt lat="45.11936" lon="6.10299">
        <ele>2558.1999511719</ele>
        <time>2012-04-28T10:08:28.000Z</time>
      </trkpt>
      <trkpt lat="45.11925" lon="6.10285">
        <ele>2554.1999511719</ele>
        <time>2012-04-28T10:08:31.000Z</time>
      </trkpt>
      <trkpt lat="45.11912" lon="6.10277">
        <ele>2549</ele>
        <time>2012-04-28T10:08:34.000Z</time>
      </trkpt>
      <trkpt lat="45.11906" lon="6.10266">
        <ele>2545</ele>
        <time>2012-04-28T10:08:36.000Z</time>
      </trkpt>
      <trkpt lat="45.11884" lon="6.1025">
        <ele>2539.3999023438</ele>
        <time>2012-04-28T10:08:39.000Z</time>
      </trkpt>
      <trkpt lat="45.11857" lon="6.10235">
        <ele>2531</ele>
        <time>2012-04-28T10:08:42.000Z</time>
      </trkpt>
      <trkpt lat="45.11826" lon="6.10221">
        <ele>2523.6000976562</ele>
        <time>2012-04-28T10:08:45.000Z</time>
      </trkpt>
      <trkpt lat="45.11801" lon="6.10206">
        <ele>2519.1999511719</ele>
        <time>2012-04-28T10:08:48.000Z</time>
      </trkpt>
      <trkpt lat="45.11793" lon="6.10203">
        <ele>2518.8000488281</ele>
        <time>2012-04-28T10:08:49.000Z</time>
      </trkpt>
      <trkpt lat="45.11775" lon="6.10188">
        <ele>2516.6000976562</ele>
        <time>2012-04-28T10:08:52.000Z</time>
      </trkpt>
      <trkpt lat="45.11762" lon="6.10182">
        <ele>2515.8000488281</ele>
        <time>2012-04-28T10:08:54.000Z</time>
      </trkpt>
      <trkpt lat="45.11747" lon="6.10165">
        <ele>2514.1999511719</ele>
        <time>2012-04-28T10:08:57.000Z</time>
      </trkpt>
      <trkpt lat="45.1174" lon="6.10156">
        <ele>2512.3999023438</ele>
        <time>2012-04-28T10:08:58.000Z</time>
      </trkpt>
      <trkpt lat="45.11713" lon="6.1013">
        <ele>2501.1999511719</ele>
        <time>2012-04-28T10:09:03.000Z</time>
      </trkpt>
      <trkpt lat="45.11704" lon="6.10109">
        <ele>2497</ele>
        <time>2012-04-28T10:09:05.000Z</time>
      </trkpt>
      <trkpt lat="45.11694" lon="6.10097">
        <ele>2492</ele>
        <time>2012-04-28T10:09:07.000Z</time>
      </trkpt>
      <trkpt lat="45.11667" lon="6.10067">
        <ele>2478.3999023438</ele>
        <time>2012-04-28T10:09:12.000Z</time>
      </trkpt>
      <trkpt lat="45.11659" lon="6.10057">
        <ele>2474.3999023438</ele>
        <time>2012-04-28T10:09:14.000Z</time>
      </trkpt>
      <trkpt lat="45.11643" lon="6.10059">
        <ele>2470.1999511719</ele>
        <time>2012-04-28T10:09:18.000Z</time>
      </trkpt>
      <trkpt lat="45.11627" lon="6.10066">
        <ele>2465</ele>
        <time>2012-04-28T10:09:21.000Z</time>
      </trkpt>
      <trkpt lat="45.11608" lon="6.10059">
        <ele>2458.6000976562</ele>
        <time>2012-04-28T10:09:24.000Z</time>
      </trkpt>
      <trkpt lat="45.1159" lon="6.10047">
        <ele>2449.3999023438</ele>
        <time>2012-04-28T10:09:27.000Z</time>
      </trkpt>
      <trkpt lat="45.11586" lon="6.10035">
        <ele>2447.6000976562</ele>
        <time>2012-04-28T10:09:28.000Z</time>
      </trkpt>
      <trkpt lat="45.11587" lon="6.09988">
        <ele>2434.8000488281</ele>
        <time>2012-04-28T10:09:33.000Z</time>
      </trkpt>
      <trkpt lat="45.11581" lon="6.09953">
        <ele>2424.3999023438</ele>
        <time>2012-04-28T10:09:37.000Z</time>
      </trkpt>
      <trkpt lat="45.11563" lon="6.09936">
        <ele>2420.3999023438</ele>
        <time>2012-04-28T10:09:40.000Z</time>
      </trkpt>
      <trkpt lat="45.11542" lon="6.09923">
        <ele>2416.1999511719</ele>
        <time>2012-04-28T10:09:43.000Z</time>
      </trkpt>
      <trkpt lat="45.11535" lon="6.09917">
        <ele>2414</ele>
        <time>2012-04-28T10:09:44.000Z</time>
      </trkpt>
      <trkpt lat="45.11486" lon="6.09883">
        <ele>2399.8000488281</ele>
        <time>2012-04-28T10:09:49.000Z</time>
      </trkpt>
      <trkpt lat="45.11442" lon="6.09854">
        <ele>2387.8000488281</ele>
        <time>2012-04-28T10:09:53.000Z</time>
      </trkpt>
      <trkpt lat="45.11415" lon="6.09836">
        <ele>2382.6000976562</ele>
        <time>2012-04-28T10:09:56.000Z</time>
      </trkpt>
      <trkpt lat="45.11399" lon="6.09832">
        <ele>2381.6000976562</ele>
        <time>2012-04-28T10:09:58.000Z</time>
      </trkpt>
      <trkpt lat="45.1138" lon="6.09842">
        <ele>2379.6000976562</ele>
        <time>2012-04-28T10:10:01.000Z</time>
      </trkpt>
      <trkpt lat="45.11363" lon="6.09858">
        <ele>2375</ele>
        <time>2012-04-28T10:10:05.000Z</time>
      </trkpt>
      <trkpt lat="45.11357" lon="6.0986">
        <ele>2374</ele>
        <time>2012-04-28T10:10:07.000Z</time>
      </trkpt>
      <trkpt lat="45.11354" lon="6.0986">
        <ele>2373.8000488281</ele>
        <time>2012-04-28T10:10:08.000Z</time>
      </trkpt>
      <trkpt lat="45.11345" lon="6.09858">
        <ele>2373.3999023438</ele>
        <time>2012-04-28T10:10:10.000Z</time>
      </trkpt>
      <trkpt lat="45.1133" lon="6.0983">
        <ele>2367.3999023438</ele>
        <time>2012-04-28T10:10:14.000Z</time>
      </trkpt>
      <trkpt lat="45.11317" lon="6.09813">
        <ele>2362.6000976562</ele>
        <time>2012-04-28T10:10:16.000Z</time>
      </trkpt>
      <trkpt lat="45.11263" lon="6.09777">
        <ele>2354.3999023438</ele>
        <time>2012-04-28T10:10:23.000Z</time>
      </trkpt>
      <trkpt lat="45.11237" lon="6.09745">
        <ele>2348.6000976562</ele>
        <time>2012-04-28T10:10:27.000Z</time>
      </trkpt>
      <trkpt lat="45.11222" lon="6.09721">
        <ele>2344.3999023438</ele>
        <time>2012-04-28T10:10:29.000Z</time>
      </trkpt>
      <trkpt lat="45.11205" lon="6.0968">
        <ele>2334.8000488281</ele>
        <time>2012-04-28T10:10:32.000Z</time>
      </trkpt>
      <trkpt lat="45.11196" lon="6.09651">
        <ele>2330.6000976562</ele>
        <time>2012-04-28T10:10:34.000Z</time>
      </trkpt>
      <trkpt lat="45.11176" lon="6.09594">
        <ele>2319.6000976562</ele>
        <time>2012-04-28T10:10:39.000Z</time>
      </trkpt>
      <trkpt lat="45.11168" lon="6.09567">
        <ele>2311.8000488281</ele>
        <time>2012-04-28T10:10:42.000Z</time>
      </trkpt>
      <trkpt lat="45.11161" lon="6.09536">
        <ele>2304.6000976562</ele>
        <time>2012-04-28T10:10:45.000Z</time>
      </trkpt>
      <trkpt lat="45.11156" lon="6.09479">
        <ele>2289</ele>
        <time>2012-04-28T10:10:50.000Z</time>
      </trkpt>
      <trkpt lat="45.11157" lon="6.0945">
        <ele>2280.6000976562</ele>
        <time>2012-04-28T10:10:53.000Z</time>
      </trkpt>
      <trkpt lat="45.11154" lon="6.09433">
        <ele>2275.3999023438</ele>
        <time>2012-04-28T10:10:55.000Z</time>
      </trkpt>
      <trkpt lat="45.11156" lon="6.09403">
        <ele>2269.1999511719</ele>
        <time>2012-04-28T10:10:58.000Z</time>
      </trkpt>
      <trkpt lat="45.11157" lon="6.09365">
        <ele>2259.8000488281</ele>
        <time>2012-04-28T10:11:01.000Z</time>
      </trkpt>
      <trkpt lat="45.11163" lon="6.09346">
        <ele>2257</ele>
        <time>2012-04-28T10:11:03.000Z</time>
      </trkpt>
      <trkpt lat="45.11161" lon="6.09343">
        <ele>2256.6000976562</ele>
        <time>2012-04-28T10:11:04.000Z</time>
      </trkpt>
      <trkpt lat="45.11161" lon="6.09348">
        <ele>2258.3999023438</ele>
        <time>2012-04-28T10:11:07.000Z</time>
      </trkpt>
      <trkpt lat="45.11161" lon="6.09349">
        <ele>2257.6000976562</ele>
        <time>2012-04-28T10:11:11.000Z</time>
      </trkpt>
      <trkpt lat="45.11153" lon="6.09342">
        <ele>2258</ele>
        <time>2012-04-28T10:11:16.000Z</time>
      </trkpt>
      <trkpt lat="45.11141" lon="6.09318">
        <ele>2254.3999023438</ele>
        <time>2012-04-28T10:11:20.000Z</time>
      </trkpt>
      <trkpt lat="45.11127" lon="6.09315">
        <ele>2251.1999511719</ele>
        <time>2012-04-28T10:11:23.000Z</time>
      </trkpt>
      <trkpt lat="45.1112" lon="6.09306">
        <ele>2249.3999023438</ele>
        <time>2012-04-28T10:11:25.000Z</time>
      </trkpt>
      <trkpt lat="45.11112" lon="6.09294">
        <ele>2246.6000976562</ele>
        <time>2012-04-28T10:11:28.000Z</time>
      </trkpt>
      <trkpt lat="45.11092" lon="6.09282">
        <ele>2240.8000488281</ele>
        <time>2012-04-28T10:11:33.000Z</time>
      </trkpt>
      <trkpt lat="45.1108" lon="6.09276">
        <ele>2236.1999511719</ele>
        <time>2012-04-28T10:11:35.000Z</time>
      </trkpt>
      <trkpt lat="45.11056" lon="6.09283">
        <ele>2223.1999511719</ele>
        <time>2012-04-28T10:11:40.000Z</time>
      </trkpt>
      <trkpt lat="45.11043" lon="6.09282">
        <ele>2216.3999023438</ele>
        <time>2012-04-28T10:11:43.000Z</time>
      </trkpt>
      <trkpt lat="45.1103" lon="6.09272">
        <ele>2211.1999511719</ele>
        <time>2012-04-28T10:11:46.000Z</time>
      </trkpt>
      <trkpt lat="45.11019" lon="6.09271">
        <ele>2209.1999511719</ele>
        <time>2012-04-28T10:11:48.000Z</time>
      </trkpt>
      <trkpt lat="45.11005" lon="6.09265">
        <ele>2205.1999511719</ele>
        <time>2012-04-28T10:11:51.000Z</time>
      </trkpt>
      <trkpt lat="45.10994" lon="6.09259">
        <ele>2199.8000488281</ele>
        <time>2012-04-28T10:11:55.000Z</time>
      </trkpt>
      <trkpt lat="45.10994" lon="6.09257">
        <ele>2199.6000976562</ele>
        <time>2012-04-28T10:11:56.000Z</time>
      </trkpt>
      <trkpt lat="45.10989" lon="6.0925">
        <ele>2197.8000488281</ele>
        <time>2012-04-28T10:12:11.000Z</time>
      </trkpt>
      <trkpt lat="45.1098" lon="6.09238">
        <ele>2196.1999511719</ele>
        <time>2012-04-28T10:12:15.000Z</time>
      </trkpt>
      <trkpt lat="45.10978" lon="6.09227">
        <ele>2192.3999023438</ele>
        <time>2012-04-28T10:12:17.000Z</time>
      </trkpt>
      <trkpt lat="45.10976" lon="6.0921">
        <ele>2187</ele>
        <time>2012-04-28T10:12:20.000Z</time>
      </trkpt>
      <trkpt lat="45.1097" lon="6.09199">
        <ele>2184.1999511719</ele>
        <time>2012-04-28T10:12:22.000Z</time>
      </trkpt>
      <trkpt lat="45.1096" lon="6.0918">
        <ele>2180</ele>
        <time>2012-04-28T10:12:25.000Z</time>
      </trkpt>
      <trkpt lat="45.10949" lon="6.09157">
        <ele>2174</ele>
        <time>2012-04-28T10:12:28.000Z</time>
      </trkpt>
      <trkpt lat="45.10941" lon="6.09142">
        <ele>2167.8000488281</ele>
        <time>2012-04-28T10:12:31.000Z</time>
      </trkpt>
      <trkpt lat="45.1093" lon="6.09128">
        <ele>2160.3999023438</ele>
        <time>2012-04-28T10:12:34.000Z</time>
      </trkpt>
      <trkpt lat="45.10921" lon="6.09118">
        <ele>2155.1999511719</ele>
        <time>2012-04-28T10:12:36.000Z</time>
      </trkpt>
      <trkpt lat="45.1091" lon="6.09103">
        <ele>2149.6000976562</ele>
        <time>2012-04-28T10:12:39.000Z</time>
      </trkpt>
      <trkpt lat="45.10897" lon="6.09095">
        <ele>2143.3999023438</ele>
        <time>2012-04-28T10:12:42.000Z</time>
      </trkpt>
      <trkpt lat="45.10881" lon="6.09071">
        <ele>2136</ele>
        <time>2012-04-28T10:12:46.000Z</time>
      </trkpt>
      <trkpt lat="45.1087" lon="6.09057">
        <ele>2130.8000488281</ele>
        <time>2012-04-28T10:12:49.000Z</time>
      </trkpt>
      <trkpt lat="45.1086" lon="6.09055">
        <ele>2125.1999511719</ele>
        <time>2012-04-28T10:12:52.000Z</time>
      </trkpt>
      <trkpt lat="45.10858" lon="6.09062">
        <ele>2122.8000488281</ele>
        <time>2012-04-28T10:12:55.000Z</time>
      </trkpt>
      <trkpt lat="45.10858" lon="6.09064">
        <ele>2122.3999023438</ele>
        <time>2012-04-28T10:12:56.000Z</time>
      </trkpt>
      <trkpt lat="45.10857" lon="6.09067">
        <ele>2122.1999511719</ele>
        <time>2012-04-28T10:13:04.000Z</time>
      </trkpt>
      <trkpt lat="45.10857" lon="6.09067">
        <ele>2122.3999023438</ele>
        <time>2012-04-28T10:13:05.000Z</time>
      </trkpt>
      <trkpt lat="45.10869" lon="6.09063">
        <ele>2123.6000976562</ele>
        <time>2012-04-28T10:17:22.000Z</time>
      </trkpt>
      <trkpt lat="45.10869" lon="6.09066">
        <ele>2124.8000488281</ele>
        <time>2012-04-28T10:17:25.000Z</time>
      </trkpt>
      <trkpt lat="45.10872" lon="6.09073">
        <ele>2126</ele>
        <time>2012-04-28T10:17:32.000Z</time>
      </trkpt>
      <trkpt lat="45.1087" lon="6.09084">
        <ele>2127.8000488281</ele>
        <time>2012-04-28T10:17:39.000Z</time>
      </trkpt>
      <trkpt lat="45.10874" lon="6.09086">
        <ele>2129.1999511719</ele>
        <time>2012-04-28T10:17:45.000Z</time>
      </trkpt>
      <trkpt lat="45.10875" lon="6.09085">
        <ele>2129.6000976562</ele>
        <time>2012-04-28T10:17:47.000Z</time>
      </trkpt>
      <trkpt lat="45.10882" lon="6.09085">
        <ele>2127.8000488281</ele>
        <time>2012-04-28T10:19:10.000Z</time>
      </trkpt>
      <trkpt lat="45.10884" lon="6.09092">
        <ele>2129.6000976562</ele>
        <time>2012-04-28T10:19:18.000Z</time>
      </trkpt>
      <trkpt lat="45.10886" lon="6.09098">
        <ele>2132.6000976562</ele>
        <time>2012-04-28T10:19:26.000Z</time>
      </trkpt>
      <trkpt lat="45.10887" lon="6.091">
        <ele>2133</ele>
        <time>2012-04-28T10:19:29.000Z</time>
      </trkpt>
      <trkpt lat="45.1089" lon="6.09104">
        <ele>2134.8000488281</ele>
        <time>2012-04-28T10:19:36.000Z</time>
      </trkpt>
      <trkpt lat="45.10889" lon="6.09105">
        <ele>2135</ele>
        <time>2012-04-28T10:19:37.000Z</time>
      </trkpt>
      <trkpt lat="45.10891" lon="6.09114">
        <ele>2135</ele>
        <time>2012-04-28T10:19:59.000Z</time>
      </trkpt>
      <trkpt lat="45.10895" lon="6.09116">
        <ele>2136.1999511719</ele>
        <time>2012-04-28T10:20:05.000Z</time>
      </trkpt>
      <trkpt lat="45.10897" lon="6.09119">
        <ele>2138.1999511719</ele>
        <time>2012-04-28T10:20:12.000Z</time>
      </trkpt>
      <trkpt lat="45.109" lon="6.0912">
        <ele>2140</ele>
        <time>2012-04-28T10:20:16.000Z</time>
      </trkpt>
      <trkpt lat="45.10902" lon="6.09122">
        <ele>2142.3999023438</ele>
        <time>2012-04-28T10:20:22.000Z</time>
      </trkpt>
      <trkpt lat="45.10903" lon="6.09124">
        <ele>2143.8000488281</ele>
        <time>2012-04-28T10:20:26.000Z</time>
      </trkpt>
      <trkpt lat="45.10905" lon="6.09129">
        <ele>2145</ele>
        <time>2012-04-28T10:20:34.000Z</time>
      </trkpt>
      <trkpt lat="45.10907" lon="6.09132">
        <ele>2145.8000488281</ele>
        <time>2012-04-28T10:20:40.000Z</time>
      </trkpt>
      <trkpt lat="45.10909" lon="6.09134">
        <ele>2148.3999023438</ele>
        <time>2012-04-28T10:20:46.000Z</time>
      </trkpt>
      <trkpt lat="45.10912" lon="6.09137">
        <ele>2149.8000488281</ele>
        <time>2012-04-28T10:20:52.000Z</time>
      </trkpt>
      <trkpt lat="45.10916" lon="6.09138">
        <ele>2148.8000488281</ele>
        <time>2012-04-28T10:20:58.000Z</time>
      </trkpt>
      <trkpt lat="45.1092" lon="6.09138">
        <ele>2150.6000976562</ele>
        <time>2012-04-28T10:21:04.000Z</time>
      </trkpt>
      <trkpt lat="45.10924" lon="6.0914">
        <ele>2152</ele>
        <time>2012-04-28T10:21:11.000Z</time>
      </trkpt>
      <trkpt lat="45.10923" lon="6.09142">
        <ele>2152.3999023438</ele>
        <time>2012-04-28T10:21:13.000Z</time>
      </trkpt>
      <trkpt lat="45.10925" lon="6.09143">
        <ele>2153.6000976562</ele>
        <time>2012-04-28T10:21:17.000Z</time>
      </trkpt>
      <trkpt lat="45.10925" lon="6.09144">
        <ele>2154.3999023438</ele>
        <time>2012-04-28T10:21:18.000Z</time>
      </trkpt>
      <trkpt lat="45.10928" lon="6.09147">
        <ele>2154.6000976562</ele>
        <time>2012-04-28T10:21:25.000Z</time>
      </trkpt>
      <trkpt lat="45.10931" lon="6.09149">
        <ele>2156.3999023438</ele>
        <time>2012-04-28T10:21:31.000Z</time>
      </trkpt>
      <trkpt lat="45.10932" lon="6.09152">
        <ele>2156.6000976562</ele>
        <time>2012-04-28T10:21:36.000Z</time>
      </trkpt>
      <trkpt lat="45.10934" lon="6.09158">
        <ele>2157.3999023438</ele>
        <time>2012-04-28T10:21:46.000Z</time>
      </trkpt>
      <trkpt lat="45.10935" lon="6.09164">
        <ele>2159.3999023438</ele>
        <time>2012-04-28T10:21:53.000Z</time>
      </trkpt>
      <trkpt lat="45.10937" lon="6.09167">
        <ele>2160.1999511719</ele>
        <time>2012-04-28T10:21:58.000Z</time>
      </trkpt>
      <trkpt lat="45.1094" lon="6.0917">
        <ele>2162.1999511719</ele>
        <time>2012-04-28T10:22:04.000Z</time>
      </trkpt>
      <trkpt lat="45.10943" lon="6.09171">
        <ele>2163.8000488281</ele>
        <time>2012-04-28T10:22:09.000Z</time>
      </trkpt>
      <trkpt lat="45.10946" lon="6.09173">
        <ele>2166</ele>
        <time>2012-04-28T10:22:15.000Z</time>
      </trkpt>
      <trkpt lat="45.10949" lon="6.09177">
        <ele>2166.6000976562</ele>
        <time>2012-04-28T10:22:22.000Z</time>
      </trkpt>
      <trkpt lat="45.10953" lon="6.0918">
        <ele>2168.1999511719</ele>
        <time>2012-04-28T10:22:30.000Z</time>
      </trkpt>
      <trkpt lat="45.10955" lon="6.09183">
        <ele>2169.6000976562</ele>
        <time>2012-04-28T10:22:35.000Z</time>
      </trkpt>
      <trkpt lat="45.10956" lon="6.09187">
        <ele>2169.8000488281</ele>
        <time>2012-04-28T10:22:40.000Z</time>
      </trkpt>
      <trkpt lat="45.10955" lon="6.0919">
        <ele>2171.1999511719</ele>
        <time>2012-04-28T10:22:44.000Z</time>
      </trkpt>
      <trkpt lat="45.10956" lon="6.09194">
        <ele>2172.8000488281</ele>
        <time>2012-04-28T10:22:50.000Z</time>
      </trkpt>
      <trkpt lat="45.10958" lon="6.09198">
        <ele>2174.8000488281</ele>
        <time>2012-04-28T10:22:58.000Z</time>
      </trkpt>
      <trkpt lat="45.10959" lon="6.092">
        <ele>2176.6000976562</ele>
        <time>2012-04-28T10:23:02.000Z</time>
      </trkpt>
      <trkpt lat="45.10961" lon="6.09203">
        <ele>2177</ele>
        <time>2012-04-28T10:23:08.000Z</time>
      </trkpt>
      <trkpt lat="45.10964" lon="6.09206">
        <ele>2177.3999023438</ele>
        <time>2012-04-28T10:23:14.000Z</time>
      </trkpt>
      <trkpt lat="45.10969" lon="6.09209">
        <ele>2178.1999511719</ele>
        <time>2012-04-28T10:23:21.000Z</time>
      </trkpt>
      <trkpt lat="45.10971" lon="6.09213">
        <ele>2178.8000488281</ele>
        <time>2012-04-28T10:23:28.000Z</time>
      </trkpt>
      <trkpt lat="45.10971" lon="6.09213">
        <ele>2180</ele>
        <time>2012-04-28T10:23:30.000Z</time>
      </trkpt>
      <trkpt lat="45.10974" lon="6.09218">
        <ele>2179.1999511719</ele>
        <time>2012-04-28T10:24:00.000Z</time>
      </trkpt>
      <trkpt lat="45.10975" lon="6.09221">
        <ele>2181.1999511719</ele>
        <time>2012-04-28T10:24:04.000Z</time>
      </trkpt>
      <trkpt lat="45.10977" lon="6.09228">
        <ele>2183.3999023438</ele>
        <time>2012-04-28T10:24:10.000Z</time>
      </trkpt>
      <trkpt lat="45.10977" lon="6.09229">
        <ele>2183.8000488281</ele>
        <time>2012-04-28T10:24:11.000Z</time>
      </trkpt>
      <trkpt lat="45.1098" lon="6.09232">
        <ele>2186.3999023438</ele>
        <time>2012-04-28T10:24:16.000Z</time>
      </trkpt>
      <trkpt lat="45.10983" lon="6.09235">
        <ele>2182.3999023438</ele>
        <time>2012-04-28T10:24:21.000Z</time>
      </trkpt>
      <trkpt lat="45.10985" lon="6.09237">
        <ele>2186.3999023438</ele>
        <time>2012-04-28T10:24:25.000Z</time>
      </trkpt>
      <trkpt lat="45.10989" lon="6.09241">
        <ele>2190.1999511719</ele>
        <time>2012-04-28T10:24:31.000Z</time>
      </trkpt>
      <trkpt lat="45.10991" lon="6.09241">
        <ele>2191.1999511719</ele>
        <time>2012-04-28T10:24:33.000Z</time>
      </trkpt>
      <trkpt lat="45.10993" lon="6.09242">
        <ele>2186.8000488281</ele>
        <time>2012-04-28T10:24:38.000Z</time>
      </trkpt>
      <trkpt lat="45.10996" lon="6.09246">
        <ele>2189.3999023438</ele>
        <time>2012-04-28T10:24:46.000Z</time>
      </trkpt>
      <trkpt lat="45.11" lon="6.09248">
        <ele>2192.1999511719</ele>
        <time>2012-04-28T10:24:51.000Z</time>
      </trkpt>
      <trkpt lat="45.11003" lon="6.09249">
        <ele>2191.8000488281</ele>
        <time>2012-04-28T10:24:55.000Z</time>
      </trkpt>
      <trkpt lat="45.11005" lon="6.09252">
        <ele>2192.8000488281</ele>
        <time>2012-04-28T10:25:00.000Z</time>
      </trkpt>
      <trkpt lat="45.11009" lon="6.09256">
        <ele>2195.1999511719</ele>
        <time>2012-04-28T10:25:08.000Z</time>
      </trkpt>
      <trkpt lat="45.11013" lon="6.09258">
        <ele>2197.1999511719</ele>
        <time>2012-04-28T10:25:13.000Z</time>
      </trkpt>
      <trkpt lat="45.11017" lon="6.09261">
        <ele>2201</ele>
        <time>2012-04-28T10:25:27.000Z</time>
      </trkpt>
      <trkpt lat="45.1102" lon="6.09261">
        <ele>2201</ele>
        <time>2012-04-28T10:25:31.000Z</time>
      </trkpt>
      <trkpt lat="45.1102" lon="6.09262">
        <ele>2200.8000488281</ele>
        <time>2012-04-28T10:25:32.000Z</time>
      </trkpt>
      <trkpt lat="45.11024" lon="6.09263">
        <ele>2202.1999511719</ele>
        <time>2012-04-28T10:25:40.000Z</time>
      </trkpt>
      <trkpt lat="45.11025" lon="6.09264">
        <ele>2202.3999023438</ele>
        <time>2012-04-28T10:25:41.000Z</time>
      </trkpt>
      <trkpt lat="45.11026" lon="6.09264">
        <ele>2201.8000488281</ele>
        <time>2012-04-28T10:25:43.000Z</time>
      </trkpt>
      <trkpt lat="45.11031" lon="6.09265">
        <ele>2204</ele>
        <time>2012-04-28T10:25:49.000Z</time>
      </trkpt>
      <trkpt lat="45.11034" lon="6.09266">
        <ele>2205.8000488281</ele>
        <time>2012-04-28T10:25:55.000Z</time>
      </trkpt>
      <trkpt lat="45.11038" lon="6.09267">
        <ele>2209.8000488281</ele>
        <time>2012-04-28T10:26:03.000Z</time>
      </trkpt>
      <trkpt lat="45.11041" lon="6.09268">
        <ele>2210.1999511719</ele>
        <time>2012-04-28T10:26:08.000Z</time>
      </trkpt>
      <trkpt lat="45.11042" lon="6.09268">
        <ele>2210.8000488281</ele>
        <time>2012-04-28T10:26:10.000Z</time>
      </trkpt>
      <trkpt lat="45.11046" lon="6.0927">
        <ele>2212</ele>
        <time>2012-04-28T10:26:19.000Z</time>
      </trkpt>
      <trkpt lat="45.11049" lon="6.09271">
        <ele>2213.1999511719</ele>
        <time>2012-04-28T10:26:26.000Z</time>
      </trkpt>
      <trkpt lat="45.1105" lon="6.09272">
        <ele>2214</ele>
        <time>2012-04-28T10:26:29.000Z</time>
      </trkpt>
      <trkpt lat="45.11053" lon="6.09271">
        <ele>2216.1999511719</ele>
        <time>2012-04-28T10:26:35.000Z</time>
      </trkpt>
      <trkpt lat="45.11055" lon="6.09271">
        <ele>2217.8000488281</ele>
        <time>2012-04-28T10:26:40.000Z</time>
      </trkpt>
      <trkpt lat="45.11056" lon="6.09271">
        <ele>2218.6000976562</ele>
        <time>2012-04-28T10:26:43.000Z</time>
      </trkpt>
      <trkpt lat="45.1106" lon="6.09271">
        <ele>2218.1999511719</ele>
        <time>2012-04-28T10:26:49.000Z</time>
      </trkpt>
      <trkpt lat="45.11063" lon="6.09272">
        <ele>2220.1999511719</ele>
        <time>2012-04-28T10:26:55.000Z</time>
      </trkpt>
      <trkpt lat="45.11067" lon="6.09274">
        <ele>2219.8000488281</ele>
        <time>2012-04-28T10:27:02.000Z</time>
      </trkpt>
      <trkpt lat="45.11069" lon="6.09275">
        <ele>2221.3999023438</ele>
        <time>2012-04-28T10:27:05.000Z</time>
      </trkpt>
      <trkpt lat="45.11072" lon="6.09276">
        <ele>2223.6000976562</ele>
        <time>2012-04-28T10:27:09.000Z</time>
      </trkpt>
      <trkpt lat="45.11076" lon="6.09278">
        <ele>2225</ele>
        <time>2012-04-28T10:27:15.000Z</time>
      </trkpt>
      <trkpt lat="45.11083" lon="6.09281">
        <ele>2226.6000976562</ele>
        <time>2012-04-28T10:27:27.000Z</time>
      </trkpt>
      <trkpt lat="45.11087" lon="6.09281">
        <ele>2228.6000976562</ele>
        <time>2012-04-28T10:27:33.000Z</time>
      </trkpt>
      <trkpt lat="45.11093" lon="6.09283">
        <ele>2231.6000976562</ele>
        <time>2012-04-28T10:27:42.000Z</time>
      </trkpt>
      <trkpt lat="45.111" lon="6.09287">
        <ele>2232.3999023438</ele>
        <time>2012-04-28T10:27:52.000Z</time>
      </trkpt>
      <trkpt lat="45.11105" lon="6.0929">
        <ele>2234.8000488281</ele>
        <time>2012-04-28T10:28:01.000Z</time>
      </trkpt>
      <trkpt lat="45.11107" lon="6.09291">
        <ele>2235.1999511719</ele>
        <time>2012-04-28T10:28:05.000Z</time>
      </trkpt>
      <trkpt lat="45.11111" lon="6.09295">
        <ele>2237.3999023438</ele>
        <time>2012-04-28T10:28:13.000Z</time>
      </trkpt>
      <trkpt lat="45.11115" lon="6.09299">
        <ele>2238.3999023438</ele>
        <time>2012-04-28T10:28:22.000Z</time>
      </trkpt>
      <trkpt lat="45.11118" lon="6.09303">
        <ele>2239.3999023438</ele>
        <time>2012-04-28T10:28:29.000Z</time>
      </trkpt>
      <trkpt lat="45.11124" lon="6.0931">
        <ele>2241.1999511719</ele>
        <time>2012-04-28T10:28:39.000Z</time>
      </trkpt>
      <trkpt lat="45.11125" lon="6.09312">
        <ele>2242.3999023438</ele>
        <time>2012-04-28T10:28:42.000Z</time>
      </trkpt>
      <trkpt lat="45.1113" lon="6.09319">
        <ele>2244.3999023438</ele>
        <time>2012-04-28T10:28:52.000Z</time>
      </trkpt>
      <trkpt lat="45.11132" lon="6.09323">
        <ele>2245</ele>
        <time>2012-04-28T10:28:58.000Z</time>
      </trkpt>
      <trkpt lat="45.11139" lon="6.09329">
        <ele>2246.8000488281</ele>
        <time>2012-04-28T10:29:07.000Z</time>
      </trkpt>
      <trkpt lat="45.11145" lon="6.09336">
        <ele>2247.8000488281</ele>
        <time>2012-04-28T10:29:18.000Z</time>
      </trkpt>
      <trkpt lat="45.11149" lon="6.09341">
        <ele>2249.3999023438</ele>
        <time>2012-04-28T10:29:25.000Z</time>
      </trkpt>
      <trkpt lat="45.11153" lon="6.0935">
        <ele>2251.3999023438</ele>
        <time>2012-04-28T10:29:34.000Z</time>
      </trkpt>
      <trkpt lat="45.11156" lon="6.09357">
        <ele>2252.8000488281</ele>
        <time>2012-04-28T10:29:42.000Z</time>
      </trkpt>
      <trkpt lat="45.11158" lon="6.09369">
        <ele>2251.8000488281</ele>
        <time>2012-04-28T10:29:52.000Z</time>
      </trkpt>
      <trkpt lat="45.11157" lon="6.09379">
        <ele>2252.6000976562</ele>
        <time>2012-04-28T10:29:59.000Z</time>
      </trkpt>
      <trkpt lat="45.11158" lon="6.0938">
        <ele>2252.6000976562</ele>
        <time>2012-04-28T10:30:00.000Z</time>
      </trkpt>
      <trkpt lat="45.11157" lon="6.09389">
        <ele>2255</ele>
        <time>2012-04-28T10:30:09.000Z</time>
      </trkpt>
      <trkpt lat="45.11156" lon="6.09401">
        <ele>2255.8000488281</ele>
        <time>2012-04-28T10:30:20.000Z</time>
      </trkpt>
      <trkpt lat="45.11156" lon="6.09406">
        <ele>2255.6000976562</ele>
        <time>2012-04-28T10:30:26.000Z</time>
      </trkpt>
      <trkpt lat="45.11155" lon="6.09411">
        <ele>2255.3999023438</ele>
        <time>2012-04-28T10:30:32.000Z</time>
      </trkpt>
      <trkpt lat="45.11154" lon="6.09418">
        <ele>2257.8000488281</ele>
        <time>2012-04-28T10:30:40.000Z</time>
      </trkpt>
      <trkpt lat="45.11153" lon="6.09421">
        <ele>2260.1999511719</ele>
        <time>2012-04-28T10:30:44.000Z</time>
      </trkpt>
      <trkpt lat="45.11153" lon="6.09426">
        <ele>2262.3999023438</ele>
        <time>2012-04-28T10:30:52.000Z</time>
      </trkpt>
      <trkpt lat="45.11154" lon="6.09427">
        <ele>2263.6000976562</ele>
        <time>2012-04-28T10:30:55.000Z</time>
      </trkpt>
      <trkpt lat="45.11153" lon="6.09432">
        <ele>2265.8000488281</ele>
        <time>2012-04-28T10:31:03.000Z</time>
      </trkpt>
      <trkpt lat="45.11153" lon="6.09432">
        <ele>2266</ele>
        <time>2012-04-28T10:31:04.000Z</time>
      </trkpt>
      <trkpt lat="45.11155" lon="6.09441">
        <ele>2268.3999023438</ele>
        <time>2012-04-28T10:31:24.000Z</time>
      </trkpt>
      <trkpt lat="45.11155" lon="6.09444">
        <ele>2268.3999023438</ele>
        <time>2012-04-28T10:31:28.000Z</time>
      </trkpt>
      <trkpt lat="45.11155" lon="6.09451">
        <ele>2269.1999511719</ele>
        <time>2012-04-28T10:31:35.000Z</time>
      </trkpt>
      <trkpt lat="45.11156" lon="6.09455">
        <ele>2271</ele>
        <time>2012-04-28T10:31:41.000Z</time>
      </trkpt>
      <trkpt lat="45.11156" lon="6.09461">
        <ele>2271.3999023438</ele>
        <time>2012-04-28T10:31:48.000Z</time>
      </trkpt>
      <trkpt lat="45.11156" lon="6.09467">
        <ele>2272.6000976562</ele>
        <time>2012-04-28T10:31:55.000Z</time>
      </trkpt>
      <trkpt lat="45.11154" lon="6.09479">
        <ele>2276.1999511719</ele>
        <time>2012-04-28T10:32:04.000Z</time>
      </trkpt>
      <trkpt lat="45.11154" lon="6.0949">
        <ele>2277.1999511719</ele>
        <time>2012-04-28T10:32:14.000Z</time>
      </trkpt>
      <trkpt lat="45.11155" lon="6.09493">
        <ele>2278.1999511719</ele>
        <time>2012-04-28T10:32:19.000Z</time>
      </trkpt>
      <trkpt lat="45.11151" lon="6.09502">
        <ele>2279</ele>
        <time>2012-04-28T10:32:25.000Z</time>
      </trkpt>
      <trkpt lat="45.11152" lon="6.09506">
        <ele>2280.1999511719</ele>
        <time>2012-04-28T10:32:31.000Z</time>
      </trkpt>
      <trkpt lat="45.11155" lon="6.09508">
        <ele>2282.1999511719</ele>
        <time>2012-04-28T10:32:37.000Z</time>
      </trkpt>
      <trkpt lat="45.11153" lon="6.09514">
        <ele>2283</ele>
        <time>2012-04-28T10:32:42.000Z</time>
      </trkpt>
      <trkpt lat="45.11152" lon="6.09519">
        <ele>2283.6000976562</ele>
        <time>2012-04-28T10:32:47.000Z</time>
      </trkpt>
      <trkpt lat="45.11154" lon="6.09523">
        <ele>2284.8000488281</ele>
        <time>2012-04-28T10:32:53.000Z</time>
      </trkpt>
      <trkpt lat="45.11156" lon="6.09525">
        <ele>2286.1999511719</ele>
        <time>2012-04-28T10:32:58.000Z</time>
      </trkpt>
      <trkpt lat="45.11157" lon="6.09529">
        <ele>2287.6000976562</ele>
        <time>2012-04-28T10:33:05.000Z</time>
      </trkpt>
      <trkpt lat="45.11159" lon="6.09531">
        <ele>2288.3999023438</ele>
        <time>2012-04-28T10:33:10.000Z</time>
      </trkpt>
      <trkpt lat="45.11161" lon="6.09534">
        <ele>2290.1999511719</ele>
        <time>2012-04-28T10:33:16.000Z</time>
      </trkpt>
      <trkpt lat="45.11163" lon="6.09536">
        <ele>2291.3999023438</ele>
        <time>2012-04-28T10:33:21.000Z</time>
      </trkpt>
      <trkpt lat="45.11164" lon="6.0954">
        <ele>2293.1999511719</ele>
        <time>2012-04-28T10:33:27.000Z</time>
      </trkpt>
      <trkpt lat="45.11164" lon="6.09543">
        <ele>2294.6000976562</ele>
        <time>2012-04-28T10:33:32.000Z</time>
      </trkpt>
      <trkpt lat="45.11164" lon="6.09547">
        <ele>2296</ele>
        <time>2012-04-28T10:33:37.000Z</time>
      </trkpt>
      <trkpt lat="45.11164" lon="6.09551">
        <ele>2295</ele>
        <time>2012-04-28T10:33:43.000Z</time>
      </trkpt>
      <trkpt lat="45.11164" lon="6.09557">
        <ele>2296.3999023438</ele>
        <time>2012-04-28T10:33:49.000Z</time>
      </trkpt>
      <trkpt lat="45.11165" lon="6.0956">
        <ele>2297.1999511719</ele>
        <time>2012-04-28T10:33:54.000Z</time>
      </trkpt>
      <trkpt lat="45.11166" lon="6.09562">
        <ele>2298.8000488281</ele>
        <time>2012-04-28T10:33:58.000Z</time>
      </trkpt>
      <trkpt lat="45.11166" lon="6.09567">
        <ele>2300.3999023438</ele>
        <time>2012-04-28T10:34:03.000Z</time>
      </trkpt>
      <trkpt lat="45.11166" lon="6.09575">
        <ele>2301.3999023438</ele>
        <time>2012-04-28T10:34:10.000Z</time>
      </trkpt>
      <trkpt lat="45.11168" lon="6.0958">
        <ele>2303.8000488281</ele>
        <time>2012-04-28T10:34:19.000Z</time>
      </trkpt>
      <trkpt lat="45.11171" lon="6.09579">
        <ele>2304.1999511719</ele>
        <time>2012-04-28T10:35:03.000Z</time>
      </trkpt>
      <trkpt lat="45.11174" lon="6.09583">
        <ele>2305.1999511719</ele>
        <time>2012-04-28T10:35:29.000Z</time>
      </trkpt>
      <trkpt lat="45.11175" lon="6.09586">
        <ele>2305.6000976562</ele>
        <time>2012-04-28T10:35:31.000Z</time>
      </trkpt>
      <trkpt lat="45.11176" lon="6.09596">
        <ele>2307.8000488281</ele>
        <time>2012-04-28T10:35:40.000Z</time>
      </trkpt>
      <trkpt lat="45.11178" lon="6.09599">
        <ele>2309.1999511719</ele>
        <time>2012-04-28T10:35:43.000Z</time>
      </trkpt>
      <trkpt lat="45.11178" lon="6.09604">
        <ele>2309.8000488281</ele>
        <time>2012-04-28T10:35:47.000Z</time>
      </trkpt>
      <trkpt lat="45.11182" lon="6.09609">
        <ele>2312</ele>
        <time>2012-04-28T10:35:55.000Z</time>
      </trkpt>
      <trkpt lat="45.11183" lon="6.0961">
        <ele>2312.1999511719</ele>
        <time>2012-04-28T10:35:56.000Z</time>
      </trkpt>
      <trkpt lat="45.11188" lon="6.09616">
        <ele>2314</ele>
        <time>2012-04-28T10:36:06.000Z</time>
      </trkpt>
      <trkpt lat="45.11193" lon="6.09622">
        <ele>2315.1999511719</ele>
        <time>2012-04-28T10:36:14.000Z</time>
      </trkpt>
      <trkpt lat="45.11194" lon="6.09632">
        <ele>2315.1999511719</ele>
        <time>2012-04-28T10:36:23.000Z</time>
      </trkpt>
      <trkpt lat="45.11197" lon="6.0964">
        <ele>2315.8000488281</ele>
        <time>2012-04-28T10:36:32.000Z</time>
      </trkpt>
      <trkpt lat="45.11199" lon="6.09645">
        <ele>2318</ele>
        <time>2012-04-28T10:36:37.000Z</time>
      </trkpt>
      <trkpt lat="45.11203" lon="6.09652">
        <ele>2318</ele>
        <time>2012-04-28T10:36:46.000Z</time>
      </trkpt>
      <trkpt lat="45.11205" lon="6.09654">
        <ele>2319.3999023438</ele>
        <time>2012-04-28T10:36:49.000Z</time>
      </trkpt>
      <trkpt lat="45.11209" lon="6.09662">
        <ele>2320.8000488281</ele>
        <time>2012-04-28T10:36:57.000Z</time>
      </trkpt>
      <trkpt lat="45.11213" lon="6.09668">
        <ele>2321.6000976562</ele>
        <time>2012-04-28T10:37:04.000Z</time>
      </trkpt>
      <trkpt lat="45.11216" lon="6.09677">
        <ele>2322.3999023438</ele>
        <time>2012-04-28T10:37:12.000Z</time>
      </trkpt>
      <trkpt lat="45.11219" lon="6.09683">
        <ele>2324.1999511719</ele>
        <time>2012-04-28T10:37:18.000Z</time>
      </trkpt>
      <trkpt lat="45.1122" lon="6.09689">
        <ele>2324.8000488281</ele>
        <time>2012-04-28T10:37:22.000Z</time>
      </trkpt>
      <trkpt lat="45.11223" lon="6.09699">
        <ele>2322.1999511719</ele>
        <time>2012-04-28T10:37:31.000Z</time>
      </trkpt>
      <trkpt lat="45.11223" lon="6.09706">
        <ele>2324.8000488281</ele>
        <time>2012-04-28T10:37:38.000Z</time>
      </trkpt>
      <trkpt lat="45.11227" lon="6.09714">
        <ele>2326.6000976562</ele>
        <time>2012-04-28T10:37:47.000Z</time>
      </trkpt>
      <trkpt lat="45.1123" lon="6.09723">
        <ele>2328.3999023438</ele>
        <time>2012-04-28T10:37:56.000Z</time>
      </trkpt>
      <trkpt lat="45.11233" lon="6.09729">
        <ele>2329.1999511719</ele>
        <time>2012-04-28T10:38:04.000Z</time>
      </trkpt>
      <trkpt lat="45.11235" lon="6.09736">
        <ele>2330.3999023438</ele>
        <time>2012-04-28T10:38:12.000Z</time>
      </trkpt>
      <trkpt lat="45.11236" lon="6.09739">
        <ele>2332.1999511719</ele>
        <time>2012-04-28T10:38:16.000Z</time>
      </trkpt>
      <trkpt lat="45.11237" lon="6.09741">
        <ele>2333.1999511719</ele>
        <time>2012-04-28T10:38:18.000Z</time>
      </trkpt>
      <trkpt lat="45.1124" lon="6.09746">
        <ele>2336</ele>
        <time>2012-04-28T10:38:26.000Z</time>
      </trkpt>
      <trkpt lat="45.1124" lon="6.09747">
        <ele>2336.1999511719</ele>
        <time>2012-04-28T10:38:27.000Z</time>
      </trkpt>
      <trkpt lat="45.11245" lon="6.09752">
        <ele>2336.1999511719</ele>
        <time>2012-04-28T10:38:35.000Z</time>
      </trkpt>
      <trkpt lat="45.11247" lon="6.09756">
        <ele>2337.6000976562</ele>
        <time>2012-04-28T10:38:41.000Z</time>
      </trkpt>
      <trkpt lat="45.11248" lon="6.09757">
        <ele>2337.6000976562</ele>
        <time>2012-04-28T10:38:42.000Z</time>
      </trkpt>
      <trkpt lat="45.11252" lon="6.09763">
        <ele>2339.1999511719</ele>
        <time>2012-04-28T10:38:50.000Z</time>
      </trkpt>
      <trkpt lat="45.11256" lon="6.09767">
        <ele>2341.6000976562</ele>
        <time>2012-04-28T10:38:57.000Z</time>
      </trkpt>
      <trkpt lat="45.11262" lon="6.0977">
        <ele>2343.3999023438</ele>
        <time>2012-04-28T10:39:06.000Z</time>
      </trkpt>
      <trkpt lat="45.11264" lon="6.09773">
        <ele>2345.6000976562</ele>
        <time>2012-04-28T10:39:12.000Z</time>
      </trkpt>
      <trkpt lat="45.11269" lon="6.09781">
        <ele>2348</ele>
        <time>2012-04-28T10:39:23.000Z</time>
      </trkpt>
      <trkpt lat="45.11276" lon="6.09788">
        <ele>2348.1999511719</ele>
        <time>2012-04-28T10:39:33.000Z</time>
      </trkpt>
      <trkpt lat="45.11283" lon="6.09793">
        <ele>2350.3999023438</ele>
        <time>2012-04-28T10:39:42.000Z</time>
      </trkpt>
      <trkpt lat="45.1129" lon="6.09796">
        <ele>2352.8000488281</ele>
        <time>2012-04-28T10:39:50.000Z</time>
      </trkpt>
      <trkpt lat="45.11292" lon="6.09796">
        <ele>2354</ele>
        <time>2012-04-28T10:39:52.000Z</time>
      </trkpt>
      <trkpt lat="45.11299" lon="6.09801">
        <ele>2352.3999023438</ele>
        <time>2012-04-28T10:40:01.000Z</time>
      </trkpt>
      <trkpt lat="45.11305" lon="6.09805">
        <ele>2352.8000488281</ele>
        <time>2012-04-28T10:40:09.000Z</time>
      </trkpt>
      <trkpt lat="45.11312" lon="6.0981">
        <ele>2352.8000488281</ele>
        <time>2012-04-28T10:40:17.000Z</time>
      </trkpt>
      <trkpt lat="45.11319" lon="6.09816">
        <ele>2354</ele>
        <time>2012-04-28T10:40:26.000Z</time>
      </trkpt>
      <trkpt lat="45.11324" lon="6.09821">
        <ele>2354.3999023438</ele>
        <time>2012-04-28T10:40:34.000Z</time>
      </trkpt>
      <trkpt lat="45.11328" lon="6.09826">
        <ele>2355.3999023438</ele>
        <time>2012-04-28T10:40:40.000Z</time>
      </trkpt>
      <trkpt lat="45.11333" lon="6.09831">
        <ele>2356.3999023438</ele>
        <time>2012-04-28T10:40:48.000Z</time>
      </trkpt>
      <trkpt lat="45.11336" lon="6.09837">
        <ele>2358.1999511719</ele>
        <time>2012-04-28T10:40:55.000Z</time>
      </trkpt>
      <trkpt lat="45.11339" lon="6.09843">
        <ele>2360.3999023438</ele>
        <time>2012-04-28T10:41:04.000Z</time>
      </trkpt>
      <trkpt lat="45.11342" lon="6.09848">
        <ele>2363.3999023438</ele>
        <time>2012-04-28T10:41:12.000Z</time>
      </trkpt>
      <trkpt lat="45.11343" lon="6.0985">
        <ele>2363.6000976562</ele>
        <time>2012-04-28T10:41:15.000Z</time>
      </trkpt>
      <trkpt lat="45.11345" lon="6.09854">
        <ele>2364.3999023438</ele>
        <time>2012-04-28T10:41:20.000Z</time>
      </trkpt>
      <trkpt lat="45.11347" lon="6.09857">
        <ele>2365.8000488281</ele>
        <time>2012-04-28T10:41:25.000Z</time>
      </trkpt>
      <trkpt lat="45.1135" lon="6.0986">
        <ele>2366.1999511719</ele>
        <time>2012-04-28T10:41:33.000Z</time>
      </trkpt>
      <trkpt lat="45.11354" lon="6.09863">
        <ele>2366.8000488281</ele>
        <time>2012-04-28T10:41:39.000Z</time>
      </trkpt>
      <trkpt lat="45.11359" lon="6.09866">
        <ele>2368.1999511719</ele>
        <time>2012-04-28T10:41:46.000Z</time>
      </trkpt>
      <trkpt lat="45.11362" lon="6.09867">
        <ele>2367.6000976562</ele>
        <time>2012-04-28T10:41:52.000Z</time>
      </trkpt>
      <trkpt lat="45.11364" lon="6.09866">
        <ele>2371</ele>
        <time>2012-04-28T10:41:57.000Z</time>
      </trkpt>
      <trkpt lat="45.11372" lon="6.0986">
        <ele>2372.8000488281</ele>
        <time>2012-04-28T10:42:10.000Z</time>
      </trkpt>
      <trkpt lat="45.11374" lon="6.09859">
        <ele>2373.8000488281</ele>
        <time>2012-04-28T10:42:14.000Z</time>
      </trkpt>
      <trkpt lat="45.1138" lon="6.09856">
        <ele>2373</ele>
        <time>2012-04-28T10:42:25.000Z</time>
      </trkpt>
      <trkpt lat="45.11386" lon="6.09852">
        <ele>2373.3999023438</ele>
        <time>2012-04-28T10:42:33.000Z</time>
      </trkpt>
      <trkpt lat="45.11396" lon="6.09849">
        <ele>2375.3999023438</ele>
        <time>2012-04-28T10:42:44.000Z</time>
      </trkpt>
      <trkpt lat="45.11405" lon="6.09848">
        <ele>2375.3999023438</ele>
        <time>2012-04-28T10:42:52.000Z</time>
      </trkpt>
      <trkpt lat="45.11412" lon="6.09849">
        <ele>2376.8000488281</ele>
        <time>2012-04-28T10:43:00.000Z</time>
      </trkpt>
      <trkpt lat="45.1142" lon="6.09851">
        <ele>2378</ele>
        <time>2012-04-28T10:43:08.000Z</time>
      </trkpt>
      <trkpt lat="45.11428" lon="6.09855">
        <ele>2379.1999511719</ele>
        <time>2012-04-28T10:43:18.000Z</time>
      </trkpt>
      <trkpt lat="45.11439" lon="6.0986">
        <ele>2380</ele>
        <time>2012-04-28T10:43:29.000Z</time>
      </trkpt>
      <trkpt lat="45.11447" lon="6.09864">
        <ele>2380.3999023438</ele>
        <time>2012-04-28T10:43:36.000Z</time>
      </trkpt>
      <trkpt lat="45.11455" lon="6.09868">
        <ele>2382</ele>
        <time>2012-04-28T10:43:44.000Z</time>
      </trkpt>
      <trkpt lat="45.11462" lon="6.09873">
        <ele>2382.1999511719</ele>
        <time>2012-04-28T10:43:51.000Z</time>
      </trkpt>
      <trkpt lat="45.11467" lon="6.09876">
        <ele>2382.1999511719</ele>
        <time>2012-04-28T10:43:57.000Z</time>
      </trkpt>
      <trkpt lat="45.11474" lon="6.09881">
        <ele>2382.8000488281</ele>
        <time>2012-04-28T10:44:06.000Z</time>
      </trkpt>
      <trkpt lat="45.11481" lon="6.09886">
        <ele>2384.3999023438</ele>
        <time>2012-04-28T10:44:15.000Z</time>
      </trkpt>
      <trkpt lat="45.11487" lon="6.09891">
        <ele>2385.6000976562</ele>
        <time>2012-04-28T10:44:23.000Z</time>
      </trkpt>
      <trkpt lat="45.1149" lon="6.09893">
        <ele>2386.8000488281</ele>
        <time>2012-04-28T10:44:28.000Z</time>
      </trkpt>
      <trkpt lat="45.11494" lon="6.09896">
        <ele>2387.8000488281</ele>
        <time>2012-04-28T10:44:34.000Z</time>
      </trkpt>
      <trkpt lat="45.11501" lon="6.099">
        <ele>2389.6000976562</ele>
        <time>2012-04-28T10:44:44.000Z</time>
      </trkpt>
      <trkpt lat="45.11505" lon="6.09903">
        <ele>2390.6000976562</ele>
        <time>2012-04-28T10:44:51.000Z</time>
      </trkpt>
      <trkpt lat="45.11508" lon="6.09906">
        <ele>2392.3999023438</ele>
        <time>2012-04-28T10:44:56.000Z</time>
      </trkpt>
      <trkpt lat="45.11511" lon="6.09909">
        <ele>2393</ele>
        <time>2012-04-28T10:45:02.000Z</time>
      </trkpt>
      <trkpt lat="45.11516" lon="6.09912">
        <ele>2395</ele>
        <time>2012-04-28T10:45:11.000Z</time>
      </trkpt>
      <trkpt lat="45.1152" lon="6.09914">
        <ele>2397</ele>
        <time>2012-04-28T10:45:18.000Z</time>
      </trkpt>
      <trkpt lat="45.11524" lon="6.09917">
        <ele>2400.1999511719</ele>
        <time>2012-04-28T10:45:27.000Z</time>
      </trkpt>
      <trkpt lat="45.11526" lon="6.09919">
        <ele>2398.8000488281</ele>
        <time>2012-04-28T10:45:31.000Z</time>
      </trkpt>
      <trkpt lat="45.11529" lon="6.09922">
        <ele>2400.1999511719</ele>
        <time>2012-04-28T10:45:37.000Z</time>
      </trkpt>
      <trkpt lat="45.11535" lon="6.09926">
        <ele>2400.1999511719</ele>
        <time>2012-04-28T10:45:47.000Z</time>
      </trkpt>
      <trkpt lat="45.11537" lon="6.09927">
        <ele>2402</ele>
        <time>2012-04-28T10:45:50.000Z</time>
      </trkpt>
      <trkpt lat="45.11539" lon="6.09928">
        <ele>2402.1999511719</ele>
        <time>2012-04-28T10:45:52.000Z</time>
      </trkpt>
      <trkpt lat="45.11542" lon="6.09931">
        <ele>2402.8000488281</ele>
        <time>2012-04-28T10:45:58.000Z</time>
      </trkpt>
      <trkpt lat="45.11544" lon="6.09934">
        <ele>2402.6000976562</ele>
        <time>2012-04-28T10:46:04.000Z</time>
      </trkpt>
      <trkpt lat="45.11545" lon="6.09935">
        <ele>2402.8000488281</ele>
        <time>2012-04-28T10:46:05.000Z</time>
      </trkpt>
      <trkpt lat="45.11546" lon="6.09938">
        <ele>2404</ele>
        <time>2012-04-28T10:46:09.000Z</time>
      </trkpt>
      <trkpt lat="45.11549" lon="6.09942">
        <ele>2407.3999023438</ele>
        <time>2012-04-28T10:46:15.000Z</time>
      </trkpt>
      <trkpt lat="45.11552" lon="6.09945">
        <ele>2408.6000976562</ele>
        <time>2012-04-28T10:46:20.000Z</time>
      </trkpt>
      <trkpt lat="45.11555" lon="6.09947">
        <ele>2409.3999023438</ele>
        <time>2012-04-28T10:46:26.000Z</time>
      </trkpt>
      <trkpt lat="45.11559" lon="6.0995">
        <ele>2411</ele>
        <time>2012-04-28T10:46:32.000Z</time>
      </trkpt>
      <trkpt lat="45.11565" lon="6.09954">
        <ele>2413.1999511719</ele>
        <time>2012-04-28T10:46:42.000Z</time>
      </trkpt>
      <trkpt lat="45.11572" lon="6.09958">
        <ele>2414.8000488281</ele>
        <time>2012-04-28T10:46:52.000Z</time>
      </trkpt>
      <trkpt lat="45.11577" lon="6.0996">
        <ele>2416.8000488281</ele>
        <time>2012-04-28T10:47:00.000Z</time>
      </trkpt>
      <trkpt lat="45.11584" lon="6.09964">
        <ele>2417.1999511719</ele>
        <time>2012-04-28T10:47:11.000Z</time>
      </trkpt>
      <trkpt lat="45.11589" lon="6.0997">
        <ele>2417.3999023438</ele>
        <time>2012-04-28T10:47:20.000Z</time>
      </trkpt>
      <trkpt lat="45.1159" lon="6.09974">
        <ele>2419</ele>
        <time>2012-04-28T10:47:25.000Z</time>
      </trkpt>
      <trkpt lat="45.11591" lon="6.0998">
        <ele>2420.3999023438</ele>
        <time>2012-04-28T10:47:33.000Z</time>
      </trkpt>
      <trkpt lat="45.1159" lon="6.09986">
        <ele>2421</ele>
        <time>2012-04-28T10:47:39.000Z</time>
      </trkpt>
      <trkpt lat="45.11591" lon="6.09989">
        <ele>2421.3999023438</ele>
        <time>2012-04-28T10:47:44.000Z</time>
      </trkpt>
      <trkpt lat="45.1159" lon="6.09994">
        <ele>2422.1999511719</ele>
        <time>2012-04-28T10:47:50.000Z</time>
      </trkpt>
      <trkpt lat="45.11591" lon="6.09996">
        <ele>2424.3999023438</ele>
        <time>2012-04-28T10:47:54.000Z</time>
      </trkpt>
      <trkpt lat="45.11591" lon="6.09998">
        <ele>2424.6000976562</ele>
        <time>2012-04-28T10:47:56.000Z</time>
      </trkpt>
      <trkpt lat="45.11594" lon="6.10003">
        <ele>2426.8000488281</ele>
        <time>2012-04-28T10:48:28.000Z</time>
      </trkpt>
      <trkpt lat="45.11594" lon="6.10012">
        <ele>2429</ele>
        <time>2012-04-28T10:48:38.000Z</time>
      </trkpt>
      <trkpt lat="45.11592" lon="6.10022">
        <ele>2432</ele>
        <time>2012-04-28T10:48:48.000Z</time>
      </trkpt>
      <trkpt lat="45.11591" lon="6.10033">
        <ele>2432.1999511719</ele>
        <time>2012-04-28T10:48:57.000Z</time>
      </trkpt>
      <trkpt lat="45.11591" lon="6.10041">
        <ele>2435.8000488281</ele>
        <time>2012-04-28T10:49:08.000Z</time>
      </trkpt>
      <trkpt lat="45.11591" lon="6.10044">
        <ele>2435.8000488281</ele>
        <time>2012-04-28T10:49:13.000Z</time>
      </trkpt>
      <trkpt lat="45.11592" lon="6.10045">
        <ele>2435.6000976562</ele>
        <time>2012-04-28T10:49:15.000Z</time>
      </trkpt>
      <trkpt lat="45.11595" lon="6.10052">
        <ele>2437.8000488281</ele>
        <time>2012-04-28T10:49:31.000Z</time>
      </trkpt>
      <trkpt lat="45.11597" lon="6.10055">
        <ele>2438</ele>
        <time>2012-04-28T10:49:37.000Z</time>
      </trkpt>
      <trkpt lat="45.11599" lon="6.10059">
        <ele>2440.6000976562</ele>
        <time>2012-04-28T10:49:43.000Z</time>
      </trkpt>
      <trkpt lat="45.11602" lon="6.10064">
        <ele>2443</ele>
        <time>2012-04-28T10:49:53.000Z</time>
      </trkpt>
      <trkpt lat="45.11603" lon="6.10065">
        <ele>2443.1999511719</ele>
        <time>2012-04-28T10:49:54.000Z</time>
      </trkpt>
      <trkpt lat="45.11608" lon="6.10069">
        <ele>2446</ele>
        <time>2012-04-28T10:50:04.000Z</time>
      </trkpt>
      <trkpt lat="45.11608" lon="6.1007">
        <ele>2446.1999511719</ele>
        <time>2012-04-28T10:50:05.000Z</time>
      </trkpt>
      <trkpt lat="45.11609" lon="6.10071">
        <ele>2447.3999023438</ele>
        <time>2012-04-28T10:50:08.000Z</time>
      </trkpt>
      <trkpt lat="45.11611" lon="6.10072">
        <ele>2449</ele>
        <time>2012-04-28T10:50:14.000Z</time>
      </trkpt>
      <trkpt lat="45.11613" lon="6.10072">
        <ele>2450.1999511719</ele>
        <time>2012-04-28T10:50:19.000Z</time>
      </trkpt>
      <trkpt lat="45.11615" lon="6.10072">
        <ele>2451.3999023438</ele>
        <time>2012-04-28T10:50:24.000Z</time>
      </trkpt>
      <trkpt lat="45.11617" lon="6.10072">
        <ele>2452.6000976562</ele>
        <time>2012-04-28T10:50:29.000Z</time>
      </trkpt>
      <trkpt lat="45.11621" lon="6.10071">
        <ele>2453.8000488281</ele>
        <time>2012-04-28T10:50:36.000Z</time>
      </trkpt>
      <trkpt lat="45.11624" lon="6.10072">
        <ele>2455.3999023438</ele>
        <time>2012-04-28T10:50:41.000Z</time>
      </trkpt>
      <trkpt lat="45.11626" lon="6.10072">
        <ele>2457.1999511719</ele>
        <time>2012-04-28T10:50:46.000Z</time>
      </trkpt>
      <trkpt lat="45.11628" lon="6.10072">
        <ele>2458.3999023438</ele>
        <time>2012-04-28T10:50:51.000Z</time>
      </trkpt>
      <trkpt lat="45.11628" lon="6.10072">
        <ele>2458.6000976562</ele>
        <time>2012-04-28T10:50:52.000Z</time>
      </trkpt>
      <trkpt lat="45.11634" lon="6.10072">
        <ele>2461.3999023438</ele>
        <time>2012-04-28T10:51:02.000Z</time>
      </trkpt>
      <trkpt lat="45.11637" lon="6.10071">
        <ele>2462.3999023438</ele>
        <time>2012-04-28T10:51:07.000Z</time>
      </trkpt>
      <trkpt lat="45.1164" lon="6.1007">
        <ele>2464</ele>
        <time>2012-04-28T10:51:12.000Z</time>
      </trkpt>
      <trkpt lat="45.11644" lon="6.10067">
        <ele>2466.1999511719</ele>
        <time>2012-04-28T10:51:19.000Z</time>
      </trkpt>
      <trkpt lat="45.11652" lon="6.10064">
        <ele>2468</ele>
        <time>2012-04-28T10:51:29.000Z</time>
      </trkpt>
      <trkpt lat="45.11653" lon="6.10064">
        <ele>2468</ele>
        <time>2012-04-28T10:51:30.000Z</time>
      </trkpt>
      <trkpt lat="45.11661" lon="6.10068">
        <ele>2467.6000976562</ele>
        <time>2012-04-28T10:51:38.000Z</time>
      </trkpt>
      <trkpt lat="45.11666" lon="6.10073">
        <ele>2468.8000488281</ele>
        <time>2012-04-28T10:51:46.000Z</time>
      </trkpt>
      <trkpt lat="45.11666" lon="6.10073">
        <ele>2469</ele>
        <time>2012-04-28T10:51:47.000Z</time>
      </trkpt>
      <trkpt lat="45.11672" lon="6.1008">
        <ele>2471.1999511719</ele>
        <time>2012-04-28T10:51:56.000Z</time>
      </trkpt>
      <trkpt lat="45.11674" lon="6.10083">
        <ele>2472.6000976562</ele>
        <time>2012-04-28T10:52:01.000Z</time>
      </trkpt>
      <trkpt lat="45.11678" lon="6.10085">
        <ele>2474</ele>
        <time>2012-04-28T10:52:06.000Z</time>
      </trkpt>
      <trkpt lat="45.11681" lon="6.10088">
        <ele>2475</ele>
        <time>2012-04-28T10:52:11.000Z</time>
      </trkpt>
      <trkpt lat="45.11683" lon="6.10089">
        <ele>2476.1999511719</ele>
        <time>2012-04-28T10:52:15.000Z</time>
      </trkpt>
      <trkpt lat="45.11686" lon="6.10092">
        <ele>2477.6000976562</ele>
        <time>2012-04-28T10:52:20.000Z</time>
      </trkpt>
      <trkpt lat="45.11688" lon="6.10095">
        <ele>2478.1999511719</ele>
        <time>2012-04-28T10:52:25.000Z</time>
      </trkpt>
      <trkpt lat="45.11692" lon="6.10098">
        <ele>2480.1999511719</ele>
        <time>2012-04-28T10:52:32.000Z</time>
      </trkpt>
      <trkpt lat="45.11694" lon="6.10101">
        <ele>2482.3999023438</ele>
        <time>2012-04-28T10:52:38.000Z</time>
      </trkpt>
      <trkpt lat="45.11696" lon="6.10103">
        <ele>2483.1999511719</ele>
        <time>2012-04-28T10:52:48.000Z</time>
      </trkpt>
      <trkpt lat="45.117" lon="6.10106">
        <ele>2483.3999023438</ele>
        <time>2012-04-28T10:52:55.000Z</time>
      </trkpt>
      <trkpt lat="45.11703" lon="6.10109">
        <ele>2485</ele>
        <time>2012-04-28T10:53:01.000Z</time>
      </trkpt>
      <trkpt lat="45.11706" lon="6.10111">
        <ele>2484.8000488281</ele>
        <time>2012-04-28T10:53:07.000Z</time>
      </trkpt>
      <trkpt lat="45.1171" lon="6.10116">
        <ele>2488.1999511719</ele>
        <time>2012-04-28T10:53:16.000Z</time>
      </trkpt>
      <trkpt lat="45.11711" lon="6.10116">
        <ele>2488.3999023438</ele>
        <time>2012-04-28T10:53:17.000Z</time>
      </trkpt>
      <trkpt lat="45.11716" lon="6.10118">
        <ele>2491</ele>
        <time>2012-04-28T10:53:26.000Z</time>
      </trkpt>
      <trkpt lat="45.1172" lon="6.1012">
        <ele>2492.1999511719</ele>
        <time>2012-04-28T10:53:32.000Z</time>
      </trkpt>
      <trkpt lat="45.11726" lon="6.10122">
        <ele>2493</ele>
        <time>2012-04-28T10:53:41.000Z</time>
      </trkpt>
      <trkpt lat="45.11731" lon="6.10125">
        <ele>2495.6000976562</ele>
        <time>2012-04-28T10:53:48.000Z</time>
      </trkpt>
      <trkpt lat="45.11735" lon="6.10128">
        <ele>2496.1999511719</ele>
        <time>2012-04-28T10:53:54.000Z</time>
      </trkpt>
      <trkpt lat="45.1174" lon="6.10131">
        <ele>2495.8000488281</ele>
        <time>2012-04-28T10:54:01.000Z</time>
      </trkpt>
      <trkpt lat="45.11742" lon="6.10133">
        <ele>2497</ele>
        <time>2012-04-28T10:54:04.000Z</time>
      </trkpt>
      <trkpt lat="45.11748" lon="6.10138">
        <ele>2501.6000976562</ele>
        <time>2012-04-28T10:54:13.000Z</time>
      </trkpt>
      <trkpt lat="45.11749" lon="6.10138">
        <ele>2501.8000488281</ele>
        <time>2012-04-28T10:54:14.000Z</time>
      </trkpt>
      <trkpt lat="45.11753" lon="6.10143">
        <ele>2503.8000488281</ele>
        <time>2012-04-28T10:54:24.000Z</time>
      </trkpt>
      <trkpt lat="45.11757" lon="6.10149">
        <ele>2502.6000976562</ele>
        <time>2012-04-28T10:54:33.000Z</time>
      </trkpt>
      <trkpt lat="45.11758" lon="6.10151">
        <ele>2504.6000976562</ele>
        <time>2012-04-28T10:54:37.000Z</time>
      </trkpt>
      <trkpt lat="45.11761" lon="6.10156">
        <ele>2506.8000488281</ele>
        <time>2012-04-28T10:54:44.000Z</time>
      </trkpt>
      <trkpt lat="45.11762" lon="6.10157">
        <ele>2507</ele>
        <time>2012-04-28T10:54:45.000Z</time>
      </trkpt>
      <trkpt lat="45.11766" lon="6.10162">
        <ele>2508.8000488281</ele>
        <time>2012-04-28T10:54:53.000Z</time>
      </trkpt>
      <trkpt lat="45.11771" lon="6.10169">
        <ele>2509.6000976562</ele>
        <time>2012-04-28T10:55:02.000Z</time>
      </trkpt>
      <trkpt lat="45.11775" lon="6.10177">
        <ele>2512</ele>
        <time>2012-04-28T10:55:12.000Z</time>
      </trkpt>
      <trkpt lat="45.11779" lon="6.10183">
        <ele>2513</ele>
        <time>2012-04-28T10:55:20.000Z</time>
      </trkpt>
      <trkpt lat="45.11787" lon="6.1019">
        <ele>2515.6000976562</ele>
        <time>2012-04-28T10:55:30.000Z</time>
      </trkpt>
      <trkpt lat="45.11794" lon="6.10197">
        <ele>2514.8000488281</ele>
        <time>2012-04-28T10:55:39.000Z</time>
      </trkpt>
      <trkpt lat="45.11801" lon="6.10203">
        <ele>2516.3999023438</ele>
        <time>2012-04-28T10:55:48.000Z</time>
      </trkpt>
      <trkpt lat="45.11809" lon="6.10207">
        <ele>2518.3999023438</ele>
        <time>2012-04-28T10:55:57.000Z</time>
      </trkpt>
      <trkpt lat="45.11816" lon="6.1021">
        <ele>2520.1999511719</ele>
        <time>2012-04-28T10:56:06.000Z</time>
      </trkpt>
      <trkpt lat="45.11823" lon="6.10214">
        <ele>2519.8000488281</ele>
        <time>2012-04-28T10:56:14.000Z</time>
      </trkpt>
      <trkpt lat="45.11829" lon="6.10218">
        <ele>2519.1999511719</ele>
        <time>2012-04-28T10:56:21.000Z</time>
      </trkpt>
      <trkpt lat="45.11837" lon="6.10222">
        <ele>2520.1999511719</ele>
        <time>2012-04-28T10:56:29.000Z</time>
      </trkpt>
      <trkpt lat="45.11844" lon="6.10225">
        <ele>2520.3999023438</ele>
        <time>2012-04-28T10:56:37.000Z</time>
      </trkpt>
      <trkpt lat="45.11851" lon="6.1023">
        <ele>2521.6000976562</ele>
        <time>2012-04-28T10:56:46.000Z</time>
      </trkpt>
      <trkpt lat="45.11857" lon="6.10234">
        <ele>2523.6000976562</ele>
        <time>2012-04-28T10:56:54.000Z</time>
      </trkpt>
      <trkpt lat="45.11861" lon="6.1024">
        <ele>2523.3999023438</ele>
        <time>2012-04-28T10:57:01.000Z</time>
      </trkpt>
      <trkpt lat="45.11866" lon="6.10245">
        <ele>2525.8000488281</ele>
        <time>2012-04-28T10:57:08.000Z</time>
      </trkpt>
      <trkpt lat="45.11873" lon="6.10249">
        <ele>2529</ele>
        <time>2012-04-28T10:57:18.000Z</time>
      </trkpt>
      <trkpt lat="45.11878" lon="6.10251">
        <ele>2529.3999023438</ele>
        <time>2012-04-28T10:57:26.000Z</time>
      </trkpt>
      <trkpt lat="45.11879" lon="6.10253">
        <ele>2530.6000976562</ele>
        <time>2012-04-28T10:57:29.000Z</time>
      </trkpt>
      <trkpt lat="45.11882" lon="6.10255">
        <ele>2533</ele>
        <time>2012-04-28T10:57:34.000Z</time>
      </trkpt>
      <trkpt lat="45.11883" lon="6.10256">
        <ele>2534</ele>
        <time>2012-04-28T10:57:37.000Z</time>
      </trkpt>
      <trkpt lat="45.11887" lon="6.10258">
        <ele>2534.1999511719</ele>
        <time>2012-04-28T10:57:46.000Z</time>
      </trkpt>
      <trkpt lat="45.11893" lon="6.10262">
        <ele>2536.1999511719</ele>
        <time>2012-04-28T10:57:54.000Z</time>
      </trkpt>
      <trkpt lat="45.11897" lon="6.10267">
        <ele>2538.1999511719</ele>
        <time>2012-04-28T10:58:02.000Z</time>
      </trkpt>
      <trkpt lat="45.11901" lon="6.10272">
        <ele>2539.8000488281</ele>
        <time>2012-04-28T10:58:12.000Z</time>
      </trkpt>
      <trkpt lat="45.11902" lon="6.10273">
        <ele>2539.8000488281</ele>
        <time>2012-04-28T10:58:15.000Z</time>
      </trkpt>
      <trkpt lat="45.11904" lon="6.10275">
        <ele>2541</ele>
        <time>2012-04-28T10:58:21.000Z</time>
      </trkpt>
      <trkpt lat="45.11905" lon="6.10276">
        <ele>2542.8000488281</ele>
        <time>2012-04-28T10:58:25.000Z</time>
      </trkpt>
      <trkpt lat="45.1191" lon="6.1028">
        <ele>2544.8000488281</ele>
        <time>2012-04-28T10:58:41.000Z</time>
      </trkpt>
      <trkpt lat="45.11913" lon="6.10281">
        <ele>2546.6000976562</ele>
        <time>2012-04-28T10:58:46.000Z</time>
      </trkpt>
      <trkpt lat="45.11917" lon="6.10284">
        <ele>2547.6000976562</ele>
        <time>2012-04-28T10:58:53.000Z</time>
      </trkpt>
      <trkpt lat="45.11922" lon="6.10288">
        <ele>2551.1999511719</ele>
        <time>2012-04-28T10:59:00.000Z</time>
      </trkpt>
      <trkpt lat="45.11923" lon="6.1029">
        <ele>2553.1999511719</ele>
        <time>2012-04-28T10:59:05.000Z</time>
      </trkpt>
      <trkpt lat="45.11927" lon="6.10295">
        <ele>2555.8000488281</ele>
        <time>2012-04-28T10:59:13.000Z</time>
      </trkpt>
      <trkpt lat="45.1193" lon="6.10299">
        <ele>2557.1999511719</ele>
        <time>2012-04-28T10:59:20.000Z</time>
      </trkpt>
      <trkpt lat="45.11933" lon="6.10303">
        <ele>2558</ele>
        <time>2012-04-28T10:59:27.000Z</time>
      </trkpt>
      <trkpt lat="45.11934" lon="6.10306">
        <ele>2559.8000488281</ele>
        <time>2012-04-28T10:59:31.000Z</time>
      </trkpt>
      <trkpt lat="45.11936" lon="6.10309">
        <ele>2559.6000976562</ele>
        <time>2012-04-28T10:59:45.000Z</time>
      </trkpt>
      <trkpt lat="45.1194" lon="6.10312">
        <ele>2560.1999511719</ele>
        <time>2012-04-28T10:59:50.000Z</time>
      </trkpt>
      <trkpt lat="45.11948" lon="6.10318">
        <ele>2561</ele>
        <time>2012-04-28T11:00:01.000Z</time>
      </trkpt>
      <trkpt lat="45.11954" lon="6.10322">
        <ele>2560.6000976562</ele>
        <time>2012-04-28T11:00:08.000Z</time>
      </trkpt>
      <trkpt lat="45.1196" lon="6.10327">
        <ele>2562</ele>
        <time>2012-04-28T11:00:17.000Z</time>
      </trkpt>
      <trkpt lat="45.11967" lon="6.10335">
        <ele>2564.6000976562</ele>
        <time>2012-04-28T11:00:26.000Z</time>
      </trkpt>
      <trkpt lat="45.11971" lon="6.10343">
        <ele>2566.3999023438</ele>
        <time>2012-04-28T11:00:34.000Z</time>
      </trkpt>
      <trkpt lat="45.11971" lon="6.10344">
        <ele>2567</ele>
        <time>2012-04-28T11:00:36.000Z</time>
      </trkpt>
      <trkpt lat="45.11974" lon="6.10352">
        <ele>2567.6000976562</ele>
        <time>2012-04-28T11:00:45.000Z</time>
      </trkpt>
      <trkpt lat="45.11975" lon="6.10356">
        <ele>2570.1999511719</ele>
        <time>2012-04-28T11:00:49.000Z</time>
      </trkpt>
      <trkpt lat="45.11978" lon="6.10363">
        <ele>2569.3999023438</ele>
        <time>2012-04-28T11:00:57.000Z</time>
      </trkpt>
      <trkpt lat="45.11978" lon="6.10364">
        <ele>2569.6000976562</ele>
        <time>2012-04-28T11:00:58.000Z</time>
      </trkpt>
      <trkpt lat="45.11979" lon="6.10368">
        <ele>2571.3999023438</ele>
        <time>2012-04-28T11:01:04.000Z</time>
      </trkpt>
      <trkpt lat="45.1198" lon="6.10373">
        <ele>2570.8000488281</ele>
        <time>2012-04-28T11:01:13.000Z</time>
      </trkpt>
      <trkpt lat="45.11982" lon="6.10384">
        <ele>2575.6000976562</ele>
        <time>2012-04-28T11:01:26.000Z</time>
      </trkpt>
      <trkpt lat="45.11984" lon="6.10388">
        <ele>2574.8000488281</ele>
        <time>2012-04-28T11:01:33.000Z</time>
      </trkpt>
      <trkpt lat="45.11986" lon="6.10394">
        <ele>2577.3999023438</ele>
        <time>2012-04-28T11:01:42.000Z</time>
      </trkpt>
      <trkpt lat="45.11988" lon="6.10398">
        <ele>2580</ele>
        <time>2012-04-28T11:01:49.000Z</time>
      </trkpt>
      <trkpt lat="45.11989" lon="6.10402">
        <ele>2579.3999023438</ele>
        <time>2012-04-28T11:02:01.000Z</time>
      </trkpt>
      <trkpt lat="45.11989" lon="6.10407">
        <ele>2583</ele>
        <time>2012-04-28T11:02:08.000Z</time>
      </trkpt>
      <trkpt lat="45.1199" lon="6.10411">
        <ele>2586.3999023438</ele>
        <time>2012-04-28T11:02:14.000Z</time>
      </trkpt>
      <trkpt lat="45.11991" lon="6.10415">
        <ele>2588.6000976562</ele>
        <time>2012-04-28T11:02:20.000Z</time>
      </trkpt>
      <trkpt lat="45.11993" lon="6.10421">
        <ele>2588.8000488281</ele>
        <time>2012-04-28T11:02:27.000Z</time>
      </trkpt>
      <trkpt lat="45.11994" lon="6.10427">
        <ele>2592.3999023438</ele>
        <time>2012-04-28T11:02:34.000Z</time>
      </trkpt>
      <trkpt lat="45.11997" lon="6.10428">
        <ele>2593.8000488281</ele>
        <time>2012-04-28T11:02:38.000Z</time>
      </trkpt>
      <trkpt lat="45.11997" lon="6.10428">
        <ele>2594.1999511719</ele>
        <time>2012-04-28T11:02:42.000Z</time>
      </trkpt>
      <trkpt lat="45.11999" lon="6.1043">
        <ele>2599.8000488281</ele>
        <time>2012-04-28T11:02:52.000Z</time>
      </trkpt>
      <trkpt lat="45.12004" lon="6.10431">
        <ele>2599</ele>
        <time>2012-04-28T11:02:59.000Z</time>
      </trkpt>
      <trkpt lat="45.1201" lon="6.1043">
        <ele>2599</ele>
        <time>2012-04-28T11:03:08.000Z</time>
      </trkpt>
      <trkpt lat="45.12015" lon="6.10429">
        <ele>2599.8000488281</ele>
        <time>2012-04-28T11:03:14.000Z</time>
      </trkpt>
      <trkpt lat="45.12021" lon="6.10429">
        <ele>2600.1999511719</ele>
        <time>2012-04-28T11:03:22.000Z</time>
      </trkpt>
      <trkpt lat="45.12028" lon="6.10431">
        <ele>2599.1999511719</ele>
        <time>2012-04-28T11:03:32.000Z</time>
      </trkpt>
      <trkpt lat="45.12032" lon="6.10433">
        <ele>2599.8000488281</ele>
        <time>2012-04-28T11:03:39.000Z</time>
      </trkpt>
      <trkpt lat="45.12035" lon="6.10434">
        <ele>2601.8000488281</ele>
        <time>2012-04-28T11:03:43.000Z</time>
      </trkpt>
      <trkpt lat="45.12042" lon="6.1044">
        <ele>2603.8000488281</ele>
        <time>2012-04-28T11:03:53.000Z</time>
      </trkpt>
      <trkpt lat="45.1205" lon="6.10444">
        <ele>2607.8000488281</ele>
        <time>2012-04-28T11:04:02.000Z</time>
      </trkpt>
      <trkpt lat="45.12057" lon="6.10448">
        <ele>2608.6000976562</ele>
        <time>2012-04-28T11:04:10.000Z</time>
      </trkpt>
      <trkpt lat="45.12064" lon="6.10453">
        <ele>2609.1999511719</ele>
        <time>2012-04-28T11:04:18.000Z</time>
      </trkpt>
      <trkpt lat="45.1207" lon="6.10458">
        <ele>2609.3999023438</ele>
        <time>2012-04-28T11:04:26.000Z</time>
      </trkpt>
      <trkpt lat="45.12078" lon="6.10466">
        <ele>2612.6000976562</ele>
        <time>2012-04-28T11:04:35.000Z</time>
      </trkpt>
      <trkpt lat="45.12084" lon="6.10473">
        <ele>2613</ele>
        <time>2012-04-28T11:04:42.000Z</time>
      </trkpt>
      <trkpt lat="45.12085" lon="6.10473">
        <ele>2613.3999023438</ele>
        <time>2012-04-28T11:04:44.000Z</time>
      </trkpt>
      <trkpt lat="45.12087" lon="6.10477">
        <ele>2614.8000488281</ele>
        <time>2012-04-28T11:04:49.000Z</time>
      </trkpt>
      <trkpt lat="45.12088" lon="6.10482">
        <ele>2616.3999023438</ele>
        <time>2012-04-28T11:04:56.000Z</time>
      </trkpt>
      <trkpt lat="45.12087" lon="6.10488">
        <ele>2618.3999023438</ele>
        <time>2012-04-28T11:05:25.000Z</time>
      </trkpt>
      <trkpt lat="45.12086" lon="6.10489">
        <ele>2618.1999511719</ele>
        <time>2012-04-28T11:05:28.000Z</time>
      </trkpt>
      <trkpt lat="45.12084" lon="6.10491">
        <ele>2619.8000488281</ele>
        <time>2012-04-28T11:05:40.000Z</time>
      </trkpt>
      <trkpt lat="45.12086" lon="6.1049">
        <ele>2614.1999511719</ele>
        <time>2012-04-28T11:09:33.000Z</time>
      </trkpt>
      <trkpt lat="45.12086" lon="6.10491">
        <ele>2614</ele>
        <time>2012-04-28T11:09:34.000Z</time>
      </trkpt>
      <trkpt lat="45.1209" lon="6.10491">
        <ele>2619.1999511719</ele>
        <time>2012-04-28T11:10:59.000Z</time>
      </trkpt>
      <trkpt lat="45.12097" lon="6.10492">
        <ele>2619.1999511719</ele>
        <time>2012-04-28T11:11:05.000Z</time>
      </trkpt>
      <trkpt lat="45.12106" lon="6.10492">
        <ele>2617.6000976562</ele>
        <time>2012-04-28T11:11:11.000Z</time>
      </trkpt>
      <trkpt lat="45.12113" lon="6.10487">
        <ele>2616.3999023438</ele>
        <time>2012-04-28T11:11:14.000Z</time>
      </trkpt>
      <trkpt lat="45.1212" lon="6.10487">
        <ele>2615.3999023438</ele>
        <time>2012-04-28T11:11:16.000Z</time>
      </trkpt>
      <trkpt lat="45.12128" lon="6.10473">
        <ele>2613</ele>
        <time>2012-04-28T11:11:19.000Z</time>
      </trkpt>
      <trkpt lat="45.1214" lon="6.10454">
        <ele>2609.8000488281</ele>
        <time>2012-04-28T11:11:23.000Z</time>
      </trkpt>
      <trkpt lat="45.1215" lon="6.10439">
        <ele>2605.3999023438</ele>
        <time>2012-04-28T11:11:26.000Z</time>
      </trkpt>
      <trkpt lat="45.12157" lon="6.1044">
        <ele>2603.8000488281</ele>
        <time>2012-04-28T11:11:27.000Z</time>
      </trkpt>
      <trkpt lat="45.12177" lon="6.10421">
        <ele>2598.6000976562</ele>
        <time>2012-04-28T11:11:31.000Z</time>
      </trkpt>
      <trkpt lat="45.12193" lon="6.10409">
        <ele>2592.3999023438</ele>
        <time>2012-04-28T11:11:34.000Z</time>
      </trkpt>
      <trkpt lat="45.12211" lon="6.10386">
        <ele>2586</ele>
        <time>2012-04-28T11:11:37.000Z</time>
      </trkpt>
      <trkpt lat="45.12242" lon="6.10366">
        <ele>2574.6000976562</ele>
        <time>2012-04-28T11:11:41.000Z</time>
      </trkpt>
      <trkpt lat="45.12259" lon="6.1035">
        <ele>2570.3999023438</ele>
        <time>2012-04-28T11:11:43.000Z</time>
      </trkpt>
      <trkpt lat="45.12283" lon="6.10329">
        <ele>2563.3999023438</ele>
        <time>2012-04-28T11:11:46.000Z</time>
      </trkpt>
      <trkpt lat="45.12308" lon="6.10293">
        <ele>2554.8000488281</ele>
        <time>2012-04-28T11:11:50.000Z</time>
      </trkpt>
      <trkpt lat="45.12326" lon="6.10251">
        <ele>2543.6000976562</ele>
        <time>2012-04-28T11:11:54.000Z</time>
      </trkpt>
      <trkpt lat="45.12345" lon="6.10217">
        <ele>2532.6000976562</ele>
        <time>2012-04-28T11:11:58.000Z</time>
      </trkpt>
      <trkpt lat="45.12357" lon="6.10207">
        <ele>2527.1999511719</ele>
        <time>2012-04-28T11:12:00.000Z</time>
      </trkpt>
      <trkpt lat="45.12388" lon="6.10166">
        <ele>2513.1999511719</ele>
        <time>2012-04-28T11:12:06.000Z</time>
      </trkpt>
      <trkpt lat="45.12411" lon="6.10149">
        <ele>2501.8000488281</ele>
        <time>2012-04-28T11:12:10.000Z</time>
      </trkpt>
      <trkpt lat="45.12434" lon="6.10135">
        <ele>2492</ele>
        <time>2012-04-28T11:12:14.000Z</time>
      </trkpt>
      <trkpt lat="45.12441" lon="6.10129">
        <ele>2489.1999511719</ele>
        <time>2012-04-28T11:12:15.000Z</time>
      </trkpt>
      <trkpt lat="45.12484" lon="6.10119">
        <ele>2477.3999023438</ele>
        <time>2012-04-28T11:12:20.000Z</time>
      </trkpt>
      <trkpt lat="45.12513" lon="6.1012">
        <ele>2469.8000488281</ele>
        <time>2012-04-28T11:12:23.000Z</time>
      </trkpt>
      <trkpt lat="45.12536" lon="6.10108">
        <ele>2462.6000976562</ele>
        <time>2012-04-28T11:12:26.000Z</time>
      </trkpt>
      <trkpt lat="45.12535" lon="6.10105">
        <ele>2456.3999023438</ele>
        <time>2012-04-28T11:12:29.000Z</time>
      </trkpt>
      <trkpt lat="45.12533" lon="6.10106">
        <ele>2455.6000976562</ele>
        <time>2012-04-28T11:12:35.000Z</time>
      </trkpt>
      <trkpt lat="45.12527" lon="6.10094">
        <ele>2452.6000976562</ele>
        <time>2012-04-28T11:12:49.000Z</time>
      </trkpt>
      <trkpt lat="45.1252" lon="6.10083">
        <ele>2450.6000976562</ele>
        <time>2012-04-28T11:12:51.000Z</time>
      </trkpt>
      <trkpt lat="45.12512" lon="6.10074">
        <ele>2445.8000488281</ele>
        <time>2012-04-28T11:12:54.000Z</time>
      </trkpt>
      <trkpt lat="45.12508" lon="6.10064">
        <ele>2443.3999023438</ele>
        <time>2012-04-28T11:12:56.000Z</time>
      </trkpt>
      <trkpt lat="45.12506" lon="6.10057">
        <ele>2441</ele>
        <time>2012-04-28T11:12:57.000Z</time>
      </trkpt>
      <trkpt lat="45.12519" lon="6.10025">
        <ele>2428.1999511719</ele>
        <time>2012-04-28T11:13:02.000Z</time>
      </trkpt>
      <trkpt lat="45.12515" lon="6.10009">
        <ele>2425</ele>
        <time>2012-04-28T11:13:04.000Z</time>
      </trkpt>
      <trkpt lat="45.12517" lon="6.10019">
        <ele>2422.8000488281</ele>
        <time>2012-04-28T11:13:07.000Z</time>
      </trkpt>
      <trkpt lat="45.12518" lon="6.10021">
        <ele>2422.3999023438</ele>
        <time>2012-04-28T11:13:08.000Z</time>
      </trkpt>
      <trkpt lat="45.12519" lon="6.10025">
        <ele>2423</ele>
        <time>2012-04-28T11:13:12.000Z</time>
      </trkpt>
      <trkpt lat="45.12516" lon="6.10021">
        <ele>2422</ele>
        <time>2012-04-28T11:13:20.000Z</time>
      </trkpt>
      <trkpt lat="45.1251" lon="6.10015">
        <ele>2420.6000976562</ele>
        <time>2012-04-28T11:13:22.000Z</time>
      </trkpt>
      <trkpt lat="45.12495" lon="6.10001">
        <ele>2414.8000488281</ele>
        <time>2012-04-28T11:13:26.000Z</time>
      </trkpt>
      <trkpt lat="45.12482" lon="6.0999">
        <ele>2407.3999023438</ele>
        <time>2012-04-28T11:13:30.000Z</time>
      </trkpt>
      <trkpt lat="45.12448" lon="6.09968">
        <ele>2397</ele>
        <time>2012-04-28T11:13:36.000Z</time>
      </trkpt>
      <trkpt lat="45.12406" lon="6.09948">
        <ele>2386.1999511719</ele>
        <time>2012-04-28T11:13:41.000Z</time>
      </trkpt>
      <trkpt lat="45.1238" lon="6.0994">
        <ele>2379.1999511719</ele>
        <time>2012-04-28T11:13:45.000Z</time>
      </trkpt>
      <trkpt lat="45.12355" lon="6.09929">
        <ele>2373.6000976562</ele>
        <time>2012-04-28T11:13:50.000Z</time>
      </trkpt>
      <trkpt lat="45.12351" lon="6.09926">
        <ele>2373.1999511719</ele>
        <time>2012-04-28T11:13:51.000Z</time>
      </trkpt>
      <trkpt lat="45.1234" lon="6.09917">
        <ele>2371.3999023438</ele>
        <time>2012-04-28T11:13:53.000Z</time>
      </trkpt>
      <trkpt lat="45.12309" lon="6.09897">
        <ele>2364.1999511719</ele>
        <time>2012-04-28T11:13:57.000Z</time>
      </trkpt>
      <trkpt lat="45.12293" lon="6.09884">
        <ele>2360</ele>
        <time>2012-04-28T11:13:59.000Z</time>
      </trkpt>
      <trkpt lat="45.12273" lon="6.09863">
        <ele>2356.6000976562</ele>
        <time>2012-04-28T11:14:02.000Z</time>
      </trkpt>
      <trkpt lat="45.12268" lon="6.09835">
        <ele>2351</ele>
        <time>2012-04-28T11:14:06.000Z</time>
      </trkpt>
      <trkpt lat="45.1228" lon="6.09831">
        <ele>2345.8000488281</ele>
        <time>2012-04-28T11:14:09.000Z</time>
      </trkpt>
      <trkpt lat="45.12298" lon="6.09821">
        <ele>2341.8000488281</ele>
        <time>2012-04-28T11:14:12.000Z</time>
      </trkpt>
      <trkpt lat="45.12323" lon="6.09807">
        <ele>2335.8000488281</ele>
        <time>2012-04-28T11:14:16.000Z</time>
      </trkpt>
      <trkpt lat="45.12352" lon="6.09805">
        <ele>2327.1999511719</ele>
        <time>2012-04-28T11:14:20.000Z</time>
      </trkpt>
      <trkpt lat="45.12395" lon="6.09778">
        <ele>2316.6000976562</ele>
        <time>2012-04-28T11:14:26.000Z</time>
      </trkpt>
      <trkpt lat="45.12408" lon="6.09756">
        <ele>2311</ele>
        <time>2012-04-28T11:14:29.000Z</time>
      </trkpt>
      <trkpt lat="45.12427" lon="6.09717">
        <ele>2307</ele>
        <time>2012-04-28T11:14:33.000Z</time>
      </trkpt>
      <trkpt lat="45.12445" lon="6.09691">
        <ele>2304.6000976562</ele>
        <time>2012-04-28T11:14:36.000Z</time>
      </trkpt>
      <trkpt lat="45.12468" lon="6.09677">
        <ele>2301</ele>
        <time>2012-04-28T11:14:39.000Z</time>
      </trkpt>
      <trkpt lat="45.12501" lon="6.09671">
        <ele>2294.8000488281</ele>
        <time>2012-04-28T11:14:43.000Z</time>
      </trkpt>
      <trkpt lat="45.12522" lon="6.09685">
        <ele>2289.3999023438</ele>
        <time>2012-04-28T11:14:47.000Z</time>
      </trkpt>
      <trkpt lat="45.12546" lon="6.09685">
        <ele>2284.8000488281</ele>
        <time>2012-04-28T11:14:51.000Z</time>
      </trkpt>
      <trkpt lat="45.12553" lon="6.09691">
        <ele>2281.1999511719</ele>
        <time>2012-04-28T11:14:55.000Z</time>
      </trkpt>
      <trkpt lat="45.12551" lon="6.09693">
        <ele>2281.1999511719</ele>
        <time>2012-04-28T11:14:57.000Z</time>
      </trkpt>
      <trkpt lat="45.12558" lon="6.09692">
        <ele>2279.8000488281</ele>
        <time>2012-04-28T11:15:11.000Z</time>
      </trkpt>
      <trkpt lat="45.12571" lon="6.09685">
        <ele>2276.8000488281</ele>
        <time>2012-04-28T11:15:15.000Z</time>
      </trkpt>
      <trkpt lat="45.1259" lon="6.09683">
        <ele>2271.1999511719</ele>
        <time>2012-04-28T11:15:19.000Z</time>
      </trkpt>
      <trkpt lat="45.12603" lon="6.09678">
        <ele>2267</ele>
        <time>2012-04-28T11:15:22.000Z</time>
      </trkpt>
      <trkpt lat="45.12613" lon="6.09674">
        <ele>2263.6000976562</ele>
        <time>2012-04-28T11:15:24.000Z</time>
      </trkpt>
      <trkpt lat="45.1264" lon="6.09667">
        <ele>2257</ele>
        <time>2012-04-28T11:15:28.000Z</time>
      </trkpt>
      <trkpt lat="45.12643" lon="6.09664">
        <ele>2255.3999023438</ele>
        <time>2012-04-28T11:15:29.000Z</time>
      </trkpt>
      <trkpt lat="45.12652" lon="6.0965">
        <ele>2250.1999511719</ele>
        <time>2012-04-28T11:15:32.000Z</time>
      </trkpt>
      <trkpt lat="45.12657" lon="6.09633">
        <ele>2245.8000488281</ele>
        <time>2012-04-28T11:15:34.000Z</time>
      </trkpt>
      <trkpt lat="45.12669" lon="6.09629">
        <ele>2242.6000976562</ele>
        <time>2012-04-28T11:15:36.000Z</time>
      </trkpt>
      <trkpt lat="45.12688" lon="6.09623">
        <ele>2232.1999511719</ele>
        <time>2012-04-28T11:15:40.000Z</time>
      </trkpt>
      <trkpt lat="45.1271" lon="6.09598">
        <ele>2222.8000488281</ele>
        <time>2012-04-28T11:15:45.000Z</time>
      </trkpt>
      <trkpt lat="45.12717" lon="6.09601">
        <ele>2221.6000976562</ele>
        <time>2012-04-28T11:15:46.000Z</time>
      </trkpt>
      <trkpt lat="45.12748" lon="6.09594">
        <ele>2211.6000976562</ele>
        <time>2012-04-28T11:15:51.000Z</time>
      </trkpt>
      <trkpt lat="45.12771" lon="6.09581">
        <ele>2200.6000976562</ele>
        <time>2012-04-28T11:15:55.000Z</time>
      </trkpt>
      <trkpt lat="45.12778" lon="6.09567">
        <ele>2196.3999023438</ele>
        <time>2012-04-28T11:15:57.000Z</time>
      </trkpt>
      <trkpt lat="45.12792" lon="6.09565">
        <ele>2190.6000976562</ele>
        <time>2012-04-28T11:15:59.000Z</time>
      </trkpt>
      <trkpt lat="45.12811" lon="6.09537">
        <ele>2179.6000976562</ele>
        <time>2012-04-28T11:16:04.000Z</time>
      </trkpt>
      <trkpt lat="45.12818" lon="6.09534">
        <ele>2177.3999023438</ele>
        <time>2012-04-28T11:16:05.000Z</time>
      </trkpt>
      <trkpt lat="45.12828" lon="6.09532">
        <ele>2171.6000976562</ele>
        <time>2012-04-28T11:16:09.000Z</time>
      </trkpt>
      <trkpt lat="45.12827" lon="6.09527">
        <ele>2170.8000488281</ele>
        <time>2012-04-28T11:16:11.000Z</time>
      </trkpt>
      <trkpt lat="45.12823" lon="6.09521">
        <ele>2170.6000976562</ele>
        <time>2012-04-28T11:16:16.000Z</time>
      </trkpt>
      <trkpt lat="45.12836" lon="6.09494">
        <ele>2167</ele>
        <time>2012-04-28T11:16:31.000Z</time>
      </trkpt>
      <trkpt lat="45.1284" lon="6.09486">
        <ele>2163.1999511719</ele>
        <time>2012-04-28T11:16:33.000Z</time>
      </trkpt>
      <trkpt lat="45.12865" lon="6.09462">
        <ele>2153.6000976562</ele>
        <time>2012-04-28T11:16:38.000Z</time>
      </trkpt>
      <trkpt lat="45.12882" lon="6.09449">
        <ele>2146.3999023438</ele>
        <time>2012-04-28T11:16:41.000Z</time>
      </trkpt>
      <trkpt lat="45.12907" lon="6.09427">
        <ele>2136</ele>
        <time>2012-04-28T11:16:45.000Z</time>
      </trkpt>
      <trkpt lat="45.12915" lon="6.09417">
        <ele>2132.1999511719</ele>
        <time>2012-04-28T11:16:46.000Z</time>
      </trkpt>
      <trkpt lat="45.12948" lon="6.09404">
        <ele>2120.8000488281</ele>
        <time>2012-04-28T11:16:50.000Z</time>
      </trkpt>
      <trkpt lat="45.12966" lon="6.09409">
        <ele>2117.6000976562</ele>
        <time>2012-04-28T11:16:52.000Z</time>
      </trkpt>
      <trkpt lat="45.13014" lon="6.09427">
        <ele>2108</ele>
        <time>2012-04-28T11:16:58.000Z</time>
      </trkpt>
      <trkpt lat="45.1305" lon="6.09433">
        <ele>2100</ele>
        <time>2012-04-28T11:17:03.000Z</time>
      </trkpt>
      <trkpt lat="45.13102" lon="6.09441">
        <ele>2090.3999023438</ele>
        <time>2012-04-28T11:17:10.000Z</time>
      </trkpt>
      <trkpt lat="45.13131" lon="6.09441">
        <ele>2087.1999511719</ele>
        <time>2012-04-28T11:17:15.000Z</time>
      </trkpt>
      <trkpt lat="45.13157" lon="6.09446">
        <ele>2084.1999511719</ele>
        <time>2012-04-28T11:17:21.000Z</time>
      </trkpt>
      <trkpt lat="45.13175" lon="6.09447">
        <ele>2082.1999511719</ele>
        <time>2012-04-28T11:17:26.000Z</time>
      </trkpt>
      <trkpt lat="45.13192" lon="6.09448">
        <ele>2080.3999023438</ele>
        <time>2012-04-28T11:17:30.000Z</time>
      </trkpt>
      <trkpt lat="45.1321" lon="6.09453">
        <ele>2078.6000976562</ele>
        <time>2012-04-28T11:17:35.000Z</time>
      </trkpt>
      <trkpt lat="45.13231" lon="6.09454">
        <ele>2076.3999023438</ele>
        <time>2012-04-28T11:17:40.000Z</time>
      </trkpt>
      <trkpt lat="45.13273" lon="6.09456">
        <ele>2070.6000976562</ele>
        <time>2012-04-28T11:17:49.000Z</time>
      </trkpt>
      <trkpt lat="45.13297" lon="6.09457">
        <ele>2068.3999023438</ele>
        <time>2012-04-28T11:17:55.000Z</time>
      </trkpt>
      <trkpt lat="45.1332" lon="6.09458">
        <ele>2066.8000488281</ele>
        <time>2012-04-28T11:18:01.000Z</time>
      </trkpt>
      <trkpt lat="45.13339" lon="6.09459">
        <ele>2065.3999023438</ele>
        <time>2012-04-28T11:18:07.000Z</time>
      </trkpt>
      <trkpt lat="45.13364" lon="6.09459">
        <ele>2062.3999023438</ele>
        <time>2012-04-28T11:18:14.000Z</time>
      </trkpt>
      <trkpt lat="45.13367" lon="6.0946">
        <ele>2062.1999511719</ele>
        <time>2012-04-28T11:18:15.000Z</time>
      </trkpt>
      <trkpt lat="45.13377" lon="6.09461">
        <ele>2060.8000488281</ele>
        <time>2012-04-28T11:18:18.000Z</time>
      </trkpt>
      <trkpt lat="45.13398" lon="6.09463">
        <ele>2058.8000488281</ele>
        <time>2012-04-28T11:18:24.000Z</time>
      </trkpt>
      <trkpt lat="45.13419" lon="6.09463">
        <ele>2057.8000488281</ele>
        <time>2012-04-28T11:18:30.000Z</time>
      </trkpt>
      <trkpt lat="45.13438" lon="6.09466">
        <ele>2057.1999511719</ele>
        <time>2012-04-28T11:18:36.000Z</time>
      </trkpt>
      <trkpt lat="45.13456" lon="6.09468">
        <ele>2056.6000976562</ele>
        <time>2012-04-28T11:18:42.000Z</time>
      </trkpt>
      <trkpt lat="45.13469" lon="6.09471">
        <ele>2057</ele>
        <time>2012-04-28T11:18:48.000Z</time>
      </trkpt>
      <trkpt lat="45.13473" lon="6.09472">
        <ele>2057.3999023438</ele>
        <time>2012-04-28T11:18:53.000Z</time>
      </trkpt>
      <trkpt lat="45.13483" lon="6.09473">
        <ele>2058</ele>
        <time>2012-04-28T11:20:20.000Z</time>
      </trkpt>
      <trkpt lat="45.13496" lon="6.09477">
        <ele>2058</ele>
        <time>2012-04-28T11:20:26.000Z</time>
      </trkpt>
      <trkpt lat="45.13511" lon="6.09489">
        <ele>2056.6000976562</ele>
        <time>2012-04-28T11:20:33.000Z</time>
      </trkpt>
      <trkpt lat="45.1353" lon="6.09496">
        <ele>2056</ele>
        <time>2012-04-28T11:20:40.000Z</time>
      </trkpt>
      <trkpt lat="45.13546" lon="6.09503">
        <ele>2054.8000488281</ele>
        <time>2012-04-28T11:20:47.000Z</time>
      </trkpt>
      <trkpt lat="45.1356" lon="6.09505">
        <ele>2053.8000488281</ele>
        <time>2012-04-28T11:20:53.000Z</time>
      </trkpt>
      <trkpt lat="45.13573" lon="6.09501">
        <ele>2053</ele>
        <time>2012-04-28T11:20:58.000Z</time>
      </trkpt>
      <trkpt lat="45.13593" lon="6.09498">
        <ele>2052</ele>
        <time>2012-04-28T11:21:05.000Z</time>
      </trkpt>
      <trkpt lat="45.13614" lon="6.09495">
        <ele>2050</ele>
        <time>2012-04-28T11:21:12.000Z</time>
      </trkpt>
      <trkpt lat="45.13625" lon="6.09493">
        <ele>2049.1999511719</ele>
        <time>2012-04-28T11:21:17.000Z</time>
      </trkpt>
      <trkpt lat="45.13636" lon="6.09492">
        <ele>2048.8000488281</ele>
        <time>2012-04-28T11:21:22.000Z</time>
      </trkpt>
      <trkpt lat="45.13657" lon="6.09494">
        <ele>2047.5999755859</ele>
        <time>2012-04-28T11:21:30.000Z</time>
      </trkpt>
      <trkpt lat="45.13679" lon="6.095">
        <ele>2045</ele>
        <time>2012-04-28T11:21:36.000Z</time>
      </trkpt>
      <trkpt lat="45.1369" lon="6.09501">
        <ele>2043.1999511719</ele>
        <time>2012-04-28T11:21:38.000Z</time>
      </trkpt>
      <trkpt lat="45.13716" lon="6.09497">
        <ele>2038.5999755859</ele>
        <time>2012-04-28T11:21:42.000Z</time>
      </trkpt>
      <trkpt lat="45.13749" lon="6.0949">
        <ele>2033.1999511719</ele>
        <time>2012-04-28T11:21:46.000Z</time>
      </trkpt>
      <trkpt lat="45.13759" lon="6.09485">
        <ele>2031.1999511719</ele>
        <time>2012-04-28T11:21:47.000Z</time>
      </trkpt>
      <trkpt lat="45.13814" lon="6.09448">
        <ele>2018.8000488281</ele>
        <time>2012-04-28T11:21:53.000Z</time>
      </trkpt>
      <trkpt lat="45.13827" lon="6.09433">
        <ele>2017.4000244141</ele>
        <time>2012-04-28T11:21:55.000Z</time>
      </trkpt>
      <trkpt lat="45.13851" lon="6.09401">
        <ele>2016</ele>
        <time>2012-04-28T11:22:00.000Z</time>
      </trkpt>
      <trkpt lat="45.13861" lon="6.09386">
        <ele>2015.5999755859</ele>
        <time>2012-04-28T11:22:05.000Z</time>
      </trkpt>
      <trkpt lat="45.13862" lon="6.09384">
        <ele>2015.1999511719</ele>
        <time>2012-04-28T11:22:09.000Z</time>
      </trkpt>
      <trkpt lat="45.13866" lon="6.09381">
        <ele>2015.4000244141</ele>
        <time>2012-04-28T11:22:12.000Z</time>
      </trkpt>
      <trkpt lat="45.1387" lon="6.09377">
        <ele>2015.4000244141</ele>
        <time>2012-04-28T11:22:16.000Z</time>
      </trkpt>
      <trkpt lat="45.13871" lon="6.09374">
        <ele>2015.8000488281</ele>
        <time>2012-04-28T11:22:18.000Z</time>
      </trkpt>
      <trkpt lat="45.13876" lon="6.09363">
        <ele>2015.4000244141</ele>
        <time>2012-04-28T11:22:23.000Z</time>
      </trkpt>
      <trkpt lat="45.13879" lon="6.09358">
        <ele>2015.4000244141</ele>
        <time>2012-04-28T11:22:25.000Z</time>
      </trkpt>
      <trkpt lat="45.13884" lon="6.09332">
        <ele>2013.8000488281</ele>
        <time>2012-04-28T11:22:32.000Z</time>
      </trkpt>
      <trkpt lat="45.13885" lon="6.09298">
        <ele>2010.8000488281</ele>
        <time>2012-04-28T11:22:39.000Z</time>
      </trkpt>
      <trkpt lat="45.13885" lon="6.09279">
        <ele>2009.8000488281</ele>
        <time>2012-04-28T11:22:44.000Z</time>
      </trkpt>
      <trkpt lat="45.13886" lon="6.09257">
        <ele>2009</ele>
        <time>2012-04-28T11:22:50.000Z</time>
      </trkpt>
      <trkpt lat="45.1388" lon="6.09235">
        <ele>2008.4000244141</ele>
        <time>2012-04-28T11:22:56.000Z</time>
      </trkpt>
      <trkpt lat="45.13873" lon="6.09216">
        <ele>2006.1999511719</ele>
        <time>2012-04-28T11:23:00.000Z</time>
      </trkpt>
      <trkpt lat="45.1386" lon="6.0919">
        <ele>2003.5999755859</ele>
        <time>2012-04-28T11:23:04.000Z</time>
      </trkpt>
      <trkpt lat="45.13839" lon="6.09152">
        <ele>1995.5999755859</ele>
        <time>2012-04-28T11:23:08.000Z</time>
      </trkpt>
      <trkpt lat="45.13822" lon="6.09119">
        <ele>1990.8000488281</ele>
        <time>2012-04-28T11:23:11.000Z</time>
      </trkpt>
      <trkpt lat="45.13804" lon="6.09082">
        <ele>1987.1999511719</ele>
        <time>2012-04-28T11:23:15.000Z</time>
      </trkpt>
      <trkpt lat="45.13778" lon="6.09026">
        <ele>1979.4000244141</ele>
        <time>2012-04-28T11:23:19.000Z</time>
      </trkpt>
      <trkpt lat="45.13761" lon="6.08996">
        <ele>1970.5999755859</ele>
        <time>2012-04-28T11:23:21.000Z</time>
      </trkpt>
      <trkpt lat="45.13742" lon="6.0897">
        <ele>1962</ele>
        <time>2012-04-28T11:23:23.000Z</time>
      </trkpt>
      <trkpt lat="45.13708" lon="6.08942">
        <ele>1952.5999755859</ele>
        <time>2012-04-28T11:23:27.000Z</time>
      </trkpt>
      <trkpt lat="45.13698" lon="6.08919">
        <ele>1949.4000244141</ele>
        <time>2012-04-28T11:23:30.000Z</time>
      </trkpt>
      <trkpt lat="45.13699" lon="6.0891">
        <ele>1947.5999755859</ele>
        <time>2012-04-28T11:23:31.000Z</time>
      </trkpt>
      <trkpt lat="45.13695" lon="6.08878">
        <ele>1941.1999511719</ele>
        <time>2012-04-28T11:23:35.000Z</time>
      </trkpt>
      <trkpt lat="45.13686" lon="6.08841">
        <ele>1936.1999511719</ele>
        <time>2012-04-28T11:23:39.000Z</time>
      </trkpt>
      <trkpt lat="45.13686" lon="6.0884">
        <ele>1934.5999755859</ele>
        <time>2012-04-28T11:23:42.000Z</time>
      </trkpt>
      <trkpt lat="45.13687" lon="6.08842">
        <ele>1934.5999755859</ele>
        <time>2012-04-28T11:23:45.000Z</time>
      </trkpt>
      <trkpt lat="45.13686" lon="6.08829">
        <ele>1933.1999511719</ele>
        <time>2012-04-28T11:23:49.000Z</time>
      </trkpt>
      <trkpt lat="45.13682" lon="6.08804">
        <ele>1928.4000244141</ele>
        <time>2012-04-28T11:23:52.000Z</time>
      </trkpt>
      <trkpt lat="45.13676" lon="6.0878">
        <ele>1924.1999511719</ele>
        <time>2012-04-28T11:23:55.000Z</time>
      </trkpt>
      <trkpt lat="45.13673" lon="6.08733">
        <ele>1916.8000488281</ele>
        <time>2012-04-28T11:24:00.000Z</time>
      </trkpt>
      <trkpt lat="45.13669" lon="6.08726">
        <ele>1914.4000244141</ele>
        <time>2012-04-28T11:24:01.000Z</time>
      </trkpt>
      <trkpt lat="45.13662" lon="6.08709">
        <ele>1908.1999511719</ele>
        <time>2012-04-28T11:24:03.000Z</time>
      </trkpt>
      <trkpt lat="45.13635" lon="6.0868">
        <ele>1898.8000488281</ele>
        <time>2012-04-28T11:24:07.000Z</time>
      </trkpt>
      <trkpt lat="45.13586" lon="6.08656">
        <ele>1889.8000488281</ele>
        <time>2012-04-28T11:24:13.000Z</time>
      </trkpt>
      <trkpt lat="45.13534" lon="6.0863">
        <ele>1884.4000244141</ele>
        <time>2012-04-28T11:24:20.000Z</time>
      </trkpt>
      <trkpt lat="45.13519" lon="6.08618">
        <ele>1882</ele>
        <time>2012-04-28T11:24:22.000Z</time>
      </trkpt>
      <trkpt lat="45.13504" lon="6.08608">
        <ele>1879.5999755859</ele>
        <time>2012-04-28T11:24:24.000Z</time>
      </trkpt>
      <trkpt lat="45.13491" lon="6.08594">
        <ele>1877</ele>
        <time>2012-04-28T11:24:26.000Z</time>
      </trkpt>
      <trkpt lat="45.13463" lon="6.08568">
        <ele>1869.5999755859</ele>
        <time>2012-04-28T11:24:30.000Z</time>
      </trkpt>
      <trkpt lat="45.13445" lon="6.08546">
        <ele>1861.1999511719</ele>
        <time>2012-04-28T11:24:35.000Z</time>
      </trkpt>
      <trkpt lat="45.1344" lon="6.0854">
        <ele>1859.4000244141</ele>
        <time>2012-04-28T11:24:36.000Z</time>
      </trkpt>
      <trkpt lat="45.13406" lon="6.08514">
        <ele>1848.4000244141</ele>
        <time>2012-04-28T11:24:42.000Z</time>
      </trkpt>
      <trkpt lat="45.13375" lon="6.0848">
        <ele>1836.1999511719</ele>
        <time>2012-04-28T11:24:47.000Z</time>
      </trkpt>
      <trkpt lat="45.13369" lon="6.08475">
        <ele>1834</ele>
        <time>2012-04-28T11:24:48.000Z</time>
      </trkpt>
      <trkpt lat="45.13345" lon="6.0846">
        <ele>1825.5999755859</ele>
        <time>2012-04-28T11:24:52.000Z</time>
      </trkpt>
      <trkpt lat="45.13316" lon="6.08432">
        <ele>1814.1999511719</ele>
        <time>2012-04-28T11:24:57.000Z</time>
      </trkpt>
      <trkpt lat="45.13297" lon="6.08414">
        <ele>1809.4000244141</ele>
        <time>2012-04-28T11:24:59.000Z</time>
      </trkpt>
      <trkpt lat="45.1326" lon="6.08384">
        <ele>1794.5999755859</ele>
        <time>2012-04-28T11:25:03.000Z</time>
      </trkpt>
      <trkpt lat="45.13234" lon="6.08362">
        <ele>1786.1999511719</ele>
        <time>2012-04-28T11:25:06.000Z</time>
      </trkpt>
      <trkpt lat="45.13185" lon="6.08322">
        <ele>1769.5999755859</ele>
        <time>2012-04-28T11:25:11.000Z</time>
      </trkpt>
      <trkpt lat="45.13176" lon="6.08314">
        <ele>1767.1999511719</ele>
        <time>2012-04-28T11:25:12.000Z</time>
      </trkpt>
      <trkpt lat="45.13149" lon="6.08284">
        <ele>1760.5999755859</ele>
        <time>2012-04-28T11:25:16.000Z</time>
      </trkpt>
      <trkpt lat="45.13142" lon="6.08285">
        <ele>1758</ele>
        <time>2012-04-28T11:25:19.000Z</time>
      </trkpt>
      <trkpt lat="45.13142" lon="6.08288">
        <ele>1758</ele>
        <time>2012-04-28T11:25:24.000Z</time>
      </trkpt>
      <trkpt lat="45.13143" lon="6.08289">
        <ele>1757.5999755859</ele>
        <time>2012-04-28T11:25:27.000Z</time>
      </trkpt>
      <trkpt lat="45.13128" lon="6.08273">
        <ele>1753</ele>
        <time>2012-04-28T11:25:35.000Z</time>
      </trkpt>
      <trkpt lat="45.13109" lon="6.0825">
        <ele>1747.4000244141</ele>
        <time>2012-04-28T11:25:39.000Z</time>
      </trkpt>
      <trkpt lat="45.13097" lon="6.08245">
        <ele>1744.5999755859</ele>
        <time>2012-04-28T11:25:41.000Z</time>
      </trkpt>
      <trkpt lat="45.13069" lon="6.08224">
        <ele>1737.1999511719</ele>
        <time>2012-04-28T11:25:46.000Z</time>
      </trkpt>
      <trkpt lat="45.13052" lon="6.08216">
        <ele>1732.4000244141</ele>
        <time>2012-04-28T11:25:49.000Z</time>
      </trkpt>
      <trkpt lat="45.13022" lon="6.08202">
        <ele>1724</ele>
        <time>2012-04-28T11:25:53.000Z</time>
      </trkpt>
      <trkpt lat="45.13001" lon="6.08192">
        <ele>1718.4000244141</ele>
        <time>2012-04-28T11:25:56.000Z</time>
      </trkpt>
      <trkpt lat="45.12971" lon="6.0818">
        <ele>1710</ele>
        <time>2012-04-28T11:26:00.000Z</time>
      </trkpt>
      <trkpt lat="45.12939" lon="6.08159">
        <ele>1702</ele>
        <time>2012-04-28T11:26:04.000Z</time>
      </trkpt>
      <trkpt lat="45.12931" lon="6.08153">
        <ele>1699.4000244141</ele>
        <time>2012-04-28T11:26:05.000Z</time>
      </trkpt>
      <trkpt lat="45.12916" lon="6.0814">
        <ele>1695</ele>
        <time>2012-04-28T11:26:07.000Z</time>
      </trkpt>
      <trkpt lat="45.12895" lon="6.08124">
        <ele>1687.1999511719</ele>
        <time>2012-04-28T11:26:11.000Z</time>
      </trkpt>
      <trkpt lat="45.12881" lon="6.0812">
        <ele>1683.1999511719</ele>
        <time>2012-04-28T11:26:14.000Z</time>
      </trkpt>
      <trkpt lat="45.12883" lon="6.0812">
        <ele>1682.8000488281</ele>
        <time>2012-04-28T11:26:16.000Z</time>
      </trkpt>
      <trkpt lat="45.12883" lon="6.08123">
        <ele>1682.8000488281</ele>
        <time>2012-04-28T11:26:17.000Z</time>
      </trkpt>
      <trkpt lat="45.12873" lon="6.08108">
        <ele>1680.8000488281</ele>
        <time>2012-04-28T11:26:23.000Z</time>
      </trkpt>
      <trkpt lat="45.12864" lon="6.081">
        <ele>1678.4000244141</ele>
        <time>2012-04-28T11:26:25.000Z</time>
      </trkpt>
      <trkpt lat="45.12842" lon="6.08092">
        <ele>1674.1999511719</ele>
        <time>2012-04-28T11:26:28.000Z</time>
      </trkpt>
      <trkpt lat="45.12808" lon="6.08081">
        <ele>1665.1999511719</ele>
        <time>2012-04-28T11:26:32.000Z</time>
      </trkpt>
      <trkpt lat="45.12758" lon="6.08063">
        <ele>1654.5999755859</ele>
        <time>2012-04-28T11:26:37.000Z</time>
      </trkpt>
      <trkpt lat="45.12739" lon="6.08053">
        <ele>1650.8000488281</ele>
        <time>2012-04-28T11:26:39.000Z</time>
      </trkpt>
      <trkpt lat="45.1272" lon="6.08046">
        <ele>1645.5999755859</ele>
        <time>2012-04-28T11:26:42.000Z</time>
      </trkpt>
      <trkpt lat="45.12698" lon="6.0802">
        <ele>1638.8000488281</ele>
        <time>2012-04-28T11:26:47.000Z</time>
      </trkpt>
      <trkpt lat="45.12693" lon="6.08007">
        <ele>1636.4000244141</ele>
        <time>2012-04-28T11:26:49.000Z</time>
      </trkpt>
      <trkpt lat="45.12677" lon="6.07977">
        <ele>1628.4000244141</ele>
        <time>2012-04-28T11:26:54.000Z</time>
      </trkpt>
      <trkpt lat="45.12675" lon="6.07985">
        <ele>1624.8000488281</ele>
        <time>2012-04-28T11:26:58.000Z</time>
      </trkpt>
      <trkpt lat="45.12677" lon="6.07985">
        <ele>1625</ele>
        <time>2012-04-28T11:27:03.000Z</time>
      </trkpt>
      <trkpt lat="45.12681" lon="6.0798">
        <ele>1624.1999511719</ele>
        <time>2012-04-28T11:27:07.000Z</time>
      </trkpt>
      <trkpt lat="45.1268" lon="6.07963">
        <ele>1622</ele>
        <time>2012-04-28T11:27:12.000Z</time>
      </trkpt>
      <trkpt lat="45.12678" lon="6.07959">
        <ele>1621</ele>
        <time>2012-04-28T11:27:13.000Z</time>
      </trkpt>
      <trkpt lat="45.12669" lon="6.07943">
        <ele>1618.4000244141</ele>
        <time>2012-04-28T11:27:16.000Z</time>
      </trkpt>
      <trkpt lat="45.12651" lon="6.07906">
        <ele>1610.8000488281</ele>
        <time>2012-04-28T11:27:21.000Z</time>
      </trkpt>
      <trkpt lat="45.12645" lon="6.07889">
        <ele>1607.8000488281</ele>
        <time>2012-04-28T11:27:23.000Z</time>
      </trkpt>
      <trkpt lat="45.12631" lon="6.07849">
        <ele>1599.1999511719</ele>
        <time>2012-04-28T11:27:27.000Z</time>
      </trkpt>
      <trkpt lat="45.12608" lon="6.07799">
        <ele>1588.1999511719</ele>
        <time>2012-04-28T11:27:31.000Z</time>
      </trkpt>
      <trkpt lat="45.12604" lon="6.07766">
        <ele>1581.8000488281</ele>
        <time>2012-04-28T11:27:34.000Z</time>
      </trkpt>
      <trkpt lat="45.12592" lon="6.07744">
        <ele>1575.1999511719</ele>
        <time>2012-04-28T11:27:37.000Z</time>
      </trkpt>
      <trkpt lat="45.12575" lon="6.0772">
        <ele>1566.4000244141</ele>
        <time>2012-04-28T11:27:42.000Z</time>
      </trkpt>
      <trkpt lat="45.12571" lon="6.07715">
        <ele>1564.8000488281</ele>
        <time>2012-04-28T11:27:43.000Z</time>
      </trkpt>
      <trkpt lat="45.12546" lon="6.07681">
        <ele>1558</ele>
        <time>2012-04-28T11:27:48.000Z</time>
      </trkpt>
      <trkpt lat="45.12519" lon="6.0764">
        <ele>1551.4000244141</ele>
        <time>2012-04-28T11:27:52.000Z</time>
      </trkpt>
      <trkpt lat="45.12496" lon="6.07616">
        <ele>1547</ele>
        <time>2012-04-28T11:27:56.000Z</time>
      </trkpt>
      <trkpt lat="45.12487" lon="6.0761">
        <ele>1544.5999755859</ele>
        <time>2012-04-28T11:27:59.000Z</time>
      </trkpt>
      <trkpt lat="45.12467" lon="6.07585">
        <ele>1539.4000244141</ele>
        <time>2012-04-28T11:28:05.000Z</time>
      </trkpt>
      <trkpt lat="45.12464" lon="6.07579">
        <ele>1537.8000488281</ele>
        <time>2012-04-28T11:28:07.000Z</time>
      </trkpt>
      <trkpt lat="45.12457" lon="6.07556">
        <ele>1533.1999511719</ele>
        <time>2012-04-28T11:28:11.000Z</time>
      </trkpt>
      <trkpt lat="45.12451" lon="6.07539">
        <ele>1529.8000488281</ele>
        <time>2012-04-28T11:28:13.000Z</time>
      </trkpt>
      <trkpt lat="45.12435" lon="6.07496">
        <ele>1519.5999755859</ele>
        <time>2012-04-28T11:28:18.000Z</time>
      </trkpt>
      <trkpt lat="45.12411" lon="6.07463">
        <ele>1511.4000244141</ele>
        <time>2012-04-28T11:28:22.000Z</time>
      </trkpt>
      <trkpt lat="45.12381" lon="6.07432">
        <ele>1505.4000244141</ele>
        <time>2012-04-28T11:28:26.000Z</time>
      </trkpt>
      <trkpt lat="45.12375" lon="6.07426">
        <ele>1504.8000488281</ele>
        <time>2012-04-28T11:28:27.000Z</time>
      </trkpt>
      <trkpt lat="45.12354" lon="6.07397">
        <ele>1503.5999755859</ele>
        <time>2012-04-28T11:28:31.000Z</time>
      </trkpt>
      <trkpt lat="45.12348" lon="6.07362">
        <ele>1496.1999511719</ele>
        <time>2012-04-28T11:28:36.000Z</time>
      </trkpt>
      <trkpt lat="45.12344" lon="6.07344">
        <ele>1492.4000244141</ele>
        <time>2012-04-28T11:28:38.000Z</time>
      </trkpt>
      <trkpt lat="45.12329" lon="6.07313">
        <ele>1486.8000488281</ele>
        <time>2012-04-28T11:28:41.000Z</time>
      </trkpt>
      <trkpt lat="45.12302" lon="6.07288">
        <ele>1482.1999511719</ele>
        <time>2012-04-28T11:28:45.000Z</time>
      </trkpt>
      <trkpt lat="45.12294" lon="6.07268">
        <ele>1480.1999511719</ele>
        <time>2012-04-28T11:28:49.000Z</time>
      </trkpt>
      <trkpt lat="45.12295" lon="6.07243">
        <ele>1474.8000488281</ele>
        <time>2012-04-28T11:28:52.000Z</time>
      </trkpt>
      <trkpt lat="45.12278" lon="6.07217">
        <ele>1470.4000244141</ele>
        <time>2012-04-28T11:28:55.000Z</time>
      </trkpt>
      <trkpt lat="45.12273" lon="6.07213">
        <ele>1469.8000488281</ele>
        <time>2012-04-28T11:28:58.000Z</time>
      </trkpt>
      <trkpt lat="45.12274" lon="6.07215">
        <ele>1470</ele>
        <time>2012-04-28T11:29:00.000Z</time>
      </trkpt>
      <trkpt lat="45.12287" lon="6.07199">
        <ele>1466.1999511719</ele>
        <time>2012-04-28T11:29:19.000Z</time>
      </trkpt>
      <trkpt lat="45.1231" lon="6.07175">
        <ele>1457.8000488281</ele>
        <time>2012-04-28T11:29:25.000Z</time>
      </trkpt>
      <trkpt lat="45.12315" lon="6.07163">
        <ele>1453.8000488281</ele>
        <time>2012-04-28T11:29:27.000Z</time>
      </trkpt>
      <trkpt lat="45.12322" lon="6.07156">
        <ele>1451</ele>
        <time>2012-04-28T11:29:29.000Z</time>
      </trkpt>
      <trkpt lat="45.12337" lon="6.07135">
        <ele>1443.8000488281</ele>
        <time>2012-04-28T11:29:33.000Z</time>
      </trkpt>
      <trkpt lat="45.12357" lon="6.07117">
        <ele>1435.1999511719</ele>
        <time>2012-04-28T11:29:37.000Z</time>
      </trkpt>
      <trkpt lat="45.12377" lon="6.07098">
        <ele>1428.1999511719</ele>
        <time>2012-04-28T11:29:41.000Z</time>
      </trkpt>
      <trkpt lat="45.12403" lon="6.07082">
        <ele>1418.5999755859</ele>
        <time>2012-04-28T11:29:46.000Z</time>
      </trkpt>
      <trkpt lat="45.12429" lon="6.07083">
        <ele>1410.1999511719</ele>
        <time>2012-04-28T11:29:51.000Z</time>
      </trkpt>
      <trkpt lat="45.12456" lon="6.07087">
        <ele>1403.8000488281</ele>
        <time>2012-04-28T11:29:56.000Z</time>
      </trkpt>
      <trkpt lat="45.12468" lon="6.07095">
        <ele>1401</ele>
        <time>2012-04-28T11:29:58.000Z</time>
      </trkpt>
      <trkpt lat="45.12489" lon="6.07109">
        <ele>1396.1999511719</ele>
        <time>2012-04-28T11:30:01.000Z</time>
      </trkpt>
      <trkpt lat="45.12493" lon="6.07115">
        <ele>1395.5999755859</ele>
        <time>2012-04-28T11:30:03.000Z</time>
      </trkpt>
      <trkpt lat="45.12487" lon="6.07109">
        <ele>1395.5999755859</ele>
        <time>2012-04-28T11:30:06.000Z</time>
      </trkpt>
      <trkpt lat="45.12486" lon="6.07108">
        <ele>1395.4000244141</ele>
        <time>2012-04-28T11:30:07.000Z</time>
      </trkpt>
      <trkpt lat="45.12484" lon="6.07099">
        <ele>1395.4000244141</ele>
        <time>2012-04-28T11:30:21.000Z</time>
      </trkpt>
      <trkpt lat="45.12483" lon="6.07102">
        <ele>1395.4000244141</ele>
        <time>2012-04-28T11:30:42.000Z</time>
      </trkpt>
      <trkpt lat="45.12481" lon="6.07099">
        <ele>1395.4000244141</ele>
        <time>2012-04-28T11:30:47.000Z</time>
      </trkpt>
      <trkpt lat="45.12485" lon="6.07104">
        <ele>1394.5999755859</ele>
        <time>2012-04-28T11:31:28.000Z</time>
      </trkpt>
      <trkpt lat="45.12487" lon="6.07108">
        <ele>1394.1999511719</ele>
        <time>2012-04-28T11:31:34.000Z</time>
      </trkpt>
      <trkpt lat="45.12495" lon="6.07126">
        <ele>1392.5999755859</ele>
        <time>2012-04-28T11:32:39.000Z</time>
      </trkpt>
      <trkpt lat="45.12501" lon="6.07132">
        <ele>1391.8000488281</ele>
        <time>2012-04-28T11:32:41.000Z</time>
      </trkpt>
      <trkpt lat="45.12526" lon="6.07153">
        <ele>1388.1999511719</ele>
        <time>2012-04-28T11:32:48.000Z</time>
      </trkpt>
      <trkpt lat="45.12546" lon="6.07163">
        <ele>1385.8000488281</ele>
        <time>2012-04-28T11:32:54.000Z</time>
      </trkpt>
      <trkpt lat="45.12565" lon="6.07166">
        <ele>1383.5999755859</ele>
        <time>2012-04-28T11:32:58.000Z</time>
      </trkpt>
      <trkpt lat="45.12584" lon="6.0717">
        <ele>1379.8000488281</ele>
        <time>2012-04-28T11:33:02.000Z</time>
      </trkpt>
      <trkpt lat="45.12623" lon="6.07167">
        <ele>1374.1999511719</ele>
        <time>2012-04-28T11:33:08.000Z</time>
      </trkpt>
      <trkpt lat="45.12646" lon="6.07176">
        <ele>1368.8000488281</ele>
        <time>2012-04-28T11:33:12.000Z</time>
      </trkpt>
      <trkpt lat="45.12669" lon="6.07157">
        <ele>1362</ele>
        <time>2012-04-28T11:33:18.000Z</time>
      </trkpt>
      <trkpt lat="45.1267" lon="6.07157">
        <ele>1360</ele>
        <time>2012-04-28T11:33:21.000Z</time>
      </trkpt>
      <trkpt lat="45.1268" lon="6.07154">
        <ele>1357.4000244141</ele>
        <time>2012-04-28T11:33:28.000Z</time>
      </trkpt>
      <trkpt lat="45.12695" lon="6.07145">
        <ele>1353.4000244141</ele>
        <time>2012-04-28T11:33:32.000Z</time>
      </trkpt>
      <trkpt lat="45.12699" lon="6.07142">
        <ele>1352.8000488281</ele>
        <time>2012-04-28T11:33:33.000Z</time>
      </trkpt>
      <trkpt lat="45.12707" lon="6.07125">
        <ele>1347.4000244141</ele>
        <time>2012-04-28T11:33:37.000Z</time>
      </trkpt>
      <trkpt lat="45.12707" lon="6.07124">
        <ele>1347.1999511719</ele>
        <time>2012-04-28T11:33:38.000Z</time>
      </trkpt>
      <trkpt lat="45.12709" lon="6.07124">
        <ele>1346.4000244141</ele>
        <time>2012-04-28T11:33:40.000Z</time>
      </trkpt>
      <trkpt lat="45.12711" lon="6.07122">
        <ele>1345</ele>
        <time>2012-04-28T11:33:42.000Z</time>
      </trkpt>
      <trkpt lat="45.1272" lon="6.07123">
        <ele>1342.8000488281</ele>
        <time>2012-04-28T11:33:46.000Z</time>
      </trkpt>
      <trkpt lat="45.12732" lon="6.07119">
        <ele>1341.1999511719</ele>
        <time>2012-04-28T11:34:02.000Z</time>
      </trkpt>
      <trkpt lat="45.12741" lon="6.07108">
        <ele>1340</ele>
        <time>2012-04-28T11:34:06.000Z</time>
      </trkpt>
      <trkpt lat="45.12743" lon="6.07104">
        <ele>1339.8000488281</ele>
        <time>2012-04-28T11:34:07.000Z</time>
      </trkpt>
      <trkpt lat="45.12752" lon="6.0708">
        <ele>1337.8000488281</ele>
        <time>2012-04-28T11:34:13.000Z</time>
      </trkpt>
      <trkpt lat="45.1276" lon="6.07062">
        <ele>1336.4000244141</ele>
        <time>2012-04-28T11:34:18.000Z</time>
      </trkpt>
      <trkpt lat="45.12765" lon="6.0705">
        <ele>1335.5999755859</ele>
        <time>2012-04-28T11:34:22.000Z</time>
      </trkpt>
      <trkpt lat="45.12769" lon="6.07045">
        <ele>1334</ele>
        <time>2012-04-28T11:34:27.000Z</time>
      </trkpt>
    </trkseg>
  </trk>
</gpx>